<?xml version='1.0' encoding='UTF-8'?><gpx version="1.1" creator="JPX - https://github.com/jenetics/jpx" xmlns="http://www.topografix.com/GPX/1/1"><trk><trkseg><trkpt lat="45.6907744" lon="8.7065727"><ele>289.0</ele><time>2026-05-04T07:01:36.344Z</time></trkpt><trkpt lat="45.690728" lon="8.7064696"><ele>289.0</ele><time>2026-05-04T07:01:39.344Z</time></trkpt><trkpt lat="45.6906848" lon="8.7063634"><ele>289.0</ele><time>2026-05-04T07:01:41.344Z</time></trkpt><trkpt lat="45.6906279" lon="8.7062211"><ele>289.0</ele><time>2026-05-04T07:01:43.343Z</time></trkpt><trkpt lat="45.6906011" lon="8.7061264"><ele>289.0</ele><time>2026-05-04T07:01:44.343Z</time></trkpt><trkpt lat="45.6905768" lon="8.7060269"><ele>289.0</ele><time>2026-05-04T07:01:45.344Z</time></trkpt><trkpt lat="45.6905643" lon="8.7059214"><ele>288.4</ele><time>2026-05-04T07:01:46.344Z</time></trkpt><trkpt lat="45.6905469" lon="8.705823"><ele>287.79999999999995</ele><time>2026-05-04T07:01:47.344Z</time></trkpt><trkpt lat="45.6905324" lon="8.70565"><ele>287.20000000000005</ele><time>2026-05-04T07:01:49.344Z</time></trkpt><trkpt lat="45.6905397" lon="8.7055145"><ele>286.6</ele><time>2026-05-04T07:01:51.343Z</time></trkpt><trkpt lat="45.6905837" lon="8.7053982"><ele>286.0</ele><time>2026-05-04T07:01:53.344Z</time></trkpt><trkpt lat="45.6906397" lon="8.7053151"><ele>285.2</ele><time>2026-05-04T07:01:55.343Z</time></trkpt><trkpt lat="45.6907026" lon="8.705226"><ele>284.40000000000003</ele><time>2026-05-04T07:01:57.344Z</time></trkpt><trkpt lat="45.6907606" lon="8.7051306"><ele>283.6</ele><time>2026-05-04T07:01:59.343Z</time></trkpt><trkpt lat="45.6908203" lon="8.7050369"><ele>282.8</ele><time>2026-05-04T07:02:01.344Z</time></trkpt><trkpt lat="45.6908863" lon="8.7049371"><ele>282.0</ele><time>2026-05-04T07:02:03.343Z</time></trkpt><trkpt lat="45.690952" lon="8.7048421"><ele>282.0</ele><time>2026-05-04T07:02:05.343Z</time></trkpt><trkpt lat="45.6910197" lon="8.704742"><ele>282.0</ele><time>2026-05-04T07:02:07.343Z</time></trkpt><trkpt lat="45.6910737" lon="8.7046866"><ele>282.0</ele><time>2026-05-04T07:02:12.343Z</time></trkpt><trkpt lat="45.691113" lon="8.7045846"><ele>282.0</ele><time>2026-05-04T07:02:28.342Z</time></trkpt><trkpt lat="45.6911631" lon="8.7045254"><ele>282.0</ele><time>2026-05-04T07:02:30.344Z</time></trkpt><trkpt lat="45.6912308" lon="8.7044531"><ele>282.0</ele><time>2026-05-04T07:02:32.343Z</time></trkpt><trkpt lat="45.6913067" lon="8.7043766"><ele>282.5</ele><time>2026-05-04T07:02:34.343Z</time></trkpt><trkpt lat="45.6913934" lon="8.7043021"><ele>283.0</ele><time>2026-05-04T07:02:36.344Z</time></trkpt><trkpt lat="45.6914733" lon="8.7042428"><ele>283.5</ele><time>2026-05-04T07:02:38.343Z</time></trkpt><trkpt lat="45.6915417" lon="8.7042004"><ele>284.0</ele><time>2026-05-04T07:02:40.343Z</time></trkpt><trkpt lat="45.691621" lon="8.7041379"><ele>284.5</ele><time>2026-05-04T07:02:43.344Z</time></trkpt><trkpt lat="45.6916824" lon="8.7041093"><ele>285.0</ele><time>2026-05-04T07:02:46.343Z</time></trkpt><trkpt lat="45.6917604" lon="8.7040597"><ele>285.0</ele><time>2026-05-04T07:03:06.344Z</time></trkpt><trkpt lat="45.6918506" lon="8.7040074"><ele>285.0</ele><time>2026-05-04T07:03:09.344Z</time></trkpt><trkpt lat="45.6919282" lon="8.7039533"><ele>285.0</ele><time>2026-05-04T07:03:11.344Z</time></trkpt><trkpt lat="45.6920136" lon="8.7039015"><ele>285.0</ele><time>2026-05-04T07:03:13.344Z</time></trkpt><trkpt lat="45.6921058" lon="8.7038504"><ele>285.0</ele><time>2026-05-04T07:03:15.343Z</time></trkpt><trkpt lat="45.6921974" lon="8.7038007"><ele>284.4</ele><time>2026-05-04T07:03:17.342Z</time></trkpt><trkpt lat="45.6922933" lon="8.7037568"><ele>283.8</ele><time>2026-05-04T07:03:19.344Z</time></trkpt><trkpt lat="45.6923905" lon="8.7037042"><ele>283.2</ele><time>2026-05-04T07:03:21.344Z</time></trkpt><trkpt lat="45.6924969" lon="8.7036465"><ele>282.6</ele><time>2026-05-04T07:03:23.344Z</time></trkpt><trkpt lat="45.692605" lon="8.7036008"><ele>282.0</ele><time>2026-05-04T07:03:25.343Z</time></trkpt><trkpt lat="45.6927163" lon="8.7035511"><ele>282.0</ele><time>2026-05-04T07:03:27.343Z</time></trkpt><trkpt lat="45.6928302" lon="8.7035015"><ele>282.0</ele><time>2026-05-04T07:03:29.344Z</time></trkpt><trkpt lat="45.6929448" lon="8.7034547"><ele>282.0</ele><time>2026-05-04T07:03:31.344Z</time></trkpt><trkpt lat="45.6930602" lon="8.7034159"><ele>282.0</ele><time>2026-05-04T07:03:33.344Z</time></trkpt><trkpt lat="45.6931787" lon="8.7033723"><ele>282.0</ele><time>2026-05-04T07:03:35.343Z</time></trkpt><trkpt lat="45.6932978" lon="8.703338"><ele>282.0</ele><time>2026-05-04T07:03:37.344Z</time></trkpt><trkpt lat="45.6934156" lon="8.7033028"><ele>282.0</ele><time>2026-05-04T07:03:39.344Z</time></trkpt><trkpt lat="45.6935304" lon="8.7032652"><ele>282.0</ele><time>2026-05-04T07:03:41.343Z</time></trkpt><trkpt lat="45.693645" lon="8.7032314"><ele>282.0</ele><time>2026-05-04T07:03:43.343Z</time></trkpt><trkpt lat="45.6937627" lon="8.7032075"><ele>282.0</ele><time>2026-05-04T07:03:45.344Z</time></trkpt><trkpt lat="45.6938821" lon="8.7031821"><ele>282.0</ele><time>2026-05-04T07:03:47.343Z</time></trkpt><trkpt lat="45.6939996" lon="8.7031563"><ele>282.0</ele><time>2026-05-04T07:03:49.344Z</time></trkpt><trkpt lat="45.6941221" lon="8.7031361"><ele>282.0</ele><time>2026-05-04T07:03:51.344Z</time></trkpt><trkpt lat="45.6942458" lon="8.7031173"><ele>282.0</ele><time>2026-05-04T07:03:53.344Z</time></trkpt><trkpt lat="45.6943092" lon="8.70311"><ele>282.0</ele><time>2026-05-04T07:03:54.344Z</time></trkpt><trkpt lat="45.6944343" lon="8.7030928"><ele>282.0</ele><time>2026-05-04T07:03:56.343Z</time></trkpt><trkpt lat="45.6944984" lon="8.7030876"><ele>282.0</ele><time>2026-05-04T07:03:57.343Z</time></trkpt><trkpt lat="45.6945632" lon="8.7030773"><ele>282.0</ele><time>2026-05-04T07:03:58.344Z</time></trkpt><trkpt lat="45.6946292" lon="8.70307"><ele>282.0</ele><time>2026-05-04T07:03:59.344Z</time></trkpt><trkpt lat="45.6946977" lon="8.7030679"><ele>282.0</ele><time>2026-05-04T07:04:00.344Z</time></trkpt><trkpt lat="45.6947679" lon="8.7030651"><ele>282.0</ele><time>2026-05-04T07:04:01.344Z</time></trkpt><trkpt lat="45.6948385" lon="8.703064"><ele>282.0</ele><time>2026-05-04T07:04:02.343Z</time></trkpt><trkpt lat="45.6949103" lon="8.7030622"><ele>282.0</ele><time>2026-05-04T07:04:03.344Z</time></trkpt><trkpt lat="45.6949793" lon="8.70306"><ele>282.0</ele><time>2026-05-04T07:04:04.344Z</time></trkpt><trkpt lat="45.6950439" lon="8.7030558"><ele>282.0</ele><time>2026-05-04T07:04:05.344Z</time></trkpt><trkpt lat="45.6951647" lon="8.7030905"><ele>282.0</ele><time>2026-05-04T07:04:07.343Z</time></trkpt><trkpt lat="45.6952173" lon="8.7031455"><ele>282.0</ele><time>2026-05-04T07:04:08.344Z</time></trkpt><trkpt lat="45.6952594" lon="8.703226"><ele>282.0</ele><time>2026-05-04T07:04:09.343Z</time></trkpt><trkpt lat="45.6953343" lon="8.7033667"><ele>282.0</ele><time>2026-05-04T07:04:11.343Z</time></trkpt><trkpt lat="45.6954073" lon="8.7034871"><ele>282.0</ele><time>2026-05-04T07:04:13.344Z</time></trkpt><trkpt lat="45.6954702" lon="8.7035928"><ele>282.8</ele><time>2026-05-04T07:04:15.343Z</time></trkpt><trkpt lat="45.695534" lon="8.7037073"><ele>283.6</ele><time>2026-05-04T07:04:17.343Z</time></trkpt><trkpt lat="45.6956056" lon="8.7038239"><ele>284.40000000000003</ele><time>2026-05-04T07:04:19.343Z</time></trkpt><trkpt lat="45.6956763" lon="8.7039395"><ele>285.2</ele><time>2026-05-04T07:04:21.344Z</time></trkpt><trkpt lat="45.6957498" lon="8.7040532"><ele>286.0</ele><time>2026-05-04T07:04:23.343Z</time></trkpt><trkpt lat="45.69582" lon="8.7041754"><ele>286.0</ele><time>2026-05-04T07:04:25.344Z</time></trkpt><trkpt lat="45.6958907" lon="8.704298"><ele>286.0</ele><time>2026-05-04T07:04:27.344Z</time></trkpt><trkpt lat="45.6959589" lon="8.7044284"><ele>286.0</ele><time>2026-05-04T07:04:29.343Z</time></trkpt><trkpt lat="45.6960143" lon="8.7045675"><ele>286.0</ele><time>2026-05-04T07:04:31.344Z</time></trkpt><trkpt lat="45.6960704" lon="8.7047106"><ele>285.0</ele><time>2026-05-04T07:04:33.343Z</time></trkpt><trkpt lat="45.6961185" lon="8.7048517"><ele>284.0</ele><time>2026-05-04T07:04:35.344Z</time></trkpt><trkpt lat="45.6961679" lon="8.7049913"><ele>283.0</ele><time>2026-05-04T07:04:37.344Z</time></trkpt><trkpt lat="45.6962202" lon="8.7051307"><ele>282.0</ele><time>2026-05-04T07:04:39.344Z</time></trkpt><trkpt lat="45.696275" lon="8.705267"><ele>281.0</ele><time>2026-05-04T07:04:41.344Z</time></trkpt><trkpt lat="45.6963296" lon="8.7054068"><ele>281.0</ele><time>2026-05-04T07:04:43.344Z</time></trkpt><trkpt lat="45.6963812" lon="8.705545"><ele>281.0</ele><time>2026-05-04T07:04:45.344Z</time></trkpt><trkpt lat="45.6964321" lon="8.7056825"><ele>281.0</ele><time>2026-05-04T07:04:47.344Z</time></trkpt><trkpt lat="45.6964867" lon="8.7058207"><ele>281.0</ele><time>2026-05-04T07:04:49.344Z</time></trkpt><trkpt lat="45.6965452" lon="8.7059504"><ele>281.0</ele><time>2026-05-04T07:04:51.343Z</time></trkpt><trkpt lat="45.6966142" lon="8.7060806"><ele>280.6</ele><time>2026-05-04T07:04:53.343Z</time></trkpt><trkpt lat="45.696678" lon="8.706205"><ele>280.20000000000005</ele><time>2026-05-04T07:04:55.343Z</time></trkpt><trkpt lat="45.6967451" lon="8.7063232"><ele>279.79999999999995</ele><time>2026-05-04T07:04:57.343Z</time></trkpt><trkpt lat="45.6968168" lon="8.706446"><ele>279.4</ele><time>2026-05-04T07:04:59.343Z</time></trkpt><trkpt lat="45.6968912" lon="8.7065845"><ele>279.0</ele><time>2026-05-04T07:05:01.344Z</time></trkpt><trkpt lat="45.6969653" lon="8.7067119"><ele>279.0</ele><time>2026-05-04T07:05:03.343Z</time></trkpt><trkpt lat="45.6970396" lon="8.7068287"><ele>279.0</ele><time>2026-05-04T07:05:05.344Z</time></trkpt><trkpt lat="45.6971103" lon="8.7069543"><ele>279.0</ele><time>2026-05-04T07:05:07.344Z</time></trkpt><trkpt lat="45.6971697" lon="8.7070769"><ele>279.0</ele><time>2026-05-04T07:05:09.343Z</time></trkpt><trkpt lat="45.6972438" lon="8.7071997"><ele>279.0</ele><time>2026-05-04T07:05:11.344Z</time></trkpt><trkpt lat="45.6973131" lon="8.7073307"><ele>279.2</ele><time>2026-05-04T07:05:13.344Z</time></trkpt><trkpt lat="45.6973546" lon="8.7073994"><ele>279.4</ele><time>2026-05-04T07:05:14.344Z</time></trkpt><trkpt lat="45.6974268" lon="8.7075184"><ele>279.6</ele><time>2026-05-04T07:05:16.343Z</time></trkpt><trkpt lat="45.6974945" lon="8.7076431"><ele>279.8</ele><time>2026-05-04T07:05:18.344Z</time></trkpt><trkpt lat="45.6975662" lon="8.7077682"><ele>280.0</ele><time>2026-05-04T07:05:20.343Z</time></trkpt><trkpt lat="45.6976383" lon="8.7078829"><ele>280.6</ele><time>2026-05-04T07:05:22.344Z</time></trkpt><trkpt lat="45.6977056" lon="8.7080013"><ele>281.2</ele><time>2026-05-04T07:05:24.342Z</time></trkpt><trkpt lat="45.6977762" lon="8.7081218"><ele>281.8</ele><time>2026-05-04T07:05:26.343Z</time></trkpt><trkpt lat="45.6978407" lon="8.7082337"><ele>282.4</ele><time>2026-05-04T07:05:28.343Z</time></trkpt><trkpt lat="45.6979047" lon="8.7083491"><ele>283.0</ele><time>2026-05-04T07:05:30.343Z</time></trkpt><trkpt lat="45.697971" lon="8.7084504"><ele>283.0</ele><time>2026-05-04T07:05:32.344Z</time></trkpt><trkpt lat="45.698039" lon="8.7085565"><ele>283.0</ele><time>2026-05-04T07:05:34.344Z</time></trkpt><trkpt lat="45.6981017" lon="8.708667"><ele>283.0</ele><time>2026-05-04T07:05:36.344Z</time></trkpt><trkpt lat="45.698162" lon="8.7087765"><ele>283.0</ele><time>2026-05-04T07:05:38.344Z</time></trkpt><trkpt lat="45.6982175" lon="8.7088565"><ele>283.0</ele><time>2026-05-04T07:05:40.343Z</time></trkpt><trkpt lat="45.6982603" lon="8.7089593"><ele>284.3333333333333</ele><time>2026-05-04T07:05:42.344Z</time></trkpt><trkpt lat="45.6983322" lon="8.7090566"><ele>285.66666666666663</ele><time>2026-05-04T07:05:44.344Z</time></trkpt><trkpt lat="45.6984032" lon="8.7091243"><ele>287.0</ele><time>2026-05-04T07:05:46.343Z</time></trkpt><trkpt lat="45.6984867" lon="8.7091959"><ele>288.3333333333333</ele><time>2026-05-04T07:05:48.344Z</time></trkpt><trkpt lat="45.6985776" lon="8.7092074"><ele>289.6666666666667</ele><time>2026-05-04T07:05:50.343Z</time></trkpt><trkpt lat="45.6986452" lon="8.7091848"><ele>291.0</ele><time>2026-05-04T07:05:52.343Z</time></trkpt><trkpt lat="45.6987277" lon="8.7091764"><ele>291.0</ele><time>2026-05-04T07:05:54.344Z</time></trkpt><trkpt lat="45.698818" lon="8.7091708"><ele>291.0</ele><time>2026-05-04T07:05:56.343Z</time></trkpt><trkpt lat="45.6989154" lon="8.7091698"><ele>291.0</ele><time>2026-05-04T07:05:58.343Z</time></trkpt><trkpt lat="45.6990208" lon="8.7091679"><ele>291.0</ele><time>2026-05-04T07:06:00.344Z</time></trkpt><trkpt lat="45.6991315" lon="8.709171"><ele>291.0</ele><time>2026-05-04T07:06:02.344Z</time></trkpt><trkpt lat="45.6992399" lon="8.7091773"><ele>291.0</ele><time>2026-05-04T07:06:04.344Z</time></trkpt><trkpt lat="45.6993453" lon="8.7091851"><ele>291.0</ele><time>2026-05-04T07:06:06.344Z</time></trkpt><trkpt lat="45.6994265" lon="8.7091738"><ele>291.0</ele><time>2026-05-04T07:06:09.344Z</time></trkpt><trkpt lat="45.6995406" lon="8.7091827"><ele>291.0</ele><time>2026-05-04T07:06:11.342Z</time></trkpt><trkpt lat="45.6996407" lon="8.7091906"><ele>291.0</ele><time>2026-05-04T07:06:13.343Z</time></trkpt><trkpt lat="45.6997448" lon="8.7092168"><ele>291.6</ele><time>2026-05-04T07:06:15.343Z</time></trkpt><trkpt lat="45.6998332" lon="8.709245"><ele>292.20000000000005</ele><time>2026-05-04T07:06:17.344Z</time></trkpt><trkpt lat="45.6999076" lon="8.7092471"><ele>292.79999999999995</ele><time>2026-05-04T07:06:19.343Z</time></trkpt><trkpt lat="45.6999987" lon="8.7092466"><ele>293.4</ele><time>2026-05-04T07:06:21.343Z</time></trkpt><trkpt lat="45.7001076" lon="8.7092626"><ele>294.0</ele><time>2026-05-04T07:06:23.343Z</time></trkpt><trkpt lat="45.700215" lon="8.7092683"><ele>294.0</ele><time>2026-05-04T07:06:25.343Z</time></trkpt><trkpt lat="45.700306" lon="8.7092636"><ele>294.0</ele><time>2026-05-04T07:06:27.343Z</time></trkpt><trkpt lat="45.7003994" lon="8.7092575"><ele>294.0</ele><time>2026-05-04T07:06:29.342Z</time></trkpt><trkpt lat="45.700486" lon="8.7092489"><ele>294.0</ele><time>2026-05-04T07:06:31.344Z</time></trkpt><trkpt lat="45.7005575" lon="8.7092285"><ele>294.0</ele><time>2026-05-04T07:06:33.344Z</time></trkpt><trkpt lat="45.7006428" lon="8.7092173"><ele>294.0</ele><time>2026-05-04T07:06:35.344Z</time></trkpt><trkpt lat="45.7007501" lon="8.709197"><ele>294.0</ele><time>2026-05-04T07:06:37.343Z</time></trkpt><trkpt lat="45.7008569" lon="8.7091911"><ele>294.0</ele><time>2026-05-04T07:06:39.344Z</time></trkpt><trkpt lat="45.7009535" lon="8.7091792"><ele>294.0</ele><time>2026-05-04T07:06:41.342Z</time></trkpt><trkpt lat="45.701058" lon="8.7091898"><ele>294.0</ele><time>2026-05-04T07:06:43.344Z</time></trkpt><trkpt lat="45.7011555" lon="8.7091983"><ele>294.0</ele><time>2026-05-04T07:06:45.343Z</time></trkpt><trkpt lat="45.7012609" lon="8.7091792"><ele>294.4</ele><time>2026-05-04T07:06:47.343Z</time></trkpt><trkpt lat="45.7013787" lon="8.7091646"><ele>294.79999999999995</ele><time>2026-05-04T07:06:49.344Z</time></trkpt><trkpt lat="45.7014784" lon="8.7091431"><ele>295.20000000000005</ele><time>2026-05-04T07:06:51.343Z</time></trkpt><trkpt lat="45.7016004" lon="8.7091"><ele>295.6</ele><time>2026-05-04T07:06:53.342Z</time></trkpt><trkpt lat="45.7016666" lon="8.7090807"><ele>296.0</ele><time>2026-05-04T07:06:54.344Z</time></trkpt><trkpt lat="45.7017314" lon="8.7090613"><ele>296.0</ele><time>2026-05-04T07:06:55.344Z</time></trkpt><trkpt lat="45.7018038" lon="8.7090506"><ele>296.0</ele><time>2026-05-04T07:06:56.343Z</time></trkpt><trkpt lat="45.7018794" lon="8.709043"><ele>296.0</ele><time>2026-05-04T07:06:57.344Z</time></trkpt><trkpt lat="45.7019764" lon="8.7090489"><ele>296.0</ele><time>2026-05-04T07:06:58.344Z</time></trkpt><trkpt lat="45.7020444" lon="8.7090572"><ele>296.0</ele><time>2026-05-04T07:06:59.344Z</time></trkpt><trkpt lat="45.702135" lon="8.7090648"><ele>296.0</ele><time>2026-05-04T07:07:01.342Z</time></trkpt><trkpt lat="45.7021993" lon="8.7090599"><ele>294.40000000000003</ele><time>2026-05-04T07:07:02.344Z</time></trkpt><trkpt lat="45.7023311" lon="8.7090811"><ele>292.8</ele><time>2026-05-04T07:07:04.343Z</time></trkpt><trkpt lat="45.7024352" lon="8.7091241"><ele>291.20000000000005</ele><time>2026-05-04T07:07:05.343Z</time></trkpt><trkpt lat="45.702506" lon="8.7091321"><ele>289.6</ele><time>2026-05-04T07:07:06.343Z</time></trkpt><trkpt lat="45.7026185" lon="8.7091384"><ele>288.0</ele><time>2026-05-04T07:07:08.343Z</time></trkpt><trkpt lat="45.7026876" lon="8.7091369"><ele>286.8571428571429</ele><time>2026-05-04T07:07:09.343Z</time></trkpt><trkpt lat="45.7027612" lon="8.7091711"><ele>285.7142857142857</ele><time>2026-05-04T07:07:10.342Z</time></trkpt><trkpt lat="45.7028455" lon="8.7091751"><ele>284.57142857142856</ele><time>2026-05-04T07:07:11.344Z</time></trkpt><trkpt lat="45.7029114" lon="8.7091915"><ele>283.42857142857144</ele><time>2026-05-04T07:07:12.344Z</time></trkpt><trkpt lat="45.7029795" lon="8.7092013"><ele>282.2857142857143</ele><time>2026-05-04T07:07:13.344Z</time></trkpt><trkpt lat="45.7030461" lon="8.7092275"><ele>281.14285714285717</ele><time>2026-05-04T07:07:14.344Z</time></trkpt><trkpt lat="45.7031116" lon="8.7092579"><ele>280.0</ele><time>2026-05-04T07:07:15.344Z</time></trkpt><trkpt lat="45.7031695" lon="8.7093079"><ele>280.0</ele><time>2026-05-04T07:07:16.344Z</time></trkpt><trkpt lat="45.7032394" lon="8.7093645"><ele>280.0</ele><time>2026-05-04T07:07:17.344Z</time></trkpt><trkpt lat="45.7032995" lon="8.7094105"><ele>280.0</ele><time>2026-05-04T07:07:18.343Z</time></trkpt><trkpt lat="45.7033699" lon="8.7095263"><ele>280.0</ele><time>2026-05-04T07:07:20.343Z</time></trkpt><trkpt lat="45.7034558" lon="8.709591"><ele>280.0</ele><time>2026-05-04T07:07:22.343Z</time></trkpt><trkpt lat="45.703543" lon="8.709558"><ele>280.0</ele><time>2026-05-04T07:07:24.343Z</time></trkpt><trkpt lat="45.7036496" lon="8.7094966"><ele>280.0</ele><time>2026-05-04T07:07:26.344Z</time></trkpt><trkpt lat="45.7037797" lon="8.7094171"><ele>280.0</ele><time>2026-05-04T07:07:28.343Z</time></trkpt><trkpt lat="45.7038421" lon="8.7093566"><ele>280.0</ele><time>2026-05-04T07:07:29.344Z</time></trkpt><trkpt lat="45.7038947" lon="8.7093056"><ele>280.0</ele><time>2026-05-04T07:07:30.343Z</time></trkpt><trkpt lat="45.7039858" lon="8.7092235"><ele>280.0</ele><time>2026-05-04T07:07:32.343Z</time></trkpt><trkpt lat="45.7040543" lon="8.7090736"><ele>279.66666666666663</ele><time>2026-05-04T07:07:34.343Z</time></trkpt><trkpt lat="45.7040971" lon="8.7089743"><ele>279.3333333333333</ele><time>2026-05-04T07:07:35.343Z</time></trkpt><trkpt lat="45.7041434" lon="8.708873"><ele>279.0</ele><time>2026-05-04T07:07:36.344Z</time></trkpt><trkpt lat="45.7041798" lon="8.7087755"><ele>278.6666666666667</ele><time>2026-05-04T07:07:37.342Z</time></trkpt><trkpt lat="45.7042135" lon="8.7086622"><ele>278.33333333333337</ele><time>2026-05-04T07:07:38.344Z</time></trkpt><trkpt lat="45.7042298" lon="8.7085139"><ele>278.0</ele><time>2026-05-04T07:07:39.343Z</time></trkpt><trkpt lat="45.7042312" lon="8.7084223"><ele>275.8</ele><time>2026-05-04T07:07:40.343Z</time></trkpt><trkpt lat="45.7041832" lon="8.708306"><ele>273.6</ele><time>2026-05-04T07:07:42.344Z</time></trkpt><trkpt lat="45.7041276" lon="8.7081731"><ele>271.4</ele><time>2026-05-04T07:07:44.344Z</time></trkpt><trkpt lat="45.7040684" lon="8.7081213"><ele>269.2</ele><time>2026-05-04T07:07:45.344Z</time></trkpt><trkpt lat="45.7039893" lon="8.7079639"><ele>267.0</ele><time>2026-05-04T07:07:47.344Z</time></trkpt><trkpt lat="45.7039405" lon="8.7078904"><ele>267.0</ele><time>2026-05-04T07:07:48.344Z</time></trkpt><trkpt lat="45.7038445" lon="8.7077668"><ele>267.0</ele><time>2026-05-04T07:07:50.343Z</time></trkpt><trkpt lat="45.7037929" lon="8.7076978"><ele>267.0</ele><time>2026-05-04T07:07:51.343Z</time></trkpt><trkpt lat="45.7037484" lon="8.7076183"><ele>267.0</ele><time>2026-05-04T07:07:52.343Z</time></trkpt><trkpt lat="45.7037299" lon="8.7075198"><ele>267.0</ele><time>2026-05-04T07:07:53.343Z</time></trkpt><trkpt lat="45.7037" lon="8.7074315"><ele>267.0</ele><time>2026-05-04T07:07:54.343Z</time></trkpt><trkpt lat="45.7036313" lon="8.7073256"><ele>266.3333333333333</ele><time>2026-05-04T07:07:56.344Z</time></trkpt><trkpt lat="45.7035797" lon="8.707272"><ele>265.6666666666667</ele><time>2026-05-04T07:07:57.344Z</time></trkpt><trkpt lat="45.703525" lon="8.7072213"><ele>265.0</ele><time>2026-05-04T07:07:58.343Z</time></trkpt><trkpt lat="45.7034257" lon="8.7071643"><ele>264.33333333333337</ele><time>2026-05-04T07:08:00.343Z</time></trkpt><trkpt lat="45.703333" lon="8.7070975"><ele>263.6666666666667</ele><time>2026-05-04T07:08:02.343Z</time></trkpt><trkpt lat="45.703235" lon="8.7070298"><ele>263.0</ele><time>2026-05-04T07:08:04.344Z</time></trkpt><trkpt lat="45.7031546" lon="8.7069403"><ele>262.0</ele><time>2026-05-04T07:08:06.344Z</time></trkpt><trkpt lat="45.7030505" lon="8.7068261"><ele>261.0</ele><time>2026-05-04T07:08:08.344Z</time></trkpt><trkpt lat="45.7029983" lon="8.7067732"><ele>260.0</ele><time>2026-05-04T07:08:09.344Z</time></trkpt><trkpt lat="45.7029325" lon="8.7067352"><ele>259.0</ele><time>2026-05-04T07:08:11.343Z</time></trkpt><trkpt lat="45.7028234" lon="8.7066972"><ele>258.0</ele><time>2026-05-04T07:08:13.343Z</time></trkpt><trkpt lat="45.7027634" lon="8.7067314"><ele>257.0</ele><time>2026-05-04T07:08:14.344Z</time></trkpt><trkpt lat="45.7026628" lon="8.7067673"><ele>256.8</ele><time>2026-05-04T07:08:16.343Z</time></trkpt><trkpt lat="45.7025549" lon="8.7068263"><ele>256.6</ele><time>2026-05-04T07:08:18.343Z</time></trkpt><trkpt lat="45.7024388" lon="8.7068768"><ele>256.40000000000003</ele><time>2026-05-04T07:08:20.344Z</time></trkpt><trkpt lat="45.7023434" lon="8.7069283"><ele>256.2</ele><time>2026-05-04T07:08:22.343Z</time></trkpt><trkpt lat="45.7022485" lon="8.7069715"><ele>256.0</ele><time>2026-05-04T07:08:24.344Z</time></trkpt><trkpt lat="45.7021474" lon="8.7069876"><ele>256.0</ele><time>2026-05-04T07:08:26.343Z</time></trkpt><trkpt lat="45.7020488" lon="8.7069419"><ele>256.0</ele><time>2026-05-04T07:08:28.344Z</time></trkpt><trkpt lat="45.7019591" lon="8.7068792"><ele>256.0</ele><time>2026-05-04T07:08:30.343Z</time></trkpt><trkpt lat="45.7018722" lon="8.7068641"><ele>256.0</ele><time>2026-05-04T07:08:32.343Z</time></trkpt><trkpt lat="45.7017853" lon="8.706839"><ele>256.0</ele><time>2026-05-04T07:08:34.343Z</time></trkpt><trkpt lat="45.7017023" lon="8.7067711"><ele>257.2</ele><time>2026-05-04T07:08:36.343Z</time></trkpt><trkpt lat="45.7016193" lon="8.7066901"><ele>258.40000000000003</ele><time>2026-05-04T07:08:38.344Z</time></trkpt><trkpt lat="45.7015451" lon="8.7065936"><ele>259.6</ele><time>2026-05-04T07:08:40.343Z</time></trkpt><trkpt lat="45.7014725" lon="8.7064911"><ele>260.8</ele><time>2026-05-04T07:08:42.344Z</time></trkpt><trkpt lat="45.7013891" lon="8.7064009"><ele>262.0</ele><time>2026-05-04T07:08:44.343Z</time></trkpt><trkpt lat="45.7013051" lon="8.706305"><ele>262.0</ele><time>2026-05-04T07:08:46.343Z</time></trkpt><trkpt lat="45.7012268" lon="8.7062182"><ele>262.0</ele><time>2026-05-04T07:08:48.344Z</time></trkpt><trkpt lat="45.701159" lon="8.7061366"><ele>262.0</ele><time>2026-05-04T07:08:50.344Z</time></trkpt><trkpt lat="45.7010692" lon="8.7060759"><ele>262.0</ele><time>2026-05-04T07:08:52.343Z</time></trkpt><trkpt lat="45.7010191" lon="8.7060107"><ele>262.0</ele><time>2026-05-04T07:08:54.344Z</time></trkpt><trkpt lat="45.7009726" lon="8.7059434"><ele>262.0</ele><time>2026-05-04T07:08:56.343Z</time></trkpt><trkpt lat="45.7009077" lon="8.7058547"><ele>263.4</ele><time>2026-05-04T07:08:58.343Z</time></trkpt><trkpt lat="45.7008502" lon="8.7057607"><ele>264.79999999999995</ele><time>2026-05-04T07:09:00.344Z</time></trkpt><trkpt lat="45.7007899" lon="8.7056457"><ele>266.2</ele><time>2026-05-04T07:09:02.344Z</time></trkpt><trkpt lat="45.7007248" lon="8.7055389"><ele>267.59999999999997</ele><time>2026-05-04T07:09:04.344Z</time></trkpt><trkpt lat="45.700661" lon="8.705419"><ele>269.0</ele><time>2026-05-04T07:09:06.344Z</time></trkpt><trkpt lat="45.7006028" lon="8.7053016"><ele>271.2</ele><time>2026-05-04T07:09:08.343Z</time></trkpt><trkpt lat="45.700531" lon="8.7051869"><ele>273.4</ele><time>2026-05-04T07:09:10.344Z</time></trkpt><trkpt lat="45.7004481" lon="8.7050667"><ele>275.6</ele><time>2026-05-04T07:09:12.343Z</time></trkpt><trkpt lat="45.7003639" lon="8.7049513"><ele>277.8</ele><time>2026-05-04T07:09:14.344Z</time></trkpt><trkpt lat="45.7003077" lon="8.7048873"><ele>280.0</ele><time>2026-05-04T07:09:16.343Z</time></trkpt><trkpt lat="45.7002413" lon="8.7047816"><ele>280.0</ele><time>2026-05-04T07:09:18.343Z</time></trkpt><trkpt lat="45.7001797" lon="8.7046932"><ele>280.0</ele><time>2026-05-04T07:09:20.344Z</time></trkpt><trkpt lat="45.7001251" lon="8.7046077"><ele>280.0</ele><time>2026-05-04T07:09:22.344Z</time></trkpt><trkpt lat="45.7000666" lon="8.7045414"><ele>280.0</ele><time>2026-05-04T07:09:24.343Z</time></trkpt><trkpt lat="45.7000101" lon="8.7044608"><ele>280.0</ele><time>2026-05-04T07:09:26.343Z</time></trkpt><trkpt lat="45.6999548" lon="8.7043884"><ele>280.0</ele><time>2026-05-04T07:09:28.343Z</time></trkpt><trkpt lat="45.6998995" lon="8.7043068"><ele>276.8</ele><time>2026-05-04T07:09:30.343Z</time></trkpt><trkpt lat="45.6998331" lon="8.7041868"><ele>273.6</ele><time>2026-05-04T07:09:32.343Z</time></trkpt><trkpt lat="45.6997759" lon="8.7040824"><ele>270.4</ele><time>2026-05-04T07:09:34.343Z</time></trkpt><trkpt lat="45.6997173" lon="8.703959"><ele>267.2</ele><time>2026-05-04T07:09:36.344Z</time></trkpt><trkpt lat="45.6996527" lon="8.7038333"><ele>264.0</ele><time>2026-05-04T07:09:38.344Z</time></trkpt><trkpt lat="45.6996005" lon="8.7037316"><ele>264.0</ele><time>2026-05-04T07:09:40.344Z</time></trkpt><trkpt lat="45.699533" lon="8.7036258"><ele>264.0</ele><time>2026-05-04T07:09:42.343Z</time></trkpt><trkpt lat="45.6994809" lon="8.7035234"><ele>264.0</ele><time>2026-05-04T07:09:44.343Z</time></trkpt><trkpt lat="45.6994091" lon="8.7034102"><ele>264.0</ele><time>2026-05-04T07:09:46.344Z</time></trkpt><trkpt lat="45.6993446" lon="8.7033112"><ele>264.0</ele><time>2026-05-04T07:09:48.344Z</time></trkpt><trkpt lat="45.6992827" lon="8.7032165"><ele>263.3333333333333</ele><time>2026-05-04T07:09:50.344Z</time></trkpt><trkpt lat="45.6992186" lon="8.703143"><ele>262.6666666666667</ele><time>2026-05-04T07:09:52.343Z</time></trkpt><trkpt lat="45.6991637" lon="8.7030674"><ele>262.0</ele><time>2026-05-04T07:09:54.344Z</time></trkpt><trkpt lat="45.6991385" lon="8.7029623"><ele>261.33333333333337</ele><time>2026-05-04T07:09:56.343Z</time></trkpt><trkpt lat="45.6991514" lon="8.7028667"><ele>260.6666666666667</ele><time>2026-05-04T07:09:58.344Z</time></trkpt><trkpt lat="45.699124" lon="8.7027378"><ele>260.0</ele><time>2026-05-04T07:10:01.343Z</time></trkpt><trkpt lat="45.6990657" lon="8.7026697"><ele>260.0</ele><time>2026-05-04T07:10:03.344Z</time></trkpt><trkpt lat="45.6990024" lon="8.7026489"><ele>260.0</ele><time>2026-05-04T07:10:05.343Z</time></trkpt><trkpt lat="45.6989375" lon="8.7026032"><ele>260.0</ele><time>2026-05-04T07:10:08.344Z</time></trkpt><trkpt lat="45.6989759" lon="8.702518"><ele>260.0</ele><time>2026-05-04T07:10:10.344Z</time></trkpt><trkpt lat="45.6990448" lon="8.7024707"><ele>260.0</ele><time>2026-05-04T07:10:12.343Z</time></trkpt><trkpt lat="45.6991178" lon="8.7024112"><ele>260.0</ele><time>2026-05-04T07:10:14.343Z</time></trkpt><trkpt lat="45.6991931" lon="8.7023515"><ele>260.0</ele><time>2026-05-04T07:10:16.343Z</time></trkpt><trkpt lat="45.6992832" lon="8.7022938"><ele>260.0</ele><time>2026-05-04T07:10:18.344Z</time></trkpt><trkpt lat="45.6993745" lon="8.7022391"><ele>260.0</ele><time>2026-05-04T07:10:20.343Z</time></trkpt><trkpt lat="45.6994658" lon="8.7021851"><ele>260.0</ele><time>2026-05-04T07:10:22.343Z</time></trkpt><trkpt lat="45.6995575" lon="8.7021323"><ele>260.0</ele><time>2026-05-04T07:10:24.343Z</time></trkpt><trkpt lat="45.6996522" lon="8.7020856"><ele>260.0</ele><time>2026-05-04T07:10:26.344Z</time></trkpt><trkpt lat="45.6997437" lon="8.7020358"><ele>260.0</ele><time>2026-05-04T07:10:28.343Z</time></trkpt><trkpt lat="45.6998341" lon="8.7019789"><ele>260.0</ele><time>2026-05-04T07:10:30.343Z</time></trkpt><trkpt lat="45.6999295" lon="8.7019235"><ele>260.0</ele><time>2026-05-04T07:10:32.343Z</time></trkpt><trkpt lat="45.7000246" lon="8.7018689"><ele>260.0</ele><time>2026-05-04T07:10:34.342Z</time></trkpt><trkpt lat="45.7001208" lon="8.701813"><ele>260.0</ele><time>2026-05-04T07:10:36.342Z</time></trkpt><trkpt lat="45.7002159" lon="8.7017569"><ele>260.0</ele><time>2026-05-04T07:10:38.343Z</time></trkpt><trkpt lat="45.7003129" lon="8.7017018"><ele>260.0</ele><time>2026-05-04T07:10:40.343Z</time></trkpt><trkpt lat="45.7004096" lon="8.7016485"><ele>260.0</ele><time>2026-05-04T07:10:42.342Z</time></trkpt><trkpt lat="45.7005017" lon="8.7015847"><ele>260.0</ele><time>2026-05-04T07:10:44.343Z</time></trkpt><trkpt lat="45.7005951" lon="8.7015217"><ele>260.25</ele><time>2026-05-04T07:10:46.342Z</time></trkpt><trkpt lat="45.7006931" lon="8.7014628"><ele>260.5</ele><time>2026-05-04T07:10:48.343Z</time></trkpt><trkpt lat="45.7007969" lon="8.7013929"><ele>260.75</ele><time>2026-05-04T07:10:50.343Z</time></trkpt><trkpt lat="45.7009079" lon="8.7013291"><ele>261.0</ele><time>2026-05-04T07:10:52.342Z</time></trkpt><trkpt lat="45.7010278" lon="8.7012808"><ele>261.0</ele><time>2026-05-04T07:10:54.342Z</time></trkpt><trkpt lat="45.7011355" lon="8.7012187"><ele>261.0</ele><time>2026-05-04T07:10:56.342Z</time></trkpt><trkpt lat="45.7012427" lon="8.701153"><ele>261.0</ele><time>2026-05-04T07:10:58.343Z</time></trkpt><trkpt lat="45.7013476" lon="8.7010888"><ele>261.0</ele><time>2026-05-04T07:11:00.342Z</time></trkpt><trkpt lat="45.7014528" lon="8.701019"><ele>261.75</ele><time>2026-05-04T07:11:02.343Z</time></trkpt><trkpt lat="45.7015547" lon="8.700948"><ele>262.5</ele><time>2026-05-04T07:11:04.343Z</time></trkpt><trkpt lat="45.7016666" lon="8.7008835"><ele>263.25</ele><time>2026-05-04T07:11:06.344Z</time></trkpt><trkpt lat="45.7017688" lon="8.7008004"><ele>264.0</ele><time>2026-05-04T07:11:08.342Z</time></trkpt><trkpt lat="45.7018819" lon="8.700731"><ele>264.0</ele><time>2026-05-04T07:11:10.342Z</time></trkpt><trkpt lat="45.7019404" lon="8.7006971"><ele>264.0</ele><time>2026-05-04T07:11:11.343Z</time></trkpt><trkpt lat="45.7020568" lon="8.7006387"><ele>264.0</ele><time>2026-05-04T07:11:13.343Z</time></trkpt><trkpt lat="45.7021645" lon="8.7005726"><ele>264.0</ele><time>2026-05-04T07:11:15.343Z</time></trkpt><trkpt lat="45.7022716" lon="8.7005096"><ele>264.0</ele><time>2026-05-04T07:11:17.342Z</time></trkpt><trkpt lat="45.7023788" lon="8.7004493"><ele>264.0</ele><time>2026-05-04T07:11:19.343Z</time></trkpt><trkpt lat="45.7024855" lon="8.7003915"><ele>264.0</ele><time>2026-05-04T07:11:21.342Z</time></trkpt><trkpt lat="45.7025976" lon="8.7003326"><ele>264.0</ele><time>2026-05-04T07:11:23.343Z</time></trkpt><trkpt lat="45.7027029" lon="8.7002685"><ele>264.0</ele><time>2026-05-04T07:11:25.342Z</time></trkpt><trkpt lat="45.7028118" lon="8.7002031"><ele>264.25</ele><time>2026-05-04T07:11:27.343Z</time></trkpt><trkpt lat="45.7029164" lon="8.7001394"><ele>264.5</ele><time>2026-05-04T07:11:29.343Z</time></trkpt><trkpt lat="45.7030207" lon="8.7000719"><ele>264.75</ele><time>2026-05-04T07:11:31.343Z</time></trkpt><trkpt lat="45.7031232" lon="8.7000113"><ele>265.0</ele><time>2026-05-04T07:11:33.343Z</time></trkpt><trkpt lat="45.7032275" lon="8.6999517"><ele>265.0</ele><time>2026-05-04T07:11:35.343Z</time></trkpt><trkpt lat="45.7033266" lon="8.6998914"><ele>265.0</ele><time>2026-05-04T07:11:37.343Z</time></trkpt><trkpt lat="45.703424" lon="8.6998299"><ele>265.0</ele><time>2026-05-04T07:11:39.343Z</time></trkpt><trkpt lat="45.7035265" lon="8.6997696"><ele>265.0</ele><time>2026-05-04T07:11:41.342Z</time></trkpt><trkpt lat="45.703632" lon="8.6997099"><ele>265.0</ele><time>2026-05-04T07:11:43.342Z</time></trkpt><trkpt lat="45.7037396" lon="8.6996496"><ele>264.6</ele><time>2026-05-04T07:11:45.343Z</time></trkpt><trkpt lat="45.7038438" lon="8.6995921"><ele>264.2</ele><time>2026-05-04T07:11:47.342Z</time></trkpt><trkpt lat="45.703949" lon="8.6995338"><ele>263.8</ele><time>2026-05-04T07:11:49.343Z</time></trkpt><trkpt lat="45.7040519" lon="8.6994752"><ele>263.4</ele><time>2026-05-04T07:11:51.343Z</time></trkpt><trkpt lat="45.7041553" lon="8.6994248"><ele>263.0</ele><time>2026-05-04T07:11:53.342Z</time></trkpt><trkpt lat="45.7042639" lon="8.6994008"><ele>263.0</ele><time>2026-05-04T07:11:55.343Z</time></trkpt><trkpt lat="45.7043779" lon="8.699443"><ele>263.0</ele><time>2026-05-04T07:11:57.342Z</time></trkpt><trkpt lat="45.7044964" lon="8.6994709"><ele>263.0</ele><time>2026-05-04T07:11:59.342Z</time></trkpt><trkpt lat="45.7046088" lon="8.6994263"><ele>263.0</ele><time>2026-05-04T07:12:01.343Z</time></trkpt><trkpt lat="45.7046884" lon="8.6993013"><ele>263.4</ele><time>2026-05-04T07:12:03.342Z</time></trkpt><trkpt lat="45.7047527" lon="8.6991509"><ele>263.8</ele><time>2026-05-04T07:12:05.342Z</time></trkpt><trkpt lat="45.7048338" lon="8.699027"><ele>264.2</ele><time>2026-05-04T07:12:07.343Z</time></trkpt><trkpt lat="45.7048868" lon="8.698978"><ele>264.6</ele><time>2026-05-04T07:12:08.343Z</time></trkpt><trkpt lat="45.704994" lon="8.6988977"><ele>265.0</ele><time>2026-05-04T07:12:10.343Z</time></trkpt><trkpt lat="45.7051051" lon="8.6988254"><ele>265.0</ele><time>2026-05-04T07:12:12.343Z</time></trkpt><trkpt lat="45.7052156" lon="8.6987569"><ele>265.0</ele><time>2026-05-04T07:12:14.343Z</time></trkpt><trkpt lat="45.7053247" lon="8.6986881"><ele>265.0</ele><time>2026-05-04T07:12:16.342Z</time></trkpt><trkpt lat="45.7054377" lon="8.698619"><ele>265.0</ele><time>2026-05-04T07:12:18.344Z</time></trkpt><trkpt lat="45.7055485" lon="8.698548"><ele>265.8</ele><time>2026-05-04T07:12:20.343Z</time></trkpt><trkpt lat="45.7056611" lon="8.6984875"><ele>266.6</ele><time>2026-05-04T07:12:22.342Z</time></trkpt><trkpt lat="45.7057707" lon="8.6984142"><ele>267.4</ele><time>2026-05-04T07:12:24.342Z</time></trkpt><trkpt lat="45.7058751" lon="8.6983432"><ele>268.2</ele><time>2026-05-04T07:12:26.343Z</time></trkpt><trkpt lat="45.7059348" lon="8.6983136"><ele>269.0</ele><time>2026-05-04T07:12:27.343Z</time></trkpt><trkpt lat="45.7060457" lon="8.6982509"><ele>268.5</ele><time>2026-05-04T07:12:29.342Z</time></trkpt><trkpt lat="45.7061557" lon="8.6981785"><ele>268.0</ele><time>2026-05-04T07:12:31.343Z</time></trkpt><trkpt lat="45.7062682" lon="8.6981078"><ele>267.5</ele><time>2026-05-04T07:12:33.342Z</time></trkpt><trkpt lat="45.7063793" lon="8.6980442"><ele>267.0</ele><time>2026-05-04T07:12:35.342Z</time></trkpt><trkpt lat="45.7064902" lon="8.6979739"><ele>267.0</ele><time>2026-05-04T07:12:37.343Z</time></trkpt><trkpt lat="45.706604" lon="8.6979055"><ele>267.0</ele><time>2026-05-04T07:12:39.343Z</time></trkpt><trkpt lat="45.7067195" lon="8.697838"><ele>267.0</ele><time>2026-05-04T07:12:41.342Z</time></trkpt><trkpt lat="45.706835" lon="8.6977692"><ele>267.0</ele><time>2026-05-04T07:12:43.343Z</time></trkpt><trkpt lat="45.7069482" lon="8.6977035"><ele>267.0</ele><time>2026-05-04T07:12:45.342Z</time></trkpt><trkpt lat="45.7070651" lon="8.6976367"><ele>267.0</ele><time>2026-05-04T07:12:47.343Z</time></trkpt><trkpt lat="45.7071822" lon="8.6975685"><ele>267.0</ele><time>2026-05-04T07:12:49.342Z</time></trkpt><trkpt lat="45.707297" lon="8.6975011"><ele>267.0</ele><time>2026-05-04T07:12:51.343Z</time></trkpt><trkpt lat="45.707356" lon="8.6974678"><ele>267.0</ele><time>2026-05-04T07:12:52.342Z</time></trkpt><trkpt lat="45.7074165" lon="8.6974354"><ele>267.0</ele><time>2026-05-04T07:12:53.343Z</time></trkpt><trkpt lat="45.7074752" lon="8.6973978"><ele>267.0</ele><time>2026-05-04T07:12:54.342Z</time></trkpt><trkpt lat="45.7075345" lon="8.6973634"><ele>267.0</ele><time>2026-05-04T07:12:55.342Z</time></trkpt><trkpt lat="45.7076494" lon="8.6972907"><ele>267.0</ele><time>2026-05-04T07:12:57.342Z</time></trkpt><trkpt lat="45.7077082" lon="8.6972547"><ele>267.0</ele><time>2026-05-04T07:12:58.342Z</time></trkpt><trkpt lat="45.707768" lon="8.6972205"><ele>267.0</ele><time>2026-05-04T07:12:59.343Z</time></trkpt><trkpt lat="45.7078799" lon="8.6971495"><ele>267.0</ele><time>2026-05-04T07:13:01.343Z</time></trkpt><trkpt lat="45.7079937" lon="8.697084"><ele>267.0</ele><time>2026-05-04T07:13:03.342Z</time></trkpt><trkpt lat="45.7081072" lon="8.6970127"><ele>267.0</ele><time>2026-05-04T07:13:05.343Z</time></trkpt><trkpt lat="45.7082202" lon="8.6969428"><ele>267.0</ele><time>2026-05-04T07:13:07.342Z</time></trkpt><trkpt lat="45.7083339" lon="8.6968722"><ele>267.0</ele><time>2026-05-04T07:13:09.343Z</time></trkpt><trkpt lat="45.7084492" lon="8.6968071"><ele>267.0</ele><time>2026-05-04T07:13:11.342Z</time></trkpt><trkpt lat="45.7085599" lon="8.6967408"><ele>267.0</ele><time>2026-05-04T07:13:13.342Z</time></trkpt><trkpt lat="45.708671" lon="8.6966737"><ele>267.0</ele><time>2026-05-04T07:13:15.342Z</time></trkpt><trkpt lat="45.7087848" lon="8.6966024"><ele>266.8</ele><time>2026-05-04T07:13:17.342Z</time></trkpt><trkpt lat="45.7088452" lon="8.6965702"><ele>266.6</ele><time>2026-05-04T07:13:18.343Z</time></trkpt><trkpt lat="45.708959" lon="8.696506"><ele>266.40000000000003</ele><time>2026-05-04T07:13:20.342Z</time></trkpt><trkpt lat="45.7090707" lon="8.6964317"><ele>266.2</ele><time>2026-05-04T07:13:22.342Z</time></trkpt><trkpt lat="45.7091859" lon="8.6963635"><ele>266.0</ele><time>2026-05-04T07:13:24.342Z</time></trkpt><trkpt lat="45.7092991" lon="8.69629"><ele>265.25</ele><time>2026-05-04T07:13:26.342Z</time></trkpt><trkpt lat="45.7094124" lon="8.696222"><ele>264.5</ele><time>2026-05-04T07:13:28.342Z</time></trkpt><trkpt lat="45.7095264" lon="8.6961543"><ele>263.75</ele><time>2026-05-04T07:13:30.341Z</time></trkpt><trkpt lat="45.7096383" lon="8.6960906"><ele>263.0</ele><time>2026-05-04T07:13:32.343Z</time></trkpt><trkpt lat="45.7097506" lon="8.6960217"><ele>263.0</ele><time>2026-05-04T07:13:34.342Z</time></trkpt><trkpt lat="45.7098624" lon="8.6959528"><ele>263.0</ele><time>2026-05-04T07:13:36.342Z</time></trkpt><trkpt lat="45.7099732" lon="8.6958859"><ele>263.0</ele><time>2026-05-04T07:13:38.343Z</time></trkpt><trkpt lat="45.710084" lon="8.6958203"><ele>263.0</ele><time>2026-05-04T07:13:40.342Z</time></trkpt><trkpt lat="45.7101923" lon="8.695751"><ele>262.5</ele><time>2026-05-04T07:13:42.343Z</time></trkpt><trkpt lat="45.7103024" lon="8.6956851"><ele>262.0</ele><time>2026-05-04T07:13:44.343Z</time></trkpt><trkpt lat="45.7104139" lon="8.695618"><ele>261.5</ele><time>2026-05-04T07:13:46.342Z</time></trkpt><trkpt lat="45.7105216" lon="8.695552"><ele>261.0</ele><time>2026-05-04T07:13:48.343Z</time></trkpt><trkpt lat="45.7106266" lon="8.695483"><ele>261.0</ele><time>2026-05-04T07:13:50.342Z</time></trkpt><trkpt lat="45.7107311" lon="8.6954175"><ele>261.0</ele><time>2026-05-04T07:13:52.343Z</time></trkpt><trkpt lat="45.7108403" lon="8.6953529"><ele>261.0</ele><time>2026-05-04T07:13:54.342Z</time></trkpt><trkpt lat="45.7109519" lon="8.6952895"><ele>261.0</ele><time>2026-05-04T07:13:56.341Z</time></trkpt><trkpt lat="45.7110615" lon="8.6952257"><ele>261.75</ele><time>2026-05-04T07:13:58.342Z</time></trkpt><trkpt lat="45.7111672" lon="8.6951578"><ele>262.5</ele><time>2026-05-04T07:14:00.342Z</time></trkpt><trkpt lat="45.7112745" lon="8.6950971"><ele>263.25</ele><time>2026-05-04T07:14:02.343Z</time></trkpt><trkpt lat="45.7113823" lon="8.6950306"><ele>264.0</ele><time>2026-05-04T07:14:04.342Z</time></trkpt><trkpt lat="45.7114923" lon="8.6949599"><ele>264.0</ele><time>2026-05-04T07:14:06.342Z</time></trkpt><trkpt lat="45.7116047" lon="8.6948891"><ele>264.0</ele><time>2026-05-04T07:14:08.342Z</time></trkpt><trkpt lat="45.711717" lon="8.6948217"><ele>264.0</ele><time>2026-05-04T07:14:10.343Z</time></trkpt><trkpt lat="45.7118298" lon="8.6947612"><ele>264.0</ele><time>2026-05-04T07:14:12.343Z</time></trkpt><trkpt lat="45.7119418" lon="8.6946947"><ele>263.75</ele><time>2026-05-04T07:14:14.342Z</time></trkpt><trkpt lat="45.7120546" lon="8.6946267"><ele>263.5</ele><time>2026-05-04T07:14:16.342Z</time></trkpt><trkpt lat="45.7121653" lon="8.6945608"><ele>263.25</ele><time>2026-05-04T07:14:18.342Z</time></trkpt><trkpt lat="45.7122757" lon="8.6944927"><ele>263.0</ele><time>2026-05-04T07:14:20.343Z</time></trkpt><trkpt lat="45.7123865" lon="8.6944177"><ele>263.0</ele><time>2026-05-04T07:14:22.342Z</time></trkpt><trkpt lat="45.7124995" lon="8.6943489"><ele>263.0</ele><time>2026-05-04T07:14:24.343Z</time></trkpt><trkpt lat="45.7126146" lon="8.6942837"><ele>263.0</ele><time>2026-05-04T07:14:26.342Z</time></trkpt><trkpt lat="45.7127284" lon="8.6942147"><ele>263.0</ele><time>2026-05-04T07:14:28.343Z</time></trkpt><trkpt lat="45.7128432" lon="8.6941462"><ele>263.0</ele><time>2026-05-04T07:14:30.342Z</time></trkpt><trkpt lat="45.7129568" lon="8.6940764"><ele>263.0</ele><time>2026-05-04T07:14:32.343Z</time></trkpt><trkpt lat="45.7130165" lon="8.6940396"><ele>263.0</ele><time>2026-05-04T07:14:33.342Z</time></trkpt><trkpt lat="45.7130769" lon="8.6940019"><ele>263.0</ele><time>2026-05-04T07:14:34.342Z</time></trkpt><trkpt lat="45.7131383" lon="8.6939661"><ele>263.0</ele><time>2026-05-04T07:14:35.342Z</time></trkpt><trkpt lat="45.7132023" lon="8.6939329"><ele>263.0</ele><time>2026-05-04T07:14:36.343Z</time></trkpt><trkpt lat="45.7132661" lon="8.6938961"><ele>263.0</ele><time>2026-05-04T07:14:37.343Z</time></trkpt><trkpt lat="45.7133301" lon="8.6938551"><ele>263.0</ele><time>2026-05-04T07:14:38.342Z</time></trkpt><trkpt lat="45.7133962" lon="8.6938175"><ele>263.0</ele><time>2026-05-04T07:14:39.342Z</time></trkpt><trkpt lat="45.7134615" lon="8.693779"><ele>263.0</ele><time>2026-05-04T07:14:40.343Z</time></trkpt><trkpt lat="45.7135277" lon="8.6937377"><ele>263.0</ele><time>2026-05-04T07:14:41.342Z</time></trkpt><trkpt lat="45.7135931" lon="8.6936982"><ele>263.0</ele><time>2026-05-04T07:14:42.343Z</time></trkpt><trkpt lat="45.7136574" lon="8.6936594"><ele>263.0</ele><time>2026-05-04T07:14:43.342Z</time></trkpt><trkpt lat="45.7137227" lon="8.6936173"><ele>262.85714285714283</ele><time>2026-05-04T07:14:44.342Z</time></trkpt><trkpt lat="45.7137872" lon="8.6935812"><ele>262.71428571428567</ele><time>2026-05-04T07:14:45.343Z</time></trkpt><trkpt lat="45.7138514" lon="8.693546"><ele>262.57142857142856</ele><time>2026-05-04T07:14:46.342Z</time></trkpt><trkpt lat="45.7139172" lon="8.6935078"><ele>262.42857142857144</ele><time>2026-05-04T07:14:47.343Z</time></trkpt><trkpt lat="45.713981" lon="8.6934691"><ele>262.28571428571433</ele><time>2026-05-04T07:14:48.342Z</time></trkpt><trkpt lat="45.7140439" lon="8.6934321"><ele>262.14285714285717</ele><time>2026-05-04T07:14:49.341Z</time></trkpt><trkpt lat="45.7141059" lon="8.6933937"><ele>262.0</ele><time>2026-05-04T07:14:50.342Z</time></trkpt><trkpt lat="45.7141688" lon="8.6933554"><ele>262.0</ele><time>2026-05-04T07:14:51.342Z</time></trkpt><trkpt lat="45.7142299" lon="8.6933185"><ele>262.0</ele><time>2026-05-04T07:14:52.342Z</time></trkpt><trkpt lat="45.7142908" lon="8.6932824"><ele>262.0</ele><time>2026-05-04T07:14:53.342Z</time></trkpt><trkpt lat="45.7143523" lon="8.6932466"><ele>262.0</ele><time>2026-05-04T07:14:54.343Z</time></trkpt><trkpt lat="45.7144146" lon="8.6932108"><ele>262.0</ele><time>2026-05-04T07:14:55.342Z</time></trkpt><trkpt lat="45.7144751" lon="8.693177"><ele>262.0</ele><time>2026-05-04T07:14:56.342Z</time></trkpt><trkpt lat="45.7145357" lon="8.6931407"><ele>262.0</ele><time>2026-05-04T07:14:57.342Z</time></trkpt><trkpt lat="45.7145972" lon="8.6931038"><ele>262.14285714285717</ele><time>2026-05-04T07:14:58.343Z</time></trkpt><trkpt lat="45.714658" lon="8.6930687"><ele>262.28571428571433</ele><time>2026-05-04T07:14:59.342Z</time></trkpt><trkpt lat="45.7147168" lon="8.6930339"><ele>262.42857142857144</ele><time>2026-05-04T07:15:00.342Z</time></trkpt><trkpt lat="45.7147763" lon="8.6929976"><ele>262.57142857142856</ele><time>2026-05-04T07:15:01.342Z</time></trkpt><trkpt lat="45.7148365" lon="8.6929612"><ele>262.71428571428567</ele><time>2026-05-04T07:15:02.343Z</time></trkpt><trkpt lat="45.7148971" lon="8.6929253"><ele>262.85714285714283</ele><time>2026-05-04T07:15:03.342Z</time></trkpt><trkpt lat="45.7149593" lon="8.6928962"><ele>263.0</ele><time>2026-05-04T07:15:04.343Z</time></trkpt><trkpt lat="45.7150173" lon="8.6928587"><ele>263.0</ele><time>2026-05-04T07:15:05.342Z</time></trkpt><trkpt lat="45.7150766" lon="8.6928248"><ele>263.0</ele><time>2026-05-04T07:15:06.342Z</time></trkpt><trkpt lat="45.7151354" lon="8.6927897"><ele>263.0</ele><time>2026-05-04T07:15:07.343Z</time></trkpt><trkpt lat="45.7152495" lon="8.6927181"><ele>263.0</ele><time>2026-05-04T07:15:09.342Z</time></trkpt><trkpt lat="45.7153666" lon="8.6926478"><ele>263.0</ele><time>2026-05-04T07:15:11.343Z</time></trkpt><trkpt lat="45.7154289" lon="8.6926113"><ele>263.0</ele><time>2026-05-04T07:15:12.343Z</time></trkpt><trkpt lat="45.7154919" lon="8.692574"><ele>263.0</ele><time>2026-05-04T07:15:13.342Z</time></trkpt><trkpt lat="45.7155547" lon="8.6925412"><ele>263.0</ele><time>2026-05-04T07:15:14.343Z</time></trkpt><trkpt lat="45.715619" lon="8.6925053"><ele>263.0</ele><time>2026-05-04T07:15:15.343Z</time></trkpt><trkpt lat="45.7156811" lon="8.6924649"><ele>263.0</ele><time>2026-05-04T07:15:16.343Z</time></trkpt><trkpt lat="45.7157425" lon="8.6924287"><ele>263.0</ele><time>2026-05-04T07:15:17.342Z</time></trkpt><trkpt lat="45.7158014" lon="8.6923914"><ele>263.0</ele><time>2026-05-04T07:15:18.343Z</time></trkpt><trkpt lat="45.7158616" lon="8.6923566"><ele>263.0</ele><time>2026-05-04T07:15:19.343Z</time></trkpt><trkpt lat="45.7159196" lon="8.6923159"><ele>263.0</ele><time>2026-05-04T07:15:20.342Z</time></trkpt><trkpt lat="45.7159798" lon="8.6922815"><ele>263.0</ele><time>2026-05-04T07:15:21.342Z</time></trkpt><trkpt lat="45.7160954" lon="8.6922157"><ele>263.0</ele><time>2026-05-04T07:15:23.342Z</time></trkpt><trkpt lat="45.7161536" lon="8.6921788"><ele>263.0</ele><time>2026-05-04T07:15:24.343Z</time></trkpt><trkpt lat="45.7162134" lon="8.6921415"><ele>263.0</ele><time>2026-05-04T07:15:25.342Z</time></trkpt><trkpt lat="45.7162724" lon="8.6921069"><ele>263.0</ele><time>2026-05-04T07:15:26.342Z</time></trkpt><trkpt lat="45.7163871" lon="8.6920372"><ele>263.0</ele><time>2026-05-04T07:15:28.343Z</time></trkpt><trkpt lat="45.7164452" lon="8.692"><ele>263.0</ele><time>2026-05-04T07:15:29.342Z</time></trkpt><trkpt lat="45.7165589" lon="8.6919357"><ele>263.0</ele><time>2026-05-04T07:15:31.341Z</time></trkpt><trkpt lat="45.7166701" lon="8.6918723"><ele>263.0</ele><time>2026-05-04T07:15:33.342Z</time></trkpt><trkpt lat="45.7167795" lon="8.6918044"><ele>263.0</ele><time>2026-05-04T07:15:35.342Z</time></trkpt><trkpt lat="45.7168844" lon="8.6917373"><ele>263.0</ele><time>2026-05-04T07:15:37.343Z</time></trkpt><trkpt lat="45.716995" lon="8.6916726"><ele>263.0</ele><time>2026-05-04T07:15:39.343Z</time></trkpt><trkpt lat="45.7171065" lon="8.6916022"><ele>263.0</ele><time>2026-05-04T07:15:41.342Z</time></trkpt><trkpt lat="45.7172201" lon="8.6915376"><ele>263.0</ele><time>2026-05-04T07:15:43.343Z</time></trkpt><trkpt lat="45.7173271" lon="8.691474"><ele>263.0</ele><time>2026-05-04T07:15:45.342Z</time></trkpt><trkpt lat="45.7174026" lon="8.6915627"><ele>263.0</ele><time>2026-05-04T07:15:47.343Z</time></trkpt><trkpt lat="45.7174838" lon="8.6915631"><ele>263.0</ele><time>2026-05-04T07:15:49.342Z</time></trkpt><trkpt lat="45.7175684" lon="8.6915155"><ele>263.0</ele><time>2026-05-04T07:15:51.342Z</time></trkpt><trkpt lat="45.7176651" lon="8.6914602"><ele>263.0</ele><time>2026-05-04T07:15:53.343Z</time></trkpt><trkpt lat="45.71777" lon="8.6914593"><ele>263.0</ele><time>2026-05-04T07:15:55.342Z</time></trkpt><trkpt lat="45.7178457" lon="8.6915643"><ele>263.0</ele><time>2026-05-04T07:15:57.342Z</time></trkpt><trkpt lat="45.7179218" lon="8.6916344"><ele>263.0</ele><time>2026-05-04T07:15:59.342Z</time></trkpt><trkpt lat="45.7180148" lon="8.6916259"><ele>263.0</ele><time>2026-05-04T07:16:01.343Z</time></trkpt><trkpt lat="45.7181136" lon="8.6915844"><ele>263.0</ele><time>2026-05-04T07:16:03.342Z</time></trkpt><trkpt lat="45.7182171" lon="8.6915498"><ele>263.0</ele><time>2026-05-04T07:16:05.341Z</time></trkpt><trkpt lat="45.7183209" lon="8.6915291"><ele>263.0</ele><time>2026-05-04T07:16:07.342Z</time></trkpt><trkpt lat="45.7184194" lon="8.6915553"><ele>263.0</ele><time>2026-05-04T07:16:09.342Z</time></trkpt><trkpt lat="45.7184706" lon="8.6916759"><ele>263.0</ele><time>2026-05-04T07:16:11.343Z</time></trkpt><trkpt lat="45.7185171" lon="8.6918001"><ele>263.0</ele><time>2026-05-04T07:16:13.342Z</time></trkpt><trkpt lat="45.7185786" lon="8.6919065"><ele>263.2</ele><time>2026-05-04T07:16:15.342Z</time></trkpt><trkpt lat="45.7186382" lon="8.6920224"><ele>263.4</ele><time>2026-05-04T07:16:17.343Z</time></trkpt><trkpt lat="45.7186963" lon="8.6921436"><ele>263.59999999999997</ele><time>2026-05-04T07:16:19.343Z</time></trkpt><trkpt lat="45.7187384" lon="8.6922712"><ele>263.8</ele><time>2026-05-04T07:16:21.342Z</time></trkpt><trkpt lat="45.7187826" lon="8.69241"><ele>264.0</ele><time>2026-05-04T07:16:23.342Z</time></trkpt><trkpt lat="45.7188227" lon="8.6925521"><ele>264.0</ele><time>2026-05-04T07:16:25.343Z</time></trkpt><trkpt lat="45.7188673" lon="8.6926925"><ele>264.0</ele><time>2026-05-04T07:16:27.342Z</time></trkpt><trkpt lat="45.718914" lon="8.6928367"><ele>264.0</ele><time>2026-05-04T07:16:29.342Z</time></trkpt><trkpt lat="45.718959" lon="8.6929804"><ele>264.0</ele><time>2026-05-04T07:16:31.342Z</time></trkpt><trkpt lat="45.719002" lon="8.6931473"><ele>264.3333333333333</ele><time>2026-05-04T07:16:33.343Z</time></trkpt><trkpt lat="45.7190015" lon="8.693242"><ele>264.6666666666667</ele><time>2026-05-04T07:16:34.342Z</time></trkpt><trkpt lat="45.7189834" lon="8.6933291"><ele>265.0</ele><time>2026-05-04T07:16:35.342Z</time></trkpt><trkpt lat="45.7190056" lon="8.6934876"><ele>265.33333333333337</ele><time>2026-05-04T07:16:37.342Z</time></trkpt><trkpt lat="45.7191112" lon="8.6935212"><ele>265.6666666666667</ele><time>2026-05-04T07:16:39.342Z</time></trkpt><trkpt lat="45.7191747" lon="8.6935216"><ele>266.0</ele><time>2026-05-04T07:16:40.342Z</time></trkpt><trkpt lat="45.7192999" lon="8.6935386"><ele>266.0</ele><time>2026-05-04T07:16:42.342Z</time></trkpt><trkpt lat="45.7194219" lon="8.6935668"><ele>266.0</ele><time>2026-05-04T07:16:44.342Z</time></trkpt><trkpt lat="45.7194862" lon="8.6935842"><ele>266.0</ele><time>2026-05-04T07:16:45.343Z</time></trkpt><trkpt lat="45.7196051" lon="8.6936181"><ele>266.0</ele><time>2026-05-04T07:16:47.342Z</time></trkpt><trkpt lat="45.7197232" lon="8.6936443"><ele>266.0</ele><time>2026-05-04T07:16:49.342Z</time></trkpt><trkpt lat="45.719843" lon="8.6936688"><ele>266.2</ele><time>2026-05-04T07:16:51.343Z</time></trkpt><trkpt lat="45.7199642" lon="8.6936925"><ele>266.40000000000003</ele><time>2026-05-04T07:16:53.343Z</time></trkpt><trkpt lat="45.7200283" lon="8.693707"><ele>266.6</ele><time>2026-05-04T07:16:54.341Z</time></trkpt><trkpt lat="45.7201374" lon="8.6937277"><ele>266.8</ele><time>2026-05-04T07:16:56.343Z</time></trkpt><trkpt lat="45.7202319" lon="8.6937483"><ele>267.0</ele><time>2026-05-04T07:16:58.343Z</time></trkpt><trkpt lat="45.7202962" lon="8.6937548"><ele>267.2</ele><time>2026-05-04T07:16:59.342Z</time></trkpt><trkpt lat="45.7203987" lon="8.693755"><ele>267.4</ele><time>2026-05-04T07:17:01.341Z</time></trkpt><trkpt lat="45.7205099" lon="8.6937744"><ele>267.6</ele><time>2026-05-04T07:17:03.342Z</time></trkpt><trkpt lat="45.7206118" lon="8.6937925"><ele>267.8</ele><time>2026-05-04T07:17:05.343Z</time></trkpt><trkpt lat="45.7207086" lon="8.693814"><ele>268.0</ele><time>2026-05-04T07:17:07.343Z</time></trkpt><trkpt lat="45.7208062" lon="8.693843"><ele>268.0</ele><time>2026-05-04T07:17:09.343Z</time></trkpt><trkpt lat="45.7209033" lon="8.6938644"><ele>268.0</ele><time>2026-05-04T07:17:11.343Z</time></trkpt><trkpt lat="45.7210019" lon="8.6938769"><ele>268.0</ele><time>2026-05-04T07:17:13.343Z</time></trkpt><trkpt lat="45.7210996" lon="8.6939083"><ele>268.0</ele><time>2026-05-04T07:17:15.342Z</time></trkpt><trkpt lat="45.7211997" lon="8.6939351"><ele>268.0</ele><time>2026-05-04T07:17:17.342Z</time></trkpt><trkpt lat="45.7213023" lon="8.6939576"><ele>268.0</ele><time>2026-05-04T07:17:19.343Z</time></trkpt><trkpt lat="45.7214088" lon="8.6939911"><ele>268.0</ele><time>2026-05-04T07:17:21.342Z</time></trkpt><trkpt lat="45.7215045" lon="8.6940306"><ele>268.0</ele><time>2026-05-04T07:17:23.342Z</time></trkpt><trkpt lat="45.7215842" lon="8.694118"><ele>268.0</ele><time>2026-05-04T07:17:25.343Z</time></trkpt><trkpt lat="45.7216588" lon="8.6942294"><ele>268.0</ele><time>2026-05-04T07:17:27.342Z</time></trkpt><trkpt lat="45.721759" lon="8.6942546"><ele>268.0</ele><time>2026-05-04T07:17:29.342Z</time></trkpt><trkpt lat="45.7218476" lon="8.6941734"><ele>268.0</ele><time>2026-05-04T07:17:31.342Z</time></trkpt><trkpt lat="45.7219479" lon="8.6941214"><ele>268.0</ele><time>2026-05-04T07:17:33.341Z</time></trkpt><trkpt lat="45.7220536" lon="8.6941177"><ele>268.0</ele><time>2026-05-04T07:17:35.343Z</time></trkpt><trkpt lat="45.7221593" lon="8.6941243"><ele>268.0</ele><time>2026-05-04T07:17:37.342Z</time></trkpt><trkpt lat="45.7222668" lon="8.6941255"><ele>268.6</ele><time>2026-05-04T07:17:39.343Z</time></trkpt><trkpt lat="45.7223713" lon="8.6941307"><ele>269.20000000000005</ele><time>2026-05-04T07:17:41.342Z</time></trkpt><trkpt lat="45.7224706" lon="8.6941391"><ele>269.8</ele><time>2026-05-04T07:17:43.343Z</time></trkpt><trkpt lat="45.722564" lon="8.6941493"><ele>270.40000000000003</ele><time>2026-05-04T07:17:45.342Z</time></trkpt><trkpt lat="45.7226559" lon="8.6941363"><ele>271.0</ele><time>2026-05-04T07:17:47.343Z</time></trkpt><trkpt lat="45.7227537" lon="8.6941449"><ele>271.0</ele><time>2026-05-04T07:17:49.342Z</time></trkpt><trkpt lat="45.7228556" lon="8.6941557"><ele>271.0</ele><time>2026-05-04T07:17:51.343Z</time></trkpt><trkpt lat="45.7229531" lon="8.6941516"><ele>271.0</ele><time>2026-05-04T07:17:53.341Z</time></trkpt><trkpt lat="45.7230517" lon="8.6941639"><ele>271.0</ele><time>2026-05-04T07:17:55.343Z</time></trkpt><trkpt lat="45.7231498" lon="8.6941954"><ele>271.0</ele><time>2026-05-04T07:17:57.342Z</time></trkpt><trkpt lat="45.723239" lon="8.6942689"><ele>271.0</ele><time>2026-05-04T07:17:59.341Z</time></trkpt><trkpt lat="45.7232819" lon="8.694337"><ele>271.0</ele><time>2026-05-04T07:18:00.342Z</time></trkpt><trkpt lat="45.7233546" lon="8.6944472"><ele>271.0</ele><time>2026-05-04T07:18:02.343Z</time></trkpt><trkpt lat="45.7234253" lon="8.6945751"><ele>271.0</ele><time>2026-05-04T07:18:04.343Z</time></trkpt><trkpt lat="45.7234949" lon="8.6946797"><ele>271.0</ele><time>2026-05-04T07:18:06.343Z</time></trkpt><trkpt lat="45.7235667" lon="8.6947915"><ele>271.8</ele><time>2026-05-04T07:18:08.341Z</time></trkpt><trkpt lat="45.7236346" lon="8.694907"><ele>272.6</ele><time>2026-05-04T07:18:10.341Z</time></trkpt><trkpt lat="45.7237017" lon="8.6950221"><ele>273.4</ele><time>2026-05-04T07:18:12.342Z</time></trkpt><trkpt lat="45.7237552" lon="8.6951136"><ele>274.2</ele><time>2026-05-04T07:18:14.343Z</time></trkpt><trkpt lat="45.7238173" lon="8.6952005"><ele>275.0</ele><time>2026-05-04T07:18:16.341Z</time></trkpt><trkpt lat="45.7238867" lon="8.6952731"><ele>276.0</ele><time>2026-05-04T07:18:18.343Z</time></trkpt><trkpt lat="45.7239606" lon="8.6953334"><ele>277.0</ele><time>2026-05-04T07:18:20.343Z</time></trkpt><trkpt lat="45.724033" lon="8.6953923"><ele>278.0</ele><time>2026-05-04T07:18:22.342Z</time></trkpt><trkpt lat="45.7241007" lon="8.6954455"><ele>279.0</ele><time>2026-05-04T07:18:24.342Z</time></trkpt><trkpt lat="45.7241791" lon="8.6954837"><ele>280.0</ele><time>2026-05-04T07:18:26.342Z</time></trkpt><trkpt lat="45.7242592" lon="8.6955016"><ele>281.0</ele><time>2026-05-04T07:18:28.343Z</time></trkpt><trkpt lat="45.7243391" lon="8.6954782"><ele>281.6666666666667</ele><time>2026-05-04T07:18:30.342Z</time></trkpt><trkpt lat="45.7244109" lon="8.6954159"><ele>282.33333333333337</ele><time>2026-05-04T07:18:32.342Z</time></trkpt><trkpt lat="45.7244746" lon="8.6953368"><ele>283.0</ele><time>2026-05-04T07:18:34.343Z</time></trkpt><trkpt lat="45.724537" lon="8.6952599"><ele>283.6666666666667</ele><time>2026-05-04T07:18:36.343Z</time></trkpt><trkpt lat="45.7245995" lon="8.6951851"><ele>284.3333333333333</ele><time>2026-05-04T07:18:38.342Z</time></trkpt><trkpt lat="45.7246614" lon="8.695112"><ele>285.0</ele><time>2026-05-04T07:18:40.342Z</time></trkpt><trkpt lat="45.7247264" lon="8.6950605"><ele>285.0</ele><time>2026-05-04T07:18:42.342Z</time></trkpt><trkpt lat="45.7248025" lon="8.6950388"><ele>285.0</ele><time>2026-05-04T07:18:44.342Z</time></trkpt><trkpt lat="45.7248739" lon="8.6950427"><ele>285.0</ele><time>2026-05-04T07:18:46.342Z</time></trkpt><trkpt lat="45.7249395" lon="8.6950476"><ele>285.0</ele><time>2026-05-04T07:18:48.343Z</time></trkpt><trkpt lat="45.7250041" lon="8.6950592"><ele>285.0</ele><time>2026-05-04T07:18:50.343Z</time></trkpt><trkpt lat="45.7250714" lon="8.6950599"><ele>285.0</ele><time>2026-05-04T07:18:52.343Z</time></trkpt><trkpt lat="45.7251419" lon="8.6950508"><ele>285.0</ele><time>2026-05-04T07:18:54.343Z</time></trkpt><trkpt lat="45.7252094" lon="8.6950464"><ele>286.0</ele><time>2026-05-04T07:18:56.342Z</time></trkpt><trkpt lat="45.7252779" lon="8.6950413"><ele>287.0</ele><time>2026-05-04T07:18:58.343Z</time></trkpt><trkpt lat="45.7253436" lon="8.6950316"><ele>288.0</ele><time>2026-05-04T07:19:00.342Z</time></trkpt><trkpt lat="45.7254244" lon="8.6950686"><ele>289.0</ele><time>2026-05-04T07:19:02.342Z</time></trkpt><trkpt lat="45.7255049" lon="8.6951136"><ele>290.0</ele><time>2026-05-04T07:19:04.342Z</time></trkpt><trkpt lat="45.7255805" lon="8.6951483"><ele>291.0</ele><time>2026-05-04T07:19:06.343Z</time></trkpt><trkpt lat="45.725651" lon="8.695183"><ele>291.0</ele><time>2026-05-04T07:19:08.342Z</time></trkpt><trkpt lat="45.725717" lon="8.6952361"><ele>291.0</ele><time>2026-05-04T07:19:10.343Z</time></trkpt><trkpt lat="45.7257821" lon="8.6952777"><ele>291.0</ele><time>2026-05-04T07:19:12.343Z</time></trkpt><trkpt lat="45.7258549" lon="8.6952828"><ele>291.0</ele><time>2026-05-04T07:19:16.343Z</time></trkpt><trkpt lat="45.7259045" lon="8.6952262"><ele>291.0</ele><time>2026-05-04T07:19:21.343Z</time></trkpt><trkpt lat="45.7259714" lon="8.6952446"><ele>291.0</ele><time>2026-05-04T07:19:28.343Z</time></trkpt><trkpt lat="45.7260375" lon="8.6952533"><ele>291.0</ele><time>2026-05-04T07:19:31.342Z</time></trkpt><trkpt lat="45.7261334" lon="8.6952856"><ele>291.40000000000003</ele><time>2026-05-04T07:19:33.342Z</time></trkpt><trkpt lat="45.726232" lon="8.6952964"><ele>291.8</ele><time>2026-05-04T07:19:35.342Z</time></trkpt><trkpt lat="45.7263284" lon="8.6952841"><ele>292.20000000000005</ele><time>2026-05-04T07:19:37.343Z</time></trkpt><trkpt lat="45.7264199" lon="8.6952818"><ele>292.6</ele><time>2026-05-04T07:19:39.341Z</time></trkpt><trkpt lat="45.7265134" lon="8.695257"><ele>293.0</ele><time>2026-05-04T07:19:41.342Z</time></trkpt><trkpt lat="45.7266102" lon="8.6952475"><ele>293.0</ele><time>2026-05-04T07:19:43.342Z</time></trkpt><trkpt lat="45.7267017" lon="8.6952348"><ele>293.0</ele><time>2026-05-04T07:19:45.342Z</time></trkpt><trkpt lat="45.7267875" lon="8.695209"><ele>293.0</ele><time>2026-05-04T07:19:47.342Z</time></trkpt><trkpt lat="45.7268671" lon="8.6951889"><ele>293.0</ele><time>2026-05-04T07:19:49.342Z</time></trkpt><trkpt lat="45.7269561" lon="8.695181"><ele>293.0</ele><time>2026-05-04T07:19:51.343Z</time></trkpt><trkpt lat="45.7270503" lon="8.69517"><ele>293.0</ele><time>2026-05-04T07:19:53.342Z</time></trkpt><trkpt lat="45.7271394" lon="8.6951599"><ele>293.6</ele><time>2026-05-04T07:19:55.342Z</time></trkpt><trkpt lat="45.727228" lon="8.6951503"><ele>294.20000000000005</ele><time>2026-05-04T07:19:57.342Z</time></trkpt><trkpt lat="45.7273152" lon="8.69514"><ele>294.8</ele><time>2026-05-04T07:19:59.342Z</time></trkpt><trkpt lat="45.7274069" lon="8.6951272"><ele>295.40000000000003</ele><time>2026-05-04T07:20:01.343Z</time></trkpt><trkpt lat="45.727507" lon="8.6951"><ele>296.0</ele><time>2026-05-04T07:20:03.343Z</time></trkpt><trkpt lat="45.7276171" lon="8.6950592"><ele>296.0</ele><time>2026-05-04T07:20:05.342Z</time></trkpt><trkpt lat="45.7277228" lon="8.6950494"><ele>296.0</ele><time>2026-05-04T07:20:07.342Z</time></trkpt><trkpt lat="45.7278155" lon="8.6950393"><ele>296.0</ele><time>2026-05-04T07:20:09.343Z</time></trkpt><trkpt lat="45.7279021" lon="8.6949666"><ele>296.0</ele><time>2026-05-04T07:20:11.342Z</time></trkpt><trkpt lat="45.7279906" lon="8.694899"><ele>296.0</ele><time>2026-05-04T07:20:13.343Z</time></trkpt><trkpt lat="45.7280806" lon="8.6948277"><ele>297.0</ele><time>2026-05-04T07:20:15.343Z</time></trkpt><trkpt lat="45.7281694" lon="8.6947613"><ele>298.0</ele><time>2026-05-04T07:20:17.342Z</time></trkpt><trkpt lat="45.7282538" lon="8.6946981"><ele>299.0</ele><time>2026-05-04T07:20:19.342Z</time></trkpt><trkpt lat="45.7283343" lon="8.6946341"><ele>300.0</ele><time>2026-05-04T07:20:21.342Z</time></trkpt><trkpt lat="45.7284128" lon="8.6945657"><ele>301.0</ele><time>2026-05-04T07:20:23.342Z</time></trkpt><trkpt lat="45.7284915" lon="8.694503"><ele>302.0</ele><time>2026-05-04T07:20:25.342Z</time></trkpt><trkpt lat="45.7285692" lon="8.6944369"><ele>303.0</ele><time>2026-05-04T07:20:27.342Z</time></trkpt><trkpt lat="45.7286451" lon="8.6943613"><ele>304.0</ele><time>2026-05-04T07:20:29.342Z</time></trkpt><trkpt lat="45.7287155" lon="8.6942758"><ele>305.0</ele><time>2026-05-04T07:20:31.342Z</time></trkpt><trkpt lat="45.7287837" lon="8.6941964"><ele>306.0</ele><time>2026-05-04T07:20:33.342Z</time></trkpt><trkpt lat="45.7288477" lon="8.6941199"><ele>307.0</ele><time>2026-05-04T07:20:35.342Z</time></trkpt><trkpt lat="45.7289029" lon="8.6940369"><ele>307.0</ele><time>2026-05-04T07:20:37.343Z</time></trkpt><trkpt lat="45.7289599" lon="8.6939406"><ele>307.0</ele><time>2026-05-04T07:20:39.343Z</time></trkpt><trkpt lat="45.7290209" lon="8.6938322"><ele>307.0</ele><time>2026-05-04T07:20:41.343Z</time></trkpt><trkpt lat="45.7290773" lon="8.6937321"><ele>307.0</ele><time>2026-05-04T07:20:43.343Z</time></trkpt><trkpt lat="45.7291305" lon="8.693623"><ele>307.0</ele><time>2026-05-04T07:20:45.343Z</time></trkpt><trkpt lat="45.7291767" lon="8.6935135"><ele>306.4</ele><time>2026-05-04T07:20:47.343Z</time></trkpt><trkpt lat="45.7292246" lon="8.6933883"><ele>305.79999999999995</ele><time>2026-05-04T07:20:49.342Z</time></trkpt><trkpt lat="45.7292667" lon="8.693259"><ele>305.2</ele><time>2026-05-04T07:20:51.342Z</time></trkpt><trkpt lat="45.7293111" lon="8.6931323"><ele>304.59999999999997</ele><time>2026-05-04T07:20:53.342Z</time></trkpt><trkpt lat="45.72936" lon="8.6930053"><ele>304.0</ele><time>2026-05-04T07:20:55.343Z</time></trkpt><trkpt lat="45.7294046" lon="8.6928711"><ele>305.4</ele><time>2026-05-04T07:20:57.342Z</time></trkpt><trkpt lat="45.7294519" lon="8.6927472"><ele>306.79999999999995</ele><time>2026-05-04T07:20:59.342Z</time></trkpt><trkpt lat="45.7295023" lon="8.6926309"><ele>308.20000000000005</ele><time>2026-05-04T07:21:01.343Z</time></trkpt><trkpt lat="45.7295355" lon="8.6924983"><ele>309.6</ele><time>2026-05-04T07:21:03.343Z</time></trkpt><trkpt lat="45.729588" lon="8.6923581"><ele>311.0</ele><time>2026-05-04T07:21:05.342Z</time></trkpt><trkpt lat="45.72963" lon="8.6922377"><ele>311.0</ele><time>2026-05-04T07:21:07.343Z</time></trkpt><trkpt lat="45.7296735" lon="8.6921052"><ele>311.0</ele><time>2026-05-04T07:21:09.342Z</time></trkpt><trkpt lat="45.7297163" lon="8.6919685"><ele>311.0</ele><time>2026-05-04T07:21:11.342Z</time></trkpt><trkpt lat="45.7297624" lon="8.6918345"><ele>311.0</ele><time>2026-05-04T07:21:13.342Z</time></trkpt><trkpt lat="45.7298261" lon="8.6917007"><ele>311.0</ele><time>2026-05-04T07:21:15.343Z</time></trkpt><trkpt lat="45.7298909" lon="8.6915823"><ele>310.0</ele><time>2026-05-04T07:21:17.343Z</time></trkpt><trkpt lat="45.729957" lon="8.6914681"><ele>309.0</ele><time>2026-05-04T07:21:19.343Z</time></trkpt><trkpt lat="45.7300259" lon="8.691359"><ele>308.0</ele><time>2026-05-04T07:21:21.343Z</time></trkpt><trkpt lat="45.7300921" lon="8.6912436"><ele>307.0</ele><time>2026-05-04T07:21:23.342Z</time></trkpt><trkpt lat="45.7301522" lon="8.6911292"><ele>306.0</ele><time>2026-05-04T07:21:25.342Z</time></trkpt><trkpt lat="45.7302138" lon="8.6910233"><ele>306.8333333333333</ele><time>2026-05-04T07:21:27.343Z</time></trkpt><trkpt lat="45.7302731" lon="8.6909191"><ele>307.6666666666667</ele><time>2026-05-04T07:21:29.343Z</time></trkpt><trkpt lat="45.7303323" lon="8.6908255"><ele>308.5</ele><time>2026-05-04T07:21:31.343Z</time></trkpt><trkpt lat="45.7304122" lon="8.6907934"><ele>309.33333333333337</ele><time>2026-05-04T07:21:33.343Z</time></trkpt><trkpt lat="45.7304766" lon="8.6908621"><ele>310.1666666666667</ele><time>2026-05-04T07:21:35.343Z</time></trkpt><trkpt lat="45.7305213" lon="8.6909431"><ele>311.0</ele><time>2026-05-04T07:21:37.342Z</time></trkpt><trkpt lat="45.7305804" lon="8.6910268"><ele>312.1666666666667</ele><time>2026-05-04T07:21:39.343Z</time></trkpt><trkpt lat="45.7306388" lon="8.6911169"><ele>313.33333333333337</ele><time>2026-05-04T07:21:41.342Z</time></trkpt><trkpt lat="45.7306846" lon="8.6912166"><ele>314.5</ele><time>2026-05-04T07:21:43.342Z</time></trkpt><trkpt lat="45.7307186" lon="8.6913225"><ele>315.6666666666667</ele><time>2026-05-04T07:21:45.342Z</time></trkpt><trkpt lat="45.7307561" lon="8.6914312"><ele>316.8333333333333</ele><time>2026-05-04T07:21:47.342Z</time></trkpt><trkpt lat="45.7307948" lon="8.6915322"><ele>318.0</ele><time>2026-05-04T07:21:49.343Z</time></trkpt><trkpt lat="45.7308313" lon="8.6916255"><ele>318.0</ele><time>2026-05-04T07:21:51.343Z</time></trkpt><trkpt lat="45.7308622" lon="8.6917153"><ele>318.0</ele><time>2026-05-04T07:21:53.342Z</time></trkpt><trkpt lat="45.7309028" lon="8.691822"><ele>318.0</ele><time>2026-05-04T07:21:56.342Z</time></trkpt><trkpt lat="45.7309688" lon="8.6918512"><ele>318.0</ele><time>2026-05-04T07:21:59.342Z</time></trkpt><trkpt lat="45.7310529" lon="8.6918696"><ele>318.0</ele><time>2026-05-04T07:22:03.342Z</time></trkpt><trkpt lat="45.7311234" lon="8.6918992"><ele>318.0</ele><time>2026-05-04T07:22:06.342Z</time></trkpt><trkpt lat="45.7311954" lon="8.6919404"><ele>320.85714285714283</ele><time>2026-05-04T07:22:09.343Z</time></trkpt><trkpt lat="45.7312627" lon="8.6919926"><ele>323.7142857142857</ele><time>2026-05-04T07:22:12.342Z</time></trkpt><trkpt lat="45.7313154" lon="8.6920742"><ele>326.57142857142856</ele><time>2026-05-04T07:22:15.342Z</time></trkpt><trkpt lat="45.731317" lon="8.6921881"><ele>329.42857142857144</ele><time>2026-05-04T07:22:18.342Z</time></trkpt><trkpt lat="45.7312964" lon="8.692281"><ele>332.2857142857143</ele><time>2026-05-04T07:22:21.342Z</time></trkpt><trkpt lat="45.7312677" lon="8.6923802"><ele>335.14285714285717</ele><time>2026-05-04T07:22:25.343Z</time></trkpt><trkpt lat="45.7312318" lon="8.6924686"><ele>338.0</ele><time>2026-05-04T07:22:28.342Z</time></trkpt><trkpt lat="45.7311893" lon="8.6925716"><ele>338.0</ele><time>2026-05-04T07:22:31.342Z</time></trkpt><trkpt lat="45.7311718" lon="8.6926768"><ele>338.0</ele><time>2026-05-04T07:22:34.343Z</time></trkpt><trkpt lat="45.7312029" lon="8.6927699"><ele>338.0</ele><time>2026-05-04T07:22:38.342Z</time></trkpt><trkpt lat="45.7312477" lon="8.6928382"><ele>338.0</ele><time>2026-05-04T07:22:43.343Z</time></trkpt><trkpt lat="45.7313081" lon="8.6928868"><ele>338.0</ele><time>2026-05-04T07:22:47.343Z</time></trkpt><trkpt lat="45.731368" lon="8.6929205"><ele>338.0</ele><time>2026-05-04T07:22:51.342Z</time></trkpt><trkpt lat="45.7314444" lon="8.6929231"><ele>338.0</ele><time>2026-05-04T07:22:56.343Z</time></trkpt><trkpt lat="45.7315078" lon="8.6929106"><ele>339.57142857142856</ele><time>2026-05-04T07:23:00.342Z</time></trkpt><trkpt lat="45.7315707" lon="8.6929419"><ele>341.1428571428571</ele><time>2026-05-04T07:23:03.343Z</time></trkpt><trkpt lat="45.7316386" lon="8.6929926"><ele>342.71428571428567</ele><time>2026-05-04T07:23:06.342Z</time></trkpt><trkpt lat="45.731712" lon="8.6930153"><ele>344.2857142857143</ele><time>2026-05-04T07:23:09.343Z</time></trkpt><trkpt lat="45.7317846" lon="8.6930537"><ele>345.85714285714283</ele><time>2026-05-04T07:23:12.343Z</time></trkpt><trkpt lat="45.7318538" lon="8.6930948"><ele>347.4285714285714</ele><time>2026-05-04T07:23:15.342Z</time></trkpt><trkpt lat="45.7319124" lon="8.6931528"><ele>349.0</ele><time>2026-05-04T07:23:18.343Z</time></trkpt><trkpt lat="45.7319792" lon="8.6932064"><ele>350.1428571428571</ele><time>2026-05-04T07:23:21.343Z</time></trkpt><trkpt lat="45.7320439" lon="8.693236"><ele>351.2857142857143</ele><time>2026-05-04T07:23:24.342Z</time></trkpt><trkpt lat="45.7320998" lon="8.6932871"><ele>352.42857142857144</ele><time>2026-05-04T07:23:26.343Z</time></trkpt><trkpt lat="45.7321658" lon="8.6933814"><ele>353.57142857142856</ele><time>2026-05-04T07:23:29.343Z</time></trkpt><trkpt lat="45.7322242" lon="8.6934438"><ele>354.7142857142857</ele><time>2026-05-04T07:23:33.342Z</time></trkpt><trkpt lat="45.7322817" lon="8.6934833"><ele>355.85714285714283</ele><time>2026-05-04T07:23:37.343Z</time></trkpt><trkpt lat="45.7323434" lon="8.6935311"><ele>357.0</ele><time>2026-05-04T07:23:41.342Z</time></trkpt><trkpt lat="45.7324122" lon="8.6935725"><ele>357.8333333333333</ele><time>2026-05-04T07:23:45.342Z</time></trkpt><trkpt lat="45.7324793" lon="8.6936229"><ele>358.6666666666667</ele><time>2026-05-04T07:23:48.342Z</time></trkpt><trkpt lat="45.7325599" lon="8.6936839"><ele>359.5</ele><time>2026-05-04T07:23:52.343Z</time></trkpt><trkpt lat="45.732635" lon="8.6937318"><ele>360.33333333333337</ele><time>2026-05-04T07:23:55.342Z</time></trkpt><trkpt lat="45.732708" lon="8.6937817"><ele>361.1666666666667</ele><time>2026-05-04T07:23:58.342Z</time></trkpt><trkpt lat="45.732782" lon="8.6938397"><ele>362.0</ele><time>2026-05-04T07:24:02.343Z</time></trkpt><trkpt lat="45.7328513" lon="8.6938946"><ele>363.1666666666667</ele><time>2026-05-04T07:24:05.343Z</time></trkpt><trkpt lat="45.732916" lon="8.6939732"><ele>364.33333333333337</ele><time>2026-05-04T07:24:08.342Z</time></trkpt><trkpt lat="45.7329679" lon="8.6940375"><ele>365.5</ele><time>2026-05-04T07:24:11.342Z</time></trkpt><trkpt lat="45.7330276" lon="8.6940791"><ele>366.6666666666667</ele><time>2026-05-04T07:24:14.343Z</time></trkpt><trkpt lat="45.733108" lon="8.6941222"><ele>367.8333333333333</ele><time>2026-05-04T07:24:18.343Z</time></trkpt><trkpt lat="45.7331757" lon="8.6941602"><ele>369.0</ele><time>2026-05-04T07:24:21.343Z</time></trkpt><trkpt lat="45.7332478" lon="8.6941856"><ele>369.0</ele><time>2026-05-04T07:24:24.343Z</time></trkpt><trkpt lat="45.7333223" lon="8.6942264"><ele>369.0</ele><time>2026-05-04T07:24:27.343Z</time></trkpt><trkpt lat="45.7333889" lon="8.6942291"><ele>369.0</ele><time>2026-05-04T07:24:30.342Z</time></trkpt><trkpt lat="45.7334674" lon="8.6942096"><ele>369.0</ele><time>2026-05-04T07:24:33.342Z</time></trkpt><trkpt lat="45.7335564" lon="8.6941719"><ele>369.0</ele><time>2026-05-04T07:24:36.341Z</time></trkpt><trkpt lat="45.7336241" lon="8.6941336"><ele>369.0</ele><time>2026-05-04T07:24:39.342Z</time></trkpt><trkpt lat="45.7336805" lon="8.694087"><ele>370.0</ele><time>2026-05-04T07:24:41.343Z</time></trkpt><trkpt lat="45.733761" lon="8.6940373"><ele>371.0</ele><time>2026-05-04T07:24:44.343Z</time></trkpt><trkpt lat="45.7338273" lon="8.6939931"><ele>372.0</ele><time>2026-05-04T07:24:46.343Z</time></trkpt><trkpt lat="45.7338865" lon="8.6939397"><ele>373.0</ele><time>2026-05-04T07:24:48.342Z</time></trkpt><trkpt lat="45.733969" lon="8.6938811"><ele>374.0</ele><time>2026-05-04T07:24:51.342Z</time></trkpt><trkpt lat="45.7340435" lon="8.6938293"><ele>375.0</ele><time>2026-05-04T07:24:53.343Z</time></trkpt><trkpt lat="45.7341131" lon="8.6937811"><ele>375.0</ele><time>2026-05-04T07:24:55.342Z</time></trkpt><trkpt lat="45.7341935" lon="8.6937392"><ele>375.0</ele><time>2026-05-04T07:24:57.343Z</time></trkpt><trkpt lat="45.7342718" lon="8.6936964"><ele>375.0</ele><time>2026-05-04T07:24:59.343Z</time></trkpt><trkpt lat="45.7343427" lon="8.6936607"><ele>375.0</ele><time>2026-05-04T07:25:01.343Z</time></trkpt><trkpt lat="45.7344147" lon="8.6936257"><ele>375.0</ele><time>2026-05-04T07:25:03.343Z</time></trkpt><trkpt lat="45.7344762" lon="8.6935849"><ele>375.0</ele><time>2026-05-04T07:25:05.341Z</time></trkpt><trkpt lat="45.7345356" lon="8.693553"><ele>375.6666666666667</ele><time>2026-05-04T07:25:07.342Z</time></trkpt><trkpt lat="45.734594" lon="8.6935116"><ele>376.3333333333333</ele><time>2026-05-04T07:25:09.342Z</time></trkpt><trkpt lat="45.7346563" lon="8.6934681"><ele>377.0</ele><time>2026-05-04T07:25:11.342Z</time></trkpt><trkpt lat="45.7347324" lon="8.6934313"><ele>377.66666666666663</ele><time>2026-05-04T07:25:13.342Z</time></trkpt><trkpt lat="45.7348121" lon="8.6934139"><ele>378.3333333333333</ele><time>2026-05-04T07:25:15.343Z</time></trkpt><trkpt lat="45.7348906" lon="8.6934031"><ele>379.0</ele><time>2026-05-04T07:25:17.343Z</time></trkpt><trkpt lat="45.7349718" lon="8.6933987"><ele>379.0</ele><time>2026-05-04T07:25:19.342Z</time></trkpt><trkpt lat="45.7350608" lon="8.6933763"><ele>379.0</ele><time>2026-05-04T07:25:21.343Z</time></trkpt><trkpt lat="45.7351429" lon="8.6933528"><ele>379.0</ele><time>2026-05-04T07:25:23.343Z</time></trkpt><trkpt lat="45.7352479" lon="8.6933252"><ele>379.0</ele><time>2026-05-04T07:25:25.342Z</time></trkpt><trkpt lat="45.7353117" lon="8.6933098"><ele>379.0</ele><time>2026-05-04T07:25:26.342Z</time></trkpt><trkpt lat="45.7354195" lon="8.6932907"><ele>379.5</ele><time>2026-05-04T07:25:28.343Z</time></trkpt><trkpt lat="45.7355136" lon="8.6932631"><ele>380.0</ele><time>2026-05-04T07:25:30.342Z</time></trkpt><trkpt lat="45.7357044" lon="8.6932422"><ele>380.5</ele><time>2026-05-04T07:25:34.342Z</time></trkpt><trkpt lat="45.7358026" lon="8.6932143"><ele>381.0</ele><time>2026-05-04T07:25:36.342Z</time></trkpt><trkpt lat="45.7359131" lon="8.6932047"><ele>381.0</ele><time>2026-05-04T07:25:38.342Z</time></trkpt><trkpt lat="45.7360299" lon="8.6932026"><ele>381.0</ele><time>2026-05-04T07:25:40.342Z</time></trkpt><trkpt lat="45.7361322" lon="8.6932113"><ele>381.0</ele><time>2026-05-04T07:25:42.342Z</time></trkpt><trkpt lat="45.7362309" lon="8.6932066"><ele>381.0</ele><time>2026-05-04T07:25:44.343Z</time></trkpt><trkpt lat="45.7363218" lon="8.6931966"><ele>381.0</ele><time>2026-05-04T07:25:46.342Z</time></trkpt><trkpt lat="45.7364056" lon="8.6931988"><ele>381.8</ele><time>2026-05-04T07:25:48.343Z</time></trkpt><trkpt lat="45.7364866" lon="8.6931948"><ele>382.6</ele><time>2026-05-04T07:25:50.342Z</time></trkpt><trkpt lat="45.7365794" lon="8.6931794"><ele>383.4</ele><time>2026-05-04T07:25:52.342Z</time></trkpt><trkpt lat="45.7366984" lon="8.6931532"><ele>384.2</ele><time>2026-05-04T07:25:54.343Z</time></trkpt><trkpt lat="45.7368084" lon="8.6931661"><ele>385.0</ele><time>2026-05-04T07:25:56.342Z</time></trkpt><trkpt lat="45.7368846" lon="8.6931889"><ele>385.0</ele><time>2026-05-04T07:25:58.343Z</time></trkpt><trkpt lat="45.7369632" lon="8.6931934"><ele>385.0</ele><time>2026-05-04T07:26:00.343Z</time></trkpt><trkpt lat="45.7370395" lon="8.693185"><ele>385.0</ele><time>2026-05-04T07:26:02.343Z</time></trkpt><trkpt lat="45.7371289" lon="8.6931804"><ele>385.0</ele><time>2026-05-04T07:26:04.343Z</time></trkpt><trkpt lat="45.7372382" lon="8.6931755"><ele>385.0</ele><time>2026-05-04T07:26:06.343Z</time></trkpt><trkpt lat="45.737349" lon="8.6931956"><ele>385.0</ele><time>2026-05-04T07:26:08.342Z</time></trkpt><trkpt lat="45.7374441" lon="8.6932247"><ele>385.0</ele><time>2026-05-04T07:26:10.343Z</time></trkpt><trkpt lat="45.737543" lon="8.6932437"><ele>385.0</ele><time>2026-05-04T07:26:12.343Z</time></trkpt><trkpt lat="45.7376517" lon="8.6932451"><ele>385.0</ele><time>2026-05-04T07:26:14.343Z</time></trkpt><trkpt lat="45.7377549" lon="8.6932664"><ele>385.0</ele><time>2026-05-04T07:26:16.343Z</time></trkpt><trkpt lat="45.7378544" lon="8.6933361"><ele>384.0</ele><time>2026-05-04T07:26:18.342Z</time></trkpt><trkpt lat="45.7379133" lon="8.6933832"><ele>383.0</ele><time>2026-05-04T07:26:19.342Z</time></trkpt><trkpt lat="45.7380132" lon="8.6934107"><ele>382.0</ele><time>2026-05-04T07:26:21.343Z</time></trkpt><trkpt lat="45.7381116" lon="8.6934584"><ele>381.0</ele><time>2026-05-04T07:26:23.342Z</time></trkpt><trkpt lat="45.7381782" lon="8.6935672"><ele>380.0</ele><time>2026-05-04T07:26:25.343Z</time></trkpt><trkpt lat="45.7382404" lon="8.6936398"><ele>381.5</ele><time>2026-05-04T07:26:27.343Z</time></trkpt><trkpt lat="45.7383191" lon="8.6936833"><ele>383.0</ele><time>2026-05-04T07:26:29.343Z</time></trkpt><trkpt lat="45.7383936" lon="8.6937333"><ele>384.5</ele><time>2026-05-04T07:26:31.342Z</time></trkpt><trkpt lat="45.7384732" lon="8.6937922"><ele>386.0</ele><time>2026-05-04T07:26:33.343Z</time></trkpt><trkpt lat="45.7385531" lon="8.6938772"><ele>387.49999999999994</ele><time>2026-05-04T07:26:35.343Z</time></trkpt><trkpt lat="45.7386253" lon="8.6939311"><ele>389.0</ele><time>2026-05-04T07:26:37.343Z</time></trkpt><trkpt lat="45.7386996" lon="8.6939898"><ele>389.0</ele><time>2026-05-04T07:26:39.343Z</time></trkpt><trkpt lat="45.7387821" lon="8.6940743"><ele>389.0</ele><time>2026-05-04T07:26:41.343Z</time></trkpt><trkpt lat="45.738844" lon="8.6941486"><ele>389.0</ele><time>2026-05-04T07:26:42.343Z</time></trkpt><trkpt lat="45.7389317" lon="8.6941945"><ele>389.0</ele><time>2026-05-04T07:26:44.343Z</time></trkpt><trkpt lat="45.7390293" lon="8.6942699"><ele>389.0</ele><time>2026-05-04T07:26:46.341Z</time></trkpt><trkpt lat="45.7391191" lon="8.6943486"><ele>390.66666666666663</ele><time>2026-05-04T07:26:48.344Z</time></trkpt><trkpt lat="45.7392032" lon="8.6944255"><ele>392.3333333333333</ele><time>2026-05-04T07:26:50.341Z</time></trkpt><trkpt lat="45.7392813" lon="8.6944863"><ele>394.0</ele><time>2026-05-04T07:26:52.342Z</time></trkpt><trkpt lat="45.7393616" lon="8.6945321"><ele>395.66666666666663</ele><time>2026-05-04T07:26:54.342Z</time></trkpt><trkpt lat="45.73944" lon="8.6945781"><ele>397.3333333333333</ele><time>2026-05-04T07:26:56.343Z</time></trkpt><trkpt lat="45.7394984" lon="8.6946353"><ele>399.0</ele><time>2026-05-04T07:26:59.343Z</time></trkpt><trkpt lat="45.7395837" lon="8.6946863"><ele>399.0</ele><time>2026-05-04T07:27:02.343Z</time></trkpt><trkpt lat="45.7396759" lon="8.6947158"><ele>399.0</ele><time>2026-05-04T07:27:05.343Z</time></trkpt><trkpt lat="45.73976" lon="8.69474"><ele>399.0</ele><time>2026-05-04T07:27:08.343Z</time></trkpt><trkpt lat="45.7398205" lon="8.6947885"><ele>399.0</ele><time>2026-05-04T07:27:10.342Z</time></trkpt><trkpt lat="45.739886" lon="8.6948257"><ele>399.0</ele><time>2026-05-04T07:27:12.343Z</time></trkpt><trkpt lat="45.7399621" lon="8.6948761"><ele>399.0</ele><time>2026-05-04T07:27:14.342Z</time></trkpt><trkpt lat="45.74004" lon="8.69493"><ele>399.0</ele><time>2026-05-04T07:27:16.343Z</time></trkpt><trkpt lat="45.7401081" lon="8.6949891"><ele>399.0</ele><time>2026-05-04T07:27:18.343Z</time></trkpt><trkpt lat="45.74018" lon="8.6950328"><ele>399.0</ele><time>2026-05-04T07:27:20.343Z</time></trkpt><trkpt lat="45.7402458" lon="8.695096"><ele>399.0</ele><time>2026-05-04T07:27:22.343Z</time></trkpt><trkpt lat="45.7403215" lon="8.695167"><ele>399.0</ele><time>2026-05-04T07:27:25.343Z</time></trkpt><trkpt lat="45.740384" lon="8.6952149"><ele>399.0</ele><time>2026-05-04T07:27:27.343Z</time></trkpt><trkpt lat="45.7404644" lon="8.6952409"><ele>400.6666666666667</ele><time>2026-05-04T07:27:29.342Z</time></trkpt><trkpt lat="45.7405401" lon="8.6952918"><ele>402.33333333333337</ele><time>2026-05-04T07:27:31.343Z</time></trkpt><trkpt lat="45.7406182" lon="8.6953354"><ele>404.0</ele><time>2026-05-04T07:27:33.343Z</time></trkpt><trkpt lat="45.7406955" lon="8.6953832"><ele>405.6666666666667</ele><time>2026-05-04T07:27:35.342Z</time></trkpt><trkpt lat="45.7407652" lon="8.6954066"><ele>407.33333333333337</ele><time>2026-05-04T07:27:37.341Z</time></trkpt><trkpt lat="45.7408395" lon="8.6954392"><ele>409.0</ele><time>2026-05-04T07:27:39.343Z</time></trkpt><trkpt lat="45.7409473" lon="8.6954828"><ele>409.0</ele><time>2026-05-04T07:27:41.343Z</time></trkpt><trkpt lat="45.7410097" lon="8.6955195"><ele>409.0</ele><time>2026-05-04T07:27:42.342Z</time></trkpt><trkpt lat="45.7410709" lon="8.6955604"><ele>409.0</ele><time>2026-05-04T07:27:43.341Z</time></trkpt><trkpt lat="45.7411828" lon="8.6956175"><ele>409.0</ele><time>2026-05-04T07:27:45.343Z</time></trkpt><trkpt lat="45.7412919" lon="8.6956559"><ele>409.0</ele><time>2026-05-04T07:27:47.342Z</time></trkpt><trkpt lat="45.7413964" lon="8.6956898"><ele>408.0</ele><time>2026-05-04T07:27:49.342Z</time></trkpt><trkpt lat="45.7414989" lon="8.6957357"><ele>407.0</ele><time>2026-05-04T07:27:51.342Z</time></trkpt><trkpt lat="45.7415862" lon="8.6958374"><ele>406.0</ele><time>2026-05-04T07:27:53.343Z</time></trkpt><trkpt lat="45.741681" lon="8.695897"><ele>405.0</ele><time>2026-05-04T07:27:55.342Z</time></trkpt><trkpt lat="45.7417363" lon="8.6959402"><ele>404.0</ele><time>2026-05-04T07:27:56.343Z</time></trkpt><trkpt lat="45.7418442" lon="8.6959789"><ele>404.79999999999995</ele><time>2026-05-04T07:27:58.343Z</time></trkpt><trkpt lat="45.7419488" lon="8.6959905"><ele>405.59999999999997</ele><time>2026-05-04T07:28:00.342Z</time></trkpt><trkpt lat="45.7420433" lon="8.696058"><ele>406.4</ele><time>2026-05-04T07:28:02.342Z</time></trkpt><trkpt lat="45.74214" lon="8.6961089"><ele>407.2</ele><time>2026-05-04T07:28:04.343Z</time></trkpt><trkpt lat="45.7422424" lon="8.6961812"><ele>408.0</ele><time>2026-05-04T07:28:06.342Z</time></trkpt><trkpt lat="45.742344" lon="8.6962388"><ele>408.0</ele><time>2026-05-04T07:28:08.342Z</time></trkpt><trkpt lat="45.7424011" lon="8.6962969"><ele>408.0</ele><time>2026-05-04T07:28:09.342Z</time></trkpt><trkpt lat="45.7424871" lon="8.696386"><ele>408.0</ele><time>2026-05-04T07:28:11.342Z</time></trkpt><trkpt lat="45.7425536" lon="8.6964309"><ele>408.0</ele><time>2026-05-04T07:28:13.343Z</time></trkpt><trkpt lat="45.7426512" lon="8.6964832"><ele>408.0</ele><time>2026-05-04T07:28:15.342Z</time></trkpt><trkpt lat="45.7427475" lon="8.6965252"><ele>405.75</ele><time>2026-05-04T07:28:17.341Z</time></trkpt><trkpt lat="45.7428588" lon="8.6966006"><ele>403.5</ele><time>2026-05-04T07:28:19.343Z</time></trkpt><trkpt lat="45.7429564" lon="8.696679"><ele>401.25</ele><time>2026-05-04T07:28:21.343Z</time></trkpt><trkpt lat="45.7430428" lon="8.6967775"><ele>399.0</ele><time>2026-05-04T07:28:23.342Z</time></trkpt><trkpt lat="45.7431361" lon="8.6968589"><ele>399.6</ele><time>2026-05-04T07:28:25.342Z</time></trkpt><trkpt lat="45.7432383" lon="8.6969265"><ele>400.2</ele><time>2026-05-04T07:28:27.341Z</time></trkpt><trkpt lat="45.7433208" lon="8.6969699"><ele>400.8</ele><time>2026-05-04T07:28:29.342Z</time></trkpt><trkpt lat="45.7434172" lon="8.6970422"><ele>401.40000000000003</ele><time>2026-05-04T07:28:31.343Z</time></trkpt><trkpt lat="45.7434956" lon="8.6971102"><ele>402.0</ele><time>2026-05-04T07:28:33.342Z</time></trkpt><trkpt lat="45.7435722" lon="8.6971463"><ele>402.0</ele><time>2026-05-04T07:28:35.342Z</time></trkpt><trkpt lat="45.7436677" lon="8.6971484"><ele>402.0</ele><time>2026-05-04T07:28:37.344Z</time></trkpt><trkpt lat="45.7437787" lon="8.6971732"><ele>402.0</ele><time>2026-05-04T07:28:39.341Z</time></trkpt><trkpt lat="45.7438419" lon="8.6971817"><ele>402.0</ele><time>2026-05-04T07:28:40.342Z</time></trkpt><trkpt lat="45.7439569" lon="8.697188"><ele>402.0</ele><time>2026-05-04T07:28:42.343Z</time></trkpt><trkpt lat="45.7440206" lon="8.697204"><ele>402.0</ele><time>2026-05-04T07:28:43.342Z</time></trkpt><trkpt lat="45.7441108" lon="8.6972578"><ele>402.0</ele><time>2026-05-04T07:28:45.342Z</time></trkpt><trkpt lat="45.7441785" lon="8.6972811"><ele>402.0</ele><time>2026-05-04T07:28:47.343Z</time></trkpt><trkpt lat="45.7442609" lon="8.6973103"><ele>402.0</ele><time>2026-05-04T07:28:49.342Z</time></trkpt><trkpt lat="45.7443311" lon="8.6973355"><ele>402.0</ele><time>2026-05-04T07:28:52.343Z</time></trkpt><trkpt lat="45.7443982" lon="8.6973503"><ele>402.0</ele><time>2026-05-04T07:28:55.344Z</time></trkpt><trkpt lat="45.744475" lon="8.6973515"><ele>403.0</ele><time>2026-05-04T07:28:58.342Z</time></trkpt><trkpt lat="45.7445665" lon="8.6973838"><ele>404.0</ele><time>2026-05-04T07:29:01.343Z</time></trkpt><trkpt lat="45.7446465" lon="8.6974221"><ele>405.0</ele><time>2026-05-04T07:29:03.343Z</time></trkpt><trkpt lat="45.7447265" lon="8.6974412"><ele>406.0</ele><time>2026-05-04T07:29:05.343Z</time></trkpt><trkpt lat="45.7447892" lon="8.6974707"><ele>407.0</ele><time>2026-05-04T07:29:07.342Z</time></trkpt><trkpt lat="45.7448433" lon="8.69754"><ele>408.0</ele><time>2026-05-04T07:29:09.342Z</time></trkpt><trkpt lat="45.7449134" lon="8.6975922"><ele>408.0</ele><time>2026-05-04T07:29:11.342Z</time></trkpt><trkpt lat="45.7449896" lon="8.6976114"><ele>408.0</ele><time>2026-05-04T07:29:13.342Z</time></trkpt><trkpt lat="45.7450698" lon="8.6976542"><ele>408.0</ele><time>2026-05-04T07:29:15.343Z</time></trkpt><trkpt lat="45.7451621" lon="8.6977122"><ele>408.0</ele><time>2026-05-04T07:29:17.343Z</time></trkpt><trkpt lat="45.7452795" lon="8.697736"><ele>408.0</ele><time>2026-05-04T07:29:19.343Z</time></trkpt><trkpt lat="45.7453864" lon="8.6977027"><ele>407.4</ele><time>2026-05-04T07:29:21.343Z</time></trkpt><trkpt lat="45.7454862" lon="8.6976982"><ele>406.79999999999995</ele><time>2026-05-04T07:29:23.342Z</time></trkpt><trkpt lat="45.7455756" lon="8.6977429"><ele>406.2</ele><time>2026-05-04T07:29:25.343Z</time></trkpt><trkpt lat="45.7456685" lon="8.6977993"><ele>405.6</ele><time>2026-05-04T07:29:27.342Z</time></trkpt><trkpt lat="45.7457567" lon="8.6978739"><ele>405.0</ele><time>2026-05-04T07:29:29.343Z</time></trkpt><trkpt lat="45.7458251" lon="8.6979193"><ele>405.85714285714283</ele><time>2026-05-04T07:29:31.342Z</time></trkpt><trkpt lat="45.7458803" lon="8.6979642"><ele>406.7142857142857</ele><time>2026-05-04T07:29:33.343Z</time></trkpt><trkpt lat="45.7459439" lon="8.6980068"><ele>407.57142857142856</ele><time>2026-05-04T07:29:35.343Z</time></trkpt><trkpt lat="45.7460081" lon="8.6980517"><ele>408.42857142857144</ele><time>2026-05-04T07:29:37.343Z</time></trkpt><trkpt lat="45.7460635" lon="8.6981257"><ele>409.2857142857143</ele><time>2026-05-04T07:29:39.343Z</time></trkpt><trkpt lat="45.7461167" lon="8.6981832"><ele>410.1428571428571</ele><time>2026-05-04T07:29:41.342Z</time></trkpt><trkpt lat="45.7461724" lon="8.6982309"><ele>411.0</ele><time>2026-05-04T07:29:43.342Z</time></trkpt><trkpt lat="45.7462429" lon="8.6982803"><ele>411.5</ele><time>2026-05-04T07:29:46.342Z</time></trkpt><trkpt lat="45.7463069" lon="8.6983698"><ele>412.0</ele><time>2026-05-04T07:29:49.342Z</time></trkpt><trkpt lat="45.7463668" lon="8.6984453"><ele>412.5</ele><time>2026-05-04T07:29:52.342Z</time></trkpt><trkpt lat="45.7464113" lon="8.698553"><ele>413.0</ele><time>2026-05-04T07:29:55.343Z</time></trkpt><trkpt lat="45.7464516" lon="8.6986506"><ele>413.5</ele><time>2026-05-04T07:29:58.342Z</time></trkpt><trkpt lat="45.7465117" lon="8.6987008"><ele>414.0</ele><time>2026-05-04T07:30:01.343Z</time></trkpt><trkpt lat="45.7465542" lon="8.6987833"><ele>415.8333333333333</ele><time>2026-05-04T07:30:04.342Z</time></trkpt><trkpt lat="45.7466002" lon="8.6988589"><ele>417.66666666666663</ele><time>2026-05-04T07:30:07.343Z</time></trkpt><trkpt lat="45.7466392" lon="8.6989808"><ele>419.5</ele><time>2026-05-04T07:30:10.342Z</time></trkpt><trkpt lat="45.7466682" lon="8.6990781"><ele>421.3333333333333</ele><time>2026-05-04T07:30:12.342Z</time></trkpt><trkpt lat="45.7466897" lon="8.699168"><ele>423.16666666666663</ele><time>2026-05-04T07:30:14.343Z</time></trkpt><trkpt lat="45.7467416" lon="8.6992533"><ele>425.0</ele><time>2026-05-04T07:30:18.343Z</time></trkpt><trkpt lat="45.7468018" lon="8.6993228"><ele>425.0</ele><time>2026-05-04T07:30:21.342Z</time></trkpt><trkpt lat="45.7468578" lon="8.6994051"><ele>425.0</ele><time>2026-05-04T07:30:24.343Z</time></trkpt><trkpt lat="45.7469257" lon="8.6994328"><ele>425.0</ele><time>2026-05-04T07:30:27.343Z</time></trkpt><trkpt lat="45.7469923" lon="8.699417"><ele>425.0</ele><time>2026-05-04T07:30:30.343Z</time></trkpt><trkpt lat="45.74704" lon="8.6994844"><ele>425.0</ele><time>2026-05-04T07:30:33.342Z</time></trkpt><trkpt lat="45.7470976" lon="8.6995275"><ele>425.0</ele><time>2026-05-04T07:30:49.341Z</time></trkpt><trkpt lat="45.7471617" lon="8.6995281"><ele>425.0</ele><time>2026-05-04T07:30:54.341Z</time></trkpt><trkpt lat="45.7472384" lon="8.6995506"><ele>425.99999999999994</ele><time>2026-05-04T07:30:58.341Z</time></trkpt><trkpt lat="45.7473071" lon="8.6995702"><ele>427.0</ele><time>2026-05-04T07:31:02.342Z</time></trkpt><trkpt lat="45.7473663" lon="8.6996481"><ele>428.0</ele><time>2026-05-04T07:31:04.342Z</time></trkpt><trkpt lat="45.7474168" lon="8.6997109"><ele>429.0</ele><time>2026-05-04T07:31:06.342Z</time></trkpt><trkpt lat="45.7474864" lon="8.6997917"><ele>429.99999999999994</ele><time>2026-05-04T07:31:09.341Z</time></trkpt><trkpt lat="45.7475648" lon="8.6999356"><ele>431.0</ele><time>2026-05-04T07:32:45.341Z</time></trkpt><trkpt lat="45.7476125" lon="8.7000265"><ele>431.0</ele><time>2026-05-04T07:32:48.341Z</time></trkpt><trkpt lat="45.7476408" lon="8.7001117"><ele>431.0</ele><time>2026-05-04T07:32:50.341Z</time></trkpt><trkpt lat="45.7476604" lon="8.7002"><ele>431.0</ele><time>2026-05-04T07:32:56.342Z</time></trkpt><trkpt lat="45.7476707" lon="8.7002933"><ele>431.0</ele><time>2026-05-04T07:32:59.342Z</time></trkpt><trkpt lat="45.7476886" lon="8.7003881"><ele>431.0</ele><time>2026-05-04T07:33:02.342Z</time></trkpt><trkpt lat="45.7477177" lon="8.7004722"><ele>431.0</ele><time>2026-05-04T07:33:05.341Z</time></trkpt><trkpt lat="45.7477079" lon="8.7005634"><ele>431.0</ele><time>2026-05-04T07:33:07.341Z</time></trkpt><trkpt lat="45.7476791" lon="8.7006651"><ele>431.14285714285717</ele><time>2026-05-04T07:33:10.341Z</time></trkpt><trkpt lat="45.7477023" lon="8.7007681"><ele>431.2857142857143</ele><time>2026-05-04T07:33:13.341Z</time></trkpt><trkpt lat="45.7477331" lon="8.7008543"><ele>431.42857142857144</ele><time>2026-05-04T07:33:16.341Z</time></trkpt><trkpt lat="45.7477466" lon="8.7009657"><ele>431.57142857142856</ele><time>2026-05-04T07:33:20.341Z</time></trkpt><trkpt lat="45.7477752" lon="8.7010468"><ele>431.71428571428567</ele><time>2026-05-04T07:33:23.342Z</time></trkpt><trkpt lat="45.7477876" lon="8.7011469"><ele>431.85714285714283</ele><time>2026-05-04T07:33:28.341Z</time></trkpt><trkpt lat="45.7477946" lon="8.701237"><ele>432.0</ele><time>2026-05-04T07:33:31.342Z</time></trkpt><trkpt lat="45.7478008" lon="8.7013313"><ele>431.8333333333333</ele><time>2026-05-04T07:33:34.341Z</time></trkpt><trkpt lat="45.7477803" lon="8.7014451"><ele>431.66666666666663</ele><time>2026-05-04T07:33:38.342Z</time></trkpt><trkpt lat="45.7477225" lon="8.7015069"><ele>431.5</ele><time>2026-05-04T07:33:41.342Z</time></trkpt><trkpt lat="45.7476561" lon="8.7015709"><ele>431.3333333333333</ele><time>2026-05-04T07:33:44.341Z</time></trkpt><trkpt lat="45.7476069" lon="8.7016736"><ele>431.16666666666663</ele><time>2026-05-04T07:33:47.342Z</time></trkpt><trkpt lat="45.7475643" lon="8.7017855"><ele>431.0</ele><time>2026-05-04T07:33:50.342Z</time></trkpt><trkpt lat="45.7475221" lon="8.7018719"><ele>430.99999999999994</ele><time>2026-05-04T07:33:53.342Z</time></trkpt><trkpt lat="45.747459" lon="8.7018853"><ele>431.0</ele><time>2026-05-04T07:33:56.342Z</time></trkpt><trkpt lat="45.7473736" lon="8.7018742"><ele>431.0</ele><time>2026-05-04T07:33:59.341Z</time></trkpt><trkpt lat="45.7472954" lon="8.7018384"><ele>431.0</ele><time>2026-05-04T07:34:02.341Z</time></trkpt><trkpt lat="45.747224" lon="8.7018204"><ele>430.99999999999994</ele><time>2026-05-04T07:34:07.342Z</time></trkpt><trkpt lat="45.7471559" lon="8.7017697"><ele>431.0</ele><time>2026-05-04T07:34:12.342Z</time></trkpt><trkpt lat="45.7471268" lon="8.7016709"><ele>431.0</ele><time>2026-05-04T07:34:16.342Z</time></trkpt><trkpt lat="45.7471943" lon="8.7016581"><ele>431.0</ele><time>2026-05-04T07:34:19.342Z</time></trkpt><trkpt lat="45.7472607" lon="8.7016962"><ele>431.0</ele><time>2026-05-04T07:34:23.342Z</time></trkpt><trkpt lat="45.7473222" lon="8.7017352"><ele>431.0</ele><time>2026-05-04T07:34:29.342Z</time></trkpt><trkpt lat="45.7472938" lon="8.7018229"><ele>431.0</ele><time>2026-05-04T07:34:32.342Z</time></trkpt><trkpt lat="45.7472359" lon="8.7017803"><ele>431.0</ele><time>2026-05-04T07:34:35.341Z</time></trkpt><trkpt lat="45.7471796" lon="8.7017372"><ele>431.0</ele><time>2026-05-04T07:34:38.341Z</time></trkpt><trkpt lat="45.7471568" lon="8.701631"><ele>430.99999999999994</ele><time>2026-05-04T07:34:41.342Z</time></trkpt><trkpt lat="45.7471794" lon="8.7015245"><ele>431.0</ele><time>2026-05-04T07:34:44.341Z</time></trkpt><trkpt lat="45.7471863" lon="8.7014114"><ele>431.0</ele><time>2026-05-04T07:34:47.342Z</time></trkpt><trkpt lat="45.7472116" lon="8.7013066"><ele>431.0</ele><time>2026-05-04T07:34:54.341Z</time></trkpt><trkpt lat="45.7472613" lon="8.7012452"><ele>430.99999999999994</ele><time>2026-05-04T07:34:58.342Z</time></trkpt><trkpt lat="45.7471646" lon="8.7011815"><ele>431.0</ele><time>2026-05-04T07:37:32.341Z</time></trkpt><trkpt lat="45.7471728" lon="8.701079"><ele>431.14285714285717</ele><time>2026-05-04T07:37:36.342Z</time></trkpt><trkpt lat="45.7471967" lon="8.700957"><ele>431.2857142857143</ele><time>2026-05-04T07:37:39.342Z</time></trkpt><trkpt lat="45.7472479" lon="8.7008936"><ele>431.42857142857144</ele><time>2026-05-04T07:37:41.341Z</time></trkpt><trkpt lat="45.747283" lon="8.700816"><ele>431.57142857142856</ele><time>2026-05-04T07:37:44.341Z</time></trkpt><trkpt lat="45.7472777" lon="8.7007225"><ele>431.71428571428567</ele><time>2026-05-04T07:37:54.342Z</time></trkpt><trkpt lat="45.7472969" lon="8.7006326"><ele>431.85714285714283</ele><time>2026-05-04T07:37:57.342Z</time></trkpt><trkpt lat="45.7472696" lon="8.7005358"><ele>432.0</ele><time>2026-05-04T07:38:00.341Z</time></trkpt><trkpt lat="45.7472355" lon="8.7003953"><ele>431.8</ele><time>2026-05-04T07:38:03.341Z</time></trkpt><trkpt lat="45.7472063" lon="8.7002455"><ele>431.6</ele><time>2026-05-04T07:38:05.342Z</time></trkpt><trkpt lat="45.7471812" lon="8.7001608"><ele>431.40000000000003</ele><time>2026-05-04T07:38:06.341Z</time></trkpt><trkpt lat="45.7471402" lon="8.6999933"><ele>431.20000000000005</ele><time>2026-05-04T07:38:08.342Z</time></trkpt><trkpt lat="45.7471131" lon="8.6998985"><ele>431.0</ele><time>2026-05-04T07:38:10.342Z</time></trkpt><trkpt lat="45.7470528" lon="8.6998117"><ele>430.99999999999994</ele><time>2026-05-04T07:38:22.342Z</time></trkpt><trkpt lat="45.7469838" lon="8.6997707"><ele>431.0</ele><time>2026-05-04T07:38:26.341Z</time></trkpt><trkpt lat="45.7468924" lon="8.6996751"><ele>431.0</ele><time>2026-05-04T07:38:29.341Z</time></trkpt><trkpt lat="45.746844" lon="8.6996091"><ele>431.0</ele><time>2026-05-04T07:38:30.341Z</time></trkpt><trkpt lat="45.7467953" lon="8.6995355"><ele>430.99999999999994</ele><time>2026-05-04T07:38:31.342Z</time></trkpt><trkpt lat="45.7467427" lon="8.699426"><ele>431.0</ele><time>2026-05-04T07:38:32.341Z</time></trkpt><trkpt lat="45.7466376" lon="8.6992636"><ele>429.8</ele><time>2026-05-04T07:38:33.342Z</time></trkpt><trkpt lat="45.7465683" lon="8.6991367"><ele>428.6</ele><time>2026-05-04T07:38:35.342Z</time></trkpt><trkpt lat="45.7464871" lon="8.6990481"><ele>427.4</ele><time>2026-05-04T07:38:37.341Z</time></trkpt><trkpt lat="45.7464371" lon="8.6989765"><ele>426.2</ele><time>2026-05-04T07:38:38.341Z</time></trkpt><trkpt lat="45.7463551" lon="8.6988004"><ele>425.0</ele><time>2026-05-04T07:38:40.341Z</time></trkpt><trkpt lat="45.7463197" lon="8.6987033"><ele>425.0</ele><time>2026-05-04T07:38:41.341Z</time></trkpt><trkpt lat="45.7462818" lon="8.6985991"><ele>425.0</ele><time>2026-05-04T07:38:42.341Z</time></trkpt><trkpt lat="45.7461915" lon="8.6985097"><ele>425.0</ele><time>2026-05-04T07:38:44.342Z</time></trkpt><trkpt lat="45.7461392" lon="8.6984492"><ele>425.0</ele><time>2026-05-04T07:38:45.342Z</time></trkpt><trkpt lat="45.7460781" lon="8.6983737"><ele>425.0</ele><time>2026-05-04T07:38:46.342Z</time></trkpt><trkpt lat="45.745966" lon="8.6982518"><ele>422.2</ele><time>2026-05-04T07:38:48.341Z</time></trkpt><trkpt lat="45.7459093" lon="8.6981647"><ele>419.4</ele><time>2026-05-04T07:38:49.342Z</time></trkpt><trkpt lat="45.7458354" lon="8.6981193"><ele>416.6</ele><time>2026-05-04T07:38:50.341Z</time></trkpt><trkpt lat="45.7457343" lon="8.6980215"><ele>413.8</ele><time>2026-05-04T07:38:52.341Z</time></trkpt><trkpt lat="45.7456324" lon="8.6979816"><ele>411.0</ele><time>2026-05-04T07:38:54.342Z</time></trkpt><trkpt lat="45.7455678" lon="8.6979575"><ele>411.0</ele><time>2026-05-04T07:38:55.341Z</time></trkpt><trkpt lat="45.7454717" lon="8.6979497"><ele>411.0</ele><time>2026-05-04T07:38:57.342Z</time></trkpt><trkpt lat="45.7454018" lon="8.6979485"><ele>411.0</ele><time>2026-05-04T07:38:58.342Z</time></trkpt><trkpt lat="45.7453018" lon="8.6979159"><ele>411.0</ele><time>2026-05-04T07:39:00.342Z</time></trkpt><trkpt lat="45.7452402" lon="8.6978937"><ele>411.0</ele><time>2026-05-04T07:39:01.342Z</time></trkpt><trkpt lat="45.74514" lon="8.6978344"><ele>411.0</ele><time>2026-05-04T07:39:03.342Z</time></trkpt><trkpt lat="45.7450474" lon="8.6978348"><ele>410.5</ele><time>2026-05-04T07:39:05.342Z</time></trkpt><trkpt lat="45.7449794" lon="8.6978337"><ele>410.0</ele><time>2026-05-04T07:39:06.341Z</time></trkpt><trkpt lat="45.7449064" lon="8.6977693"><ele>409.5</ele><time>2026-05-04T07:39:08.341Z</time></trkpt><trkpt lat="45.744824" lon="8.6976965"><ele>409.0</ele><time>2026-05-04T07:39:10.341Z</time></trkpt><trkpt lat="45.744732" lon="8.6976544"><ele>408.5</ele><time>2026-05-04T07:39:12.341Z</time></trkpt><trkpt lat="45.7446423" lon="8.6976172"><ele>408.0</ele><time>2026-05-04T07:39:14.342Z</time></trkpt><trkpt lat="45.7445217" lon="8.6975989"><ele>408.0</ele><time>2026-05-04T07:39:16.342Z</time></trkpt><trkpt lat="45.7444542" lon="8.6975883"><ele>408.0</ele><time>2026-05-04T07:39:17.341Z</time></trkpt><trkpt lat="45.7443906" lon="8.6975791"><ele>408.0</ele><time>2026-05-04T07:39:18.342Z</time></trkpt><trkpt lat="45.744315" lon="8.6975475"><ele>408.0</ele><time>2026-05-04T07:39:19.341Z</time></trkpt><trkpt lat="45.7442494" lon="8.6975272"><ele>408.0</ele><time>2026-05-04T07:39:20.341Z</time></trkpt><trkpt lat="45.7441808" lon="8.6975135"><ele>408.0</ele><time>2026-05-04T07:39:21.341Z</time></trkpt><trkpt lat="45.7440741" lon="8.697502"><ele>406.79999999999995</ele><time>2026-05-04T07:39:23.341Z</time></trkpt><trkpt lat="45.7439872" lon="8.6975012"><ele>405.6</ele><time>2026-05-04T07:39:25.341Z</time></trkpt><trkpt lat="45.7438847" lon="8.69748"><ele>404.4</ele><time>2026-05-04T07:39:27.34Z</time></trkpt><trkpt lat="45.7437907" lon="8.6974639"><ele>403.20000000000005</ele><time>2026-05-04T07:39:29.342Z</time></trkpt><trkpt lat="45.7437088" lon="8.6974225"><ele>402.0</ele><time>2026-05-04T07:39:31.342Z</time></trkpt><trkpt lat="45.743616" lon="8.697386"><ele>402.5</ele><time>2026-05-04T07:39:33.341Z</time></trkpt><trkpt lat="45.7435266" lon="8.6973747"><ele>403.0</ele><time>2026-05-04T07:39:35.342Z</time></trkpt><trkpt lat="45.7434453" lon="8.6973552"><ele>403.5</ele><time>2026-05-04T07:39:37.342Z</time></trkpt><trkpt lat="45.7433608" lon="8.6973087"><ele>404.0</ele><time>2026-05-04T07:39:39.341Z</time></trkpt><trkpt lat="45.7432698" lon="8.6972435"><ele>404.5</ele><time>2026-05-04T07:39:41.342Z</time></trkpt><trkpt lat="45.7432032" lon="8.6971833"><ele>405.0</ele><time>2026-05-04T07:39:43.341Z</time></trkpt><trkpt lat="45.7431311" lon="8.6971301"><ele>405.0</ele><time>2026-05-04T07:39:45.342Z</time></trkpt><trkpt lat="45.7430508" lon="8.6970593"><ele>405.0</ele><time>2026-05-04T07:39:47.34Z</time></trkpt><trkpt lat="45.7429739" lon="8.6970032"><ele>405.0</ele><time>2026-05-04T07:39:49.341Z</time></trkpt><trkpt lat="45.7428931" lon="8.6969603"><ele>405.0</ele><time>2026-05-04T07:39:51.341Z</time></trkpt><trkpt lat="45.7428116" lon="8.6969135"><ele>405.0</ele><time>2026-05-04T07:39:53.342Z</time></trkpt><trkpt lat="45.742755" lon="8.6968735"><ele>405.0</ele><time>2026-05-04T07:39:55.342Z</time></trkpt><trkpt lat="45.7426796" lon="8.6968076"><ele>405.5</ele><time>2026-05-04T07:39:58.341Z</time></trkpt><trkpt lat="45.7426181" lon="8.6967572"><ele>406.0</ele><time>2026-05-04T07:40:00.342Z</time></trkpt><trkpt lat="45.7425462" lon="8.696694"><ele>406.5</ele><time>2026-05-04T07:40:02.341Z</time></trkpt><trkpt lat="45.74247" lon="8.6966388"><ele>407.0</ele><time>2026-05-04T07:40:04.342Z</time></trkpt><trkpt lat="45.7423988" lon="8.696601"><ele>407.5</ele><time>2026-05-04T07:40:06.341Z</time></trkpt><trkpt lat="45.7423354" lon="8.6965591"><ele>408.0</ele><time>2026-05-04T07:40:08.341Z</time></trkpt><trkpt lat="45.7422741" lon="8.6965281"><ele>408.0</ele><time>2026-05-04T07:40:10.341Z</time></trkpt><trkpt lat="45.7422243" lon="8.696471"><ele>408.0</ele><time>2026-05-04T07:40:16.341Z</time></trkpt><trkpt lat="45.7423002" lon="8.6964322"><ele>408.0</ele><time>2026-05-04T07:40:25.342Z</time></trkpt><trkpt lat="45.7423638" lon="8.6963775"><ele>408.0</ele><time>2026-05-04T07:40:29.341Z</time></trkpt><trkpt lat="45.7424411" lon="8.6963934"><ele>408.0</ele><time>2026-05-04T07:40:33.342Z</time></trkpt><trkpt lat="45.7425118" lon="8.6964352"><ele>408.0</ele><time>2026-05-04T07:40:36.341Z</time></trkpt><trkpt lat="45.7425957" lon="8.696465"><ele>408.0</ele><time>2026-05-04T07:40:39.342Z</time></trkpt><trkpt lat="45.7426722" lon="8.6964818"><ele>408.0</ele><time>2026-05-04T07:40:42.341Z</time></trkpt><trkpt lat="45.7427489" lon="8.6964947"><ele>408.0</ele><time>2026-05-04T07:40:45.341Z</time></trkpt><trkpt lat="45.742849" lon="8.6965722"><ele>408.0</ele><time>2026-05-04T07:40:48.342Z</time></trkpt><trkpt lat="45.7429188" lon="8.6966617"><ele>408.0</ele><time>2026-05-04T07:40:50.342Z</time></trkpt><trkpt lat="45.7429869" lon="8.6967257"><ele>408.0</ele><time>2026-05-04T07:40:52.341Z</time></trkpt><trkpt lat="45.7430507" lon="8.6967684"><ele>407.4</ele><time>2026-05-04T07:40:54.342Z</time></trkpt><trkpt lat="45.7431522" lon="8.6968498"><ele>406.79999999999995</ele><time>2026-05-04T07:40:56.341Z</time></trkpt><trkpt lat="45.7432474" lon="8.696955"><ele>406.2</ele><time>2026-05-04T07:40:58.342Z</time></trkpt><trkpt lat="45.7433238" lon="8.6970103"><ele>405.6</ele><time>2026-05-04T07:41:00.341Z</time></trkpt><trkpt lat="45.7434054" lon="8.6970537"><ele>405.0</ele><time>2026-05-04T07:41:02.342Z</time></trkpt><trkpt lat="45.7434862" lon="8.6971005"><ele>404.5</ele><time>2026-05-04T07:41:04.342Z</time></trkpt><trkpt lat="45.7435662" lon="8.6971181"><ele>404.0</ele><time>2026-05-04T07:41:06.341Z</time></trkpt><trkpt lat="45.7436304" lon="8.6971189"><ele>403.5</ele><time>2026-05-04T07:41:08.341Z</time></trkpt><trkpt lat="45.7436961" lon="8.6971324"><ele>403.0</ele><time>2026-05-04T07:41:10.341Z</time></trkpt><trkpt lat="45.743791" lon="8.6971054"><ele>402.5</ele><time>2026-05-04T07:41:12.342Z</time></trkpt><trkpt lat="45.7439035" lon="8.697075"><ele>402.0</ele><time>2026-05-04T07:41:14.341Z</time></trkpt><trkpt lat="45.7440015" lon="8.6971453"><ele>402.0</ele><time>2026-05-04T07:41:16.341Z</time></trkpt><trkpt lat="45.7440861" lon="8.6972234"><ele>402.0</ele><time>2026-05-04T07:41:18.341Z</time></trkpt><trkpt lat="45.7441428" lon="8.6972791"><ele>402.0</ele><time>2026-05-04T07:41:20.341Z</time></trkpt><trkpt lat="45.7442241" lon="8.6973028"><ele>402.0</ele><time>2026-05-04T07:41:24.342Z</time></trkpt><trkpt lat="45.7442953" lon="8.697319"><ele>402.0</ele><time>2026-05-04T07:41:27.342Z</time></trkpt><trkpt lat="45.7443745" lon="8.697346"><ele>402.0</ele><time>2026-05-04T07:41:31.342Z</time></trkpt><trkpt lat="45.7444493" lon="8.697368"><ele>403.0</ele><time>2026-05-04T07:41:35.341Z</time></trkpt><trkpt lat="45.744514" lon="8.6973776"><ele>404.0</ele><time>2026-05-04T07:41:38.341Z</time></trkpt><trkpt lat="45.7445766" lon="8.6974143"><ele>405.0</ele><time>2026-05-04T07:41:41.341Z</time></trkpt><trkpt lat="45.7446526" lon="8.6974438"><ele>406.0</ele><time>2026-05-04T07:41:44.341Z</time></trkpt><trkpt lat="45.7447244" lon="8.6974577"><ele>407.0</ele><time>2026-05-04T07:41:47.341Z</time></trkpt><trkpt lat="45.7447952" lon="8.6975167"><ele>408.0</ele><time>2026-05-04T07:41:50.342Z</time></trkpt><trkpt lat="45.7448805" lon="8.6975508"><ele>408.0</ele><time>2026-05-04T07:41:53.342Z</time></trkpt><trkpt lat="45.7449632" lon="8.6975645"><ele>408.0</ele><time>2026-05-04T07:41:56.342Z</time></trkpt><trkpt lat="45.7450491" lon="8.697602"><ele>408.0</ele><time>2026-05-04T07:41:58.341Z</time></trkpt><trkpt lat="45.7451203" lon="8.6976234"><ele>408.0</ele><time>2026-05-04T07:41:59.341Z</time></trkpt><trkpt lat="45.745184" lon="8.6976363"><ele>408.0</ele><time>2026-05-04T07:42:00.341Z</time></trkpt><trkpt lat="45.7453044" lon="8.6976588"><ele>408.0</ele><time>2026-05-04T07:42:02.341Z</time></trkpt><trkpt lat="45.7453713" lon="8.6976656"><ele>407.5</ele><time>2026-05-04T07:42:03.34Z</time></trkpt><trkpt lat="45.7454361" lon="8.6976883"><ele>407.0</ele><time>2026-05-04T07:42:04.34Z</time></trkpt><trkpt lat="45.7455263" lon="8.6977208"><ele>406.5</ele><time>2026-05-04T07:42:06.341Z</time></trkpt><trkpt lat="45.7456315" lon="8.6977757"><ele>406.0</ele><time>2026-05-04T07:42:08.342Z</time></trkpt><trkpt lat="45.745722" lon="8.6978321"><ele>405.5</ele><time>2026-05-04T07:42:10.341Z</time></trkpt><trkpt lat="45.7457787" lon="8.6978749"><ele>405.0</ele><time>2026-05-04T07:42:11.341Z</time></trkpt><trkpt lat="45.7458603" lon="8.6979369"><ele>406.0</ele><time>2026-05-04T07:42:13.341Z</time></trkpt><trkpt lat="45.7459313" lon="8.6980011"><ele>407.0</ele><time>2026-05-04T07:42:15.342Z</time></trkpt><trkpt lat="45.7460067" lon="8.6980531"><ele>408.0</ele><time>2026-05-04T07:42:18.341Z</time></trkpt><trkpt lat="45.7460943" lon="8.69814"><ele>409.0</ele><time>2026-05-04T07:42:21.341Z</time></trkpt><trkpt lat="45.7461686" lon="8.6981968"><ele>410.0</ele><time>2026-05-04T07:42:24.341Z</time></trkpt><trkpt lat="45.7462268" lon="8.6982617"><ele>411.0</ele><time>2026-05-04T07:42:27.342Z</time></trkpt><trkpt lat="45.7462745" lon="8.6983475"><ele>411.42857142857144</ele><time>2026-05-04T07:42:29.341Z</time></trkpt><trkpt lat="45.7463206" lon="8.6984179"><ele>411.85714285714283</ele><time>2026-05-04T07:42:32.342Z</time></trkpt><trkpt lat="45.7463607" lon="8.6984886"><ele>412.28571428571433</ele><time>2026-05-04T07:42:34.341Z</time></trkpt><trkpt lat="45.7463979" lon="8.6985841"><ele>412.7142857142857</ele><time>2026-05-04T07:42:36.341Z</time></trkpt><trkpt lat="45.7464402" lon="8.6986577"><ele>413.14285714285717</ele><time>2026-05-04T07:42:39.341Z</time></trkpt><trkpt lat="45.7464996" lon="8.6987349"><ele>413.5714285714286</ele><time>2026-05-04T07:42:43.342Z</time></trkpt><trkpt lat="45.7465414" lon="8.6988315"><ele>414.0</ele><time>2026-05-04T07:42:46.341Z</time></trkpt><trkpt lat="45.7465888" lon="8.6989401"><ele>415.1666666666667</ele><time>2026-05-04T07:42:50.34Z</time></trkpt><trkpt lat="45.7466178" lon="8.6990669"><ele>416.33333333333337</ele><time>2026-05-04T07:42:53.341Z</time></trkpt><trkpt lat="45.7466673" lon="8.6991767"><ele>417.5</ele><time>2026-05-04T07:42:56.341Z</time></trkpt><trkpt lat="45.7467201" lon="8.6992357"><ele>418.6666666666667</ele><time>2026-05-04T07:42:59.342Z</time></trkpt><trkpt lat="45.7467864" lon="8.6993054"><ele>419.83333333333337</ele><time>2026-05-04T07:43:03.341Z</time></trkpt><trkpt lat="45.7468433" lon="8.6993682"><ele>421.0</ele><time>2026-05-04T07:43:08.341Z</time></trkpt><trkpt lat="45.746904" lon="8.6994058"><ele>421.00000000000006</ele><time>2026-05-04T07:43:11.341Z</time></trkpt><trkpt lat="45.7469693" lon="8.6993954"><ele>421.0</ele><time>2026-05-04T07:43:14.341Z</time></trkpt><trkpt lat="45.7470392" lon="8.6994527"><ele>421.0</ele><time>2026-05-04T07:43:18.341Z</time></trkpt><trkpt lat="45.7471032" lon="8.69948"><ele>421.0</ele><time>2026-05-04T07:43:20.34Z</time></trkpt><trkpt lat="45.7472095" lon="8.6995201"><ele>421.00000000000006</ele><time>2026-05-04T07:43:22.342Z</time></trkpt><trkpt lat="45.7473095" lon="8.6995811"><ele>421.0</ele><time>2026-05-04T07:43:24.341Z</time></trkpt><trkpt lat="45.7473714" lon="8.6996418"><ele>421.00000000000006</ele><time>2026-05-04T07:43:25.341Z</time></trkpt><trkpt lat="45.7474409" lon="8.6997216"><ele>421.0</ele><time>2026-05-04T07:43:42.341Z</time></trkpt><trkpt lat="45.7474972" lon="8.6997779"><ele>421.0</ele><time>2026-05-04T07:43:46.341Z</time></trkpt><trkpt lat="45.7475687" lon="8.6997783"><ele>421.0</ele><time>2026-05-04T07:43:50.341Z</time></trkpt><trkpt lat="45.7476176" lon="8.69984"><ele>421.00000000000006</ele><time>2026-05-04T07:43:52.342Z</time></trkpt><trkpt lat="45.7476701" lon="8.6999547"><ele>421.0</ele><time>2026-05-04T07:43:55.342Z</time></trkpt><trkpt lat="45.7477511" lon="8.699984"><ele>421.00000000000006</ele><time>2026-05-04T07:44:01.342Z</time></trkpt><trkpt lat="45.7478141" lon="8.7000468"><ele>421.0</ele><time>2026-05-04T07:44:03.341Z</time></trkpt><trkpt lat="45.7478782" lon="8.7000981"><ele>421.0</ele><time>2026-05-04T07:44:05.341Z</time></trkpt><trkpt lat="45.7479576" lon="8.7001007"><ele>421.0</ele><time>2026-05-04T07:44:07.342Z</time></trkpt><trkpt lat="45.748053" lon="8.7001173"><ele>421.00000000000006</ele><time>2026-05-04T07:44:09.342Z</time></trkpt><trkpt lat="45.7481161" lon="8.7001443"><ele>421.0</ele><time>2026-05-04T07:44:10.341Z</time></trkpt><trkpt lat="45.7482134" lon="8.7001364"><ele>421.00000000000006</ele><time>2026-05-04T07:44:12.342Z</time></trkpt><trkpt lat="45.748275" lon="8.7001019"><ele>421.0</ele><time>2026-05-04T07:44:15.341Z</time></trkpt><trkpt lat="45.7483555" lon="8.7001071"><ele>421.0</ele><time>2026-05-04T07:44:29.342Z</time></trkpt><trkpt lat="45.7484122" lon="8.700037"><ele>421.0</ele><time>2026-05-04T07:44:34.342Z</time></trkpt><trkpt lat="45.7484941" lon="8.7000587"><ele>421.00000000000006</ele><time>2026-05-04T07:44:38.341Z</time></trkpt><trkpt lat="45.7485511" lon="8.70011"><ele>421.0</ele><time>2026-05-04T07:44:41.341Z</time></trkpt><trkpt lat="45.74865" lon="8.7001198"><ele>419.42857142857144</ele><time>2026-05-04T07:44:44.341Z</time></trkpt><trkpt lat="45.7487129" lon="8.7001078"><ele>417.8571428571429</ele><time>2026-05-04T07:44:45.342Z</time></trkpt><trkpt lat="45.7487861" lon="8.7001058"><ele>416.28571428571433</ele><time>2026-05-04T07:44:46.342Z</time></trkpt><trkpt lat="45.7488569" lon="8.7000935"><ele>414.7142857142857</ele><time>2026-05-04T07:44:47.341Z</time></trkpt><trkpt lat="45.7489279" lon="8.7000923"><ele>413.1428571428571</ele><time>2026-05-04T07:44:48.341Z</time></trkpt><trkpt lat="45.7489912" lon="8.7000975"><ele>411.5714285714286</ele><time>2026-05-04T07:44:49.342Z</time></trkpt><trkpt lat="45.7490944" lon="8.700076"><ele>410.0</ele><time>2026-05-04T07:44:51.342Z</time></trkpt><trkpt lat="45.7491946" lon="8.7000705"><ele>410.0</ele><time>2026-05-04T07:44:53.342Z</time></trkpt><trkpt lat="45.7492851" lon="8.7001172"><ele>410.0</ele><time>2026-05-04T07:44:55.341Z</time></trkpt><trkpt lat="45.7493889" lon="8.7001969"><ele>410.0</ele><time>2026-05-04T07:44:57.341Z</time></trkpt><trkpt lat="45.7494687" lon="8.7002627"><ele>410.0</ele><time>2026-05-04T07:44:59.342Z</time></trkpt><trkpt lat="45.7495735" lon="8.7003304"><ele>410.0</ele><time>2026-05-04T07:45:01.341Z</time></trkpt><trkpt lat="45.7496679" lon="8.7003578"><ele>409.2</ele><time>2026-05-04T07:45:03.342Z</time></trkpt><trkpt lat="45.749789" lon="8.7003568"><ele>408.4</ele><time>2026-05-04T07:45:05.341Z</time></trkpt><trkpt lat="45.7498643" lon="8.7003834"><ele>407.6</ele><time>2026-05-04T07:45:06.342Z</time></trkpt><trkpt lat="45.7499483" lon="8.700419"><ele>406.8</ele><time>2026-05-04T07:45:08.342Z</time></trkpt><trkpt lat="45.7499503" lon="8.700298"><ele>406.0</ele><time>2026-05-04T07:45:26.34Z</time></trkpt><trkpt lat="45.7499325" lon="8.7001467"><ele>404.83333333333337</ele><time>2026-05-04T07:45:28.342Z</time></trkpt><trkpt lat="45.7498964" lon="8.6999884"><ele>403.6666666666667</ele><time>2026-05-04T07:45:30.341Z</time></trkpt><trkpt lat="45.7498635" lon="8.6998785"><ele>402.5</ele><time>2026-05-04T07:45:31.342Z</time></trkpt><trkpt lat="45.7498395" lon="8.699761"><ele>401.33333333333337</ele><time>2026-05-04T07:45:32.342Z</time></trkpt><trkpt lat="45.7498202" lon="8.699656"><ele>400.1666666666667</ele><time>2026-05-04T07:45:33.341Z</time></trkpt><trkpt lat="45.749802" lon="8.6995569"><ele>399.0</ele><time>2026-05-04T07:45:34.342Z</time></trkpt><trkpt lat="45.7497718" lon="8.6994102"><ele>396.2</ele><time>2026-05-04T07:45:36.341Z</time></trkpt><trkpt lat="45.7497401" lon="8.6993314"><ele>393.4</ele><time>2026-05-04T07:45:37.341Z</time></trkpt><trkpt lat="45.7496997" lon="8.6992302"><ele>390.6</ele><time>2026-05-04T07:45:38.342Z</time></trkpt><trkpt lat="45.7496639" lon="8.6990756"><ele>387.8</ele><time>2026-05-04T07:45:39.341Z</time></trkpt><trkpt lat="45.7496204" lon="8.698973"><ele>385.0</ele><time>2026-05-04T07:45:40.341Z</time></trkpt><trkpt lat="45.7495491" lon="8.6988507"><ele>385.00000000000006</ele><time>2026-05-04T07:45:41.341Z</time></trkpt><trkpt lat="45.7494926" lon="8.6987296"><ele>385.0</ele><time>2026-05-04T07:45:42.341Z</time></trkpt><trkpt lat="45.7494617" lon="8.6986163"><ele>385.0</ele><time>2026-05-04T07:45:43.342Z</time></trkpt><trkpt lat="45.7494245" lon="8.6985291"><ele>385.0</ele><time>2026-05-04T07:45:44.342Z</time></trkpt><trkpt lat="45.7493758" lon="8.6984458"><ele>385.00000000000006</ele><time>2026-05-04T07:45:45.342Z</time></trkpt><trkpt lat="45.7493217" lon="8.6983336"><ele>385.0</ele><time>2026-05-04T07:45:46.341Z</time></trkpt><trkpt lat="45.7492757" lon="8.6982394"><ele>385.2857142857143</ele><time>2026-05-04T07:45:47.341Z</time></trkpt><trkpt lat="45.7492241" lon="8.6981568"><ele>385.57142857142856</ele><time>2026-05-04T07:45:48.342Z</time></trkpt><trkpt lat="45.749155" lon="8.6980966"><ele>385.8571428571429</ele><time>2026-05-04T07:45:49.341Z</time></trkpt><trkpt lat="45.7491053" lon="8.6980406"><ele>386.1428571428571</ele><time>2026-05-04T07:45:50.341Z</time></trkpt><trkpt lat="45.7490395" lon="8.6979815"><ele>386.42857142857144</ele><time>2026-05-04T07:45:51.342Z</time></trkpt><trkpt lat="45.748975" lon="8.6979287"><ele>386.7142857142857</ele><time>2026-05-04T07:45:52.341Z</time></trkpt><trkpt lat="45.7489304" lon="8.6978447"><ele>387.0</ele><time>2026-05-04T07:45:53.342Z</time></trkpt><trkpt lat="45.7488707" lon="8.6977789"><ele>386.20000000000005</ele><time>2026-05-04T07:45:54.342Z</time></trkpt><trkpt lat="45.7488167" lon="8.6977138"><ele>385.4</ele><time>2026-05-04T07:45:55.341Z</time></trkpt><trkpt lat="45.7487583" lon="8.6976351"><ele>384.6</ele><time>2026-05-04T07:45:56.34Z</time></trkpt><trkpt lat="45.7486293" lon="8.6974734"><ele>383.79999999999995</ele><time>2026-05-04T07:45:58.341Z</time></trkpt><trkpt lat="45.7485581" lon="8.6973755"><ele>383.0</ele><time>2026-05-04T07:45:59.342Z</time></trkpt><trkpt lat="45.7484924" lon="8.6972873"><ele>383.0</ele><time>2026-05-04T07:46:00.342Z</time></trkpt><trkpt lat="45.7484148" lon="8.6972147"><ele>383.0</ele><time>2026-05-04T07:46:01.341Z</time></trkpt><trkpt lat="45.7483581" lon="8.6971053"><ele>383.0</ele><time>2026-05-04T07:46:02.342Z</time></trkpt><trkpt lat="45.7482942" lon="8.6970283"><ele>383.0</ele><time>2026-05-04T07:46:03.341Z</time></trkpt><trkpt lat="45.7482363" lon="8.6969606"><ele>383.0</ele><time>2026-05-04T07:46:04.342Z</time></trkpt><trkpt lat="45.748205" lon="8.6968817"><ele>383.0</ele><time>2026-05-04T07:46:05.341Z</time></trkpt><trkpt lat="45.7481622" lon="8.6968042"><ele>378.75</ele><time>2026-05-04T07:46:06.342Z</time></trkpt><trkpt lat="45.7480594" lon="8.6967112"><ele>374.5</ele><time>2026-05-04T07:46:08.341Z</time></trkpt><trkpt lat="45.7479319" lon="8.6965961"><ele>370.25</ele><time>2026-05-04T07:46:10.341Z</time></trkpt><trkpt lat="45.7478472" lon="8.6964953"><ele>366.0</ele><time>2026-05-04T07:46:12.342Z</time></trkpt><trkpt lat="45.7477892" lon="8.6964366"><ele>368.0</ele><time>2026-05-04T07:46:13.341Z</time></trkpt><trkpt lat="45.7477009" lon="8.6963432"><ele>370.0</ele><time>2026-05-04T07:46:15.341Z</time></trkpt><trkpt lat="45.7476134" lon="8.6962786"><ele>372.0</ele><time>2026-05-04T07:46:17.341Z</time></trkpt><trkpt lat="45.7475279" lon="8.6962095"><ele>374.0</ele><time>2026-05-04T07:46:19.341Z</time></trkpt><trkpt lat="45.7474236" lon="8.6961431"><ele>376.0</ele><time>2026-05-04T07:46:21.342Z</time></trkpt><trkpt lat="45.7473518" lon="8.696101"><ele>373.4</ele><time>2026-05-04T07:46:23.341Z</time></trkpt><trkpt lat="45.7472756" lon="8.696047"><ele>370.8</ele><time>2026-05-04T07:46:25.341Z</time></trkpt><trkpt lat="45.7471733" lon="8.6959577"><ele>368.2</ele><time>2026-05-04T07:46:27.341Z</time></trkpt><trkpt lat="45.7470901" lon="8.6958891"><ele>365.59999999999997</ele><time>2026-05-04T07:46:29.342Z</time></trkpt><trkpt lat="45.7470212" lon="8.6957924"><ele>363.0</ele><time>2026-05-04T07:46:30.341Z</time></trkpt><trkpt lat="45.7469856" lon="8.6956762"><ele>363.0</ele><time>2026-05-04T07:46:31.342Z</time></trkpt><trkpt lat="45.7469273" lon="8.6955851"><ele>363.0</ele><time>2026-05-04T07:46:32.341Z</time></trkpt><trkpt lat="45.7468679" lon="8.6955101"><ele>363.0</ele><time>2026-05-04T07:46:33.342Z</time></trkpt><trkpt lat="45.7468058" lon="8.6954592"><ele>363.0</ele><time>2026-05-04T07:46:34.342Z</time></trkpt><trkpt lat="45.7467562" lon="8.6953763"><ele>363.0</ele><time>2026-05-04T07:46:35.341Z</time></trkpt><trkpt lat="45.7467055" lon="8.6953065"><ele>363.0</ele><time>2026-05-04T07:46:36.342Z</time></trkpt><trkpt lat="45.7466402" lon="8.6952619"><ele>361.79999999999995</ele><time>2026-05-04T07:46:37.342Z</time></trkpt><trkpt lat="45.7465915" lon="8.6951989"><ele>360.6</ele><time>2026-05-04T07:46:38.342Z</time></trkpt><trkpt lat="45.7465333" lon="8.6951567"><ele>359.4</ele><time>2026-05-04T07:46:39.342Z</time></trkpt><trkpt lat="45.7464284" lon="8.6950762"><ele>358.20000000000005</ele><time>2026-05-04T07:46:41.341Z</time></trkpt><trkpt lat="45.7463571" lon="8.6950288"><ele>357.0</ele><time>2026-05-04T07:46:42.342Z</time></trkpt><trkpt lat="45.7462451" lon="8.6949101"><ele>357.0</ele><time>2026-05-04T07:46:44.342Z</time></trkpt><trkpt lat="45.7461542" lon="8.6948619"><ele>357.0</ele><time>2026-05-04T07:46:46.341Z</time></trkpt><trkpt lat="45.7460251" lon="8.6948095"><ele>357.0</ele><time>2026-05-04T07:46:48.341Z</time></trkpt><trkpt lat="45.7459545" lon="8.6947819"><ele>357.0</ele><time>2026-05-04T07:46:49.342Z</time></trkpt><trkpt lat="45.7458516" lon="8.6946817"><ele>357.0</ele><time>2026-05-04T07:46:51.341Z</time></trkpt><trkpt lat="45.7457627" lon="8.694591"><ele>355.6</ele><time>2026-05-04T07:46:53.341Z</time></trkpt><trkpt lat="45.7456773" lon="8.6945049"><ele>354.20000000000005</ele><time>2026-05-04T07:46:55.341Z</time></trkpt><trkpt lat="45.7455924" lon="8.6944506"><ele>352.8</ele><time>2026-05-04T07:46:57.341Z</time></trkpt><trkpt lat="45.7454937" lon="8.6943716"><ele>351.4</ele><time>2026-05-04T07:46:59.342Z</time></trkpt><trkpt lat="45.7454382" lon="8.6943261"><ele>350.0</ele><time>2026-05-04T07:47:00.341Z</time></trkpt><trkpt lat="45.7453324" lon="8.6942297"><ele>350.0</ele><time>2026-05-04T07:47:02.341Z</time></trkpt><trkpt lat="45.745261" lon="8.694183"><ele>350.0</ele><time>2026-05-04T07:47:03.341Z</time></trkpt><trkpt lat="45.7452184" lon="8.6941055"><ele>350.0</ele><time>2026-05-04T07:47:04.342Z</time></trkpt><trkpt lat="45.7451585" lon="8.6940315"><ele>350.0</ele><time>2026-05-04T07:47:05.341Z</time></trkpt><trkpt lat="45.7451014" lon="8.6939577"><ele>350.0</ele><time>2026-05-04T07:47:06.342Z</time></trkpt><trkpt lat="45.7450471" lon="8.6938846"><ele>350.0</ele><time>2026-05-04T07:47:07.341Z</time></trkpt><trkpt lat="45.7450058" lon="8.6938158"><ele>350.0</ele><time>2026-05-04T07:47:08.341Z</time></trkpt><trkpt lat="45.7448911" lon="8.693715"><ele>351.0</ele><time>2026-05-04T07:47:10.342Z</time></trkpt><trkpt lat="45.7448277" lon="8.693637"><ele>352.0</ele><time>2026-05-04T07:47:11.341Z</time></trkpt><trkpt lat="45.7447838" lon="8.693544"><ele>353.0</ele><time>2026-05-04T07:47:12.341Z</time></trkpt><trkpt lat="45.7447341" lon="8.6934733"><ele>354.0</ele><time>2026-05-04T07:47:13.342Z</time></trkpt><trkpt lat="45.7446536" lon="8.6933659"><ele>355.0</ele><time>2026-05-04T07:47:15.341Z</time></trkpt><trkpt lat="45.7446006" lon="8.6933149"><ele>356.0</ele><time>2026-05-04T07:47:16.342Z</time></trkpt><trkpt lat="45.7445428" lon="8.6932589"><ele>354.6</ele><time>2026-05-04T07:47:17.341Z</time></trkpt><trkpt lat="45.7444805" lon="8.693201"><ele>353.20000000000005</ele><time>2026-05-04T07:47:18.341Z</time></trkpt><trkpt lat="45.7443776" lon="8.6931577"><ele>351.79999999999995</ele><time>2026-05-04T07:47:20.341Z</time></trkpt><trkpt lat="45.7442663" lon="8.6930762"><ele>350.4</ele><time>2026-05-04T07:47:22.342Z</time></trkpt><trkpt lat="45.7442054" lon="8.6930403"><ele>349.0</ele><time>2026-05-04T07:47:23.342Z</time></trkpt><trkpt lat="45.7441275" lon="8.6929809"><ele>349.0</ele><time>2026-05-04T07:47:25.342Z</time></trkpt><trkpt lat="45.7440313" lon="8.6929339"><ele>349.0</ele><time>2026-05-04T07:47:27.341Z</time></trkpt><trkpt lat="45.7439714" lon="8.6928918"><ele>349.0</ele><time>2026-05-04T07:47:28.342Z</time></trkpt><trkpt lat="45.7439132" lon="8.6928524"><ele>349.0</ele><time>2026-05-04T07:47:29.342Z</time></trkpt><trkpt lat="45.7438565" lon="8.69281"><ele>349.0</ele><time>2026-05-04T07:47:30.341Z</time></trkpt><trkpt lat="45.7438001" lon="8.6927612"><ele>349.0</ele><time>2026-05-04T07:47:31.341Z</time></trkpt><trkpt lat="45.7436881" lon="8.6926596"><ele>347.8333333333333</ele><time>2026-05-04T07:47:33.342Z</time></trkpt><trkpt lat="45.7436326" lon="8.6925896"><ele>346.66666666666663</ele><time>2026-05-04T07:47:34.342Z</time></trkpt><trkpt lat="45.7435757" lon="8.6925092"><ele>345.5</ele><time>2026-05-04T07:47:35.34Z</time></trkpt><trkpt lat="45.7435163" lon="8.6924197"><ele>344.3333333333333</ele><time>2026-05-04T07:47:36.341Z</time></trkpt><trkpt lat="45.7434555" lon="8.6923364"><ele>343.1666666666667</ele><time>2026-05-04T07:47:37.341Z</time></trkpt><trkpt lat="45.7433946" lon="8.6922359"><ele>342.0</ele><time>2026-05-04T07:47:38.341Z</time></trkpt><trkpt lat="45.7433244" lon="8.6921437"><ele>342.0</ele><time>2026-05-04T07:47:39.341Z</time></trkpt><trkpt lat="45.743259" lon="8.6919715"><ele>342.0</ele><time>2026-05-04T07:47:41.34Z</time></trkpt><trkpt lat="45.7432108" lon="8.6918365"><ele>342.0</ele><time>2026-05-04T07:47:43.341Z</time></trkpt><trkpt lat="45.7431198" lon="8.6917379"><ele>342.0</ele><time>2026-05-04T07:47:45.342Z</time></trkpt><trkpt lat="45.7430177" lon="8.6916383"><ele>340.3333333333333</ele><time>2026-05-04T07:47:47.342Z</time></trkpt><trkpt lat="45.7429493" lon="8.6915439"><ele>338.6666666666667</ele><time>2026-05-04T07:47:49.341Z</time></trkpt><trkpt lat="45.7429131" lon="8.6914648"><ele>337.0</ele><time>2026-05-04T07:47:50.341Z</time></trkpt><trkpt lat="45.7428354" lon="8.6913349"><ele>335.33333333333337</ele><time>2026-05-04T07:47:52.342Z</time></trkpt><trkpt lat="45.7427947" lon="8.6912626"><ele>333.6666666666667</ele><time>2026-05-04T07:47:53.342Z</time></trkpt><trkpt lat="45.7427415" lon="8.691161"><ele>332.0</ele><time>2026-05-04T07:47:55.342Z</time></trkpt><trkpt lat="45.7427026" lon="8.6910891"><ele>330.85714285714283</ele><time>2026-05-04T07:47:58.342Z</time></trkpt><trkpt lat="45.7426377" lon="8.6910566"><ele>329.7142857142857</ele><time>2026-05-04T07:48:14.341Z</time></trkpt><trkpt lat="45.7425897" lon="8.6909875"><ele>328.57142857142856</ele><time>2026-05-04T07:48:17.342Z</time></trkpt><trkpt lat="45.7425163" lon="8.6909198"><ele>327.42857142857144</ele><time>2026-05-04T07:48:20.342Z</time></trkpt><trkpt lat="45.7424782" lon="8.6908423"><ele>326.2857142857143</ele><time>2026-05-04T07:48:22.341Z</time></trkpt><trkpt lat="45.7424083" lon="8.6908419"><ele>325.14285714285717</ele><time>2026-05-04T07:48:25.341Z</time></trkpt><trkpt lat="45.7423314" lon="8.6908276"><ele>324.0</ele><time>2026-05-04T07:48:27.341Z</time></trkpt><trkpt lat="45.7422531" lon="8.6907696"><ele>324.0</ele><time>2026-05-04T07:48:29.341Z</time></trkpt><trkpt lat="45.7422024" lon="8.6907001"><ele>324.0</ele><time>2026-05-04T07:48:31.342Z</time></trkpt><trkpt lat="45.7421424" lon="8.690626"><ele>324.0</ele><time>2026-05-04T07:48:33.341Z</time></trkpt><trkpt lat="45.7420792" lon="8.6905815"><ele>324.0</ele><time>2026-05-04T07:48:34.341Z</time></trkpt><trkpt lat="45.7420146" lon="8.6906"><ele>324.0</ele><time>2026-05-04T07:48:37.341Z</time></trkpt><trkpt lat="45.7419946" lon="8.6905137"><ele>324.0</ele><time>2026-05-04T07:50:33.342Z</time></trkpt><trkpt lat="45.741908" lon="8.6904985"><ele>324.0</ele><time>2026-05-04T08:01:34.34Z</time></trkpt><trkpt lat="45.7418428" lon="8.6904652"><ele>324.6666666666667</ele><time>2026-05-04T08:01:36.341Z</time></trkpt><trkpt lat="45.7417668" lon="8.6904591"><ele>325.3333333333333</ele><time>2026-05-04T08:01:39.34Z</time></trkpt><trkpt lat="45.741703" lon="8.6904385"><ele>326.0</ele><time>2026-05-04T08:01:42.34Z</time></trkpt><trkpt lat="45.7416329" lon="8.6904341"><ele>326.66666666666663</ele><time>2026-05-04T08:01:46.339Z</time></trkpt><trkpt lat="45.741553" lon="8.6904242"><ele>327.3333333333333</ele><time>2026-05-04T08:01:49.34Z</time></trkpt><trkpt lat="45.741459" lon="8.6904001"><ele>328.0</ele><time>2026-05-04T08:01:52.341Z</time></trkpt><trkpt lat="45.7413953" lon="8.6903407"><ele>326.4</ele><time>2026-05-04T08:01:54.341Z</time></trkpt><trkpt lat="45.7413254" lon="8.6902216"><ele>324.79999999999995</ele><time>2026-05-04T08:01:56.341Z</time></trkpt><trkpt lat="45.7412619" lon="8.6900919"><ele>323.2</ele><time>2026-05-04T08:01:58.34Z</time></trkpt><trkpt lat="45.7412222" lon="8.6899567"><ele>321.6</ele><time>2026-05-04T08:02:00.34Z</time></trkpt><trkpt lat="45.7411904" lon="8.6898719"><ele>320.0</ele><time>2026-05-04T08:02:01.341Z</time></trkpt><trkpt lat="45.7411115" lon="8.6897163"><ele>320.0</ele><time>2026-05-04T08:02:03.341Z</time></trkpt><trkpt lat="45.741068" lon="8.6896297"><ele>320.0</ele><time>2026-05-04T08:02:04.34Z</time></trkpt><trkpt lat="45.7409945" lon="8.6894724"><ele>320.0</ele><time>2026-05-04T08:02:06.341Z</time></trkpt><trkpt lat="45.7409594" lon="8.6893787"><ele>320.0</ele><time>2026-05-04T08:02:07.34Z</time></trkpt><trkpt lat="45.740929" lon="8.6892818"><ele>320.0</ele><time>2026-05-04T08:02:08.341Z</time></trkpt><trkpt lat="45.7408607" lon="8.6891399"><ele>318.4</ele><time>2026-05-04T08:02:10.34Z</time></trkpt><trkpt lat="45.7407871" lon="8.6890363"><ele>316.8</ele><time>2026-05-04T08:02:12.34Z</time></trkpt><trkpt lat="45.7407037" lon="8.6889298"><ele>315.2</ele><time>2026-05-04T08:02:14.34Z</time></trkpt><trkpt lat="45.7407029" lon="8.6890344"><ele>313.6</ele><time>2026-05-04T08:02:24.341Z</time></trkpt><trkpt lat="45.7406536" lon="8.6891489"><ele>312.0</ele><time>2026-05-04T08:02:28.341Z</time></trkpt><trkpt lat="45.7405918" lon="8.6891937"><ele>312.0</ele><time>2026-05-04T08:02:31.341Z</time></trkpt><trkpt lat="45.7404989" lon="8.6892192"><ele>312.0</ele><time>2026-05-04T08:02:35.34Z</time></trkpt><trkpt lat="45.7404033" lon="8.6892542"><ele>312.0</ele><time>2026-05-04T08:02:37.34Z</time></trkpt><trkpt lat="45.740326" lon="8.68923"><ele>312.0</ele><time>2026-05-04T08:02:39.34Z</time></trkpt><trkpt lat="45.7402602" lon="8.6892096"><ele>312.0</ele><time>2026-05-04T08:02:41.341Z</time></trkpt><trkpt lat="45.7401799" lon="8.6891951"><ele>312.0</ele><time>2026-05-04T08:02:44.341Z</time></trkpt><trkpt lat="45.7401131" lon="8.6892135"><ele>313.1666666666667</ele><time>2026-05-04T08:02:46.341Z</time></trkpt><trkpt lat="45.7400417" lon="8.6892408"><ele>314.3333333333333</ele><time>2026-05-04T08:02:50.341Z</time></trkpt><trkpt lat="45.7399551" lon="8.6892691"><ele>315.5</ele><time>2026-05-04T08:02:53.34Z</time></trkpt><trkpt lat="45.7398704" lon="8.6892389"><ele>316.66666666666663</ele><time>2026-05-04T08:02:56.341Z</time></trkpt><trkpt lat="45.7397972" lon="8.6892"><ele>317.8333333333333</ele><time>2026-05-04T08:03:00.34Z</time></trkpt><trkpt lat="45.7397127" lon="8.6891774"><ele>319.0</ele><time>2026-05-04T08:03:04.34Z</time></trkpt><trkpt lat="45.7396494" lon="8.6891325"><ele>319.0</ele><time>2026-05-04T08:03:07.341Z</time></trkpt><trkpt lat="45.739584" lon="8.6890649"><ele>319.0</ele><time>2026-05-04T08:03:10.341Z</time></trkpt><trkpt lat="45.7395392" lon="8.6889951"><ele>319.0</ele><time>2026-05-04T08:03:12.34Z</time></trkpt><trkpt lat="45.7394893" lon="8.6889201"><ele>319.0</ele><time>2026-05-04T08:03:14.34Z</time></trkpt><trkpt lat="45.73943" lon="8.6888478"><ele>319.0</ele><time>2026-05-04T08:03:16.34Z</time></trkpt><trkpt lat="45.7393714" lon="8.6888026"><ele>319.0</ele><time>2026-05-04T08:03:18.34Z</time></trkpt><trkpt lat="45.739303" lon="8.68876"><ele>319.0</ele><time>2026-05-04T08:03:20.341Z</time></trkpt><trkpt lat="45.7392305" lon="8.6887335"><ele>320.66666666666663</ele><time>2026-05-04T08:03:22.34Z</time></trkpt><trkpt lat="45.7391604" lon="8.6886964"><ele>322.3333333333333</ele><time>2026-05-04T08:03:24.341Z</time></trkpt><trkpt lat="45.7390715" lon="8.6886948"><ele>324.0</ele><time>2026-05-04T08:03:26.34Z</time></trkpt><trkpt lat="45.7389652" lon="8.6886981"><ele>325.6666666666667</ele><time>2026-05-04T08:03:28.34Z</time></trkpt><trkpt lat="45.7388744" lon="8.6886847"><ele>327.33333333333337</ele><time>2026-05-04T08:03:30.341Z</time></trkpt><trkpt lat="45.7387976" lon="8.6886662"><ele>329.0</ele><time>2026-05-04T08:03:32.341Z</time></trkpt><trkpt lat="45.7387205" lon="8.6886643"><ele>329.0</ele><time>2026-05-04T08:03:34.341Z</time></trkpt><trkpt lat="45.73862" lon="8.6886804"><ele>329.0</ele><time>2026-05-04T08:03:36.34Z</time></trkpt><trkpt lat="45.7386809" lon="8.6887225"><ele>329.0</ele><time>2026-05-04T08:03:49.34Z</time></trkpt><trkpt lat="45.7387579" lon="8.6887787"><ele>329.0</ele><time>2026-05-04T08:03:52.341Z</time></trkpt><trkpt lat="45.7388377" lon="8.6888377"><ele>329.0</ele><time>2026-05-04T08:03:55.341Z</time></trkpt><trkpt lat="45.7388934" lon="8.6889158"><ele>329.0</ele><time>2026-05-04T08:03:58.34Z</time></trkpt><trkpt lat="45.7389257" lon="8.6890232"><ele>329.0</ele><time>2026-05-04T08:04:00.34Z</time></trkpt><trkpt lat="45.7389509" lon="8.6891217"><ele>329.0</ele><time>2026-05-04T08:04:02.34Z</time></trkpt><trkpt lat="45.7389934" lon="8.6892106"><ele>329.0</ele><time>2026-05-04T08:04:04.341Z</time></trkpt><trkpt lat="45.739016" lon="8.6893223"><ele>329.0</ele><time>2026-05-04T08:04:07.34Z</time></trkpt><trkpt lat="45.7390238" lon="8.6894475"><ele>329.0</ele><time>2026-05-04T08:04:10.341Z</time></trkpt><trkpt lat="45.739018" lon="8.6895608"><ele>329.0</ele><time>2026-05-04T08:04:13.341Z</time></trkpt><trkpt lat="45.7390226" lon="8.6896956"><ele>330.42857142857144</ele><time>2026-05-04T08:04:16.34Z</time></trkpt><trkpt lat="45.73902" lon="8.6898192"><ele>331.8571428571429</ele><time>2026-05-04T08:04:19.34Z</time></trkpt><trkpt lat="45.7390364" lon="8.6899252"><ele>333.2857142857143</ele><time>2026-05-04T08:04:22.34Z</time></trkpt><trkpt lat="45.7390614" lon="8.6900247"><ele>334.7142857142857</ele><time>2026-05-04T08:04:25.341Z</time></trkpt><trkpt lat="45.7390797" lon="8.6901458"><ele>336.14285714285717</ele><time>2026-05-04T08:04:28.34Z</time></trkpt><trkpt lat="45.7390756" lon="8.690236"><ele>337.57142857142856</ele><time>2026-05-04T08:04:30.34Z</time></trkpt><trkpt lat="45.7390887" lon="8.6903248"><ele>339.0</ele><time>2026-05-04T08:04:32.34Z</time></trkpt><trkpt lat="45.7391401" lon="8.6903934"><ele>339.5</ele><time>2026-05-04T08:04:35.34Z</time></trkpt><trkpt lat="45.7391979" lon="8.6904625"><ele>340.0</ele><time>2026-05-04T08:04:39.341Z</time></trkpt><trkpt lat="45.7392591" lon="8.6905356"><ele>340.5</ele><time>2026-05-04T08:04:43.341Z</time></trkpt><trkpt lat="45.7393138" lon="8.6906159"><ele>341.0</ele><time>2026-05-04T08:04:46.341Z</time></trkpt><trkpt lat="45.7393615" lon="8.6906792"><ele>341.5</ele><time>2026-05-04T08:04:52.341Z</time></trkpt><trkpt lat="45.7394143" lon="8.6907664"><ele>342.0</ele><time>2026-05-04T08:04:55.34Z</time></trkpt><trkpt lat="45.7394897" lon="8.6907963"><ele>342.0</ele><time>2026-05-04T08:04:59.34Z</time></trkpt><trkpt lat="45.7395405" lon="8.6908685"><ele>342.0</ele><time>2026-05-04T08:05:01.342Z</time></trkpt><trkpt lat="45.739626" lon="8.6908835"><ele>342.0</ele><time>2026-05-04T08:05:03.34Z</time></trkpt><trkpt lat="45.7397109" lon="8.6909039"><ele>342.0</ele><time>2026-05-04T08:05:05.342Z</time></trkpt><trkpt lat="45.7397745" lon="8.6909842"><ele>342.0</ele><time>2026-05-04T08:05:08.341Z</time></trkpt><trkpt lat="45.7398032" lon="8.6911219"><ele>342.0</ele><time>2026-05-04T08:05:10.34Z</time></trkpt><trkpt lat="45.7398145" lon="8.6912193"><ele>343.5</ele><time>2026-05-04T08:05:12.34Z</time></trkpt><trkpt lat="45.7398388" lon="8.6913059"><ele>345.0</ele><time>2026-05-04T08:05:14.341Z</time></trkpt><trkpt lat="45.7398884" lon="8.6913981"><ele>346.5</ele><time>2026-05-04T08:05:17.341Z</time></trkpt><trkpt lat="45.7399393" lon="8.6914697"><ele>348.0</ele><time>2026-05-04T08:05:19.34Z</time></trkpt><trkpt lat="45.7399797" lon="8.6915505"><ele>349.5</ele><time>2026-05-04T08:05:21.34Z</time></trkpt><trkpt lat="45.7400428" lon="8.6916588"><ele>351.0</ele><time>2026-05-04T08:05:24.342Z</time></trkpt><trkpt lat="45.74011" lon="8.6917444"><ele>351.0</ele><time>2026-05-04T08:05:26.341Z</time></trkpt><trkpt lat="45.7401627" lon="8.691819"><ele>351.0</ele><time>2026-05-04T08:05:28.341Z</time></trkpt><trkpt lat="45.7402146" lon="8.6919132"><ele>351.0</ele><time>2026-05-04T08:05:30.341Z</time></trkpt><trkpt lat="45.7402686" lon="8.6920068"><ele>351.0</ele><time>2026-05-04T08:05:33.34Z</time></trkpt><trkpt lat="45.7403263" lon="8.692102"><ele>351.0</ele><time>2026-05-04T08:05:36.341Z</time></trkpt><trkpt lat="45.74036" lon="8.692189"><ele>351.0</ele><time>2026-05-04T08:05:38.34Z</time></trkpt><trkpt lat="45.7403966" lon="8.6922895"><ele>351.6666666666667</ele><time>2026-05-04T08:05:40.34Z</time></trkpt><trkpt lat="45.7404504" lon="8.6923843"><ele>352.3333333333333</ele><time>2026-05-04T08:05:43.341Z</time></trkpt><trkpt lat="45.7405327" lon="8.6924055"><ele>353.0</ele><time>2026-05-04T08:05:46.341Z</time></trkpt><trkpt lat="45.7406055" lon="8.6924274"><ele>353.66666666666663</ele><time>2026-05-04T08:05:49.341Z</time></trkpt><trkpt lat="45.7406758" lon="8.6924859"><ele>354.3333333333333</ele><time>2026-05-04T08:05:52.34Z</time></trkpt><trkpt lat="45.7407379" lon="8.6925622"><ele>355.0</ele><time>2026-05-04T08:05:55.34Z</time></trkpt><trkpt lat="45.7408065" lon="8.6925782"><ele>355.0</ele><time>2026-05-04T08:05:58.34Z</time></trkpt><trkpt lat="45.7408727" lon="8.6926294"><ele>355.0</ele><time>2026-05-04T08:06:01.341Z</time></trkpt><trkpt lat="45.7409393" lon="8.6927037"><ele>355.0</ele><time>2026-05-04T08:06:03.34Z</time></trkpt><trkpt lat="45.7409735" lon="8.6927819"><ele>355.0</ele><time>2026-05-04T08:06:05.341Z</time></trkpt><trkpt lat="45.7410473" lon="8.6928254"><ele>355.0</ele><time>2026-05-04T08:06:08.34Z</time></trkpt><trkpt lat="45.7411367" lon="8.6928543"><ele>355.0</ele><time>2026-05-04T08:06:11.34Z</time></trkpt><trkpt lat="45.7412036" lon="8.6928971"><ele>356.0</ele><time>2026-05-04T08:06:13.34Z</time></trkpt><trkpt lat="45.7412845" lon="8.6929485"><ele>357.0</ele><time>2026-05-04T08:06:16.34Z</time></trkpt><trkpt lat="45.7413439" lon="8.6929789"><ele>358.0</ele><time>2026-05-04T08:06:18.341Z</time></trkpt><trkpt lat="45.7414152" lon="8.6930097"><ele>359.0</ele><time>2026-05-04T08:06:20.341Z</time></trkpt><trkpt lat="45.7414986" lon="8.693112"><ele>360.0</ele><time>2026-05-04T08:06:22.341Z</time></trkpt><trkpt lat="45.7415679" lon="8.6931626"><ele>361.0</ele><time>2026-05-04T08:06:24.34Z</time></trkpt><trkpt lat="45.7416348" lon="8.6932185"><ele>361.0</ele><time>2026-05-04T08:06:26.341Z</time></trkpt><trkpt lat="45.7416751" lon="8.6933501"><ele>361.0</ele><time>2026-05-04T08:06:29.34Z</time></trkpt><trkpt lat="45.7416906" lon="8.6934635"><ele>361.0</ele><time>2026-05-04T08:06:31.34Z</time></trkpt><trkpt lat="45.7417039" lon="8.6935766"><ele>361.0</ele><time>2026-05-04T08:06:34.341Z</time></trkpt><trkpt lat="45.7417084" lon="8.6936737"><ele>361.0</ele><time>2026-05-04T08:06:36.341Z</time></trkpt><trkpt lat="45.7417072" lon="8.6937667"><ele>361.0</ele><time>2026-05-04T08:06:38.341Z</time></trkpt><trkpt lat="45.7416843" lon="8.6938642"><ele>363.16666666666663</ele><time>2026-05-04T08:06:41.34Z</time></trkpt><trkpt lat="45.74163" lon="8.6939502"><ele>365.3333333333333</ele><time>2026-05-04T08:06:44.34Z</time></trkpt><trkpt lat="45.7415665" lon="8.6939971"><ele>367.5</ele><time>2026-05-04T08:06:51.341Z</time></trkpt><trkpt lat="45.7415052" lon="8.6940662"><ele>369.6666666666667</ele><time>2026-05-04T08:06:57.34Z</time></trkpt><trkpt lat="45.741445" lon="8.6941295"><ele>371.83333333333337</ele><time>2026-05-04T08:07:05.341Z</time></trkpt><trkpt lat="45.7413654" lon="8.694131"><ele>374.0</ele><time>2026-05-04T08:07:38.341Z</time></trkpt><trkpt lat="45.7412808" lon="8.6941561"><ele>374.0</ele><time>2026-05-04T08:07:41.341Z</time></trkpt><trkpt lat="45.7412272" lon="8.6941051"><ele>374.0</ele><time>2026-05-04T08:07:46.341Z</time></trkpt><trkpt lat="45.741158" lon="8.6940696"><ele>374.0</ele><time>2026-05-04T08:08:16.341Z</time></trkpt><trkpt lat="45.7410819" lon="8.6940157"><ele>374.0</ele><time>2026-05-04T08:08:20.341Z</time></trkpt><trkpt lat="45.7410305" lon="8.6939307"><ele>374.0</ele><time>2026-05-04T08:08:23.34Z</time></trkpt><trkpt lat="45.7410168" lon="8.6938142"><ele>374.0</ele><time>2026-05-04T08:08:26.34Z</time></trkpt><trkpt lat="45.7409916" lon="8.6937199"><ele>372.83333333333337</ele><time>2026-05-04T08:08:29.341Z</time></trkpt><trkpt lat="45.7409165" lon="8.6936886"><ele>371.6666666666667</ele><time>2026-05-04T08:08:32.34Z</time></trkpt><trkpt lat="45.7408364" lon="8.693694"><ele>370.5</ele><time>2026-05-04T08:08:35.341Z</time></trkpt><trkpt lat="45.7407578" lon="8.6936577"><ele>369.3333333333333</ele><time>2026-05-04T08:08:38.34Z</time></trkpt><trkpt lat="45.7406752" lon="8.6936343"><ele>368.16666666666663</ele><time>2026-05-04T08:08:40.341Z</time></trkpt><trkpt lat="45.740603" lon="8.6935936"><ele>367.0</ele><time>2026-05-04T08:08:41.341Z</time></trkpt><trkpt lat="45.7405328" lon="8.6935466"><ele>367.0</ele><time>2026-05-04T08:08:42.34Z</time></trkpt><trkpt lat="45.7404078" lon="8.6934186"><ele>367.0</ele><time>2026-05-04T08:08:43.34Z</time></trkpt><trkpt lat="45.7403114" lon="8.6933129"><ele>367.0</ele><time>2026-05-04T08:08:45.34Z</time></trkpt><trkpt lat="45.7402591" lon="8.6932354"><ele>367.0</ele><time>2026-05-04T08:08:46.341Z</time></trkpt><trkpt lat="45.740197" lon="8.6931651"><ele>367.0</ele><time>2026-05-04T08:08:47.34Z</time></trkpt><trkpt lat="45.7400972" lon="8.6930492"><ele>367.66666666666663</ele><time>2026-05-04T08:08:49.34Z</time></trkpt><trkpt lat="45.7400396" lon="8.6930087"><ele>368.3333333333333</ele><time>2026-05-04T08:08:50.341Z</time></trkpt><trkpt lat="45.739973" lon="8.6929566"><ele>369.0</ele><time>2026-05-04T08:08:51.34Z</time></trkpt><trkpt lat="45.7398617" lon="8.6928803"><ele>369.6666666666667</ele><time>2026-05-04T08:08:53.341Z</time></trkpt><trkpt lat="45.7397623" lon="8.6928869"><ele>370.33333333333337</ele><time>2026-05-04T08:08:55.34Z</time></trkpt><trkpt lat="45.7396943" lon="8.6928927"><ele>371.0</ele><time>2026-05-04T08:09:07.34Z</time></trkpt><trkpt lat="45.7396337" lon="8.6929574"><ele>371.0</ele><time>2026-05-04T08:09:12.341Z</time></trkpt><trkpt lat="45.7395699" lon="8.6930038"><ele>371.0</ele><time>2026-05-04T08:09:16.341Z</time></trkpt><trkpt lat="45.7394971" lon="8.6930486"><ele>371.0</ele><time>2026-05-04T08:09:18.341Z</time></trkpt><trkpt lat="45.7394166" lon="8.6930456"><ele>371.0</ele><time>2026-05-04T08:09:22.341Z</time></trkpt><trkpt lat="45.739346" lon="8.6930534"><ele>371.0</ele><time>2026-05-04T08:09:25.34Z</time></trkpt><trkpt lat="45.7392751" lon="8.6930397"><ele>371.0</ele><time>2026-05-04T08:09:28.34Z</time></trkpt><trkpt lat="45.7392019" lon="8.6930272"><ele>371.0</ele><time>2026-05-04T08:09:32.34Z</time></trkpt><trkpt lat="45.7391352" lon="8.6930141"><ele>371.57142857142856</ele><time>2026-05-04T08:09:35.34Z</time></trkpt><trkpt lat="45.7390516" lon="8.6930324"><ele>372.1428571428571</ele><time>2026-05-04T08:09:39.34Z</time></trkpt><trkpt lat="45.7390662" lon="8.6931273"><ele>372.7142857142857</ele><time>2026-05-04T08:09:55.34Z</time></trkpt><trkpt lat="45.7391058" lon="8.6932159"><ele>373.2857142857143</ele><time>2026-05-04T08:10:08.341Z</time></trkpt><trkpt lat="45.739166" lon="8.6932486"><ele>373.85714285714283</ele><time>2026-05-04T08:10:17.341Z</time></trkpt><trkpt lat="45.7392408" lon="8.6932726"><ele>374.42857142857144</ele><time>2026-05-04T08:10:32.34Z</time></trkpt><trkpt lat="45.7392997" lon="8.6933215"><ele>375.0</ele><time>2026-05-04T08:10:37.341Z</time></trkpt><trkpt lat="45.7393404" lon="8.69343"><ele>375.0</ele><time>2026-05-04T08:10:41.34Z</time></trkpt><trkpt lat="45.7393491" lon="8.6935275"><ele>375.0</ele><time>2026-05-04T08:10:45.341Z</time></trkpt><trkpt lat="45.7393016" lon="8.6936049"><ele>375.0</ele><time>2026-05-04T08:10:52.341Z</time></trkpt><trkpt lat="45.7392478" lon="8.6936711"><ele>375.0</ele><time>2026-05-04T08:11:03.341Z</time></trkpt><trkpt lat="45.7391834" lon="8.6937086"><ele>375.0</ele><time>2026-05-04T08:11:06.341Z</time></trkpt><trkpt lat="45.7391106" lon="8.6937402"><ele>375.0</ele><time>2026-05-04T08:11:09.34Z</time></trkpt><trkpt lat="45.7390337" lon="8.693737"><ele>375.0</ele><time>2026-05-04T08:11:13.34Z</time></trkpt><trkpt lat="45.7389608" lon="8.6937321"><ele>377.0</ele><time>2026-05-04T08:11:17.339Z</time></trkpt><trkpt lat="45.7388914" lon="8.6937457"><ele>379.0</ele><time>2026-05-04T08:11:21.339Z</time></trkpt><trkpt lat="45.7388191" lon="8.6937667"><ele>381.0</ele><time>2026-05-04T08:11:25.339Z</time></trkpt><trkpt lat="45.7387536" lon="8.6937818"><ele>383.0</ele><time>2026-05-04T08:11:29.34Z</time></trkpt><trkpt lat="45.7387703" lon="8.6938852"><ele>385.0</ele><time>2026-05-04T08:11:38.339Z</time></trkpt><trkpt lat="45.7388155" lon="8.6939653"><ele>387.0</ele><time>2026-05-04T08:11:42.34Z</time></trkpt><trkpt lat="45.7387667" lon="8.6940486"><ele>389.0</ele><time>2026-05-04T08:11:48.34Z</time></trkpt><trkpt lat="45.7387476" lon="8.6941403"><ele>388.99999999999994</ele><time>2026-05-04T08:11:56.34Z</time></trkpt><trkpt lat="45.7388239" lon="8.6941687"><ele>389.0</ele><time>2026-05-04T08:12:04.339Z</time></trkpt><trkpt lat="45.7388912" lon="8.6941706"><ele>389.0</ele><time>2026-05-04T08:12:18.339Z</time></trkpt><trkpt lat="45.7389655" lon="8.6942178"><ele>389.0</ele><time>2026-05-04T08:12:32.339Z</time></trkpt><trkpt lat="45.7390347" lon="8.6942774"><ele>388.99999999999994</ele><time>2026-05-04T08:12:35.339Z</time></trkpt><trkpt lat="45.7391157" lon="8.6943305"><ele>389.0</ele><time>2026-05-04T08:12:38.339Z</time></trkpt><trkpt lat="45.7391708" lon="8.6943796"><ele>390.66666666666663</ele><time>2026-05-04T08:12:40.339Z</time></trkpt><trkpt lat="45.7392214" lon="8.6944406"><ele>392.3333333333333</ele><time>2026-05-04T08:12:42.34Z</time></trkpt><trkpt lat="45.7392723" lon="8.6945062"><ele>394.0</ele><time>2026-05-04T08:12:44.34Z</time></trkpt><trkpt lat="45.7393233" lon="8.6945669"><ele>395.66666666666663</ele><time>2026-05-04T08:12:46.339Z</time></trkpt><trkpt lat="45.7394071" lon="8.6946126"><ele>397.3333333333333</ele><time>2026-05-04T08:12:49.339Z</time></trkpt><trkpt lat="45.7394839" lon="8.694656"><ele>399.0</ele><time>2026-05-04T08:12:52.339Z</time></trkpt><trkpt lat="45.7395595" lon="8.6946919"><ele>399.0</ele><time>2026-05-04T08:12:56.339Z</time></trkpt><trkpt lat="45.7396319" lon="8.694749"><ele>399.0</ele><time>2026-05-04T08:12:59.339Z</time></trkpt><trkpt lat="45.7396993" lon="8.6947806"><ele>399.0</ele><time>2026-05-04T08:13:02.34Z</time></trkpt><trkpt lat="45.7397787" lon="8.6947975"><ele>399.0</ele><time>2026-05-04T08:13:05.339Z</time></trkpt><trkpt lat="45.7398731" lon="8.6948661"><ele>399.0</ele><time>2026-05-04T08:13:08.34Z</time></trkpt><trkpt lat="45.7399438" lon="8.6949209"><ele>399.0</ele><time>2026-05-04T08:13:10.339Z</time></trkpt><trkpt lat="45.7400063" lon="8.6949895"><ele>399.0</ele><time>2026-05-04T08:13:12.34Z</time></trkpt><trkpt lat="45.7400781" lon="8.695024"><ele>399.0</ele><time>2026-05-04T08:13:14.339Z</time></trkpt><trkpt lat="45.7401417" lon="8.6950756"><ele>399.0</ele><time>2026-05-04T08:13:16.339Z</time></trkpt><trkpt lat="45.740216" lon="8.6951145"><ele>399.0</ele><time>2026-05-04T08:13:19.34Z</time></trkpt><trkpt lat="45.740285" lon="8.6951631"><ele>399.0</ele><time>2026-05-04T08:13:21.339Z</time></trkpt><trkpt lat="45.7403566" lon="8.695214"><ele>399.0</ele><time>2026-05-04T08:13:23.34Z</time></trkpt><trkpt lat="45.7404436" lon="8.6952622"><ele>400.6666666666667</ele><time>2026-05-04T08:13:26.339Z</time></trkpt><trkpt lat="45.7405319" lon="8.695302"><ele>402.33333333333337</ele><time>2026-05-04T08:13:29.34Z</time></trkpt><trkpt lat="45.7406025" lon="8.6953449"><ele>404.0</ele><time>2026-05-04T08:13:31.34Z</time></trkpt><trkpt lat="45.7406636" lon="8.6953811"><ele>405.6666666666667</ele><time>2026-05-04T08:13:33.339Z</time></trkpt><trkpt lat="45.7407275" lon="8.6954191"><ele>407.33333333333337</ele><time>2026-05-04T08:13:35.339Z</time></trkpt><trkpt lat="45.7407935" lon="8.6954636"><ele>409.0</ele><time>2026-05-04T08:13:37.339Z</time></trkpt><trkpt lat="45.7408895" lon="8.6955201"><ele>409.0</ele><time>2026-05-04T08:13:39.34Z</time></trkpt><trkpt lat="45.7409826" lon="8.6955629"><ele>409.0</ele><time>2026-05-04T08:13:41.34Z</time></trkpt><trkpt lat="45.7410663" lon="8.6956156"><ele>409.0</ele><time>2026-05-04T08:13:43.34Z</time></trkpt><trkpt lat="45.7411527" lon="8.6956638"><ele>409.0</ele><time>2026-05-04T08:13:45.34Z</time></trkpt><trkpt lat="45.7412431" lon="8.6957003"><ele>409.0</ele><time>2026-05-04T08:13:47.339Z</time></trkpt><trkpt lat="45.741342" lon="8.6957404"><ele>408.1666666666667</ele><time>2026-05-04T08:13:49.34Z</time></trkpt><trkpt lat="45.7414354" lon="8.6957884"><ele>407.33333333333337</ele><time>2026-05-04T08:13:51.339Z</time></trkpt><trkpt lat="45.7415231" lon="8.6958405"><ele>406.5</ele><time>2026-05-04T08:13:53.339Z</time></trkpt><trkpt lat="45.7415956" lon="8.6959119"><ele>405.66666666666663</ele><time>2026-05-04T08:13:55.34Z</time></trkpt><trkpt lat="45.741667" lon="8.695953"><ele>404.8333333333333</ele><time>2026-05-04T08:13:57.339Z</time></trkpt><trkpt lat="45.7417394" lon="8.6959963"><ele>404.0</ele><time>2026-05-04T08:13:59.34Z</time></trkpt><trkpt lat="45.7418361" lon="8.696039"><ele>404.79999999999995</ele><time>2026-05-04T08:14:01.34Z</time></trkpt><trkpt lat="45.7419361" lon="8.6960783"><ele>405.59999999999997</ele><time>2026-05-04T08:14:03.339Z</time></trkpt><trkpt lat="45.7420176" lon="8.6961257"><ele>406.4</ele><time>2026-05-04T08:14:05.339Z</time></trkpt><trkpt lat="45.742083" lon="8.6961522"><ele>407.2</ele><time>2026-05-04T08:14:07.34Z</time></trkpt><trkpt lat="45.7421918" lon="8.6961784"><ele>408.0</ele><time>2026-05-04T08:14:10.34Z</time></trkpt><trkpt lat="45.7423073" lon="8.6962441"><ele>408.0</ele><time>2026-05-04T08:14:12.339Z</time></trkpt><trkpt lat="45.7424307" lon="8.6963495"><ele>408.0</ele><time>2026-05-04T08:14:14.34Z</time></trkpt><trkpt lat="45.7425092" lon="8.6964589"><ele>408.0</ele><time>2026-05-04T08:14:15.339Z</time></trkpt><trkpt lat="45.7425702" lon="8.696525"><ele>408.0</ele><time>2026-05-04T08:14:16.339Z</time></trkpt><trkpt lat="45.7426305" lon="8.6965683"><ele>408.0</ele><time>2026-05-04T08:14:17.339Z</time></trkpt><trkpt lat="45.7427263" lon="8.6966327"><ele>407.5</ele><time>2026-05-04T08:14:19.34Z</time></trkpt><trkpt lat="45.7428417" lon="8.696691"><ele>407.0</ele><time>2026-05-04T08:14:21.338Z</time></trkpt><trkpt lat="45.7429141" lon="8.6967422"><ele>406.5</ele><time>2026-05-04T08:14:22.34Z</time></trkpt><trkpt lat="45.7429906" lon="8.6968146"><ele>406.0</ele><time>2026-05-04T08:14:23.339Z</time></trkpt><trkpt lat="45.7430497" lon="8.6968744"><ele>405.5</ele><time>2026-05-04T08:14:24.339Z</time></trkpt><trkpt lat="45.7431106" lon="8.696947"><ele>405.0</ele><time>2026-05-04T08:14:25.338Z</time></trkpt><trkpt lat="45.7431658" lon="8.6970077"><ele>405.0</ele><time>2026-05-04T08:14:26.34Z</time></trkpt><trkpt lat="45.7432197" lon="8.6970591"><ele>405.0</ele><time>2026-05-04T08:14:27.34Z</time></trkpt><trkpt lat="45.7432882" lon="8.6970899"><ele>405.0</ele><time>2026-05-04T08:14:29.339Z</time></trkpt><trkpt lat="45.7433653" lon="8.6971126"><ele>405.0</ele><time>2026-05-04T08:14:31.339Z</time></trkpt><trkpt lat="45.7434789" lon="8.6971652"><ele>405.0</ele><time>2026-05-04T08:14:33.339Z</time></trkpt><trkpt lat="45.7435562" lon="8.697226"><ele>405.0</ele><time>2026-05-04T08:14:34.339Z</time></trkpt><trkpt lat="45.7436562" lon="8.6972461"><ele>404.4</ele><time>2026-05-04T08:14:36.34Z</time></trkpt><trkpt lat="45.743769" lon="8.6972807"><ele>403.8</ele><time>2026-05-04T08:14:37.339Z</time></trkpt><trkpt lat="45.7438525" lon="8.6973277"><ele>403.20000000000005</ele><time>2026-05-04T08:14:39.34Z</time></trkpt><trkpt lat="45.7439522" lon="8.6973059"><ele>402.6</ele><time>2026-05-04T08:14:41.339Z</time></trkpt><trkpt lat="45.7440359" lon="8.6972772"><ele>402.0</ele><time>2026-05-04T08:14:43.339Z</time></trkpt><trkpt lat="45.7441084" lon="8.6972997"><ele>402.0</ele><time>2026-05-04T08:14:45.339Z</time></trkpt><trkpt lat="45.7442019" lon="8.6973163"><ele>402.0</ele><time>2026-05-04T08:14:47.339Z</time></trkpt><trkpt lat="45.7443076" lon="8.6973406"><ele>402.0</ele><time>2026-05-04T08:14:49.339Z</time></trkpt><trkpt lat="45.7443936" lon="8.6973675"><ele>402.0</ele><time>2026-05-04T08:14:51.34Z</time></trkpt><trkpt lat="45.7444597" lon="8.6973733"><ele>402.0</ele><time>2026-05-04T08:14:53.339Z</time></trkpt><trkpt lat="45.7445402" lon="8.6973994"><ele>402.0</ele><time>2026-05-04T08:14:55.34Z</time></trkpt><trkpt lat="45.7445969" lon="8.6974447"><ele>403.0</ele><time>2026-05-04T08:14:57.339Z</time></trkpt><trkpt lat="45.744662" lon="8.6974701"><ele>404.0</ele><time>2026-05-04T08:14:59.339Z</time></trkpt><trkpt lat="45.7447359" lon="8.6975142"><ele>405.0</ele><time>2026-05-04T08:15:01.339Z</time></trkpt><trkpt lat="45.7448086" lon="8.6975898"><ele>406.0</ele><time>2026-05-04T08:15:03.339Z</time></trkpt><trkpt lat="45.7448927" lon="8.6976385"><ele>407.0</ele><time>2026-05-04T08:15:05.339Z</time></trkpt><trkpt lat="45.7449973" lon="8.6976668"><ele>408.0</ele><time>2026-05-04T08:15:07.339Z</time></trkpt><trkpt lat="45.7451077" lon="8.6977072"><ele>407.5</ele><time>2026-05-04T08:15:09.339Z</time></trkpt><trkpt lat="45.7452289" lon="8.6977246"><ele>407.0</ele><time>2026-05-04T08:15:11.34Z</time></trkpt><trkpt lat="45.7453018" lon="8.6977139"><ele>406.5</ele><time>2026-05-04T08:15:12.339Z</time></trkpt><trkpt lat="45.7453713" lon="8.697702"><ele>406.0</ele><time>2026-05-04T08:15:13.339Z</time></trkpt><trkpt lat="45.7454732" lon="8.6977215"><ele>405.5</ele><time>2026-05-04T08:15:15.34Z</time></trkpt><trkpt lat="45.7455374" lon="8.6977739"><ele>405.0</ele><time>2026-05-04T08:15:16.34Z</time></trkpt><trkpt lat="45.7455949" lon="8.6978195"><ele>406.2</ele><time>2026-05-04T08:15:17.339Z</time></trkpt><trkpt lat="45.7456953" lon="8.6978876"><ele>407.4</ele><time>2026-05-04T08:15:19.339Z</time></trkpt><trkpt lat="45.7457874" lon="8.6979723"><ele>408.6</ele><time>2026-05-04T08:15:21.34Z</time></trkpt><trkpt lat="45.7458567" lon="8.6980451"><ele>409.8</ele><time>2026-05-04T08:15:23.34Z</time></trkpt><trkpt lat="45.7459324" lon="8.6980969"><ele>411.0</ele><time>2026-05-04T08:15:25.34Z</time></trkpt><trkpt lat="45.7460002" lon="8.6981505"><ele>411.5</ele><time>2026-05-04T08:15:27.34Z</time></trkpt><trkpt lat="45.7460709" lon="8.6982128"><ele>412.0</ele><time>2026-05-04T08:15:29.339Z</time></trkpt><trkpt lat="45.7461493" lon="8.6982826"><ele>412.5</ele><time>2026-05-04T08:15:31.339Z</time></trkpt><trkpt lat="45.7462216" lon="8.6983483"><ele>413.0</ele><time>2026-05-04T08:15:33.339Z</time></trkpt><trkpt lat="45.7462692" lon="8.6984199"><ele>413.5</ele><time>2026-05-04T08:15:35.34Z</time></trkpt><trkpt lat="45.7463205" lon="8.6985173"><ele>414.0</ele><time>2026-05-04T08:15:37.339Z</time></trkpt><trkpt lat="45.7463669" lon="8.6986112"><ele>415.8333333333333</ele><time>2026-05-04T08:15:39.339Z</time></trkpt><trkpt lat="45.7464156" lon="8.6986841"><ele>417.66666666666663</ele><time>2026-05-04T08:15:41.34Z</time></trkpt><trkpt lat="45.7464752" lon="8.6987265"><ele>419.5</ele><time>2026-05-04T08:15:43.34Z</time></trkpt><trkpt lat="45.7465239" lon="8.6988067"><ele>421.3333333333333</ele><time>2026-05-04T08:15:45.339Z</time></trkpt><trkpt lat="45.7465708" lon="8.6988831"><ele>423.16666666666663</ele><time>2026-05-04T08:15:47.34Z</time></trkpt><trkpt lat="45.7466212" lon="8.6989888"><ele>425.0</ele><time>2026-05-04T08:15:49.339Z</time></trkpt><trkpt lat="45.7466556" lon="8.6991141"><ele>424.99999999999994</ele><time>2026-05-04T08:15:51.339Z</time></trkpt><trkpt lat="45.7466918" lon="8.6992127"><ele>425.0</ele><time>2026-05-04T08:15:53.339Z</time></trkpt><trkpt lat="45.7467273" lon="8.6992937"><ele>425.0</ele><time>2026-05-04T08:15:55.34Z</time></trkpt><trkpt lat="45.7467951" lon="8.6993744"><ele>425.0</ele><time>2026-05-04T08:15:58.339Z</time></trkpt><trkpt lat="45.7468482" lon="8.6994456"><ele>424.99999999999994</ele><time>2026-05-04T08:16:01.339Z</time></trkpt><trkpt lat="45.7469258" lon="8.6994866"><ele>425.0</ele><time>2026-05-04T08:16:04.34Z</time></trkpt><trkpt lat="45.7470182" lon="8.6995052"><ele>425.99999999999994</ele><time>2026-05-04T08:16:07.339Z</time></trkpt><trkpt lat="45.7470801" lon="8.6995896"><ele>427.0</ele><time>2026-05-04T08:16:10.34Z</time></trkpt><trkpt lat="45.7471137" lon="8.6997261"><ele>428.0</ele><time>2026-05-04T08:16:12.339Z</time></trkpt><trkpt lat="45.7471259" lon="8.6998395"><ele>429.0</ele><time>2026-05-04T08:16:14.339Z</time></trkpt><trkpt lat="45.7471505" lon="8.6999304"><ele>429.99999999999994</ele><time>2026-05-04T08:16:16.339Z</time></trkpt><trkpt lat="45.7471951" lon="8.7000368"><ele>431.0</ele><time>2026-05-04T08:16:19.34Z</time></trkpt><trkpt lat="45.7472371" lon="8.7001086"><ele>430.99999999999994</ele><time>2026-05-04T08:16:21.34Z</time></trkpt><trkpt lat="45.7472776" lon="8.7002035"><ele>431.0</ele><time>2026-05-04T08:16:24.339Z</time></trkpt><trkpt lat="45.7473266" lon="8.7002771"><ele>431.0</ele><time>2026-05-04T08:16:27.34Z</time></trkpt><trkpt lat="45.747349" lon="8.7003794"><ele>431.0</ele><time>2026-05-04T08:16:30.339Z</time></trkpt><trkpt lat="45.747369" lon="8.700499"><ele>430.99999999999994</ele><time>2026-05-04T08:16:33.34Z</time></trkpt><trkpt lat="45.7473738" lon="8.7005895"><ele>431.0</ele><time>2026-05-04T08:16:35.339Z</time></trkpt><trkpt lat="45.7473787" lon="8.7007209"><ele>431.0</ele><time>2026-05-04T08:16:38.339Z</time></trkpt><trkpt lat="45.7473578" lon="8.7008431"><ele>431.0</ele><time>2026-05-04T08:16:41.34Z</time></trkpt><trkpt lat="45.7473046" lon="8.7009309"><ele>431.0</ele><time>2026-05-04T08:16:44.34Z</time></trkpt><trkpt lat="45.7472789" lon="8.7010315"><ele>431.0</ele><time>2026-05-04T08:16:47.34Z</time></trkpt><trkpt lat="45.74726" lon="8.7011309"><ele>431.0</ele><time>2026-05-04T08:16:51.338Z</time></trkpt><trkpt lat="45.7472547" lon="8.7012241"><ele>431.0</ele><time>2026-05-04T08:17:01.34Z</time></trkpt><trkpt lat="45.7472553" lon="8.7013176"><ele>431.0</ele><time>2026-05-04T08:17:37.34Z</time></trkpt><trkpt lat="45.7472681" lon="8.7014146"><ele>430.99999999999994</ele><time>2026-05-04T08:17:50.339Z</time></trkpt><trkpt lat="45.747221" lon="8.7014784"><ele>431.0</ele><time>2026-05-04T08:18:56.34Z</time></trkpt><trkpt lat="45.7472693" lon="8.701543"><ele>431.0</ele><time>2026-05-04T08:20:05.34Z</time></trkpt><trkpt lat="45.7472779" lon="8.7016918"><ele>431.0</ele><time>2026-05-04T08:20:08.339Z</time></trkpt><trkpt lat="45.7472966" lon="8.7018272"><ele>430.99999999999994</ele><time>2026-05-04T08:20:10.339Z</time></trkpt><trkpt lat="45.7473202" lon="8.7019541"><ele>431.0</ele><time>2026-05-04T08:20:12.34Z</time></trkpt><trkpt lat="45.7473462" lon="8.7020413"><ele>430.99999999999994</ele><time>2026-05-04T08:20:14.34Z</time></trkpt><trkpt lat="45.74739" lon="8.7019659"><ele>431.0</ele><time>2026-05-04T08:20:32.338Z</time></trkpt><trkpt lat="45.7474413" lon="8.7019061"><ele>431.0</ele><time>2026-05-04T08:20:36.339Z</time></trkpt><trkpt lat="45.7475287" lon="8.7017704"><ele>431.0</ele><time>2026-05-04T08:21:24.339Z</time></trkpt><trkpt lat="45.7475619" lon="8.7016825"><ele>430.99999999999994</ele><time>2026-05-04T08:21:26.34Z</time></trkpt><trkpt lat="45.7475764" lon="8.7015834"><ele>431.0</ele><time>2026-05-04T08:21:28.339Z</time></trkpt><trkpt lat="45.7475916" lon="8.7014813"><ele>430.99999999999994</ele><time>2026-05-04T08:21:30.339Z</time></trkpt><trkpt lat="45.7476094" lon="8.7013499"><ele>431.0</ele><time>2026-05-04T08:21:32.34Z</time></trkpt><trkpt lat="45.7476105" lon="8.7012512"><ele>431.0</ele><time>2026-05-04T08:21:34.339Z</time></trkpt><trkpt lat="45.7475985" lon="8.701149"><ele>431.0</ele><time>2026-05-04T08:21:36.339Z</time></trkpt><trkpt lat="45.7475989" lon="8.7010577"><ele>430.99999999999994</ele><time>2026-05-04T08:21:38.34Z</time></trkpt><trkpt lat="45.7475857" lon="8.7009574"><ele>431.0</ele><time>2026-05-04T08:21:40.34Z</time></trkpt><trkpt lat="45.7476214" lon="8.7008387"><ele>431.20000000000005</ele><time>2026-05-04T08:21:42.339Z</time></trkpt><trkpt lat="45.7476781" lon="8.7007618"><ele>431.40000000000003</ele><time>2026-05-04T08:21:44.339Z</time></trkpt><trkpt lat="45.7477707" lon="8.7006711"><ele>431.6</ele><time>2026-05-04T08:21:46.339Z</time></trkpt><trkpt lat="45.7478346" lon="8.7006364"><ele>431.8</ele><time>2026-05-04T08:21:47.339Z</time></trkpt><trkpt lat="45.7479586" lon="8.7006407"><ele>432.0</ele><time>2026-05-04T08:21:49.34Z</time></trkpt><trkpt lat="45.7480371" lon="8.7006842"><ele>430.5</ele><time>2026-05-04T08:21:50.339Z</time></trkpt><trkpt lat="45.7481092" lon="8.7007142"><ele>429.0</ele><time>2026-05-04T08:21:51.34Z</time></trkpt><trkpt lat="45.7481789" lon="8.7007334"><ele>427.5</ele><time>2026-05-04T08:21:52.339Z</time></trkpt><trkpt lat="45.7482914" lon="8.7007678"><ele>426.0</ele><time>2026-05-04T08:21:54.339Z</time></trkpt><trkpt lat="45.7483748" lon="8.700792"><ele>424.5</ele><time>2026-05-04T08:21:58.339Z</time></trkpt><trkpt lat="45.7484523" lon="8.700798"><ele>423.0</ele><time>2026-05-04T08:22:00.34Z</time></trkpt><trkpt lat="45.7485187" lon="8.7007963"><ele>420.79999999999995</ele><time>2026-05-04T08:22:02.339Z</time></trkpt><trkpt lat="45.748588" lon="8.7008149"><ele>418.6</ele><time>2026-05-04T08:22:04.339Z</time></trkpt><trkpt lat="45.7486648" lon="8.7008876"><ele>416.4</ele><time>2026-05-04T08:22:07.34Z</time></trkpt><trkpt lat="45.7487638" lon="8.701012"><ele>414.20000000000005</ele><time>2026-05-04T08:22:09.34Z</time></trkpt><trkpt lat="45.748805" lon="8.7010906"><ele>412.0</ele><time>2026-05-04T08:22:10.339Z</time></trkpt><trkpt lat="45.7488672" lon="8.7012317"><ele>411.6</ele><time>2026-05-04T08:22:11.339Z</time></trkpt><trkpt lat="45.7488873" lon="8.7013819"><ele>411.20000000000005</ele><time>2026-05-04T08:22:13.34Z</time></trkpt><trkpt lat="45.7489318" lon="8.7014622"><ele>410.8</ele><time>2026-05-04T08:22:15.339Z</time></trkpt><trkpt lat="45.7489732" lon="8.7015762"><ele>410.4</ele><time>2026-05-04T08:22:17.339Z</time></trkpt><trkpt lat="45.7490091" lon="8.7016938"><ele>410.0</ele><time>2026-05-04T08:22:19.34Z</time></trkpt><trkpt lat="45.7490395" lon="8.7018365"><ele>408.49999999999994</ele><time>2026-05-04T08:22:20.339Z</time></trkpt><trkpt lat="45.7490982" lon="8.7019497"><ele>407.0</ele><time>2026-05-04T08:22:22.339Z</time></trkpt><trkpt lat="45.7491772" lon="8.7019708"><ele>405.5</ele><time>2026-05-04T08:22:24.34Z</time></trkpt><trkpt lat="45.7492433" lon="8.7020734"><ele>404.0</ele><time>2026-05-04T08:22:26.34Z</time></trkpt><trkpt lat="45.7492771" lon="8.7021989"><ele>402.49999999999994</ele><time>2026-05-04T08:22:28.34Z</time></trkpt><trkpt lat="45.749315" lon="8.7022983"><ele>401.0</ele><time>2026-05-04T08:22:30.339Z</time></trkpt><trkpt lat="45.7492608" lon="8.7023738"><ele>400.99999999999994</ele><time>2026-05-04T08:22:32.339Z</time></trkpt><trkpt lat="45.7492132" lon="8.702445"><ele>401.0</ele><time>2026-05-04T08:22:34.34Z</time></trkpt><trkpt lat="45.749172" lon="8.7025527"><ele>401.0</ele><time>2026-05-04T08:22:37.339Z</time></trkpt><trkpt lat="45.7491061" lon="8.7026342"><ele>401.0</ele><time>2026-05-04T08:22:39.34Z</time></trkpt><trkpt lat="45.7490585" lon="8.7027124"><ele>400.99999999999994</ele><time>2026-05-04T08:22:41.34Z</time></trkpt><trkpt lat="45.7489782" lon="8.7027628"><ele>401.0</ele><time>2026-05-04T08:22:42.339Z</time></trkpt><trkpt lat="45.7489056" lon="8.7028337"><ele>398.66666666666663</ele><time>2026-05-04T08:22:44.339Z</time></trkpt><trkpt lat="45.7488892" lon="8.7029607"><ele>396.3333333333333</ele><time>2026-05-04T08:22:47.339Z</time></trkpt><trkpt lat="45.7489063" lon="8.7030609"><ele>394.0</ele><time>2026-05-04T08:22:49.34Z</time></trkpt><trkpt lat="45.748954" lon="8.703133"><ele>391.66666666666663</ele><time>2026-05-04T08:22:51.34Z</time></trkpt><trkpt lat="45.7488819" lon="8.7031585"><ele>389.3333333333333</ele><time>2026-05-04T08:22:58.339Z</time></trkpt><trkpt lat="45.7488258" lon="8.7030922"><ele>387.0</ele><time>2026-05-04T08:25:43.339Z</time></trkpt><trkpt lat="45.7488845" lon="8.7031655"><ele>387.0</ele><time>2026-05-04T08:29:07.34Z</time></trkpt><trkpt lat="45.7489319" lon="8.7032274"><ele>387.0</ele><time>2026-05-04T08:29:13.339Z</time></trkpt><trkpt lat="45.7489406" lon="8.7033433"><ele>387.0</ele><time>2026-05-04T08:31:07.34Z</time></trkpt><trkpt lat="45.7489665" lon="8.7034483"><ele>387.0</ele><time>2026-05-04T08:31:11.339Z</time></trkpt><trkpt lat="45.7490302" lon="8.7035002"><ele>387.0</ele><time>2026-05-04T08:31:14.34Z</time></trkpt><trkpt lat="45.7490642" lon="8.7036"><ele>387.0</ele><time>2026-05-04T08:31:17.34Z</time></trkpt><trkpt lat="45.7490723" lon="8.7036959"><ele>387.0</ele><time>2026-05-04T08:31:19.34Z</time></trkpt><trkpt lat="45.7490762" lon="8.7037959"><ele>384.6666666666667</ele><time>2026-05-04T08:31:21.341Z</time></trkpt><trkpt lat="45.7490841" lon="8.7038894"><ele>382.3333333333333</ele><time>2026-05-04T08:31:23.34Z</time></trkpt><trkpt lat="45.7491204" lon="8.7039845"><ele>380.0</ele><time>2026-05-04T08:31:26.34Z</time></trkpt><trkpt lat="45.7491681" lon="8.7040921"><ele>377.66666666666663</ele><time>2026-05-04T08:31:29.339Z</time></trkpt><trkpt lat="45.7492209" lon="8.7042448"><ele>375.3333333333333</ele><time>2026-05-04T08:31:32.34Z</time></trkpt><trkpt lat="45.7492365" lon="8.70434"><ele>373.0</ele><time>2026-05-04T08:31:34.34Z</time></trkpt><trkpt lat="45.7492216" lon="8.7044368"><ele>370.8333333333333</ele><time>2026-05-04T08:31:38.34Z</time></trkpt><trkpt lat="45.7491824" lon="8.704535"><ele>368.66666666666663</ele><time>2026-05-04T08:31:42.339Z</time></trkpt><trkpt lat="45.7491777" lon="8.7046633"><ele>366.5</ele><time>2026-05-04T08:32:56.34Z</time></trkpt><trkpt lat="45.7491571" lon="8.7047495"><ele>364.3333333333333</ele><time>2026-05-04T08:33:14.339Z</time></trkpt><trkpt lat="45.7490926" lon="8.7048112"><ele>362.1666666666667</ele><time>2026-05-04T08:33:19.339Z</time></trkpt><trkpt lat="45.7490909" lon="8.7049251"><ele>360.0</ele><time>2026-05-04T08:33:25.339Z</time></trkpt><trkpt lat="45.7490982" lon="8.7050617"><ele>360.0</ele><time>2026-05-04T08:33:28.34Z</time></trkpt><trkpt lat="45.7490932" lon="8.705164"><ele>360.0</ele><time>2026-05-04T08:33:29.34Z</time></trkpt><trkpt lat="45.7490755" lon="8.7052987"><ele>360.0</ele><time>2026-05-04T08:33:30.339Z</time></trkpt><trkpt lat="45.7490603" lon="8.7054402"><ele>360.0</ele><time>2026-05-04T08:33:31.34Z</time></trkpt><trkpt lat="45.7490506" lon="8.7055619"><ele>360.0</ele><time>2026-05-04T08:33:32.34Z</time></trkpt><trkpt lat="45.7490471" lon="8.7056538"><ele>360.0</ele><time>2026-05-04T08:33:33.34Z</time></trkpt><trkpt lat="45.7490304" lon="8.7057832"><ele>357.6666666666667</ele><time>2026-05-04T08:33:35.339Z</time></trkpt><trkpt lat="45.7490374" lon="8.7058854"><ele>355.3333333333333</ele><time>2026-05-04T08:33:37.34Z</time></trkpt><trkpt lat="45.7491345" lon="8.705903"><ele>353.0</ele><time>2026-05-04T08:33:40.34Z</time></trkpt><trkpt lat="45.7492011" lon="8.7059074"><ele>350.66666666666663</ele><time>2026-05-04T08:33:42.34Z</time></trkpt><trkpt lat="45.7492659" lon="8.7059269"><ele>348.3333333333333</ele><time>2026-05-04T08:33:44.34Z</time></trkpt><trkpt lat="45.7493427" lon="8.705947"><ele>346.0</ele><time>2026-05-04T08:33:46.34Z</time></trkpt><trkpt lat="45.7494278" lon="8.7059623"><ele>346.0</ele><time>2026-05-04T08:33:48.34Z</time></trkpt><trkpt lat="45.74952" lon="8.7059769"><ele>346.0</ele><time>2026-05-04T08:33:50.339Z</time></trkpt><trkpt lat="45.7496145" lon="8.7059972"><ele>346.0</ele><time>2026-05-04T08:33:52.339Z</time></trkpt><trkpt lat="45.7497053" lon="8.7060073"><ele>346.0</ele><time>2026-05-04T08:33:54.339Z</time></trkpt><trkpt lat="45.7497751" lon="8.7060224"><ele>346.0</ele><time>2026-05-04T08:33:56.339Z</time></trkpt><trkpt lat="45.7498386" lon="8.7060105"><ele>346.0</ele><time>2026-05-04T08:33:57.339Z</time></trkpt><trkpt lat="45.7499194" lon="8.7060404"><ele>346.0</ele><time>2026-05-04T08:33:59.338Z</time></trkpt><trkpt lat="45.7500112" lon="8.7060513"><ele>346.0</ele><time>2026-05-04T08:34:01.34Z</time></trkpt><trkpt lat="45.7501079" lon="8.7060656"><ele>346.0</ele><time>2026-05-04T08:34:03.339Z</time></trkpt><trkpt lat="45.7502331" lon="8.7061124"><ele>346.0</ele><time>2026-05-04T08:34:05.34Z</time></trkpt><trkpt lat="45.7503278" lon="8.7061471"><ele>346.0</ele><time>2026-05-04T08:34:07.339Z</time></trkpt><trkpt lat="45.7504327" lon="8.7061835"><ele>344.0</ele><time>2026-05-04T08:34:09.339Z</time></trkpt><trkpt lat="45.7505069" lon="8.7061579"><ele>342.0</ele><time>2026-05-04T08:34:11.34Z</time></trkpt><trkpt lat="45.7506092" lon="8.706165"><ele>340.0</ele><time>2026-05-04T08:34:13.34Z</time></trkpt><trkpt lat="45.7507121" lon="8.706209"><ele>338.0</ele><time>2026-05-04T08:34:15.34Z</time></trkpt><trkpt lat="45.7506336" lon="8.7062552"><ele>336.0</ele><time>2026-05-04T08:34:31.34Z</time></trkpt><trkpt lat="45.7505491" lon="8.7062346"><ele>336.0</ele><time>2026-05-04T08:34:33.339Z</time></trkpt><trkpt lat="45.7504759" lon="8.7062761"><ele>336.0</ele><time>2026-05-04T08:34:35.339Z</time></trkpt><trkpt lat="45.7504359" lon="8.7063508"><ele>336.0</ele><time>2026-05-04T08:34:37.34Z</time></trkpt><trkpt lat="45.7504216" lon="8.7064719"><ele>336.0</ele><time>2026-05-04T08:34:39.339Z</time></trkpt><trkpt lat="45.750421" lon="8.7066302"><ele>336.0</ele><time>2026-05-04T08:34:41.339Z</time></trkpt><trkpt lat="45.7504609" lon="8.7067716"><ele>336.0</ele><time>2026-05-04T08:34:43.339Z</time></trkpt><trkpt lat="45.7504431" lon="8.7068743"><ele>334.8</ele><time>2026-05-04T08:34:44.339Z</time></trkpt><trkpt lat="45.7504331" lon="8.707045"><ele>333.6</ele><time>2026-05-04T08:34:46.339Z</time></trkpt><trkpt lat="45.7504021" lon="8.7072128"><ele>332.4</ele><time>2026-05-04T08:34:48.339Z</time></trkpt><trkpt lat="45.7504236" lon="8.7072989"><ele>331.2</ele><time>2026-05-04T08:34:49.34Z</time></trkpt><trkpt lat="45.7504643" lon="8.7074563"><ele>330.0</ele><time>2026-05-04T08:34:51.339Z</time></trkpt><trkpt lat="45.7505227" lon="8.7075615"><ele>330.0</ele><time>2026-05-04T08:34:53.34Z</time></trkpt><trkpt lat="45.7505887" lon="8.7076714"><ele>330.0</ele><time>2026-05-04T08:34:55.34Z</time></trkpt><trkpt lat="45.7506189" lon="8.7077691"><ele>330.0</ele><time>2026-05-04T08:34:57.339Z</time></trkpt><trkpt lat="45.7506525" lon="8.7078701"><ele>330.0</ele><time>2026-05-04T08:34:59.339Z</time></trkpt><trkpt lat="45.7506896" lon="8.7079656"><ele>330.0</ele><time>2026-05-04T08:35:01.339Z</time></trkpt><trkpt lat="45.7507161" lon="8.7080744"><ele>330.0</ele><time>2026-05-04T08:35:03.34Z</time></trkpt><trkpt lat="45.7507365" lon="8.7081904"><ele>330.3333333333333</ele><time>2026-05-04T08:35:05.339Z</time></trkpt><trkpt lat="45.7507593" lon="8.7083062"><ele>330.6666666666667</ele><time>2026-05-04T08:35:07.339Z</time></trkpt><trkpt lat="45.7507844" lon="8.7084224"><ele>331.0</ele><time>2026-05-04T08:35:09.339Z</time></trkpt><trkpt lat="45.7507977" lon="8.7085261"><ele>331.33333333333337</ele><time>2026-05-04T08:35:11.339Z</time></trkpt><trkpt lat="45.7508061" lon="8.7086335"><ele>331.6666666666667</ele><time>2026-05-04T08:35:13.339Z</time></trkpt><trkpt lat="45.7508321" lon="8.7087422"><ele>332.0</ele><time>2026-05-04T08:35:15.339Z</time></trkpt><trkpt lat="45.7508702" lon="8.7088279"><ele>332.5</ele><time>2026-05-04T08:35:17.339Z</time></trkpt><trkpt lat="45.7509268" lon="8.7089343"><ele>333.0</ele><time>2026-05-04T08:35:19.34Z</time></trkpt><trkpt lat="45.750963" lon="8.7090719"><ele>333.5</ele><time>2026-05-04T08:35:21.339Z</time></trkpt><trkpt lat="45.7509602" lon="8.7092019"><ele>334.0</ele><time>2026-05-04T08:35:23.339Z</time></trkpt><trkpt lat="45.7509286" lon="8.7092841"><ele>334.5</ele><time>2026-05-04T08:35:25.339Z</time></trkpt><trkpt lat="45.7508707" lon="8.7093385"><ele>335.0</ele><time>2026-05-04T08:35:27.339Z</time></trkpt><trkpt lat="45.7508009" lon="8.7093689"><ele>334.83333333333337</ele><time>2026-05-04T08:35:29.339Z</time></trkpt><trkpt lat="45.7507242" lon="8.7094158"><ele>334.6666666666667</ele><time>2026-05-04T08:35:32.339Z</time></trkpt><trkpt lat="45.7506782" lon="8.7094788"><ele>334.5</ele><time>2026-05-04T08:35:36.339Z</time></trkpt><trkpt lat="45.7506" lon="8.7094932"><ele>334.3333333333333</ele><time>2026-05-04T08:35:41.34Z</time></trkpt><trkpt lat="45.7505225" lon="8.7094758"><ele>334.16666666666663</ele><time>2026-05-04T08:35:44.34Z</time></trkpt><trkpt lat="45.7504569" lon="8.709436"><ele>334.0</ele><time>2026-05-04T08:35:46.339Z</time></trkpt><trkpt lat="45.7503702" lon="8.7094935"><ele>334.0</ele><time>2026-05-04T08:36:05.339Z</time></trkpt><trkpt lat="45.750313" lon="8.7094496"><ele>334.0</ele><time>2026-05-04T08:36:08.34Z</time></trkpt><trkpt lat="45.7502858" lon="8.7093253"><ele>334.0</ele><time>2026-05-04T08:36:38.338Z</time></trkpt><trkpt lat="45.7502203" lon="8.709301"><ele>334.0</ele><time>2026-05-04T08:36:47.338Z</time></trkpt><trkpt lat="45.7501524" lon="8.7093101"><ele>334.0</ele><time>2026-05-04T08:36:55.338Z</time></trkpt><trkpt lat="45.7500891" lon="8.7092503"><ele>334.0</ele><time>2026-05-04T08:37:02.338Z</time></trkpt><trkpt lat="45.7500217" lon="8.7092558"><ele>334.0</ele><time>2026-05-04T08:37:09.338Z</time></trkpt><trkpt lat="45.7499446" lon="8.7092602"><ele>334.16666666666663</ele><time>2026-05-04T08:37:13.339Z</time></trkpt><trkpt lat="45.749875" lon="8.7092285"><ele>334.3333333333333</ele><time>2026-05-04T08:37:17.339Z</time></trkpt><trkpt lat="45.7498002" lon="8.7092475"><ele>334.5</ele><time>2026-05-04T08:37:20.338Z</time></trkpt><trkpt lat="45.7497218" lon="8.709261"><ele>334.6666666666667</ele><time>2026-05-04T08:37:23.338Z</time></trkpt><trkpt lat="45.7496482" lon="8.7092425"><ele>334.83333333333337</ele><time>2026-05-04T08:37:26.339Z</time></trkpt><trkpt lat="45.7495688" lon="8.7092279"><ele>335.0</ele><time>2026-05-04T08:37:29.338Z</time></trkpt><trkpt lat="45.7495012" lon="8.7091915"><ele>334.99999999999994</ele><time>2026-05-04T08:37:31.339Z</time></trkpt><trkpt lat="45.7494308" lon="8.7091921"><ele>335.0</ele><time>2026-05-04T08:37:33.339Z</time></trkpt><trkpt lat="45.7493547" lon="8.7091973"><ele>335.0</ele><time>2026-05-04T08:37:35.339Z</time></trkpt><trkpt lat="45.7492847" lon="8.7091507"><ele>335.0</ele><time>2026-05-04T08:37:38.339Z</time></trkpt><trkpt lat="45.7492234" lon="8.7091028"><ele>335.0</ele><time>2026-05-04T08:37:41.339Z</time></trkpt><trkpt lat="45.7491501" lon="8.7091162"><ele>334.99999999999994</ele><time>2026-05-04T08:37:44.339Z</time></trkpt><trkpt lat="45.7490816" lon="8.7091727"><ele>335.0</ele><time>2026-05-04T08:37:47.339Z</time></trkpt><trkpt lat="45.7490201" lon="8.7092086"><ele>335.0</ele><time>2026-05-04T08:37:50.339Z</time></trkpt><trkpt lat="45.7489567" lon="8.7092985"><ele>335.0</ele><time>2026-05-04T08:37:54.338Z</time></trkpt><trkpt lat="45.748886" lon="8.7093828"><ele>335.0</ele><time>2026-05-04T08:37:58.339Z</time></trkpt><trkpt lat="45.7488075" lon="8.7094386"><ele>335.0</ele><time>2026-05-04T08:38:02.338Z</time></trkpt><trkpt lat="45.7487348" lon="8.7094488"><ele>335.0</ele><time>2026-05-04T08:38:05.339Z</time></trkpt><trkpt lat="45.7486659" lon="8.70949"><ele>335.0</ele><time>2026-05-04T08:38:08.338Z</time></trkpt><trkpt lat="45.7485701" lon="8.7094963"><ele>336.33333333333337</ele><time>2026-05-04T08:38:11.339Z</time></trkpt><trkpt lat="45.7484843" lon="8.7095214"><ele>337.6666666666667</ele><time>2026-05-04T08:38:14.338Z</time></trkpt><trkpt lat="45.748452" lon="8.7096159"><ele>339.0</ele><time>2026-05-04T08:38:17.338Z</time></trkpt><trkpt lat="45.7484442" lon="8.7097099"><ele>340.3333333333333</ele><time>2026-05-04T08:38:20.338Z</time></trkpt><trkpt lat="45.7484264" lon="8.7098129"><ele>341.66666666666663</ele><time>2026-05-04T08:38:23.339Z</time></trkpt><trkpt lat="45.7484053" lon="8.7099225"><ele>343.0</ele><time>2026-05-04T08:38:26.339Z</time></trkpt><trkpt lat="45.7483645" lon="8.7100058"><ele>343.0</ele><time>2026-05-04T08:38:30.339Z</time></trkpt><trkpt lat="45.7482923" lon="8.7100272"><ele>343.0</ele><time>2026-05-04T08:38:33.338Z</time></trkpt><trkpt lat="45.7482064" lon="8.7100416"><ele>343.0</ele><time>2026-05-04T08:38:36.338Z</time></trkpt><trkpt lat="45.748145" lon="8.710067"><ele>343.0</ele><time>2026-05-04T08:38:39.339Z</time></trkpt><trkpt lat="45.7480857" lon="8.7101056"><ele>343.0</ele><time>2026-05-04T08:39:51.339Z</time></trkpt><trkpt lat="45.7481865" lon="8.7100125"><ele>343.0</ele><time>2026-05-04T08:39:55.339Z</time></trkpt><trkpt lat="45.7482582" lon="8.7100405"><ele>343.0</ele><time>2026-05-04T08:39:58.339Z</time></trkpt><trkpt lat="45.7483535" lon="8.7100659"><ele>343.0</ele><time>2026-05-04T08:40:01.338Z</time></trkpt><trkpt lat="45.7484156" lon="8.7101086"><ele>343.0</ele><time>2026-05-04T08:40:03.338Z</time></trkpt><trkpt lat="45.7484928" lon="8.7101733"><ele>343.0</ele><time>2026-05-04T08:40:05.339Z</time></trkpt><trkpt lat="45.7485654" lon="8.7102542"><ele>343.0</ele><time>2026-05-04T08:40:07.339Z</time></trkpt><trkpt lat="45.7486272" lon="8.710319"><ele>343.0</ele><time>2026-05-04T08:40:09.338Z</time></trkpt><trkpt lat="45.7486881" lon="8.7103921"><ele>342.2</ele><time>2026-05-04T08:40:10.338Z</time></trkpt><trkpt lat="45.7487879" lon="8.7105272"><ele>341.4</ele><time>2026-05-04T08:40:12.339Z</time></trkpt><trkpt lat="45.7488438" lon="8.7105746"><ele>340.59999999999997</ele><time>2026-05-04T08:40:13.339Z</time></trkpt><trkpt lat="45.7488931" lon="8.7106396"><ele>339.79999999999995</ele><time>2026-05-04T08:40:14.339Z</time></trkpt><trkpt lat="45.7489903" lon="8.7107576"><ele>339.0</ele><time>2026-05-04T08:40:16.338Z</time></trkpt><trkpt lat="45.7490167" lon="8.7108403"><ele>339.0</ele><time>2026-05-04T08:40:17.339Z</time></trkpt><trkpt lat="45.749065" lon="8.7109141"><ele>339.0</ele><time>2026-05-04T08:40:18.338Z</time></trkpt><trkpt lat="45.7491195" lon="8.7109694"><ele>339.0</ele><time>2026-05-04T08:40:19.338Z</time></trkpt><trkpt lat="45.7491693" lon="8.711034"><ele>339.0</ele><time>2026-05-04T08:40:20.338Z</time></trkpt><trkpt lat="45.7492214" lon="8.7110952"><ele>339.0</ele><time>2026-05-04T08:40:21.339Z</time></trkpt><trkpt lat="45.7492842" lon="8.7111641"><ele>339.0</ele><time>2026-05-04T08:40:22.338Z</time></trkpt><trkpt lat="45.7493532" lon="8.711243"><ele>339.0</ele><time>2026-05-04T08:40:23.339Z</time></trkpt><trkpt lat="45.7493961" lon="8.7113193"><ele>338.0</ele><time>2026-05-04T08:40:24.339Z</time></trkpt><trkpt lat="45.7494503" lon="8.7114107"><ele>337.0</ele><time>2026-05-04T08:40:25.339Z</time></trkpt><trkpt lat="45.7494775" lon="8.7115093"><ele>336.0</ele><time>2026-05-04T08:40:26.338Z</time></trkpt><trkpt lat="45.7495222" lon="8.7115956"><ele>335.0</ele><time>2026-05-04T08:40:27.338Z</time></trkpt><trkpt lat="45.7495565" lon="8.7117242"><ele>334.0</ele><time>2026-05-04T08:40:28.339Z</time></trkpt><trkpt lat="45.749594" lon="8.7118236"><ele>333.0</ele><time>2026-05-04T08:40:29.338Z</time></trkpt><trkpt lat="45.7496499" lon="8.7119084"><ele>331.8333333333333</ele><time>2026-05-04T08:40:30.338Z</time></trkpt><trkpt lat="45.7497075" lon="8.7119828"><ele>330.6666666666667</ele><time>2026-05-04T08:40:31.338Z</time></trkpt><trkpt lat="45.7497631" lon="8.7120454"><ele>329.5</ele><time>2026-05-04T08:40:32.339Z</time></trkpt><trkpt lat="45.7498032" lon="8.7121158"><ele>328.33333333333337</ele><time>2026-05-04T08:40:33.339Z</time></trkpt><trkpt lat="45.7498341" lon="8.7122077"><ele>327.1666666666667</ele><time>2026-05-04T08:40:34.338Z</time></trkpt><trkpt lat="45.7499289" lon="8.7123352"><ele>326.0</ele><time>2026-05-04T08:40:36.338Z</time></trkpt><trkpt lat="45.7499796" lon="8.7123891"><ele>326.0</ele><time>2026-05-04T08:40:37.338Z</time></trkpt><trkpt lat="45.7500517" lon="8.7125186"><ele>326.0</ele><time>2026-05-04T08:40:39.338Z</time></trkpt><trkpt lat="45.7501218" lon="8.7126304"><ele>326.0</ele><time>2026-05-04T08:40:41.339Z</time></trkpt><trkpt lat="45.7501879" lon="8.7127574"><ele>326.0</ele><time>2026-05-04T08:40:43.338Z</time></trkpt><trkpt lat="45.7502628" lon="8.7128946"><ele>326.83333333333337</ele><time>2026-05-04T08:40:45.338Z</time></trkpt><trkpt lat="45.7503292" lon="8.712986"><ele>327.6666666666667</ele><time>2026-05-04T08:40:47.338Z</time></trkpt><trkpt lat="45.7504053" lon="8.7129871"><ele>328.5</ele><time>2026-05-04T08:40:49.337Z</time></trkpt><trkpt lat="45.7504766" lon="8.7129396"><ele>329.3333333333333</ele><time>2026-05-04T08:40:51.338Z</time></trkpt><trkpt lat="45.7505597" lon="8.7129106"><ele>330.16666666666663</ele><time>2026-05-04T08:40:53.339Z</time></trkpt><trkpt lat="45.7506494" lon="8.712887"><ele>331.0</ele><time>2026-05-04T08:40:55.339Z</time></trkpt><trkpt lat="45.7507325" lon="8.7129153"><ele>331.0</ele><time>2026-05-04T08:40:56.339Z</time></trkpt><trkpt lat="45.7508133" lon="8.7129826"><ele>331.0</ele><time>2026-05-04T08:40:57.339Z</time></trkpt><trkpt lat="45.7509003" lon="8.7130346"><ele>331.0</ele><time>2026-05-04T08:40:58.338Z</time></trkpt><trkpt lat="45.7510149" lon="8.7130909"><ele>331.0</ele><time>2026-05-04T08:41:00.338Z</time></trkpt><trkpt lat="45.7510753" lon="8.7131194"><ele>331.0</ele><time>2026-05-04T08:41:01.338Z</time></trkpt><trkpt lat="45.7511279" lon="8.7131816"><ele>331.0</ele><time>2026-05-04T08:41:02.339Z</time></trkpt><trkpt lat="45.7512113" lon="8.7132161"><ele>331.0</ele><time>2026-05-04T08:41:04.338Z</time></trkpt><trkpt lat="45.7512909" lon="8.7132496"><ele>331.0</ele><time>2026-05-04T08:41:06.339Z</time></trkpt><trkpt lat="45.7513776" lon="8.7132771"><ele>331.0</ele><time>2026-05-04T08:41:08.338Z</time></trkpt><trkpt lat="45.7514786" lon="8.7132796"><ele>331.0</ele><time>2026-05-04T08:41:10.338Z</time></trkpt><trkpt lat="45.7515561" lon="8.7132844"><ele>331.0</ele><time>2026-05-04T08:41:12.339Z</time></trkpt><trkpt lat="45.751781" lon="8.7132663"><ele>331.0</ele><time>2026-05-04T08:41:16.338Z</time></trkpt><trkpt lat="45.7518657" lon="8.7132166"><ele>331.0</ele><time>2026-05-04T08:41:18.338Z</time></trkpt><trkpt lat="45.7519637" lon="8.7131824"><ele>331.0</ele><time>2026-05-04T08:41:20.339Z</time></trkpt><trkpt lat="45.7520972" lon="8.7131857"><ele>331.0</ele><time>2026-05-04T08:41:23.338Z</time></trkpt><trkpt lat="45.7522586" lon="8.7131247"><ele>331.20000000000005</ele><time>2026-05-04T08:41:26.338Z</time></trkpt><trkpt lat="45.7523367" lon="8.7130713"><ele>331.40000000000003</ele><time>2026-05-04T08:41:27.338Z</time></trkpt><trkpt lat="45.7524442" lon="8.7129968"><ele>331.6</ele><time>2026-05-04T08:41:29.339Z</time></trkpt><trkpt lat="45.7525638" lon="8.7129181"><ele>331.8</ele><time>2026-05-04T08:41:31.338Z</time></trkpt><trkpt lat="45.7526274" lon="8.712895"><ele>332.0</ele><time>2026-05-04T08:41:32.338Z</time></trkpt><trkpt lat="45.7527341" lon="8.7128511"><ele>332.1666666666667</ele><time>2026-05-04T08:41:34.338Z</time></trkpt><trkpt lat="45.7528099" lon="8.7128021"><ele>332.33333333333337</ele><time>2026-05-04T08:41:36.338Z</time></trkpt><trkpt lat="45.7528897" lon="8.7127716"><ele>332.5</ele><time>2026-05-04T08:41:38.339Z</time></trkpt><trkpt lat="45.7529969" lon="8.7127238"><ele>332.6666666666667</ele><time>2026-05-04T08:41:40.338Z</time></trkpt><trkpt lat="45.7530699" lon="8.7127096"><ele>332.8333333333333</ele><time>2026-05-04T08:41:42.339Z</time></trkpt><trkpt lat="45.7531608" lon="8.712706"><ele>333.0</ele><time>2026-05-04T08:41:44.338Z</time></trkpt><trkpt lat="45.7532553" lon="8.7126602"><ele>331.6666666666667</ele><time>2026-05-04T08:41:47.338Z</time></trkpt><trkpt lat="45.7533291" lon="8.7126289"><ele>330.3333333333333</ele><time>2026-05-04T08:41:49.339Z</time></trkpt><trkpt lat="45.7534141" lon="8.7126043"><ele>329.0</ele><time>2026-05-04T08:41:52.338Z</time></trkpt><trkpt lat="45.7534747" lon="8.712577"><ele>327.66666666666663</ele><time>2026-05-04T08:41:54.338Z</time></trkpt><trkpt lat="45.7535545" lon="8.7125438"><ele>326.3333333333333</ele><time>2026-05-04T08:41:56.339Z</time></trkpt><trkpt lat="45.7536513" lon="8.712498"><ele>325.0</ele><time>2026-05-04T08:41:58.338Z</time></trkpt><trkpt lat="45.7537122" lon="8.7124129"><ele>324.66666666666663</ele><time>2026-05-04T08:42:01.338Z</time></trkpt><trkpt lat="45.7537825" lon="8.7123326"><ele>324.3333333333333</ele><time>2026-05-04T08:42:03.338Z</time></trkpt><trkpt lat="45.7538594" lon="8.7122322"><ele>324.0</ele><time>2026-05-04T08:42:05.338Z</time></trkpt><trkpt lat="45.7539055" lon="8.7121649"><ele>323.6666666666667</ele><time>2026-05-04T08:42:08.338Z</time></trkpt><trkpt lat="45.7539602" lon="8.7120647"><ele>323.33333333333337</ele><time>2026-05-04T08:42:11.338Z</time></trkpt><trkpt lat="45.7540159" lon="8.7120038"><ele>323.0</ele><time>2026-05-04T08:42:13.338Z</time></trkpt><trkpt lat="45.7540859" lon="8.7119422"><ele>323.00000000000006</ele><time>2026-05-04T08:42:16.338Z</time></trkpt><trkpt lat="45.7541248" lon="8.7118466"><ele>323.0</ele><time>2026-05-04T08:42:20.338Z</time></trkpt><trkpt lat="45.7541138" lon="8.7119422"><ele>323.0</ele><time>2026-05-04T08:42:31.339Z</time></trkpt><trkpt lat="45.7541049" lon="8.7120342"><ele>323.0</ele><time>2026-05-04T08:51:54.339Z</time></trkpt><trkpt lat="45.7540458" lon="8.7120664"><ele>323.0</ele><time>2026-05-04T08:53:28.339Z</time></trkpt><trkpt lat="45.7540366" lon="8.7121675"><ele>323.00000000000006</ele><time>2026-05-04T08:53:33.338Z</time></trkpt><trkpt lat="45.7540133" lon="8.7122529"><ele>323.0</ele><time>2026-05-04T08:53:37.338Z</time></trkpt><trkpt lat="45.753904" lon="8.7123606"><ele>323.00000000000006</ele><time>2026-05-04T08:53:41.338Z</time></trkpt><trkpt lat="45.7538572" lon="8.7124345"><ele>323.0</ele><time>2026-05-04T08:53:44.338Z</time></trkpt><trkpt lat="45.7537895" lon="8.712498"><ele>323.0</ele><time>2026-05-04T08:53:47.339Z</time></trkpt><trkpt lat="45.7537388" lon="8.7125593"><ele>323.0</ele><time>2026-05-04T08:53:50.339Z</time></trkpt><trkpt lat="45.7536807" lon="8.71263"><ele>323.0</ele><time>2026-05-04T08:53:54.338Z</time></trkpt><trkpt lat="45.7536519" lon="8.7127295"><ele>323.00000000000006</ele><time>2026-05-04T08:55:02.338Z</time></trkpt><trkpt lat="45.7536703" lon="8.7128298"><ele>323.0</ele><time>2026-05-04T08:55:05.337Z</time></trkpt><trkpt lat="45.7536594" lon="8.7129323"><ele>322.83333333333337</ele><time>2026-05-04T08:55:07.336Z</time></trkpt><trkpt lat="45.753643" lon="8.7130412"><ele>322.6666666666667</ele><time>2026-05-04T08:55:09.337Z</time></trkpt><trkpt lat="45.7536683" lon="8.7131887"><ele>322.5</ele><time>2026-05-04T08:55:12.337Z</time></trkpt><trkpt lat="45.7536584" lon="8.7133098"><ele>322.3333333333333</ele><time>2026-05-04T08:55:14.337Z</time></trkpt><trkpt lat="45.7536439" lon="8.7134388"><ele>322.16666666666663</ele><time>2026-05-04T08:55:16.337Z</time></trkpt><trkpt lat="45.7536394" lon="8.7135435"><ele>322.0</ele><time>2026-05-04T08:55:18.337Z</time></trkpt><trkpt lat="45.7536454" lon="8.7136379"><ele>322.40000000000003</ele><time>2026-05-04T08:55:20.337Z</time></trkpt><trkpt lat="45.7536807" lon="8.7137752"><ele>322.8</ele><time>2026-05-04T08:55:23.337Z</time></trkpt><trkpt lat="45.7537093" lon="8.7139038"><ele>323.2</ele><time>2026-05-04T08:55:25.338Z</time></trkpt><trkpt lat="45.753772" lon="8.7140466"><ele>323.6</ele><time>2026-05-04T08:55:27.337Z</time></trkpt><trkpt lat="45.7538491" lon="8.7141568"><ele>324.0</ele><time>2026-05-04T08:55:29.338Z</time></trkpt><trkpt lat="45.7539088" lon="8.7142661"><ele>324.0</ele><time>2026-05-04T08:55:31.338Z</time></trkpt><trkpt lat="45.7539667" lon="8.7143458"><ele>324.0</ele><time>2026-05-04T08:55:33.337Z</time></trkpt><trkpt lat="45.7540144" lon="8.714423"><ele>324.0</ele><time>2026-05-04T08:55:35.337Z</time></trkpt><trkpt lat="45.754083" lon="8.7144833"><ele>324.0</ele><time>2026-05-04T08:55:38.337Z</time></trkpt><trkpt lat="45.7541668" lon="8.7145124"><ele>324.0</ele><time>2026-05-04T08:55:41.338Z</time></trkpt><trkpt lat="45.7542267" lon="8.7145414"><ele>324.0</ele><time>2026-05-04T08:55:43.337Z</time></trkpt><trkpt lat="45.7543019" lon="8.7146138"><ele>325.8333333333333</ele><time>2026-05-04T08:55:45.338Z</time></trkpt><trkpt lat="45.754368" lon="8.7146987"><ele>327.6666666666667</ele><time>2026-05-04T08:55:47.338Z</time></trkpt><trkpt lat="45.7544283" lon="8.7147647"><ele>329.5</ele><time>2026-05-04T08:55:49.337Z</time></trkpt><trkpt lat="45.7544886" lon="8.7148545"><ele>331.33333333333337</ele><time>2026-05-04T08:55:50.338Z</time></trkpt><trkpt lat="45.754537" lon="8.7149186"><ele>333.1666666666667</ele><time>2026-05-04T08:55:51.337Z</time></trkpt><trkpt lat="45.7546214" lon="8.7149904"><ele>335.0</ele><time>2026-05-04T08:55:53.337Z</time></trkpt><trkpt lat="45.754687" lon="8.7150122"><ele>335.0</ele><time>2026-05-04T08:55:55.337Z</time></trkpt><trkpt lat="45.7547496" lon="8.7150222"><ele>335.0</ele><time>2026-05-04T08:55:57.338Z</time></trkpt><trkpt lat="45.7548313" lon="8.7150509"><ele>335.0</ele><time>2026-05-04T08:55:59.337Z</time></trkpt><trkpt lat="45.7549294" lon="8.7150823"><ele>335.0</ele><time>2026-05-04T08:56:01.337Z</time></trkpt><trkpt lat="45.755026" lon="8.715116"><ele>335.0</ele><time>2026-05-04T08:56:03.338Z</time></trkpt><trkpt lat="45.7550969" lon="8.7151719"><ele>335.0</ele><time>2026-05-04T08:56:04.338Z</time></trkpt><trkpt lat="45.755169" lon="8.7152394"><ele>336.83333333333337</ele><time>2026-05-04T08:56:05.337Z</time></trkpt><trkpt lat="45.7552585" lon="8.7153111"><ele>338.6666666666667</ele><time>2026-05-04T08:56:07.337Z</time></trkpt><trkpt lat="45.7553205" lon="8.7153553"><ele>340.5</ele><time>2026-05-04T08:56:09.337Z</time></trkpt><trkpt lat="45.7553979" lon="8.715409"><ele>342.3333333333333</ele><time>2026-05-04T08:56:12.337Z</time></trkpt><trkpt lat="45.7554592" lon="8.7154402"><ele>344.16666666666663</ele><time>2026-05-04T08:56:15.338Z</time></trkpt><trkpt lat="45.7555432" lon="8.715462"><ele>346.0</ele><time>2026-05-04T08:56:18.337Z</time></trkpt><trkpt lat="45.7556211" lon="8.7154886"><ele>346.0</ele><time>2026-05-04T08:56:20.338Z</time></trkpt><trkpt lat="45.7557065" lon="8.7155272"><ele>346.0</ele><time>2026-05-04T08:56:22.338Z</time></trkpt><trkpt lat="45.7557741" lon="8.7155534"><ele>346.0</ele><time>2026-05-04T08:56:24.338Z</time></trkpt><trkpt lat="45.7558437" lon="8.715578"><ele>346.0</ele><time>2026-05-04T08:56:26.338Z</time></trkpt><trkpt lat="45.7559219" lon="8.7156279"><ele>346.0</ele><time>2026-05-04T08:56:28.338Z</time></trkpt><trkpt lat="45.7559928" lon="8.7157041"><ele>346.0</ele><time>2026-05-04T08:56:30.338Z</time></trkpt><trkpt lat="45.7560672" lon="8.7158275"><ele>346.4</ele><time>2026-05-04T08:56:32.337Z</time></trkpt><trkpt lat="45.756134" lon="8.7159119"><ele>346.8</ele><time>2026-05-04T08:56:34.337Z</time></trkpt><trkpt lat="45.756234" lon="8.7159521"><ele>347.2</ele><time>2026-05-04T08:56:36.337Z</time></trkpt><trkpt lat="45.7563328" lon="8.7160143"><ele>347.59999999999997</ele><time>2026-05-04T08:56:38.337Z</time></trkpt><trkpt lat="45.7564172" lon="8.7160922"><ele>348.0</ele><time>2026-05-04T08:56:40.338Z</time></trkpt><trkpt lat="45.7565011" lon="8.7162029"><ele>348.0</ele><time>2026-05-04T08:56:42.338Z</time></trkpt><trkpt lat="45.7565462" lon="8.7163138"><ele>348.0</ele><time>2026-05-04T08:56:44.338Z</time></trkpt><trkpt lat="45.7565999" lon="8.7164353"><ele>348.0</ele><time>2026-05-04T08:56:46.338Z</time></trkpt><trkpt lat="45.7566409" lon="8.7165199"><ele>348.0</ele><time>2026-05-04T08:56:47.337Z</time></trkpt><trkpt lat="45.7566793" lon="8.7166244"><ele>348.0</ele><time>2026-05-04T08:56:48.337Z</time></trkpt><trkpt lat="45.7567301" lon="8.716713"><ele>348.0</ele><time>2026-05-04T08:56:49.338Z</time></trkpt><trkpt lat="45.7567634" lon="8.7167989"><ele>347.59999999999997</ele><time>2026-05-04T08:56:50.337Z</time></trkpt><trkpt lat="45.7568025" lon="8.7169225"><ele>347.2</ele><time>2026-05-04T08:56:51.337Z</time></trkpt><trkpt lat="45.7568711" lon="8.7170142"><ele>346.8</ele><time>2026-05-04T08:56:52.337Z</time></trkpt><trkpt lat="45.7569566" lon="8.7171079"><ele>346.4</ele><time>2026-05-04T08:56:54.338Z</time></trkpt><trkpt lat="45.7570477" lon="8.7171676"><ele>346.0</ele><time>2026-05-04T08:56:56.337Z</time></trkpt><trkpt lat="45.7571637" lon="8.7172203"><ele>346.0</ele><time>2026-05-04T08:56:58.338Z</time></trkpt><trkpt lat="45.7573077" lon="8.7172071"><ele>346.0</ele><time>2026-05-04T08:57:01.337Z</time></trkpt><trkpt lat="45.7573905" lon="8.7171776"><ele>346.0</ele><time>2026-05-04T08:57:03.337Z</time></trkpt><trkpt lat="45.7575097" lon="8.7171666"><ele>346.0</ele><time>2026-05-04T08:57:05.338Z</time></trkpt><trkpt lat="45.7575865" lon="8.7171796"><ele>346.0</ele><time>2026-05-04T08:57:07.336Z</time></trkpt><trkpt lat="45.7576793" lon="8.7172532"><ele>343.6</ele><time>2026-05-04T08:57:09.337Z</time></trkpt><trkpt lat="45.757785" lon="8.7172746"><ele>341.20000000000005</ele><time>2026-05-04T08:57:11.337Z</time></trkpt><trkpt lat="45.7578647" lon="8.717248"><ele>338.79999999999995</ele><time>2026-05-04T08:57:12.337Z</time></trkpt><trkpt lat="45.7579328" lon="8.7172375"><ele>336.4</ele><time>2026-05-04T08:57:13.337Z</time></trkpt><trkpt lat="45.7580192" lon="8.7172599"><ele>334.0</ele><time>2026-05-04T08:57:14.337Z</time></trkpt><trkpt lat="45.7581494" lon="8.717252"><ele>334.0</ele><time>2026-05-04T08:57:16.337Z</time></trkpt><trkpt lat="45.7582212" lon="8.7172042"><ele>334.0</ele><time>2026-05-04T08:57:17.337Z</time></trkpt><trkpt lat="45.7583497" lon="8.7172503"><ele>334.0</ele><time>2026-05-04T08:57:19.337Z</time></trkpt><trkpt lat="45.7584461" lon="8.717325"><ele>334.0</ele><time>2026-05-04T08:57:21.337Z</time></trkpt><trkpt lat="45.7584823" lon="8.7173997"><ele>334.0</ele><time>2026-05-04T08:57:22.338Z</time></trkpt><trkpt lat="45.7586043" lon="8.7174838"><ele>332.16666666666663</ele><time>2026-05-04T08:57:24.337Z</time></trkpt><trkpt lat="45.7586664" lon="8.7175191"><ele>330.3333333333333</ele><time>2026-05-04T08:57:25.337Z</time></trkpt><trkpt lat="45.7587247" lon="8.7175653"><ele>328.5</ele><time>2026-05-04T08:57:26.337Z</time></trkpt><trkpt lat="45.7587922" lon="8.7176033"><ele>326.6666666666667</ele><time>2026-05-04T08:57:27.337Z</time></trkpt><trkpt lat="45.7588927" lon="8.717636"><ele>324.83333333333337</ele><time>2026-05-04T08:57:29.337Z</time></trkpt><trkpt lat="45.7590011" lon="8.7176385"><ele>323.0</ele><time>2026-05-04T08:57:31.337Z</time></trkpt><trkpt lat="45.759116" lon="8.7176644"><ele>323.0</ele><time>2026-05-04T08:57:32.337Z</time></trkpt><trkpt lat="45.7591812" lon="8.7176819"><ele>323.0</ele><time>2026-05-04T08:57:33.337Z</time></trkpt><trkpt lat="45.7592518" lon="8.7177036"><ele>323.0</ele><time>2026-05-04T08:57:35.337Z</time></trkpt><trkpt lat="45.7593708" lon="8.7177276"><ele>323.0</ele><time>2026-05-04T08:57:37.337Z</time></trkpt><trkpt lat="45.7594452" lon="8.7177702"><ele>323.0</ele><time>2026-05-04T08:57:38.338Z</time></trkpt><trkpt lat="45.7595623" lon="8.7178636"><ele>321.79999999999995</ele><time>2026-05-04T08:57:40.338Z</time></trkpt><trkpt lat="45.7596283" lon="8.7179395"><ele>320.59999999999997</ele><time>2026-05-04T08:57:41.338Z</time></trkpt><trkpt lat="45.7596799" lon="8.718019"><ele>319.4</ele><time>2026-05-04T08:57:42.338Z</time></trkpt><trkpt lat="45.7597784" lon="8.7181103"><ele>318.2</ele><time>2026-05-04T08:57:44.338Z</time></trkpt><trkpt lat="45.7598761" lon="8.7181404"><ele>317.0</ele><time>2026-05-04T08:57:47.338Z</time></trkpt><trkpt lat="45.7599882" lon="8.718213"><ele>317.0</ele><time>2026-05-04T08:57:49.338Z</time></trkpt><trkpt lat="45.7600709" lon="8.7182386"><ele>317.0</ele><time>2026-05-04T08:57:50.337Z</time></trkpt><trkpt lat="45.7601367" lon="8.7182618"><ele>317.0</ele><time>2026-05-04T08:57:51.338Z</time></trkpt><trkpt lat="45.7602335" lon="8.7183543"><ele>317.0</ele><time>2026-05-04T08:57:53.337Z</time></trkpt><trkpt lat="45.7603419" lon="8.7184233"><ele>317.0</ele><time>2026-05-04T08:57:55.337Z</time></trkpt><trkpt lat="45.760428" lon="8.7185092"><ele>316.0</ele><time>2026-05-04T08:57:57.337Z</time></trkpt><trkpt lat="45.7605471" lon="8.7185208"><ele>315.0</ele><time>2026-05-04T08:57:59.337Z</time></trkpt><trkpt lat="45.7606841" lon="8.7184951"><ele>314.0</ele><time>2026-05-04T08:58:01.336Z</time></trkpt><trkpt lat="45.7608011" lon="8.7184764"><ele>313.0</ele><time>2026-05-04T08:58:03.337Z</time></trkpt><trkpt lat="45.7608633" lon="8.718449"><ele>312.0</ele><time>2026-05-04T08:58:04.337Z</time></trkpt><trkpt lat="45.7609921" lon="8.7183368"><ele>311.0</ele><time>2026-05-04T08:58:06.338Z</time></trkpt><trkpt lat="45.7610523" lon="8.7182455"><ele>310.0</ele><time>2026-05-04T08:58:08.338Z</time></trkpt><trkpt lat="45.7611047" lon="8.7181864"><ele>309.0</ele><time>2026-05-04T08:58:09.337Z</time></trkpt><trkpt lat="45.7611541" lon="8.7181227"><ele>308.0</ele><time>2026-05-04T08:58:10.337Z</time></trkpt><trkpt lat="45.7612552" lon="8.7180296"><ele>307.0</ele><time>2026-05-04T08:58:12.337Z</time></trkpt><trkpt lat="45.7613638" lon="8.7179332"><ele>307.0</ele><time>2026-05-04T08:58:14.337Z</time></trkpt><trkpt lat="45.761453" lon="8.7178946"><ele>307.0</ele><time>2026-05-04T08:58:16.338Z</time></trkpt><trkpt lat="45.761524" lon="8.7178943"><ele>307.0</ele><time>2026-05-04T08:58:17.336Z</time></trkpt><trkpt lat="45.7616268" lon="8.7178787"><ele>307.0</ele><time>2026-05-04T08:58:19.338Z</time></trkpt><trkpt lat="45.7617412" lon="8.7178677"><ele>307.0</ele><time>2026-05-04T08:58:21.338Z</time></trkpt><trkpt lat="45.7618177" lon="8.7178598"><ele>305.66666666666663</ele><time>2026-05-04T08:58:22.338Z</time></trkpt><trkpt lat="45.7618992" lon="8.7179003"><ele>304.3333333333333</ele><time>2026-05-04T08:58:23.337Z</time></trkpt><trkpt lat="45.7619313" lon="8.7180149"><ele>303.0</ele><time>2026-05-04T08:58:24.337Z</time></trkpt><trkpt lat="45.7619992" lon="8.718054"><ele>301.6666666666667</ele><time>2026-05-04T08:58:25.337Z</time></trkpt><trkpt lat="45.7620834" lon="8.7180829"><ele>300.33333333333337</ele><time>2026-05-04T08:58:26.337Z</time></trkpt><trkpt lat="45.7621594" lon="8.7181082"><ele>299.0</ele><time>2026-05-04T08:58:27.337Z</time></trkpt><trkpt lat="45.7622325" lon="8.7181534"><ele>299.0</ele><time>2026-05-04T08:58:28.337Z</time></trkpt><trkpt lat="45.7622958" lon="8.7181815"><ele>299.0</ele><time>2026-05-04T08:58:29.337Z</time></trkpt><trkpt lat="45.7623546" lon="8.7182154"><ele>299.0</ele><time>2026-05-04T08:58:30.338Z</time></trkpt><trkpt lat="45.762489" lon="8.7182472"><ele>299.0</ele><time>2026-05-04T08:58:32.337Z</time></trkpt><trkpt lat="45.7625603" lon="8.7182354"><ele>299.0</ele><time>2026-05-04T08:58:34.338Z</time></trkpt><trkpt lat="45.7626272" lon="8.7181572"><ele>299.0</ele><time>2026-05-04T08:58:35.337Z</time></trkpt><trkpt lat="45.762749" lon="8.7180712"><ele>295.83333333333337</ele><time>2026-05-04T08:58:37.338Z</time></trkpt><trkpt lat="45.7628269" lon="8.7180345"><ele>292.6666666666667</ele><time>2026-05-04T08:58:38.338Z</time></trkpt><trkpt lat="45.7629276" lon="8.71805"><ele>289.5</ele><time>2026-05-04T08:58:39.337Z</time></trkpt><trkpt lat="45.7630048" lon="8.7180886"><ele>286.3333333333333</ele><time>2026-05-04T08:58:40.337Z</time></trkpt><trkpt lat="45.7630708" lon="8.7181351"><ele>283.16666666666663</ele><time>2026-05-04T08:58:41.337Z</time></trkpt><trkpt lat="45.7631449" lon="8.7182019"><ele>280.0</ele><time>2026-05-04T08:58:42.337Z</time></trkpt><trkpt lat="45.7632211" lon="8.7182516"><ele>280.0</ele><time>2026-05-04T08:58:43.338Z</time></trkpt><trkpt lat="45.7632999" lon="8.7183001"><ele>280.0</ele><time>2026-05-04T08:58:44.338Z</time></trkpt><trkpt lat="45.7633814" lon="8.7183488"><ele>280.0</ele><time>2026-05-04T08:58:45.337Z</time></trkpt><trkpt lat="45.7634611" lon="8.7183953"><ele>280.0</ele><time>2026-05-04T08:58:46.337Z</time></trkpt><trkpt lat="45.7635523" lon="8.7184471"><ele>280.0</ele><time>2026-05-04T08:58:48.338Z</time></trkpt><trkpt lat="45.7636231" lon="8.7184301"><ele>280.0</ele><time>2026-05-04T08:58:58.338Z</time></trkpt><trkpt lat="45.7636923" lon="8.7184242"><ele>279.3333333333333</ele><time>2026-05-04T08:59:00.338Z</time></trkpt><trkpt lat="45.7637604" lon="8.7184793"><ele>278.66666666666663</ele><time>2026-05-04T08:59:02.338Z</time></trkpt><trkpt lat="45.7638372" lon="8.7185394"><ele>278.0</ele><time>2026-05-04T08:59:04.337Z</time></trkpt><trkpt lat="45.7639348" lon="8.7185843"><ele>277.3333333333333</ele><time>2026-05-04T08:59:06.338Z</time></trkpt><trkpt lat="45.7640068" lon="8.7186132"><ele>276.6666666666667</ele><time>2026-05-04T08:59:34.337Z</time></trkpt><trkpt lat="45.7639322" lon="8.7186074"><ele>276.0</ele><time>2026-05-04T08:59:46.337Z</time></trkpt><trkpt lat="45.7638932" lon="8.7187385"><ele>274.6</ele><time>2026-05-04T08:59:49.337Z</time></trkpt><trkpt lat="45.7638612" lon="8.7188745"><ele>273.20000000000005</ele><time>2026-05-04T08:59:51.336Z</time></trkpt><trkpt lat="45.7638262" lon="8.7190225"><ele>271.79999999999995</ele><time>2026-05-04T08:59:53.337Z</time></trkpt><trkpt lat="45.7637947" lon="8.7191724"><ele>270.4</ele><time>2026-05-04T08:59:55.337Z</time></trkpt><trkpt lat="45.763767" lon="8.719319"><ele>269.0</ele><time>2026-05-04T08:59:57.337Z</time></trkpt><trkpt lat="45.7637634" lon="8.7194376"><ele>268.8</ele><time>2026-05-04T08:59:59.337Z</time></trkpt><trkpt lat="45.7637419" lon="8.71958"><ele>268.59999999999997</ele><time>2026-05-04T09:00:01.337Z</time></trkpt><trkpt lat="45.7637226" lon="8.7197027"><ele>268.4</ele><time>2026-05-04T09:00:03.338Z</time></trkpt><trkpt lat="45.7637034" lon="8.7198389"><ele>268.2</ele><time>2026-05-04T09:00:05.338Z</time></trkpt><trkpt lat="45.7636779" lon="8.7199687"><ele>268.0</ele><time>2026-05-04T09:00:07.338Z</time></trkpt><trkpt lat="45.7636443" lon="8.7200952"><ele>268.0</ele><time>2026-05-04T09:00:09.338Z</time></trkpt><trkpt lat="45.7636343" lon="8.7202315"><ele>268.0</ele><time>2026-05-04T09:00:11.337Z</time></trkpt><trkpt lat="45.7636605" lon="8.7203633"><ele>268.0</ele><time>2026-05-04T09:00:13.338Z</time></trkpt><trkpt lat="45.7637244" lon="8.7204595"><ele>268.0</ele><time>2026-05-04T09:00:15.338Z</time></trkpt><trkpt lat="45.763786" lon="8.7205596"><ele>268.0</ele><time>2026-05-04T09:00:17.338Z</time></trkpt><trkpt lat="45.7638685" lon="8.7206667"><ele>270.2</ele><time>2026-05-04T09:00:19.337Z</time></trkpt><trkpt lat="45.7639595" lon="8.7207722"><ele>272.4</ele><time>2026-05-04T09:00:21.337Z</time></trkpt><trkpt lat="45.7640097" lon="8.7208341"><ele>274.59999999999997</ele><time>2026-05-04T09:00:22.337Z</time></trkpt><trkpt lat="45.7640872" lon="8.7209501"><ele>276.8</ele><time>2026-05-04T09:00:24.338Z</time></trkpt><trkpt lat="45.7641723" lon="8.7210356"><ele>279.0</ele><time>2026-05-04T09:00:26.337Z</time></trkpt><trkpt lat="45.7642418" lon="8.7211256"><ele>280.0</ele><time>2026-05-04T09:00:28.337Z</time></trkpt><trkpt lat="45.7643088" lon="8.7212097"><ele>281.0</ele><time>2026-05-04T09:00:30.337Z</time></trkpt><trkpt lat="45.7643833" lon="8.7212597"><ele>282.0</ele><time>2026-05-04T09:00:32.337Z</time></trkpt><trkpt lat="45.7644497" lon="8.7212798"><ele>283.0</ele><time>2026-05-04T09:00:34.337Z</time></trkpt><trkpt lat="45.7645181" lon="8.7213014"><ele>284.0</ele><time>2026-05-04T09:00:36.338Z</time></trkpt><trkpt lat="45.7646069" lon="8.7213723"><ele>285.0</ele><time>2026-05-04T09:00:38.338Z</time></trkpt><trkpt lat="45.7646631" lon="8.7214403"><ele>282.8333333333333</ele><time>2026-05-04T09:00:39.338Z</time></trkpt><trkpt lat="45.7647147" lon="8.7214942"><ele>280.6666666666667</ele><time>2026-05-04T09:00:41.338Z</time></trkpt><trkpt lat="45.7647945" lon="8.7214771"><ele>278.5</ele><time>2026-05-04T09:00:43.337Z</time></trkpt><trkpt lat="45.7648621" lon="8.7214824"><ele>276.33333333333337</ele><time>2026-05-04T09:00:49.337Z</time></trkpt><trkpt lat="45.7649531" lon="8.7214778"><ele>274.1666666666667</ele><time>2026-05-04T09:00:52.338Z</time></trkpt><trkpt lat="45.7650329" lon="8.7214054"><ele>272.0</ele><time>2026-05-04T09:00:54.337Z</time></trkpt><trkpt lat="45.7651017" lon="8.72131"><ele>272.0</ele><time>2026-05-04T09:00:56.337Z</time></trkpt><trkpt lat="45.7651723" lon="8.7212378"><ele>272.0</ele><time>2026-05-04T09:00:58.337Z</time></trkpt><trkpt lat="45.7652406" lon="8.7211693"><ele>272.0</ele><time>2026-05-04T09:01:00.337Z</time></trkpt><trkpt lat="45.7653431" lon="8.7211395"><ele>272.0</ele><time>2026-05-04T09:01:02.337Z</time></trkpt><trkpt lat="45.7654225" lon="8.7212148"><ele>272.0</ele><time>2026-05-04T09:01:04.337Z</time></trkpt><trkpt lat="45.7654978" lon="8.7212855"><ele>271.8</ele><time>2026-05-04T09:01:06.338Z</time></trkpt><trkpt lat="45.7655909" lon="8.7212978"><ele>271.6</ele><time>2026-05-04T09:01:08.338Z</time></trkpt><trkpt lat="45.7656941" lon="8.7213007"><ele>271.40000000000003</ele><time>2026-05-04T09:01:10.338Z</time></trkpt><trkpt lat="45.7657961" lon="8.7213115"><ele>271.2</ele><time>2026-05-04T09:01:12.337Z</time></trkpt><trkpt lat="45.7658905" lon="8.7213439"><ele>271.0</ele><time>2026-05-04T09:01:14.337Z</time></trkpt><trkpt lat="45.7659683" lon="8.7214218"><ele>273.0</ele><time>2026-05-04T09:01:16.337Z</time></trkpt><trkpt lat="45.7660325" lon="8.7215099"><ele>275.0</ele><time>2026-05-04T09:01:18.338Z</time></trkpt><trkpt lat="45.7660923" lon="8.7215969"><ele>277.0</ele><time>2026-05-04T09:01:20.337Z</time></trkpt><trkpt lat="45.7661653" lon="8.7216708"><ele>279.0</ele><time>2026-05-04T09:01:22.337Z</time></trkpt><trkpt lat="45.7662365" lon="8.7217264"><ele>281.0</ele><time>2026-05-04T09:01:24.337Z</time></trkpt><trkpt lat="45.766297" lon="8.721775"><ele>283.0</ele><time>2026-05-04T09:01:26.338Z</time></trkpt><trkpt lat="45.7663721" lon="8.721832"><ele>283.0</ele><time>2026-05-04T09:01:29.338Z</time></trkpt><trkpt lat="45.766432" lon="8.7218688"><ele>283.0</ele><time>2026-05-04T09:01:32.337Z</time></trkpt><trkpt lat="45.766509" lon="8.7219356"><ele>283.0</ele><time>2026-05-04T09:01:36.337Z</time></trkpt><trkpt lat="45.7665902" lon="8.7218892"><ele>283.0</ele><time>2026-05-04T09:01:39.338Z</time></trkpt><trkpt lat="45.7666134" lon="8.7218029"><ele>283.0</ele><time>2026-05-04T09:01:41.338Z</time></trkpt><trkpt lat="45.7666216" lon="8.7216869"><ele>283.0</ele><time>2026-05-04T09:01:44.338Z</time></trkpt><trkpt lat="45.7666888" lon="8.7216773"><ele>283.0</ele><time>2026-05-04T09:01:47.338Z</time></trkpt><trkpt lat="45.7666788" lon="8.721795"><ele>283.0</ele><time>2026-05-04T09:01:50.338Z</time></trkpt><trkpt lat="45.766656" lon="8.7219059"><ele>283.0</ele><time>2026-05-04T09:01:52.337Z</time></trkpt><trkpt lat="45.7666402" lon="8.7220112"><ele>283.0</ele><time>2026-05-04T09:01:54.338Z</time></trkpt><trkpt lat="45.7666249" lon="8.7221137"><ele>283.0</ele><time>2026-05-04T09:01:56.338Z</time></trkpt><trkpt lat="45.7666139" lon="8.7222245"><ele>283.0</ele><time>2026-05-04T09:01:58.338Z</time></trkpt><trkpt lat="45.7666068" lon="8.722325"><ele>285.16666666666663</ele><time>2026-05-04T09:02:00.338Z</time></trkpt><trkpt lat="45.7665953" lon="8.722432"><ele>287.3333333333333</ele><time>2026-05-04T09:02:03.337Z</time></trkpt><trkpt lat="45.7665826" lon="8.7225639"><ele>289.5</ele><time>2026-05-04T09:02:06.338Z</time></trkpt><trkpt lat="45.7665625" lon="8.7226545"><ele>291.6666666666667</ele><time>2026-05-04T09:02:08.338Z</time></trkpt><trkpt lat="45.766552" lon="8.7227442"><ele>293.83333333333337</ele><time>2026-05-04T09:02:10.337Z</time></trkpt><trkpt lat="45.7665456" lon="8.7228519"><ele>296.0</ele><time>2026-05-04T09:02:12.337Z</time></trkpt><trkpt lat="45.7665348" lon="8.7229945"><ele>297.6666666666667</ele><time>2026-05-04T09:02:14.337Z</time></trkpt><trkpt lat="45.7665193" lon="8.7231275"><ele>299.33333333333337</ele><time>2026-05-04T09:02:16.336Z</time></trkpt><trkpt lat="45.7664801" lon="8.7232546"><ele>301.0</ele><time>2026-05-04T09:02:18.337Z</time></trkpt><trkpt lat="45.7664487" lon="8.723361"><ele>302.6666666666667</ele><time>2026-05-04T09:02:20.338Z</time></trkpt><trkpt lat="45.7664317" lon="8.7234738"><ele>304.3333333333333</ele><time>2026-05-04T09:02:22.338Z</time></trkpt><trkpt lat="45.7664103" lon="8.7235853"><ele>306.0</ele><time>2026-05-04T09:02:24.337Z</time></trkpt><trkpt lat="45.7663988" lon="8.7236925"><ele>306.3333333333333</ele><time>2026-05-04T09:02:26.338Z</time></trkpt><trkpt lat="45.7663847" lon="8.7238023"><ele>306.6666666666667</ele><time>2026-05-04T09:02:28.337Z</time></trkpt><trkpt lat="45.7663731" lon="8.7239226"><ele>307.0</ele><time>2026-05-04T09:02:30.337Z</time></trkpt><trkpt lat="45.7663715" lon="8.7240374"><ele>307.33333333333337</ele><time>2026-05-04T09:02:32.337Z</time></trkpt><trkpt lat="45.7663782" lon="8.7241635"><ele>307.6666666666667</ele><time>2026-05-04T09:02:34.337Z</time></trkpt><trkpt lat="45.7663877" lon="8.7242828"><ele>308.0</ele><time>2026-05-04T09:02:36.338Z</time></trkpt><trkpt lat="45.7663987" lon="8.7243978"><ele>308.0</ele><time>2026-05-04T09:02:38.336Z</time></trkpt><trkpt lat="45.7664131" lon="8.7245167"><ele>308.0</ele><time>2026-05-04T09:02:40.337Z</time></trkpt><trkpt lat="45.7664324" lon="8.7246299"><ele>308.0</ele><time>2026-05-04T09:02:42.337Z</time></trkpt><trkpt lat="45.7664439" lon="8.7247465"><ele>308.0</ele><time>2026-05-04T09:02:44.337Z</time></trkpt><trkpt lat="45.7664492" lon="8.7248659"><ele>308.0</ele><time>2026-05-04T09:02:46.338Z</time></trkpt><trkpt lat="45.7664559" lon="8.7249781"><ele>308.0</ele><time>2026-05-04T09:02:48.337Z</time></trkpt><trkpt lat="45.7664681" lon="8.725091"><ele>308.0</ele><time>2026-05-04T09:02:50.338Z</time></trkpt><trkpt lat="45.7664837" lon="8.7252035"><ele>308.0</ele><time>2026-05-04T09:02:52.337Z</time></trkpt><trkpt lat="45.7664986" lon="8.7253156"><ele>308.0</ele><time>2026-05-04T09:02:54.338Z</time></trkpt><trkpt lat="45.7665106" lon="8.7254218"><ele>308.0</ele><time>2026-05-04T09:02:56.337Z</time></trkpt><trkpt lat="45.76652" lon="8.7255311"><ele>308.0</ele><time>2026-05-04T09:02:58.338Z</time></trkpt><trkpt lat="45.7665285" lon="8.7256372"><ele>308.0</ele><time>2026-05-04T09:03:00.337Z</time></trkpt><trkpt lat="45.7665339" lon="8.7257505"><ele>308.0</ele><time>2026-05-04T09:03:02.337Z</time></trkpt><trkpt lat="45.7665387" lon="8.725867"><ele>308.0</ele><time>2026-05-04T09:03:04.337Z</time></trkpt><trkpt lat="45.7665376" lon="8.7259874"><ele>308.0</ele><time>2026-05-04T09:03:06.338Z</time></trkpt><trkpt lat="45.7665281" lon="8.7261001"><ele>308.0</ele><time>2026-05-04T09:03:08.338Z</time></trkpt><trkpt lat="45.7665071" lon="8.7262099"><ele>308.0</ele><time>2026-05-04T09:03:10.337Z</time></trkpt><trkpt lat="45.7664792" lon="8.7263165"><ele>308.0</ele><time>2026-05-04T09:03:12.336Z</time></trkpt><trkpt lat="45.7664547" lon="8.7264167"><ele>309.5</ele><time>2026-05-04T09:03:14.337Z</time></trkpt><trkpt lat="45.7664218" lon="8.7265128"><ele>311.0</ele><time>2026-05-04T09:03:16.337Z</time></trkpt><trkpt lat="45.766382" lon="8.7266053"><ele>312.5</ele><time>2026-05-04T09:03:18.338Z</time></trkpt><trkpt lat="45.7663295" lon="8.7267092"><ele>314.0</ele><time>2026-05-04T09:03:20.337Z</time></trkpt><trkpt lat="45.7662846" lon="8.7268032"><ele>315.5</ele><time>2026-05-04T09:03:22.338Z</time></trkpt><trkpt lat="45.7662363" lon="8.7268917"><ele>317.0</ele><time>2026-05-04T09:03:24.338Z</time></trkpt><trkpt lat="45.7661931" lon="8.7269806"><ele>318.83333333333337</ele><time>2026-05-04T09:03:26.337Z</time></trkpt><trkpt lat="45.7661504" lon="8.7270702"><ele>320.6666666666667</ele><time>2026-05-04T09:03:28.337Z</time></trkpt><trkpt lat="45.7661102" lon="8.7271637"><ele>322.5</ele><time>2026-05-04T09:03:30.337Z</time></trkpt><trkpt lat="45.7660794" lon="8.7272588"><ele>324.3333333333333</ele><time>2026-05-04T09:03:32.337Z</time></trkpt><trkpt lat="45.7660399" lon="8.7273357"><ele>326.16666666666663</ele><time>2026-05-04T09:03:34.337Z</time></trkpt><trkpt lat="45.7659739" lon="8.7274179"><ele>328.0</ele><time>2026-05-04T09:03:36.338Z</time></trkpt><trkpt lat="45.7659246" lon="8.7275023"><ele>325.5</ele><time>2026-05-04T09:03:38.338Z</time></trkpt><trkpt lat="45.765879" lon="8.7275886"><ele>323.0</ele><time>2026-05-04T09:03:40.337Z</time></trkpt><trkpt lat="45.7658279" lon="8.7276743"><ele>320.5</ele><time>2026-05-04T09:03:42.338Z</time></trkpt><trkpt lat="45.7657748" lon="8.7277644"><ele>318.0</ele><time>2026-05-04T09:03:44.337Z</time></trkpt><trkpt lat="45.7657195" lon="8.7278516"><ele>315.5</ele><time>2026-05-04T09:03:46.337Z</time></trkpt><trkpt lat="45.7656665" lon="8.727936"><ele>313.0</ele><time>2026-05-04T09:03:48.338Z</time></trkpt><trkpt lat="45.7656144" lon="8.7280262"><ele>313.0</ele><time>2026-05-04T09:03:50.338Z</time></trkpt><trkpt lat="45.7655596" lon="8.728116"><ele>313.0</ele><time>2026-05-04T09:03:52.338Z</time></trkpt><trkpt lat="45.7655054" lon="8.7282087"><ele>313.0</ele><time>2026-05-04T09:03:54.337Z</time></trkpt><trkpt lat="45.7654537" lon="8.7282996"><ele>313.0</ele><time>2026-05-04T09:03:56.337Z</time></trkpt><trkpt lat="45.7654013" lon="8.7283891"><ele>313.0</ele><time>2026-05-04T09:03:58.336Z</time></trkpt><trkpt lat="45.7653527" lon="8.7284784"><ele>313.0</ele><time>2026-05-04T09:04:00.337Z</time></trkpt><trkpt lat="45.7653033" lon="8.7285674"><ele>312.0</ele><time>2026-05-04T09:04:02.337Z</time></trkpt><trkpt lat="45.7652575" lon="8.7286623"><ele>311.0</ele><time>2026-05-04T09:04:04.337Z</time></trkpt><trkpt lat="45.7652141" lon="8.7287565"><ele>310.0</ele><time>2026-05-04T09:04:06.337Z</time></trkpt><trkpt lat="45.7651763" lon="8.728859"><ele>309.0</ele><time>2026-05-04T09:04:08.337Z</time></trkpt><trkpt lat="45.7651406" lon="8.7289618"><ele>308.0</ele><time>2026-05-04T09:04:10.337Z</time></trkpt><trkpt lat="45.7651123" lon="8.7290667"><ele>307.0</ele><time>2026-05-04T09:04:12.337Z</time></trkpt><trkpt lat="45.7650854" lon="8.7291734"><ele>307.0</ele><time>2026-05-04T09:04:14.338Z</time></trkpt><trkpt lat="45.7650605" lon="8.7292831"><ele>307.0</ele><time>2026-05-04T09:04:16.338Z</time></trkpt><trkpt lat="45.765044" lon="8.729395"><ele>307.0</ele><time>2026-05-04T09:04:18.337Z</time></trkpt><trkpt lat="45.7650307" lon="8.7295058"><ele>307.0</ele><time>2026-05-04T09:04:20.336Z</time></trkpt><trkpt lat="45.765016" lon="8.7296145"><ele>307.0</ele><time>2026-05-04T09:04:22.337Z</time></trkpt><trkpt lat="45.7649977" lon="8.7297221"><ele>307.0</ele><time>2026-05-04T09:04:24.337Z</time></trkpt><trkpt lat="45.7649762" lon="8.7298311"><ele>307.66666666666663</ele><time>2026-05-04T09:04:26.337Z</time></trkpt><trkpt lat="45.7649558" lon="8.7299411"><ele>308.3333333333333</ele><time>2026-05-04T09:04:28.338Z</time></trkpt><trkpt lat="45.7649292" lon="8.7300488"><ele>309.0</ele><time>2026-05-04T09:04:30.337Z</time></trkpt><trkpt lat="45.7648958" lon="8.7301504"><ele>309.6666666666667</ele><time>2026-05-04T09:04:32.338Z</time></trkpt><trkpt lat="45.7648547" lon="8.7302418"><ele>310.33333333333337</ele><time>2026-05-04T09:04:34.337Z</time></trkpt><trkpt lat="45.7648136" lon="8.7303291"><ele>311.0</ele><time>2026-05-04T09:04:36.337Z</time></trkpt><trkpt lat="45.7647757" lon="8.7304127"><ele>312.2857142857143</ele><time>2026-05-04T09:04:38.337Z</time></trkpt><trkpt lat="45.7647272" lon="8.7304878"><ele>313.5714285714286</ele><time>2026-05-04T09:04:40.337Z</time></trkpt><trkpt lat="45.7646754" lon="8.73057"><ele>314.8571428571429</ele><time>2026-05-04T09:04:42.337Z</time></trkpt><trkpt lat="45.7646294" lon="8.7306545"><ele>316.1428571428571</ele><time>2026-05-04T09:04:44.337Z</time></trkpt><trkpt lat="45.7645827" lon="8.7307369"><ele>317.42857142857144</ele><time>2026-05-04T09:04:46.338Z</time></trkpt><trkpt lat="45.7645379" lon="8.7308202"><ele>318.7142857142857</ele><time>2026-05-04T09:04:48.337Z</time></trkpt><trkpt lat="45.7644936" lon="8.7309036"><ele>320.0</ele><time>2026-05-04T09:04:50.338Z</time></trkpt><trkpt lat="45.7644487" lon="8.73099"><ele>320.42857142857144</ele><time>2026-05-04T09:04:52.336Z</time></trkpt><trkpt lat="45.7644075" lon="8.7310803"><ele>320.8571428571429</ele><time>2026-05-04T09:04:54.338Z</time></trkpt><trkpt lat="45.7643583" lon="8.731161"><ele>321.28571428571433</ele><time>2026-05-04T09:04:56.338Z</time></trkpt><trkpt lat="45.7643103" lon="8.7312433"><ele>321.7142857142857</ele><time>2026-05-04T09:04:58.337Z</time></trkpt><trkpt lat="45.7642667" lon="8.7313269"><ele>322.14285714285717</ele><time>2026-05-04T09:05:00.338Z</time></trkpt><trkpt lat="45.7642149" lon="8.7314016"><ele>322.5714285714286</ele><time>2026-05-04T09:05:02.337Z</time></trkpt><trkpt lat="45.7641688" lon="8.7314877"><ele>323.0</ele><time>2026-05-04T09:05:04.337Z</time></trkpt><trkpt lat="45.7641238" lon="8.7315751"><ele>323.00000000000006</ele><time>2026-05-04T09:05:06.337Z</time></trkpt><trkpt lat="45.7640787" lon="8.7316606"><ele>323.0</ele><time>2026-05-04T09:05:08.337Z</time></trkpt><trkpt lat="45.7640296" lon="8.7317476"><ele>323.0</ele><time>2026-05-04T09:05:10.338Z</time></trkpt><trkpt lat="45.7639809" lon="8.73183"><ele>323.0</ele><time>2026-05-04T09:05:12.338Z</time></trkpt><trkpt lat="45.763933" lon="8.7319156"><ele>323.0</ele><time>2026-05-04T09:05:14.337Z</time></trkpt><trkpt lat="45.7639036" lon="8.7320057"><ele>323.00000000000006</ele><time>2026-05-04T09:05:16.338Z</time></trkpt><trkpt lat="45.7639507" lon="8.7320734"><ele>323.0</ele><time>2026-05-04T09:05:19.337Z</time></trkpt><trkpt lat="45.7640211" lon="8.7320682"><ele>325.0</ele><time>2026-05-04T09:05:21.338Z</time></trkpt><trkpt lat="45.7640996" lon="8.7320565"><ele>327.0</ele><time>2026-05-04T09:05:23.338Z</time></trkpt><trkpt lat="45.7641788" lon="8.7320321"><ele>329.0</ele><time>2026-05-04T09:05:25.338Z</time></trkpt><trkpt lat="45.7642542" lon="8.7320098"><ele>331.0</ele><time>2026-05-04T09:05:27.337Z</time></trkpt><trkpt lat="45.7643269" lon="8.7319868"><ele>333.0</ele><time>2026-05-04T09:05:29.337Z</time></trkpt><trkpt lat="45.7644012" lon="8.7319591"><ele>335.0</ele><time>2026-05-04T09:05:31.338Z</time></trkpt><trkpt lat="45.7644727" lon="8.731927"><ele>334.83333333333337</ele><time>2026-05-04T09:05:33.337Z</time></trkpt><trkpt lat="45.7645476" lon="8.7319053"><ele>334.6666666666667</ele><time>2026-05-04T09:05:35.337Z</time></trkpt><trkpt lat="45.7646265" lon="8.731882"><ele>334.5</ele><time>2026-05-04T09:05:37.338Z</time></trkpt><trkpt lat="45.7647049" lon="8.7318533"><ele>334.3333333333333</ele><time>2026-05-04T09:05:39.338Z</time></trkpt><trkpt lat="45.7647803" lon="8.7318264"><ele>334.16666666666663</ele><time>2026-05-04T09:05:41.338Z</time></trkpt><trkpt lat="45.7648531" lon="8.7317979"><ele>334.0</ele><time>2026-05-04T09:05:43.338Z</time></trkpt><trkpt lat="45.7649289" lon="8.7317753"><ele>334.0</ele><time>2026-05-04T09:05:45.338Z</time></trkpt><trkpt lat="45.7650044" lon="8.7317556"><ele>334.0</ele><time>2026-05-04T09:05:47.338Z</time></trkpt><trkpt lat="45.7650783" lon="8.7317294"><ele>334.0</ele><time>2026-05-04T09:05:49.337Z</time></trkpt><trkpt lat="45.7651518" lon="8.731702"><ele>334.0</ele><time>2026-05-04T09:05:51.337Z</time></trkpt><trkpt lat="45.765229" lon="8.731676"><ele>334.0</ele><time>2026-05-04T09:05:53.338Z</time></trkpt><trkpt lat="45.7653084" lon="8.7316524"><ele>334.0</ele><time>2026-05-04T09:05:55.337Z</time></trkpt><trkpt lat="45.7653855" lon="8.7316175"><ele>335.3333333333333</ele><time>2026-05-04T09:05:57.337Z</time></trkpt><trkpt lat="45.7654594" lon="8.7315942"><ele>336.66666666666663</ele><time>2026-05-04T09:05:59.338Z</time></trkpt><trkpt lat="45.7655317" lon="8.7315738"><ele>338.0</ele><time>2026-05-04T09:06:01.337Z</time></trkpt><trkpt lat="45.7656058" lon="8.7315442"><ele>339.3333333333333</ele><time>2026-05-04T09:06:03.337Z</time></trkpt><trkpt lat="45.7656865" lon="8.7315196"><ele>340.6666666666667</ele><time>2026-05-04T09:06:05.337Z</time></trkpt><trkpt lat="45.7657745" lon="8.7315061"><ele>342.0</ele><time>2026-05-04T09:06:07.337Z</time></trkpt><trkpt lat="45.7658559" lon="8.7314958"><ele>342.0</ele><time>2026-05-04T09:06:09.338Z</time></trkpt><trkpt lat="45.7659386" lon="8.7314854"><ele>342.0</ele><time>2026-05-04T09:06:11.337Z</time></trkpt><trkpt lat="45.7660202" lon="8.7314566"><ele>342.0</ele><time>2026-05-04T09:06:13.337Z</time></trkpt><trkpt lat="45.7661069" lon="8.7314406"><ele>342.0</ele><time>2026-05-04T09:06:15.338Z</time></trkpt><trkpt lat="45.7661947" lon="8.7314196"><ele>342.0</ele><time>2026-05-04T09:06:17.337Z</time></trkpt><trkpt lat="45.7662813" lon="8.731392"><ele>342.0</ele><time>2026-05-04T09:06:19.337Z</time></trkpt><trkpt lat="45.7663647" lon="8.7313657"><ele>342.0</ele><time>2026-05-04T09:06:21.338Z</time></trkpt><trkpt lat="45.7664457" lon="8.7313392"><ele>342.0</ele><time>2026-05-04T09:06:23.338Z</time></trkpt><trkpt lat="45.7665266" lon="8.7313124"><ele>342.0</ele><time>2026-05-04T09:06:25.337Z</time></trkpt><trkpt lat="45.7665946" lon="8.7312836"><ele>342.0</ele><time>2026-05-04T09:06:27.337Z</time></trkpt><trkpt lat="45.7666052" lon="8.7311599"><ele>342.0</ele><time>2026-05-04T09:06:30.337Z</time></trkpt><trkpt lat="45.7666119" lon="8.7310698"><ele>342.0</ele><time>2026-05-04T09:06:32.336Z</time></trkpt><trkpt lat="45.7666352" lon="8.7309775"><ele>342.0</ele><time>2026-05-04T09:06:35.338Z</time></trkpt><trkpt lat="45.7666767" lon="8.7308836"><ele>342.0</ele><time>2026-05-04T09:07:12.337Z</time></trkpt><trkpt lat="45.7666439" lon="8.7310022"><ele>342.0</ele><time>2026-05-04T09:10:17.337Z</time></trkpt><trkpt lat="45.7666456" lon="8.731133"><ele>342.0</ele><time>2026-05-04T09:10:20.337Z</time></trkpt><trkpt lat="45.7666992" lon="8.7312237"><ele>342.0</ele><time>2026-05-04T09:10:23.23Z</time></trkpt><trkpt lat="45.7667566" lon="8.7313324"><ele>342.0</ele><time>2026-05-04T09:10:25.337Z</time></trkpt><trkpt lat="45.7668044" lon="8.7314074"><ele>342.8</ele><time>2026-05-04T09:10:26.336Z</time></trkpt><trkpt lat="45.7668434" lon="8.7315078"><ele>343.6</ele><time>2026-05-04T09:10:27.336Z</time></trkpt><trkpt lat="45.7668738" lon="8.7316187"><ele>344.40000000000003</ele><time>2026-05-04T09:10:28.337Z</time></trkpt><trkpt lat="45.7669831" lon="8.731674"><ele>345.20000000000005</ele><time>2026-05-04T09:10:30.337Z</time></trkpt><trkpt lat="45.7670801" lon="8.7317138"><ele>346.0</ele><time>2026-05-04T09:10:32.336Z</time></trkpt><trkpt lat="45.7671575" lon="8.7317746"><ele>347.1428571428571</ele><time>2026-05-04T09:10:34.336Z</time></trkpt><trkpt lat="45.7672224" lon="8.7318211"><ele>348.28571428571433</ele><time>2026-05-04T09:10:36.336Z</time></trkpt><trkpt lat="45.7672868" lon="8.7318607"><ele>349.42857142857144</ele><time>2026-05-04T09:10:38.336Z</time></trkpt><trkpt lat="45.7673461" lon="8.7318934"><ele>350.57142857142856</ele><time>2026-05-04T09:10:40.336Z</time></trkpt><trkpt lat="45.7674335" lon="8.7318993"><ele>351.71428571428567</ele><time>2026-05-04T09:10:42.335Z</time></trkpt><trkpt lat="45.767507" lon="8.7319224"><ele>352.8571428571429</ele><time>2026-05-04T09:10:44.336Z</time></trkpt><trkpt lat="45.7675852" lon="8.7319441"><ele>354.0</ele><time>2026-05-04T09:10:46.337Z</time></trkpt><trkpt lat="45.7676603" lon="8.7319618"><ele>354.3333333333333</ele><time>2026-05-04T09:10:48.336Z</time></trkpt><trkpt lat="45.7677307" lon="8.7319944"><ele>354.6666666666667</ele><time>2026-05-04T09:10:50.336Z</time></trkpt><trkpt lat="45.7677287" lon="8.7321133"><ele>355.0</ele><time>2026-05-04T09:10:52.34Z</time></trkpt><trkpt lat="45.7676668" lon="8.73222"><ele>355.33333333333337</ele><time>2026-05-04T09:10:54.337Z</time></trkpt><trkpt lat="45.7676184" lon="8.7323276"><ele>355.6666666666667</ele><time>2026-05-04T09:10:56.337Z</time></trkpt><trkpt lat="45.7675777" lon="8.7324333"><ele>356.0</ele><time>2026-05-04T09:10:58.337Z</time></trkpt><trkpt lat="45.7675418" lon="8.7325395"><ele>356.0</ele><time>2026-05-04T09:11:00.319Z</time></trkpt><trkpt lat="45.7675153" lon="8.7326473"><ele>356.0</ele><time>2026-05-04T09:11:02.335Z</time></trkpt><trkpt lat="45.7675006" lon="8.7327602"><ele>356.0</ele><time>2026-05-04T09:11:04.337Z</time></trkpt><trkpt lat="45.7674837" lon="8.7328731"><ele>356.0</ele><time>2026-05-04T09:11:06.336Z</time></trkpt><trkpt lat="45.7674337" lon="8.7329567"><ele>356.0</ele><time>2026-05-04T09:11:08.337Z</time></trkpt><trkpt lat="45.7674031" lon="8.7330683"><ele>356.0</ele><time>2026-05-04T09:11:10.337Z</time></trkpt><trkpt lat="45.7673739" lon="8.7331831"><ele>356.5</ele><time>2026-05-04T09:11:12.337Z</time></trkpt><trkpt lat="45.7673443" lon="8.733292"><ele>357.0</ele><time>2026-05-04T09:11:14.337Z</time></trkpt><trkpt lat="45.767311" lon="8.7333958"><ele>357.5</ele><time>2026-05-04T09:11:16.336Z</time></trkpt><trkpt lat="45.7673035" lon="8.7335059"><ele>358.0</ele><time>2026-05-04T09:11:18.336Z</time></trkpt><trkpt lat="45.7672733" lon="8.7335995"><ele>358.5</ele><time>2026-05-04T09:11:20.336Z</time></trkpt><trkpt lat="45.767273" lon="8.733698"><ele>359.0</ele><time>2026-05-04T09:11:22.339Z</time></trkpt><trkpt lat="45.7672373" lon="8.7337874"><ele>359.83333333333337</ele><time>2026-05-04T09:11:24.336Z</time></trkpt><trkpt lat="45.7672048" lon="8.7338709"><ele>360.6666666666667</ele><time>2026-05-04T09:11:26.337Z</time></trkpt><trkpt lat="45.7672155" lon="8.7339697"><ele>361.5</ele><time>2026-05-04T09:11:28.336Z</time></trkpt><trkpt lat="45.7672459" lon="8.7340675"><ele>362.3333333333333</ele><time>2026-05-04T09:11:30.337Z</time></trkpt><trkpt lat="45.767274" lon="8.7341727"><ele>363.16666666666663</ele><time>2026-05-04T09:11:32.337Z</time></trkpt><trkpt lat="45.767303" lon="8.7342795"><ele>364.0</ele><time>2026-05-04T09:11:34.337Z</time></trkpt><trkpt lat="45.7673372" lon="8.7343869"><ele>364.4</ele><time>2026-05-04T09:11:36.336Z</time></trkpt><trkpt lat="45.7673736" lon="8.7344995"><ele>364.79999999999995</ele><time>2026-05-04T09:11:38.337Z</time></trkpt><trkpt lat="45.7674117" lon="8.7346126"><ele>365.20000000000005</ele><time>2026-05-04T09:11:40.336Z</time></trkpt><trkpt lat="45.767451" lon="8.7347268"><ele>365.6</ele><time>2026-05-04T09:11:42.337Z</time></trkpt><trkpt lat="45.7674924" lon="8.7348516"><ele>366.0</ele><time>2026-05-04T09:11:44.335Z</time></trkpt><trkpt lat="45.7675307" lon="8.7349723"><ele>366.0</ele><time>2026-05-04T09:11:46.336Z</time></trkpt><trkpt lat="45.7675684" lon="8.7350899"><ele>366.0</ele><time>2026-05-04T09:11:48.337Z</time></trkpt><trkpt lat="45.7676075" lon="8.7352122"><ele>366.0</ele><time>2026-05-04T09:11:50.337Z</time></trkpt><trkpt lat="45.7676476" lon="8.7353325"><ele>366.0</ele><time>2026-05-04T09:11:52.335Z</time></trkpt><trkpt lat="45.7676833" lon="8.7354538"><ele>366.0</ele><time>2026-05-04T09:11:54.337Z</time></trkpt><trkpt lat="45.7677227" lon="8.7355759"><ele>367.6666666666667</ele><time>2026-05-04T09:11:56.335Z</time></trkpt><trkpt lat="45.7677592" lon="8.7356987"><ele>369.3333333333333</ele><time>2026-05-04T09:11:58.337Z</time></trkpt><trkpt lat="45.7677945" lon="8.735819"><ele>371.0</ele><time>2026-05-04T09:12:00.336Z</time></trkpt><trkpt lat="45.7678286" lon="8.735935"><ele>372.66666666666663</ele><time>2026-05-04T09:12:02.336Z</time></trkpt><trkpt lat="45.7678651" lon="8.7360327"><ele>374.3333333333333</ele><time>2026-05-04T09:12:04.337Z</time></trkpt><trkpt lat="45.7678922" lon="8.7361257"><ele>376.0</ele><time>2026-05-04T09:12:06.337Z</time></trkpt><trkpt lat="45.7678625" lon="8.7362156"><ele>376.0</ele><time>2026-05-04T09:12:13.336Z</time></trkpt><trkpt lat="45.7679179" lon="8.7362751"><ele>376.0</ele><time>2026-05-04T09:12:22.336Z</time></trkpt><trkpt lat="45.7679457" lon="8.7363956"><ele>376.0</ele><time>2026-05-04T09:12:24.337Z</time></trkpt><trkpt lat="45.7679812" lon="8.7365331"><ele>376.0</ele><time>2026-05-04T09:12:26.336Z</time></trkpt><trkpt lat="45.7680307" lon="8.7366685"><ele>376.0</ele><time>2026-05-04T09:12:28.336Z</time></trkpt><trkpt lat="45.7680722" lon="8.7367863"><ele>376.16666666666663</ele><time>2026-05-04T09:12:30.336Z</time></trkpt><trkpt lat="45.7681014" lon="8.7368935"><ele>376.3333333333333</ele><time>2026-05-04T09:12:32.335Z</time></trkpt><trkpt lat="45.7681252" lon="8.7369954"><ele>376.5</ele><time>2026-05-04T09:12:34.337Z</time></trkpt><trkpt lat="45.7681573" lon="8.7370986"><ele>376.6666666666667</ele><time>2026-05-04T09:12:36.336Z</time></trkpt><trkpt lat="45.7681923" lon="8.7372005"><ele>376.83333333333337</ele><time>2026-05-04T09:12:38.336Z</time></trkpt><trkpt lat="45.7682217" lon="8.737303"><ele>377.0</ele><time>2026-05-04T09:12:40.336Z</time></trkpt><trkpt lat="45.7682593" lon="8.7374049"><ele>377.0</ele><time>2026-05-04T09:12:42.336Z</time></trkpt><trkpt lat="45.7682935" lon="8.7375083"><ele>377.0</ele><time>2026-05-04T09:12:44.335Z</time></trkpt><trkpt lat="45.7683218" lon="8.7376191"><ele>377.0</ele><time>2026-05-04T09:12:46.336Z</time></trkpt><trkpt lat="45.7683563" lon="8.737728"><ele>377.0</ele><time>2026-05-04T09:12:48.337Z</time></trkpt><trkpt lat="45.7683894" lon="8.7378403"><ele>377.0</ele><time>2026-05-04T09:12:50.336Z</time></trkpt><trkpt lat="45.7684189" lon="8.7379533"><ele>377.0</ele><time>2026-05-04T09:12:52.337Z</time></trkpt><trkpt lat="45.7684482" lon="8.7380688"><ele>376.33333333333337</ele><time>2026-05-04T09:12:54.336Z</time></trkpt><trkpt lat="45.768475" lon="8.7381802"><ele>375.6666666666667</ele><time>2026-05-04T09:12:56.337Z</time></trkpt><trkpt lat="45.7684959" lon="8.7382986"><ele>375.0</ele><time>2026-05-04T09:12:58.336Z</time></trkpt><trkpt lat="45.7685104" lon="8.7384131"><ele>374.3333333333333</ele><time>2026-05-04T09:13:00.336Z</time></trkpt><trkpt lat="45.768526" lon="8.7385307"><ele>373.66666666666663</ele><time>2026-05-04T09:13:02.336Z</time></trkpt><trkpt lat="45.7685389" lon="8.7386562"><ele>373.0</ele><time>2026-05-04T09:13:04.336Z</time></trkpt><trkpt lat="45.7685478" lon="8.7387845"><ele>373.0</ele><time>2026-05-04T09:13:06.337Z</time></trkpt><trkpt lat="45.7685559" lon="8.7389079"><ele>373.0</ele><time>2026-05-04T09:13:08.336Z</time></trkpt><trkpt lat="45.7685661" lon="8.7390297"><ele>373.0</ele><time>2026-05-04T09:13:10.336Z</time></trkpt><trkpt lat="45.7685761" lon="8.7391474"><ele>373.0</ele><time>2026-05-04T09:13:12.336Z</time></trkpt><trkpt lat="45.7685862" lon="8.7392684"><ele>373.0</ele><time>2026-05-04T09:13:14.337Z</time></trkpt><trkpt lat="45.7686014" lon="8.7393875"><ele>373.0</ele><time>2026-05-04T09:13:16.337Z</time></trkpt><trkpt lat="45.7686114" lon="8.7395026"><ele>373.16666666666663</ele><time>2026-05-04T09:13:18.336Z</time></trkpt><trkpt lat="45.7686121" lon="8.7396145"><ele>373.3333333333333</ele><time>2026-05-04T09:13:20.337Z</time></trkpt><trkpt lat="45.7686014" lon="8.7397064"><ele>373.5</ele><time>2026-05-04T09:13:22.337Z</time></trkpt><trkpt lat="45.7685898" lon="8.7398083"><ele>373.6666666666667</ele><time>2026-05-04T09:13:25.337Z</time></trkpt><trkpt lat="45.768611" lon="8.7399077"><ele>373.83333333333337</ele><time>2026-05-04T09:13:27.337Z</time></trkpt><trkpt lat="45.7686542" lon="8.7400375"><ele>374.0</ele><time>2026-05-04T09:13:29.337Z</time></trkpt><trkpt lat="45.7686996" lon="8.7401703"><ele>373.75</ele><time>2026-05-04T09:13:31.336Z</time></trkpt><trkpt lat="45.7687475" lon="8.740307"><ele>373.5</ele><time>2026-05-04T09:13:33.336Z</time></trkpt><trkpt lat="45.7687808" lon="8.7404581"><ele>373.25</ele><time>2026-05-04T09:13:35.337Z</time></trkpt><trkpt lat="45.7688237" lon="8.7406152"><ele>373.0</ele><time>2026-05-04T09:13:37.336Z</time></trkpt><trkpt lat="45.7688793" lon="8.7407818"><ele>373.0</ele><time>2026-05-04T09:13:39.336Z</time></trkpt><trkpt lat="45.7688994" lon="8.740868"><ele>373.0</ele><time>2026-05-04T09:13:40.336Z</time></trkpt><trkpt lat="45.7689215" lon="8.7409587"><ele>373.0</ele><time>2026-05-04T09:13:42.337Z</time></trkpt><trkpt lat="45.7689914" lon="8.7409751"><ele>373.0</ele><time>2026-05-04T09:14:15.336Z</time></trkpt><trkpt lat="45.7690654" lon="8.7409772"><ele>373.0</ele><time>2026-05-04T09:14:17.336Z</time></trkpt><trkpt lat="45.7691656" lon="8.7409458"><ele>373.0</ele><time>2026-05-04T09:14:19.337Z</time></trkpt><trkpt lat="45.7692674" lon="8.7408712"><ele>373.0</ele><time>2026-05-04T09:14:21.336Z</time></trkpt><trkpt lat="45.7693555" lon="8.740747"><ele>373.0</ele><time>2026-05-04T09:14:23.336Z</time></trkpt><trkpt lat="45.7694003" lon="8.7406809"><ele>373.0</ele><time>2026-05-04T09:14:24.337Z</time></trkpt><trkpt lat="45.7694335" lon="8.7405973"><ele>373.0</ele><time>2026-05-04T09:14:25.337Z</time></trkpt><trkpt lat="45.7694599" lon="8.7405056"><ele>373.0</ele><time>2026-05-04T09:14:26.337Z</time></trkpt><trkpt lat="45.7694961" lon="8.7404211"><ele>373.0</ele><time>2026-05-04T09:14:27.337Z</time></trkpt><trkpt lat="45.7695147" lon="8.7403166"><ele>371.57142857142856</ele><time>2026-05-04T09:14:28.336Z</time></trkpt><trkpt lat="45.7695617" lon="8.7402466"><ele>370.14285714285717</ele><time>2026-05-04T09:14:29.336Z</time></trkpt><trkpt lat="45.7696299" lon="8.740221"><ele>368.71428571428567</ele><time>2026-05-04T09:14:30.335Z</time></trkpt><trkpt lat="45.7696916" lon="8.7402774"><ele>367.2857142857143</ele><time>2026-05-04T09:14:31.337Z</time></trkpt><trkpt lat="45.7697315" lon="8.7403682"><ele>365.85714285714283</ele><time>2026-05-04T09:14:32.337Z</time></trkpt><trkpt lat="45.7697657" lon="8.7404673"><ele>364.4285714285714</ele><time>2026-05-04T09:14:33.337Z</time></trkpt><trkpt lat="45.7697824" lon="8.7405838"><ele>363.0</ele><time>2026-05-04T09:14:34.337Z</time></trkpt><trkpt lat="45.7698137" lon="8.7406983"><ele>363.0</ele><time>2026-05-04T09:14:35.335Z</time></trkpt><trkpt lat="45.7698109" lon="8.7408238"><ele>363.0</ele><time>2026-05-04T09:14:36.337Z</time></trkpt><trkpt lat="45.7698313" lon="8.7409215"><ele>363.0</ele><time>2026-05-04T09:14:37.336Z</time></trkpt><trkpt lat="45.7698575" lon="8.7410148"><ele>363.0</ele><time>2026-05-04T09:14:38.337Z</time></trkpt><trkpt lat="45.7699554" lon="8.7411386"><ele>363.0</ele><time>2026-05-04T09:14:40.336Z</time></trkpt><trkpt lat="45.7700218" lon="8.7411619"><ele>363.0</ele><time>2026-05-04T09:14:41.337Z</time></trkpt><trkpt lat="45.7701311" lon="8.7412302"><ele>362.71428571428567</ele><time>2026-05-04T09:14:43.337Z</time></trkpt><trkpt lat="45.770184" lon="8.7412803"><ele>362.42857142857144</ele><time>2026-05-04T09:14:44.336Z</time></trkpt><trkpt lat="45.7702387" lon="8.7413658"><ele>362.1428571428571</ele><time>2026-05-04T09:14:46.337Z</time></trkpt><trkpt lat="45.7703002" lon="8.7413416"><ele>361.85714285714283</ele><time>2026-05-04T09:14:57.336Z</time></trkpt><trkpt lat="45.7703929" lon="8.7413337"><ele>361.57142857142856</ele><time>2026-05-04T09:15:00.336Z</time></trkpt><trkpt lat="45.7704432" lon="8.7413893"><ele>361.2857142857143</ele><time>2026-05-04T09:15:02.336Z</time></trkpt><trkpt lat="45.7704993" lon="8.7414388"><ele>361.0</ele><time>2026-05-04T09:15:04.336Z</time></trkpt><trkpt lat="45.7705825" lon="8.7414374"><ele>360.6</ele><time>2026-05-04T09:15:07.337Z</time></trkpt><trkpt lat="45.7706819" lon="8.7415343"><ele>360.20000000000005</ele><time>2026-05-04T09:15:11.337Z</time></trkpt><trkpt lat="45.7707306" lon="8.7416724"><ele>359.79999999999995</ele><time>2026-05-04T09:15:13.336Z</time></trkpt><trkpt lat="45.7708036" lon="8.7417933"><ele>359.4</ele><time>2026-05-04T09:15:15.336Z</time></trkpt><trkpt lat="45.7708546" lon="8.7418538"><ele>359.0</ele><time>2026-05-04T09:15:16.335Z</time></trkpt><trkpt lat="45.7709201" lon="8.741948"><ele>359.0</ele><time>2026-05-04T09:15:18.336Z</time></trkpt><trkpt lat="45.7709951" lon="8.7419823"><ele>359.0</ele><time>2026-05-04T09:15:20.337Z</time></trkpt><trkpt lat="45.7711377" lon="8.7420012"><ele>359.0</ele><time>2026-05-04T09:15:21.337Z</time></trkpt><trkpt lat="45.7712288" lon="8.7420317"><ele>359.0</ele><time>2026-05-04T09:15:22.335Z</time></trkpt><trkpt lat="45.7713021" lon="8.7420625"><ele>359.0</ele><time>2026-05-04T09:15:23.337Z</time></trkpt><trkpt lat="45.7713793" lon="8.7420794"><ele>354.6</ele><time>2026-05-04T09:15:24.337Z</time></trkpt><trkpt lat="45.7714579" lon="8.7421017"><ele>350.2</ele><time>2026-05-04T09:15:25.337Z</time></trkpt><trkpt lat="45.7715599" lon="8.7421854"><ele>345.8</ele><time>2026-05-04T09:15:27.337Z</time></trkpt><trkpt lat="45.7716154" lon="8.7422905"><ele>341.40000000000003</ele><time>2026-05-04T09:15:28.335Z</time></trkpt><trkpt lat="45.7716641" lon="8.7423942"><ele>337.0</ele><time>2026-05-04T09:15:29.336Z</time></trkpt><trkpt lat="45.7717403" lon="8.7425064"><ele>337.0</ele><time>2026-05-04T09:15:31.337Z</time></trkpt><trkpt lat="45.7718489" lon="8.7426696"><ele>337.0</ele><time>2026-05-04T09:15:33.336Z</time></trkpt><trkpt lat="45.7718937" lon="8.74274"><ele>337.0</ele><time>2026-05-04T09:15:34.337Z</time></trkpt><trkpt lat="45.7719182" lon="8.742885"><ele>337.0</ele><time>2026-05-04T09:15:36.337Z</time></trkpt><trkpt lat="45.7719389" lon="8.7430635"><ele>336.5</ele><time>2026-05-04T09:15:38.337Z</time></trkpt><trkpt lat="45.7718925" lon="8.7431294"><ele>336.0</ele><time>2026-05-04T09:15:39.336Z</time></trkpt><trkpt lat="45.7718635" lon="8.7432167"><ele>335.5</ele><time>2026-05-04T09:15:40.336Z</time></trkpt><trkpt lat="45.7718044" lon="8.7433081"><ele>335.0</ele><time>2026-05-04T09:15:41.337Z</time></trkpt><trkpt lat="45.7717723" lon="8.7433915"><ele>334.5</ele><time>2026-05-04T09:15:42.336Z</time></trkpt><trkpt lat="45.7716859" lon="8.743541"><ele>334.0</ele><time>2026-05-04T09:15:44.336Z</time></trkpt><trkpt lat="45.7716004" lon="8.7436291"><ele>333.66666666666663</ele><time>2026-05-04T09:15:45.336Z</time></trkpt><trkpt lat="45.7715417" lon="8.7436999"><ele>333.3333333333333</ele><time>2026-05-04T09:15:46.336Z</time></trkpt><trkpt lat="45.771466" lon="8.7437708"><ele>333.0</ele><time>2026-05-04T09:15:47.337Z</time></trkpt><trkpt lat="45.7714137" lon="8.7438326"><ele>332.6666666666667</ele><time>2026-05-04T09:15:48.336Z</time></trkpt><trkpt lat="45.7714954" lon="8.7437946"><ele>332.33333333333337</ele><time>2026-05-04T09:15:49.337Z</time></trkpt><trkpt lat="45.7715644" lon="8.7438576"><ele>332.0</ele><time>2026-05-04T09:15:54.336Z</time></trkpt><trkpt lat="45.7716345" lon="8.7438429"><ele>332.0</ele><time>2026-05-04T09:15:57.336Z</time></trkpt><trkpt lat="45.7716988" lon="8.7437923"><ele>332.0</ele><time>2026-05-04T09:16:00.336Z</time></trkpt><trkpt lat="45.7717763" lon="8.7437665"><ele>332.0</ele><time>2026-05-04T09:16:03.337Z</time></trkpt><trkpt lat="45.7718459" lon="8.7438041"><ele>332.0</ele><time>2026-05-04T09:16:05.336Z</time></trkpt><trkpt lat="45.7719239" lon="8.7438849"><ele>332.0</ele><time>2026-05-04T09:16:08.337Z</time></trkpt><trkpt lat="45.7719892" lon="8.743904"><ele>332.0</ele><time>2026-05-04T09:16:10.336Z</time></trkpt><trkpt lat="45.7720513" lon="8.7438852"><ele>333.83333333333337</ele><time>2026-05-04T09:16:12.336Z</time></trkpt><trkpt lat="45.7721253" lon="8.7439312"><ele>335.6666666666667</ele><time>2026-05-04T09:16:14.337Z</time></trkpt><trkpt lat="45.7721768" lon="8.7439906"><ele>337.5</ele><time>2026-05-04T09:16:16.336Z</time></trkpt><trkpt lat="45.7722195" lon="8.7440699"><ele>339.3333333333333</ele><time>2026-05-04T09:16:31.336Z</time></trkpt><trkpt lat="45.7722215" lon="8.7442291"><ele>341.16666666666663</ele><time>2026-05-04T09:16:34.337Z</time></trkpt><trkpt lat="45.7722049" lon="8.7443431"><ele>343.0</ele><time>2026-05-04T09:16:36.336Z</time></trkpt><trkpt lat="45.7722078" lon="8.7444372"><ele>344.3333333333333</ele><time>2026-05-04T09:16:38.336Z</time></trkpt><trkpt lat="45.7722246" lon="8.7445265"><ele>345.66666666666663</ele><time>2026-05-04T09:16:40.336Z</time></trkpt><trkpt lat="45.772241" lon="8.7446369"><ele>347.0</ele><time>2026-05-04T09:16:42.337Z</time></trkpt><trkpt lat="45.7722624" lon="8.7447515"><ele>348.3333333333333</ele><time>2026-05-04T09:16:44.337Z</time></trkpt><trkpt lat="45.7722805" lon="8.7448687"><ele>349.6666666666667</ele><time>2026-05-04T09:16:46.336Z</time></trkpt><trkpt lat="45.7723033" lon="8.7449889"><ele>351.0</ele><time>2026-05-04T09:16:48.336Z</time></trkpt><trkpt lat="45.7723736" lon="8.7450643"><ele>351.00000000000006</ele><time>2026-05-04T09:16:50.337Z</time></trkpt><trkpt lat="45.7724521" lon="8.745052"><ele>351.0</ele><time>2026-05-04T09:16:52.336Z</time></trkpt><trkpt lat="45.7725079" lon="8.7449891"><ele>351.0</ele><time>2026-05-04T09:16:54.335Z</time></trkpt><trkpt lat="45.7725662" lon="8.7449468"><ele>351.0</ele><time>2026-05-04T09:16:56.336Z</time></trkpt><trkpt lat="45.7726333" lon="8.7449241"><ele>351.0</ele><time>2026-05-04T09:16:58.336Z</time></trkpt><trkpt lat="45.7727012" lon="8.7449163"><ele>351.00000000000006</ele><time>2026-05-04T09:17:00.337Z</time></trkpt><trkpt lat="45.7727748" lon="8.7449179"><ele>351.0</ele><time>2026-05-04T09:17:03.335Z</time></trkpt><trkpt lat="45.7728582" lon="8.7449223"><ele>352.1666666666667</ele><time>2026-05-04T09:17:06.335Z</time></trkpt><trkpt lat="45.7729297" lon="8.7449165"><ele>353.3333333333333</ele><time>2026-05-04T09:17:09.335Z</time></trkpt><trkpt lat="45.7729948" lon="8.7449021"><ele>354.5</ele><time>2026-05-04T09:17:12.335Z</time></trkpt><trkpt lat="45.7730794" lon="8.7448951"><ele>355.66666666666663</ele><time>2026-05-04T09:17:15.335Z</time></trkpt><trkpt lat="45.7731693" lon="8.7448883"><ele>356.8333333333333</ele><time>2026-05-04T09:17:18.335Z</time></trkpt><trkpt lat="45.773257" lon="8.7448484"><ele>358.0</ele><time>2026-05-04T09:17:21.336Z</time></trkpt><trkpt lat="45.7733141" lon="8.7447773"><ele>358.0</ele><time>2026-05-04T09:17:23.335Z</time></trkpt><trkpt lat="45.7733678" lon="8.7446983"><ele>358.0</ele><time>2026-05-04T09:17:25.336Z</time></trkpt><trkpt lat="45.7734096" lon="8.7446297"><ele>358.0</ele><time>2026-05-04T09:17:27.336Z</time></trkpt><trkpt lat="45.7734616" lon="8.7445346"><ele>358.0</ele><time>2026-05-04T09:17:30.335Z</time></trkpt><trkpt lat="45.7735135" lon="8.7444249"><ele>358.0</ele><time>2026-05-04T09:17:33.334Z</time></trkpt><trkpt lat="45.7735788" lon="8.7443517"><ele>358.0</ele><time>2026-05-04T09:17:36.335Z</time></trkpt><trkpt lat="45.7736482" lon="8.7443026"><ele>358.66666666666663</ele><time>2026-05-04T09:17:40.336Z</time></trkpt><trkpt lat="45.7737221" lon="8.7442823"><ele>359.3333333333333</ele><time>2026-05-04T09:17:43.336Z</time></trkpt><trkpt lat="45.7738093" lon="8.7442436"><ele>360.0</ele><time>2026-05-04T09:17:46.335Z</time></trkpt><trkpt lat="45.773889" lon="8.7441901"><ele>360.6666666666667</ele><time>2026-05-04T09:17:49.335Z</time></trkpt><trkpt lat="45.7739694" lon="8.7441394"><ele>361.33333333333337</ele><time>2026-05-04T09:17:52.335Z</time></trkpt><trkpt lat="45.7740352" lon="8.7440717"><ele>362.0</ele><time>2026-05-04T09:17:55.335Z</time></trkpt><trkpt lat="45.7740993" lon="8.7440212"><ele>362.0</ele><time>2026-05-04T09:17:58.335Z</time></trkpt><trkpt lat="45.7741806" lon="8.7439978"><ele>362.0</ele><time>2026-05-04T09:18:01.336Z</time></trkpt><trkpt lat="45.7742624" lon="8.7439724"><ele>362.0</ele><time>2026-05-04T09:18:04.335Z</time></trkpt><trkpt lat="45.7743405" lon="8.7439671"><ele>362.0</ele><time>2026-05-04T09:18:07.335Z</time></trkpt><trkpt lat="45.774405" lon="8.7440099"><ele>362.0</ele><time>2026-05-04T09:18:09.335Z</time></trkpt><trkpt lat="45.7744868" lon="8.7440773"><ele>362.0</ele><time>2026-05-04T09:18:12.336Z</time></trkpt><trkpt lat="45.774557" lon="8.7441199"><ele>362.0</ele><time>2026-05-04T09:18:14.335Z</time></trkpt><trkpt lat="45.774626" lon="8.7441988"><ele>362.0</ele><time>2026-05-04T09:18:17.335Z</time></trkpt><trkpt lat="45.7746696" lon="8.744301"><ele>362.0</ele><time>2026-05-04T09:18:20.336Z</time></trkpt><trkpt lat="45.7746454" lon="8.7443861"><ele>362.0</ele><time>2026-05-04T09:18:23.335Z</time></trkpt><trkpt lat="45.7745745" lon="8.7444642"><ele>362.0</ele><time>2026-05-04T09:18:26.335Z</time></trkpt><trkpt lat="45.7745237" lon="8.7445211"><ele>362.0</ele><time>2026-05-04T09:18:28.335Z</time></trkpt><trkpt lat="45.7744637" lon="8.744586"><ele>361.6666666666667</ele><time>2026-05-04T09:18:31.335Z</time></trkpt><trkpt lat="45.7743979" lon="8.7446586"><ele>361.33333333333337</ele><time>2026-05-04T09:18:34.335Z</time></trkpt><trkpt lat="45.7743339" lon="8.7447185"><ele>361.0</ele><time>2026-05-04T09:18:37.335Z</time></trkpt><trkpt lat="45.7742967" lon="8.7448124"><ele>360.6666666666667</ele><time>2026-05-04T09:18:41.334Z</time></trkpt><trkpt lat="45.7742524" lon="8.7449177"><ele>360.3333333333333</ele><time>2026-05-04T09:18:44.336Z</time></trkpt><trkpt lat="45.774214" lon="8.7450301"><ele>360.0</ele><time>2026-05-04T09:18:47.336Z</time></trkpt><trkpt lat="45.774158" lon="8.7451246"><ele>360.8333333333333</ele><time>2026-05-04T09:18:49.335Z</time></trkpt><trkpt lat="45.7740922" lon="8.7452112"><ele>361.6666666666667</ele><time>2026-05-04T09:18:51.335Z</time></trkpt><trkpt lat="45.7740367" lon="8.7453066"><ele>362.5</ele><time>2026-05-04T09:18:53.335Z</time></trkpt><trkpt lat="45.7739942" lon="8.7453759"><ele>363.33333333333337</ele><time>2026-05-04T09:18:54.335Z</time></trkpt><trkpt lat="45.7739331" lon="8.7454676"><ele>364.1666666666667</ele><time>2026-05-04T09:18:56.335Z</time></trkpt><trkpt lat="45.7738759" lon="8.7455636"><ele>365.0</ele><time>2026-05-04T09:18:58.335Z</time></trkpt><trkpt lat="45.7738057" lon="8.7456324"><ele>364.8</ele><time>2026-05-04T09:19:54.336Z</time></trkpt><trkpt lat="45.7737466" lon="8.7457121"><ele>364.6</ele><time>2026-05-04T09:19:56.335Z</time></trkpt><trkpt lat="45.7736706" lon="8.7458086"><ele>364.4</ele><time>2026-05-04T09:19:58.336Z</time></trkpt><trkpt lat="45.7735985" lon="8.7459081"><ele>364.2</ele><time>2026-05-04T09:20:00.335Z</time></trkpt><trkpt lat="45.7735125" lon="8.7459926"><ele>364.0</ele><time>2026-05-04T09:20:02.335Z</time></trkpt><trkpt lat="45.7734355" lon="8.7460771"><ele>363.5</ele><time>2026-05-04T09:20:04.336Z</time></trkpt><trkpt lat="45.7733625" lon="8.7461375"><ele>363.0</ele><time>2026-05-04T09:20:06.336Z</time></trkpt><trkpt lat="45.7733075" lon="8.7462186"><ele>362.5</ele><time>2026-05-04T09:20:12.335Z</time></trkpt><trkpt lat="45.7732507" lon="8.7462886"><ele>362.0</ele><time>2026-05-04T09:20:16.335Z</time></trkpt><trkpt lat="45.773179" lon="8.7463524"><ele>361.5</ele><time>2026-05-04T09:20:20.334Z</time></trkpt><trkpt lat="45.7731279" lon="8.7464058"><ele>361.0</ele><time>2026-05-04T09:20:23.336Z</time></trkpt><trkpt lat="45.7730754" lon="8.7464697"><ele>361.0</ele><time>2026-05-04T09:20:28.335Z</time></trkpt><trkpt lat="45.773114" lon="8.7463802"><ele>361.0</ele><time>2026-05-04T09:20:50.336Z</time></trkpt><trkpt lat="45.773176" lon="8.7463139"><ele>361.0</ele><time>2026-05-04T09:20:54.335Z</time></trkpt><trkpt lat="45.7732427" lon="8.7462186"><ele>361.0</ele><time>2026-05-04T09:20:57.335Z</time></trkpt><trkpt lat="45.7733075" lon="8.7461298"><ele>361.0</ele><time>2026-05-04T09:20:59.335Z</time></trkpt><trkpt lat="45.7733923" lon="8.7460458"><ele>361.0</ele><time>2026-05-04T09:21:01.336Z</time></trkpt><trkpt lat="45.7734834" lon="8.7459513"><ele>359.8</ele><time>2026-05-04T09:21:03.335Z</time></trkpt><trkpt lat="45.7735764" lon="8.7458461"><ele>358.6</ele><time>2026-05-04T09:21:05.335Z</time></trkpt><trkpt lat="45.7736525" lon="8.7457414"><ele>357.4</ele><time>2026-05-04T09:21:07.336Z</time></trkpt><trkpt lat="45.7737371" lon="8.7456432"><ele>356.2</ele><time>2026-05-04T09:21:09.335Z</time></trkpt><trkpt lat="45.7738072" lon="8.7455488"><ele>355.0</ele><time>2026-05-04T09:21:11.335Z</time></trkpt><trkpt lat="45.7738577" lon="8.7454515"><ele>355.0</ele><time>2026-05-04T09:21:13.335Z</time></trkpt><trkpt lat="45.7739054" lon="8.7453765"><ele>355.0</ele><time>2026-05-04T09:21:15.336Z</time></trkpt><trkpt lat="45.7739473" lon="8.7453057"><ele>355.0</ele><time>2026-05-04T09:21:17.335Z</time></trkpt><trkpt lat="45.7740039" lon="8.745265"><ele>355.0</ele><time>2026-05-04T09:21:20.335Z</time></trkpt><trkpt lat="45.7740509" lon="8.745355"><ele>355.0</ele><time>2026-05-04T09:21:24.335Z</time></trkpt><trkpt lat="45.7740967" lon="8.7454283"><ele>355.0</ele><time>2026-05-04T09:21:27.336Z</time></trkpt><trkpt lat="45.7741475" lon="8.7454958"><ele>355.0</ele><time>2026-05-04T09:21:29.335Z</time></trkpt><trkpt lat="45.7742002" lon="8.7455589"><ele>355.0</ele><time>2026-05-04T09:21:31.335Z</time></trkpt><trkpt lat="45.7742431" lon="8.7456433"><ele>355.0</ele><time>2026-05-04T09:21:33.335Z</time></trkpt><trkpt lat="45.7742965" lon="8.7457371"><ele>355.0</ele><time>2026-05-04T09:21:35.336Z</time></trkpt><trkpt lat="45.7743719" lon="8.7458391"><ele>355.0</ele><time>2026-05-04T09:21:37.335Z</time></trkpt><trkpt lat="45.7744208" lon="8.7459493"><ele>355.0</ele><time>2026-05-04T09:21:39.335Z</time></trkpt><trkpt lat="45.7744266" lon="8.7460693"><ele>355.0</ele><time>2026-05-04T09:21:41.335Z</time></trkpt><trkpt lat="45.7744327" lon="8.746167"><ele>352.2</ele><time>2026-05-04T09:21:43.335Z</time></trkpt><trkpt lat="45.7744202" lon="8.7462657"><ele>349.4</ele><time>2026-05-04T09:21:45.335Z</time></trkpt><trkpt lat="45.7743717" lon="8.7464024"><ele>346.6</ele><time>2026-05-04T09:21:47.335Z</time></trkpt><trkpt lat="45.7743303" lon="8.7465776"><ele>343.8</ele><time>2026-05-04T09:21:49.335Z</time></trkpt><trkpt lat="45.7743183" lon="8.7466737"><ele>341.0</ele><time>2026-05-04T09:21:50.336Z</time></trkpt><trkpt lat="45.7743136" lon="8.7468192"><ele>338.85714285714283</ele><time>2026-05-04T09:21:52.335Z</time></trkpt><trkpt lat="45.7743392" lon="8.7469118"><ele>336.7142857142857</ele><time>2026-05-04T09:21:54.336Z</time></trkpt><trkpt lat="45.7744045" lon="8.7468662"><ele>334.57142857142856</ele><time>2026-05-04T09:22:07.335Z</time></trkpt><trkpt lat="45.7744583" lon="8.7468019"><ele>332.42857142857144</ele><time>2026-05-04T09:22:10.336Z</time></trkpt><trkpt lat="45.7745072" lon="8.7466969"><ele>330.2857142857143</ele><time>2026-05-04T09:22:13.335Z</time></trkpt><trkpt lat="45.7745557" lon="8.7466219"><ele>328.14285714285717</ele><time>2026-05-04T09:22:16.335Z</time></trkpt><trkpt lat="45.7746018" lon="8.7465568"><ele>326.0</ele><time>2026-05-04T09:22:18.336Z</time></trkpt><trkpt lat="45.7747425" lon="8.7465804"><ele>325.6666666666667</ele><time>2026-05-04T09:22:21.336Z</time></trkpt><trkpt lat="45.7747975" lon="8.7466326"><ele>325.33333333333337</ele><time>2026-05-04T09:22:22.335Z</time></trkpt><trkpt lat="45.774857" lon="8.7466993"><ele>325.0</ele><time>2026-05-04T09:22:23.335Z</time></trkpt><trkpt lat="45.7749074" lon="8.7467674"><ele>324.6666666666667</ele><time>2026-05-04T09:22:24.335Z</time></trkpt><trkpt lat="45.7749425" lon="8.7468819"><ele>324.3333333333333</ele><time>2026-05-04T09:22:25.335Z</time></trkpt><trkpt lat="45.774964" lon="8.7469989"><ele>324.0</ele><time>2026-05-04T09:22:26.336Z</time></trkpt><trkpt lat="45.7749733" lon="8.7471253"><ele>324.1666666666667</ele><time>2026-05-04T09:22:27.335Z</time></trkpt><trkpt lat="45.7749839" lon="8.7472509"><ele>324.3333333333333</ele><time>2026-05-04T09:22:28.336Z</time></trkpt><trkpt lat="45.7750132" lon="8.7473611"><ele>324.5</ele><time>2026-05-04T09:22:29.335Z</time></trkpt><trkpt lat="45.7750725" lon="8.7474098"><ele>324.66666666666663</ele><time>2026-05-04T09:22:30.336Z</time></trkpt><trkpt lat="45.7751502" lon="8.7475159"><ele>324.8333333333333</ele><time>2026-05-04T09:22:32.335Z</time></trkpt><trkpt lat="45.7752329" lon="8.7474794"><ele>325.0</ele><time>2026-05-04T09:22:34.335Z</time></trkpt><trkpt lat="45.775331" lon="8.7474806"><ele>325.0</ele><time>2026-05-04T09:22:36.335Z</time></trkpt><trkpt lat="45.775416" lon="8.7474778"><ele>325.0</ele><time>2026-05-04T09:22:38.336Z</time></trkpt><trkpt lat="45.7754983" lon="8.747485"><ele>325.0</ele><time>2026-05-04T09:22:40.336Z</time></trkpt><trkpt lat="45.775586" lon="8.7475476"><ele>325.0</ele><time>2026-05-04T09:22:42.335Z</time></trkpt><trkpt lat="45.7756537" lon="8.7475959"><ele>325.0</ele><time>2026-05-04T09:22:44.336Z</time></trkpt><trkpt lat="45.7757191" lon="8.7476756"><ele>325.0</ele><time>2026-05-04T09:22:46.336Z</time></trkpt><trkpt lat="45.7757752" lon="8.747775"><ele>323.66666666666663</ele><time>2026-05-04T09:22:48.335Z</time></trkpt><trkpt lat="45.7758284" lon="8.7478702"><ele>322.3333333333333</ele><time>2026-05-04T09:22:50.334Z</time></trkpt><trkpt lat="45.7758751" lon="8.747948"><ele>321.0</ele><time>2026-05-04T09:22:52.335Z</time></trkpt><trkpt lat="45.7759203" lon="8.7480467"><ele>319.6666666666667</ele><time>2026-05-04T09:22:54.335Z</time></trkpt><trkpt lat="45.7759528" lon="8.7481614"><ele>318.33333333333337</ele><time>2026-05-04T09:22:56.335Z</time></trkpt><trkpt lat="45.7759846" lon="8.7482955"><ele>317.0</ele><time>2026-05-04T09:22:58.336Z</time></trkpt><trkpt lat="45.7760016" lon="8.7484293"><ele>315.5</ele><time>2026-05-04T09:23:00.336Z</time></trkpt><trkpt lat="45.7760169" lon="8.748558"><ele>314.0</ele><time>2026-05-04T09:23:02.336Z</time></trkpt><trkpt lat="45.776036" lon="8.7486861"><ele>312.5</ele><time>2026-05-04T09:23:04.335Z</time></trkpt><trkpt lat="45.7760733" lon="8.748806"><ele>311.0</ele><time>2026-05-04T09:23:06.335Z</time></trkpt><trkpt lat="45.7761031" lon="8.7489019"><ele>309.5</ele><time>2026-05-04T09:23:08.335Z</time></trkpt><trkpt lat="45.776103" lon="8.7490381"><ele>308.0</ele><time>2026-05-04T09:23:11.335Z</time></trkpt><trkpt lat="45.7760646" lon="8.7491644"><ele>309.4</ele><time>2026-05-04T09:23:13.336Z</time></trkpt><trkpt lat="45.7760261" lon="8.749248"><ele>310.8</ele><time>2026-05-04T09:23:14.335Z</time></trkpt><trkpt lat="45.7759607" lon="8.7493772"><ele>312.2</ele><time>2026-05-04T09:23:16.336Z</time></trkpt><trkpt lat="45.7758791" lon="8.7494108"><ele>313.6</ele><time>2026-05-04T09:23:18.335Z</time></trkpt><trkpt lat="45.7757703" lon="8.7494038"><ele>315.0</ele><time>2026-05-04T09:23:20.335Z</time></trkpt><trkpt lat="45.7756475" lon="8.7494145"><ele>315.0</ele><time>2026-05-04T09:23:22.335Z</time></trkpt><trkpt lat="45.7755317" lon="8.7494267"><ele>315.0</ele><time>2026-05-04T09:23:24.335Z</time></trkpt><trkpt lat="45.775423" lon="8.7494501"><ele>315.0</ele><time>2026-05-04T09:23:26.336Z</time></trkpt><trkpt lat="45.7753199" lon="8.7494922"><ele>315.0</ele><time>2026-05-04T09:23:28.336Z</time></trkpt><trkpt lat="45.775231" lon="8.7495172"><ele>315.0</ele><time>2026-05-04T09:23:30.335Z</time></trkpt><trkpt lat="45.7751436" lon="8.7495444"><ele>314.0</ele><time>2026-05-04T09:23:32.335Z</time></trkpt><trkpt lat="45.7750416" lon="8.7495927"><ele>313.0</ele><time>2026-05-04T09:23:34.335Z</time></trkpt><trkpt lat="45.7749572" lon="8.7496521"><ele>312.0</ele><time>2026-05-04T09:23:36.335Z</time></trkpt><trkpt lat="45.7748859" lon="8.7497358"><ele>311.0</ele><time>2026-05-04T09:23:39.335Z</time></trkpt><trkpt lat="45.7748181" lon="8.7498271"><ele>310.0</ele><time>2026-05-04T09:23:41.336Z</time></trkpt><trkpt lat="45.7747429" lon="8.749909"><ele>310.0</ele><time>2026-05-04T09:23:43.335Z</time></trkpt><trkpt lat="45.774683" lon="8.7499548"><ele>310.0</ele><time>2026-05-04T09:23:44.336Z</time></trkpt><trkpt lat="45.7746097" lon="8.7500341"><ele>310.0</ele><time>2026-05-04T09:23:46.336Z</time></trkpt><trkpt lat="45.7745073" lon="8.7501537"><ele>310.0</ele><time>2026-05-04T09:23:48.335Z</time></trkpt><trkpt lat="45.774418" lon="8.7502536"><ele>310.0</ele><time>2026-05-04T09:23:50.335Z</time></trkpt><trkpt lat="45.7743111" lon="8.7503488"><ele>310.6</ele><time>2026-05-04T09:23:52.335Z</time></trkpt><trkpt lat="45.7742279" lon="8.7504519"><ele>311.2</ele><time>2026-05-04T09:23:54.335Z</time></trkpt><trkpt lat="45.7741543" lon="8.7505495"><ele>311.8</ele><time>2026-05-04T09:23:56.335Z</time></trkpt><trkpt lat="45.7740763" lon="8.7506584"><ele>312.4</ele><time>2026-05-04T09:23:58.335Z</time></trkpt><trkpt lat="45.7739792" lon="8.7507707"><ele>313.0</ele><time>2026-05-04T09:24:00.335Z</time></trkpt><trkpt lat="45.7739179" lon="8.7508285"><ele>313.0</ele><time>2026-05-04T09:24:01.336Z</time></trkpt><trkpt lat="45.7738554" lon="8.7508782"><ele>313.0</ele><time>2026-05-04T09:24:02.335Z</time></trkpt><trkpt lat="45.7737615" lon="8.7509447"><ele>313.0</ele><time>2026-05-04T09:24:04.335Z</time></trkpt><trkpt lat="45.7737008" lon="8.7510185"><ele>313.0</ele><time>2026-05-04T09:24:06.335Z</time></trkpt><trkpt lat="45.7736479" lon="8.7511047"><ele>313.0</ele><time>2026-05-04T09:24:08.336Z</time></trkpt><trkpt lat="45.7735852" lon="8.751183"><ele>313.0</ele><time>2026-05-04T09:24:10.336Z</time></trkpt><trkpt lat="45.7734968" lon="8.7512976"><ele>312.5</ele><time>2026-05-04T09:24:12.335Z</time></trkpt><trkpt lat="45.7734441" lon="8.7513602"><ele>312.0</ele><time>2026-05-04T09:24:13.335Z</time></trkpt><trkpt lat="45.7733837" lon="8.7514244"><ele>311.5</ele><time>2026-05-04T09:24:14.335Z</time></trkpt><trkpt lat="45.7733248" lon="8.7514865"><ele>311.0</ele><time>2026-05-04T09:24:15.336Z</time></trkpt><trkpt lat="45.7732694" lon="8.7515462"><ele>310.5</ele><time>2026-05-04T09:24:16.335Z</time></trkpt><trkpt lat="45.7732157" lon="8.7516089"><ele>310.0</ele><time>2026-05-04T09:24:17.335Z</time></trkpt><trkpt lat="45.7731405" lon="8.7517108"><ele>310.0</ele><time>2026-05-04T09:24:19.336Z</time></trkpt><trkpt lat="45.7730901" lon="8.7517667"><ele>310.0</ele><time>2026-05-04T09:24:20.335Z</time></trkpt><trkpt lat="45.7730328" lon="8.7518444"><ele>310.0</ele><time>2026-05-04T09:24:21.335Z</time></trkpt><trkpt lat="45.7729882" lon="8.7519112"><ele>310.0</ele><time>2026-05-04T09:24:22.335Z</time></trkpt><trkpt lat="45.7729395" lon="8.7519754"><ele>310.0</ele><time>2026-05-04T09:24:23.336Z</time></trkpt><trkpt lat="45.7728458" lon="8.7521161"><ele>310.0</ele><time>2026-05-04T09:24:25.335Z</time></trkpt><trkpt lat="45.7727843" lon="8.7522025"><ele>308.8</ele><time>2026-05-04T09:24:26.335Z</time></trkpt><trkpt lat="45.7727212" lon="8.7522822"><ele>307.6</ele><time>2026-05-04T09:24:27.335Z</time></trkpt><trkpt lat="45.772679" lon="8.7523615"><ele>306.4</ele><time>2026-05-04T09:24:28.336Z</time></trkpt><trkpt lat="45.7725973" lon="8.7524947"><ele>305.2</ele><time>2026-05-04T09:24:30.335Z</time></trkpt><trkpt lat="45.7725507" lon="8.7526269"><ele>304.0</ele><time>2026-05-04T09:24:32.335Z</time></trkpt><trkpt lat="45.772491" lon="8.7527561"><ele>307.4</ele><time>2026-05-04T09:24:34.335Z</time></trkpt><trkpt lat="45.7724318" lon="8.7528752"><ele>310.79999999999995</ele><time>2026-05-04T09:24:36.335Z</time></trkpt><trkpt lat="45.7723729" lon="8.7529533"><ele>314.20000000000005</ele><time>2026-05-04T09:24:38.335Z</time></trkpt><trkpt lat="45.772281" lon="8.7529582"><ele>317.6</ele><time>2026-05-04T09:24:40.335Z</time></trkpt><trkpt lat="45.7722101" lon="8.7529666"><ele>321.0</ele><time>2026-05-04T09:24:42.336Z</time></trkpt><trkpt lat="45.7720877" lon="8.7529949"><ele>321.0</ele><time>2026-05-04T09:24:44.335Z</time></trkpt><trkpt lat="45.7719752" lon="8.7530508"><ele>321.0</ele><time>2026-05-04T09:24:46.335Z</time></trkpt><trkpt lat="45.7718668" lon="8.7530641"><ele>321.0</ele><time>2026-05-04T09:24:48.336Z</time></trkpt><trkpt lat="45.7717688" lon="8.7530906"><ele>321.0</ele><time>2026-05-04T09:24:50.335Z</time></trkpt><trkpt lat="45.7716897" lon="8.7531202"><ele>321.0</ele><time>2026-05-04T09:24:52.334Z</time></trkpt><trkpt lat="45.7716044" lon="8.7531691"><ele>322.6666666666667</ele><time>2026-05-04T09:25:15.336Z</time></trkpt><trkpt lat="45.7715201" lon="8.7532144"><ele>324.3333333333333</ele><time>2026-05-04T09:25:18.335Z</time></trkpt><trkpt lat="45.7714606" lon="8.7532761"><ele>326.0</ele><time>2026-05-04T09:25:20.336Z</time></trkpt><trkpt lat="45.7713665" lon="8.7533718"><ele>327.66666666666663</ele><time>2026-05-04T09:25:22.335Z</time></trkpt><trkpt lat="45.771313" lon="8.753428"><ele>329.3333333333333</ele><time>2026-05-04T09:25:23.336Z</time></trkpt><trkpt lat="45.7712483" lon="8.7534944"><ele>331.0</ele><time>2026-05-04T09:25:24.336Z</time></trkpt><trkpt lat="45.7711831" lon="8.7535466"><ele>331.0</ele><time>2026-05-04T09:25:25.336Z</time></trkpt><trkpt lat="45.7711185" lon="8.7535946"><ele>331.0</ele><time>2026-05-04T09:25:26.335Z</time></trkpt><trkpt lat="45.7710583" lon="8.7536404"><ele>331.0</ele><time>2026-05-04T09:25:27.335Z</time></trkpt><trkpt lat="45.7710039" lon="8.7536866"><ele>331.0</ele><time>2026-05-04T09:25:28.335Z</time></trkpt><trkpt lat="45.7709472" lon="8.7537282"><ele>331.0</ele><time>2026-05-04T09:25:29.334Z</time></trkpt><trkpt lat="45.7708918" lon="8.7537744"><ele>331.0</ele><time>2026-05-04T09:25:30.336Z</time></trkpt><trkpt lat="45.7708262" lon="8.7538404"><ele>331.0</ele><time>2026-05-04T09:25:32.335Z</time></trkpt><trkpt lat="45.7707583" lon="8.753882"><ele>327.0</ele><time>2026-05-04T09:25:34.336Z</time></trkpt><trkpt lat="45.7706974" lon="8.7539123"><ele>323.0</ele><time>2026-05-04T09:25:35.335Z</time></trkpt><trkpt lat="45.7705958" lon="8.753986"><ele>319.0</ele><time>2026-05-04T09:25:37.335Z</time></trkpt><trkpt lat="45.7704882" lon="8.7540946"><ele>315.0</ele><time>2026-05-04T09:25:39.335Z</time></trkpt><trkpt lat="45.7704349" lon="8.7541509"><ele>311.0</ele><time>2026-05-04T09:25:40.335Z</time></trkpt><trkpt lat="45.7703636" lon="8.7542743"><ele>312.0</ele><time>2026-05-04T09:25:42.336Z</time></trkpt><trkpt lat="45.7703552" lon="8.7544026"><ele>313.0</ele><time>2026-05-04T09:25:44.334Z</time></trkpt><trkpt lat="45.7703671" lon="8.7545294"><ele>314.0</ele><time>2026-05-04T09:25:46.336Z</time></trkpt><trkpt lat="45.7703871" lon="8.7546462"><ele>315.0</ele><time>2026-05-04T09:25:48.335Z</time></trkpt><trkpt lat="45.770413" lon="8.7547808"><ele>316.0</ele><time>2026-05-04T09:25:50.336Z</time></trkpt><trkpt lat="45.7704378" lon="8.754935"><ele>316.0</ele><time>2026-05-04T09:25:52.336Z</time></trkpt><trkpt lat="45.7704593" lon="8.7550997"><ele>316.0</ele><time>2026-05-04T09:25:54.336Z</time></trkpt><trkpt lat="45.7704914" lon="8.7552572"><ele>316.0</ele><time>2026-05-04T09:25:56.335Z</time></trkpt><trkpt lat="45.7705144" lon="8.7554213"><ele>316.0</ele><time>2026-05-04T09:25:58.335Z</time></trkpt><trkpt lat="45.7705452" lon="8.7555938"><ele>315.0</ele><time>2026-05-04T09:26:00.335Z</time></trkpt><trkpt lat="45.7705647" lon="8.7557391"><ele>314.0</ele><time>2026-05-04T09:26:02.335Z</time></trkpt><trkpt lat="45.7705954" lon="8.7558777"><ele>313.0</ele><time>2026-05-04T09:26:04.336Z</time></trkpt><trkpt lat="45.7706011" lon="8.7559903"><ele>312.0</ele><time>2026-05-04T09:26:06.335Z</time></trkpt><trkpt lat="45.7704989" lon="8.756042"><ele>311.0</ele><time>2026-05-04T09:26:08.336Z</time></trkpt><trkpt lat="45.7704319" lon="8.7560541"><ele>307.5</ele><time>2026-05-04T09:26:09.335Z</time></trkpt><trkpt lat="45.7703129" lon="8.7560587"><ele>304.0</ele><time>2026-05-04T09:26:11.336Z</time></trkpt><trkpt lat="45.770196" lon="8.7561064"><ele>300.5</ele><time>2026-05-04T09:26:13.336Z</time></trkpt><trkpt lat="45.7700871" lon="8.7561613"><ele>297.0</ele><time>2026-05-04T09:26:15.335Z</time></trkpt><trkpt lat="45.7699697" lon="8.7562191"><ele>295.6</ele><time>2026-05-04T09:26:17.335Z</time></trkpt><trkpt lat="45.7698556" lon="8.756258"><ele>294.2</ele><time>2026-05-04T09:26:19.335Z</time></trkpt><trkpt lat="45.7697469" lon="8.7562856"><ele>292.8</ele><time>2026-05-04T09:26:21.335Z</time></trkpt><trkpt lat="45.7696411" lon="8.7562875"><ele>291.4</ele><time>2026-05-04T09:26:23.335Z</time></trkpt><trkpt lat="45.7695381" lon="8.7562587"><ele>290.0</ele><time>2026-05-04T09:26:25.335Z</time></trkpt><trkpt lat="45.7694463" lon="8.756206"><ele>290.1666666666667</ele><time>2026-05-04T09:26:27.335Z</time></trkpt><trkpt lat="45.7693579" lon="8.7561516"><ele>290.33333333333337</ele><time>2026-05-04T09:26:29.335Z</time></trkpt><trkpt lat="45.7692771" lon="8.7560889"><ele>290.5</ele><time>2026-05-04T09:26:31.335Z</time></trkpt><trkpt lat="45.7691976" lon="8.7560287"><ele>290.6666666666667</ele><time>2026-05-04T09:26:33.335Z</time></trkpt><trkpt lat="45.7691269" lon="8.7559699"><ele>290.8333333333333</ele><time>2026-05-04T09:26:35.336Z</time></trkpt><trkpt lat="45.769057" lon="8.7558906"><ele>291.0</ele><time>2026-05-04T09:26:37.336Z</time></trkpt><trkpt lat="45.7689544" lon="8.7558378"><ele>291.0</ele><time>2026-05-04T09:26:39.335Z</time></trkpt><trkpt lat="45.7688391" lon="8.7558151"><ele>291.0</ele><time>2026-05-04T09:26:41.335Z</time></trkpt><trkpt lat="45.7687273" lon="8.7557866"><ele>291.0</ele><time>2026-05-04T09:26:43.335Z</time></trkpt><trkpt lat="45.7686179" lon="8.7557666"><ele>291.0</ele><time>2026-05-04T09:26:45.335Z</time></trkpt><trkpt lat="45.7685028" lon="8.7557504"><ele>291.0</ele><time>2026-05-04T09:26:47.336Z</time></trkpt><trkpt lat="45.7683818" lon="8.7557348"><ele>291.0</ele><time>2026-05-04T09:26:49.336Z</time></trkpt><trkpt lat="45.7682593" lon="8.7557173"><ele>291.0</ele><time>2026-05-04T09:26:51.335Z</time></trkpt><trkpt lat="45.7681478" lon="8.7556929"><ele>291.0</ele><time>2026-05-04T09:26:53.336Z</time></trkpt><trkpt lat="45.7680226" lon="8.7556741"><ele>291.0</ele><time>2026-05-04T09:26:55.336Z</time></trkpt><trkpt lat="45.7679093" lon="8.7556553"><ele>291.0</ele><time>2026-05-04T09:26:57.335Z</time></trkpt><trkpt lat="45.7678078" lon="8.7556367"><ele>291.0</ele><time>2026-05-04T09:26:59.336Z</time></trkpt><trkpt lat="45.7677181" lon="8.7556276"><ele>291.0</ele><time>2026-05-04T09:27:01.335Z</time></trkpt><trkpt lat="45.767624" lon="8.7556176"><ele>291.0</ele><time>2026-05-04T09:27:03.335Z</time></trkpt><trkpt lat="45.7675263" lon="8.7556117"><ele>290.8</ele><time>2026-05-04T09:27:05.336Z</time></trkpt><trkpt lat="45.7674224" lon="8.7556029"><ele>290.6</ele><time>2026-05-04T09:27:07.334Z</time></trkpt><trkpt lat="45.767316" lon="8.7555759"><ele>290.4</ele><time>2026-05-04T09:27:09.335Z</time></trkpt><trkpt lat="45.767223" lon="8.7555452"><ele>290.2</ele><time>2026-05-04T09:27:11.335Z</time></trkpt><trkpt lat="45.7671243" lon="8.7555128"><ele>290.0</ele><time>2026-05-04T09:27:13.335Z</time></trkpt><trkpt lat="45.7670244" lon="8.7554643"><ele>290.0</ele><time>2026-05-04T09:27:15.335Z</time></trkpt><trkpt lat="45.7669214" lon="8.7554212"><ele>290.0</ele><time>2026-05-04T09:27:17.335Z</time></trkpt><trkpt lat="45.7668207" lon="8.7553753"><ele>290.0</ele><time>2026-05-04T09:27:19.335Z</time></trkpt><trkpt lat="45.7667216" lon="8.7553424"><ele>290.0</ele><time>2026-05-04T09:27:21.336Z</time></trkpt><trkpt lat="45.7666317" lon="8.755307"><ele>290.0</ele><time>2026-05-04T09:27:23.335Z</time></trkpt><trkpt lat="45.7665534" lon="8.755269"><ele>290.5</ele><time>2026-05-04T09:27:25.335Z</time></trkpt><trkpt lat="45.7664854" lon="8.7552367"><ele>291.0</ele><time>2026-05-04T09:27:27.335Z</time></trkpt><trkpt lat="45.7664106" lon="8.7552749"><ele>291.5</ele><time>2026-05-04T09:27:30.336Z</time></trkpt><trkpt lat="45.7663743" lon="8.7553998"><ele>292.0</ele><time>2026-05-04T09:27:33.336Z</time></trkpt><trkpt lat="45.7663346" lon="8.7555059"><ele>292.5</ele><time>2026-05-04T09:27:35.335Z</time></trkpt><trkpt lat="45.7662793" lon="8.7556158"><ele>293.0</ele><time>2026-05-04T09:27:37.335Z</time></trkpt><trkpt lat="45.7662099" lon="8.755703"><ele>293.0</ele><time>2026-05-04T09:27:39.334Z</time></trkpt><trkpt lat="45.7661415" lon="8.7557554"><ele>293.0</ele><time>2026-05-04T09:27:41.335Z</time></trkpt><trkpt lat="45.7660814" lon="8.7557915"><ele>293.0</ele><time>2026-05-04T09:27:43.335Z</time></trkpt><trkpt lat="45.7659979" lon="8.7558151"><ele>293.0</ele><time>2026-05-04T09:27:46.335Z</time></trkpt><trkpt lat="45.7659113" lon="8.755805"><ele>293.0</ele><time>2026-05-04T09:27:49.335Z</time></trkpt><trkpt lat="45.7658376" lon="8.7557765"><ele>293.0</ele><time>2026-05-04T09:27:52.335Z</time></trkpt><trkpt lat="45.7657735" lon="8.7557874"><ele>292.99999999999994</ele><time>2026-05-04T09:27:55.336Z</time></trkpt><trkpt lat="45.765705" lon="8.7558449"><ele>293.0</ele><time>2026-05-04T09:27:59.335Z</time></trkpt><trkpt lat="45.7657707" lon="8.7557855"><ele>293.0</ele><time>2026-05-04T09:28:17.335Z</time></trkpt><trkpt lat="45.7658495" lon="8.7557823"><ele>293.0</ele><time>2026-05-04T09:28:20.336Z</time></trkpt><trkpt lat="45.765904" lon="8.755843"><ele>293.0</ele><time>2026-05-04T09:28:23.336Z</time></trkpt><trkpt lat="45.7659246" lon="8.7559468"><ele>292.99999999999994</ele><time>2026-05-04T09:28:26.335Z</time></trkpt><trkpt lat="45.7659169" lon="8.7560376"><ele>293.0</ele><time>2026-05-04T09:28:29.335Z</time></trkpt><trkpt lat="45.7658989" lon="8.7561358"><ele>293.0</ele><time>2026-05-04T09:28:32.336Z</time></trkpt><trkpt lat="45.7658747" lon="8.756266"><ele>293.0</ele><time>2026-05-04T09:28:35.335Z</time></trkpt><trkpt lat="45.7658679" lon="8.7563651"><ele>293.0</ele><time>2026-05-04T09:28:37.336Z</time></trkpt><trkpt lat="45.7658675" lon="8.7564634"><ele>293.0</ele><time>2026-05-04T09:28:39.334Z</time></trkpt><trkpt lat="45.7658778" lon="8.7565568"><ele>293.0</ele><time>2026-05-04T09:28:41.335Z</time></trkpt><trkpt lat="45.7658807" lon="8.756686"><ele>293.0</ele><time>2026-05-04T09:28:44.335Z</time></trkpt><trkpt lat="45.7658785" lon="8.7567904"><ele>292.99999999999994</ele><time>2026-05-04T09:28:47.335Z</time></trkpt><trkpt lat="45.765844" lon="8.7568659"><ele>293.0</ele><time>2026-05-04T09:28:50.335Z</time></trkpt><trkpt lat="45.7657727" lon="8.7568881"><ele>293.0</ele><time>2026-05-04T09:28:53.335Z</time></trkpt><trkpt lat="45.7657034" lon="8.756924"><ele>293.0</ele><time>2026-05-04T09:28:57.335Z</time></trkpt><trkpt lat="45.765664" lon="8.7569963"><ele>293.0</ele><time>2026-05-04T09:29:34.336Z</time></trkpt><trkpt lat="45.7656722" lon="8.7571037"><ele>292.99999999999994</ele><time>2026-05-04T09:30:12.335Z</time></trkpt><trkpt lat="45.7656453" lon="8.7571961"><ele>293.0</ele><time>2026-05-04T09:30:15.336Z</time></trkpt><trkpt lat="45.7656341" lon="8.7573237"><ele>293.1666666666667</ele><time>2026-05-04T09:30:18.337Z</time></trkpt><trkpt lat="45.7656405" lon="8.757432"><ele>293.33333333333337</ele><time>2026-05-04T09:30:20.336Z</time></trkpt><trkpt lat="45.765628" lon="8.7575455"><ele>293.5</ele><time>2026-05-04T09:30:22.336Z</time></trkpt><trkpt lat="45.7655878" lon="8.7576426"><ele>293.6666666666667</ele><time>2026-05-04T09:30:24.335Z</time></trkpt><trkpt lat="45.765564" lon="8.757749"><ele>293.8333333333333</ele><time>2026-05-04T09:30:26.335Z</time></trkpt><trkpt lat="45.7655344" lon="8.7578659"><ele>294.0</ele><time>2026-05-04T09:30:28.335Z</time></trkpt><trkpt lat="45.7655011" lon="8.757986"><ele>294.1666666666667</ele><time>2026-05-04T09:30:30.336Z</time></trkpt><trkpt lat="45.7654661" lon="8.7580838"><ele>294.3333333333333</ele><time>2026-05-04T09:30:32.335Z</time></trkpt><trkpt lat="45.7654318" lon="8.7581793"><ele>294.5</ele><time>2026-05-04T09:30:34.335Z</time></trkpt><trkpt lat="45.7654015" lon="8.7582837"><ele>294.66666666666663</ele><time>2026-05-04T09:30:36.335Z</time></trkpt><trkpt lat="45.7654186" lon="8.7583985"><ele>294.8333333333333</ele><time>2026-05-04T09:30:38.335Z</time></trkpt><trkpt lat="45.7654303" lon="8.7585105"><ele>295.0</ele><time>2026-05-04T09:30:40.335Z</time></trkpt><trkpt lat="45.7654015" lon="8.7586144"><ele>295.16666666666663</ele><time>2026-05-04T09:30:42.336Z</time></trkpt><trkpt lat="45.7653442" lon="8.7586932"><ele>295.3333333333333</ele><time>2026-05-04T09:30:44.335Z</time></trkpt><trkpt lat="45.7652783" lon="8.7587574"><ele>295.5</ele><time>2026-05-04T09:30:46.335Z</time></trkpt><trkpt lat="45.7652069" lon="8.7588242"><ele>295.6666666666667</ele><time>2026-05-04T09:30:48.335Z</time></trkpt><trkpt lat="45.7651367" lon="8.7588982"><ele>295.83333333333337</ele><time>2026-05-04T09:30:50.336Z</time></trkpt><trkpt lat="45.7650826" lon="8.758978"><ele>296.0</ele><time>2026-05-04T09:30:52.335Z</time></trkpt><trkpt lat="45.7650327" lon="8.7590436"><ele>297.0</ele><time>2026-05-04T09:30:54.335Z</time></trkpt><trkpt lat="45.7649662" lon="8.7591168"><ele>298.0</ele><time>2026-05-04T09:30:57.335Z</time></trkpt><trkpt lat="45.7649391" lon="8.7592075"><ele>299.0</ele><time>2026-05-04T09:31:00.336Z</time></trkpt><trkpt lat="45.7649427" lon="8.7593238"><ele>300.0</ele><time>2026-05-04T09:31:03.336Z</time></trkpt><trkpt lat="45.7649466" lon="8.759435"><ele>301.0</ele><time>2026-05-04T09:31:06.336Z</time></trkpt><trkpt lat="45.7649466" lon="8.7595427"><ele>302.0</ele><time>2026-05-04T09:31:08.335Z</time></trkpt><trkpt lat="45.7649561" lon="8.7596497"><ele>302.1666666666667</ele><time>2026-05-04T09:31:10.336Z</time></trkpt><trkpt lat="45.7649793" lon="8.759784"><ele>302.33333333333337</ele><time>2026-05-04T09:31:13.336Z</time></trkpt><trkpt lat="45.7649872" lon="8.7598863"><ele>302.5</ele><time>2026-05-04T09:31:15.334Z</time></trkpt><trkpt lat="45.7650035" lon="8.7599947"><ele>302.6666666666667</ele><time>2026-05-04T09:31:17.335Z</time></trkpt><trkpt lat="45.765031" lon="8.7601147"><ele>302.8333333333333</ele><time>2026-05-04T09:31:20.335Z</time></trkpt><trkpt lat="45.7650425" lon="8.7602257"><ele>303.0</ele><time>2026-05-04T09:31:22.335Z</time></trkpt><trkpt lat="45.7650513" lon="8.7603243"><ele>303.6666666666667</ele><time>2026-05-04T09:31:24.335Z</time></trkpt><trkpt lat="45.7650659" lon="8.7604478"><ele>304.3333333333333</ele><time>2026-05-04T09:31:27.334Z</time></trkpt><trkpt lat="45.7650847" lon="8.7605526"><ele>305.0</ele><time>2026-05-04T09:31:30.335Z</time></trkpt><trkpt lat="45.7650942" lon="8.7606457"><ele>305.66666666666663</ele><time>2026-05-04T09:31:32.334Z</time></trkpt><trkpt lat="45.7651067" lon="8.7607441"><ele>306.3333333333333</ele><time>2026-05-04T09:31:34.333Z</time></trkpt><trkpt lat="45.7651373" lon="8.7608662"><ele>307.0</ele><time>2026-05-04T09:31:37.334Z</time></trkpt><trkpt lat="45.7651529" lon="8.7609611"><ele>306.3333333333333</ele><time>2026-05-04T09:31:39.334Z</time></trkpt><trkpt lat="45.7651644" lon="8.7610632"><ele>305.66666666666663</ele><time>2026-05-04T09:31:41.335Z</time></trkpt><trkpt lat="45.7651264" lon="8.7611704"><ele>305.0</ele><time>2026-05-04T09:31:44.334Z</time></trkpt><trkpt lat="45.7650766" lon="8.761275"><ele>304.3333333333333</ele><time>2026-05-04T09:31:47.335Z</time></trkpt><trkpt lat="45.7650181" lon="8.7613652"><ele>303.6666666666667</ele><time>2026-05-04T09:31:49.334Z</time></trkpt><trkpt lat="45.764958" lon="8.7614622"><ele>303.0</ele><time>2026-05-04T09:31:51.334Z</time></trkpt><trkpt lat="45.7648925" lon="8.7615589"><ele>303.0</ele><time>2026-05-04T09:31:53.334Z</time></trkpt><trkpt lat="45.764805" lon="8.7617066"><ele>303.0</ele><time>2026-05-04T09:31:55.335Z</time></trkpt><trkpt lat="45.7647793" lon="8.761791"><ele>303.0</ele><time>2026-05-04T09:31:56.335Z</time></trkpt><trkpt lat="45.7647315" lon="8.761882"><ele>303.0</ele><time>2026-05-04T09:31:57.334Z</time></trkpt><trkpt lat="45.764681" lon="8.7619716"><ele>303.0</ele><time>2026-05-04T09:31:58.334Z</time></trkpt><trkpt lat="45.7646348" lon="8.7620665"><ele>303.0</ele><time>2026-05-04T09:31:59.334Z</time></trkpt><trkpt lat="45.7645868" lon="8.7621635"><ele>303.0</ele><time>2026-05-04T09:32:00.334Z</time></trkpt><trkpt lat="45.7645422" lon="8.762254"><ele>303.0</ele><time>2026-05-04T09:32:01.334Z</time></trkpt><trkpt lat="45.7645009" lon="8.7623432"><ele>303.0</ele><time>2026-05-04T09:32:02.335Z</time></trkpt><trkpt lat="45.7644667" lon="8.7624304"><ele>303.0</ele><time>2026-05-04T09:32:03.335Z</time></trkpt><trkpt lat="45.7644264" lon="8.7625161"><ele>303.0</ele><time>2026-05-04T09:32:04.334Z</time></trkpt><trkpt lat="45.7643867" lon="8.7625914"><ele>303.0</ele><time>2026-05-04T09:32:05.334Z</time></trkpt><trkpt lat="45.7643439" lon="8.7626604"><ele>303.0</ele><time>2026-05-04T09:32:06.334Z</time></trkpt><trkpt lat="45.7642699" lon="8.7627929"><ele>303.0</ele><time>2026-05-04T09:32:08.335Z</time></trkpt><trkpt lat="45.7642198" lon="8.7629232"><ele>303.0</ele><time>2026-05-04T09:32:10.334Z</time></trkpt><trkpt lat="45.764151" lon="8.7630187"><ele>303.0</ele><time>2026-05-04T09:32:12.334Z</time></trkpt><trkpt lat="45.7640714" lon="8.7630754"><ele>303.0</ele><time>2026-05-04T09:32:14.334Z</time></trkpt><trkpt lat="45.7639908" lon="8.7631196"><ele>303.0</ele><time>2026-05-04T09:32:16.334Z</time></trkpt><trkpt lat="45.7639018" lon="8.7631434"><ele>303.0</ele><time>2026-05-04T09:32:18.335Z</time></trkpt><trkpt lat="45.7638091" lon="8.7631504"><ele>303.0</ele><time>2026-05-04T09:32:20.335Z</time></trkpt><trkpt lat="45.7637189" lon="8.7631469"><ele>303.0</ele><time>2026-05-04T09:32:22.334Z</time></trkpt><trkpt lat="45.7636278" lon="8.7631459"><ele>303.0</ele><time>2026-05-04T09:32:24.334Z</time></trkpt><trkpt lat="45.7635369" lon="8.7631428"><ele>303.0</ele><time>2026-05-04T09:32:26.334Z</time></trkpt><trkpt lat="45.763445" lon="8.7631411"><ele>302.4</ele><time>2026-05-04T09:32:28.334Z</time></trkpt><trkpt lat="45.7633547" lon="8.7631505"><ele>301.8</ele><time>2026-05-04T09:32:30.334Z</time></trkpt><trkpt lat="45.7632663" lon="8.7631756"><ele>301.2</ele><time>2026-05-04T09:32:32.335Z</time></trkpt><trkpt lat="45.7631832" lon="8.7632253"><ele>300.6</ele><time>2026-05-04T09:32:34.335Z</time></trkpt><trkpt lat="45.7631046" lon="8.7632913"><ele>300.0</ele><time>2026-05-04T09:32:36.335Z</time></trkpt><trkpt lat="45.7630296" lon="8.7633647"><ele>300.0</ele><time>2026-05-04T09:32:38.335Z</time></trkpt><trkpt lat="45.7629541" lon="8.7634421"><ele>300.0</ele><time>2026-05-04T09:32:40.334Z</time></trkpt><trkpt lat="45.7628797" lon="8.7635207"><ele>300.0</ele><time>2026-05-04T09:32:42.335Z</time></trkpt><trkpt lat="45.7628026" lon="8.7635907"><ele>300.0</ele><time>2026-05-04T09:32:44.335Z</time></trkpt><trkpt lat="45.7627297" lon="8.7636632"><ele>300.0</ele><time>2026-05-04T09:32:46.335Z</time></trkpt><trkpt lat="45.7626585" lon="8.7637359"><ele>300.1666666666667</ele><time>2026-05-04T09:32:48.334Z</time></trkpt><trkpt lat="45.7625888" lon="8.7638062"><ele>300.3333333333333</ele><time>2026-05-04T09:32:50.334Z</time></trkpt><trkpt lat="45.76252" lon="8.7638821"><ele>300.5</ele><time>2026-05-04T09:32:52.335Z</time></trkpt><trkpt lat="45.7624536" lon="8.7639616"><ele>300.66666666666663</ele><time>2026-05-04T09:32:54.334Z</time></trkpt><trkpt lat="45.7623917" lon="8.7640401"><ele>300.8333333333333</ele><time>2026-05-04T09:32:56.334Z</time></trkpt><trkpt lat="45.7623271" lon="8.764123"><ele>301.0</ele><time>2026-05-04T09:32:58.334Z</time></trkpt><trkpt lat="45.7622625" lon="8.7642025"><ele>301.0</ele><time>2026-05-04T09:33:00.335Z</time></trkpt><trkpt lat="45.7621979" lon="8.7642738"><ele>301.0</ele><time>2026-05-04T09:33:02.334Z</time></trkpt><trkpt lat="45.7621323" lon="8.7643448"><ele>301.0</ele><time>2026-05-04T09:33:04.334Z</time></trkpt><trkpt lat="45.7620688" lon="8.7644247"><ele>301.0</ele><time>2026-05-04T09:33:06.334Z</time></trkpt><trkpt lat="45.7620083" lon="8.7645069"><ele>301.0</ele><time>2026-05-04T09:33:08.335Z</time></trkpt><trkpt lat="45.7619498" lon="8.7645993"><ele>301.0</ele><time>2026-05-04T09:33:10.334Z</time></trkpt><trkpt lat="45.7618927" lon="8.7647019"><ele>301.0</ele><time>2026-05-04T09:33:12.334Z</time></trkpt><trkpt lat="45.7618381" lon="8.7648073"><ele>301.0</ele><time>2026-05-04T09:33:14.335Z</time></trkpt><trkpt lat="45.7617823" lon="8.7649013"><ele>301.0</ele><time>2026-05-04T09:33:16.334Z</time></trkpt><trkpt lat="45.7617226" lon="8.7649964"><ele>301.0</ele><time>2026-05-04T09:33:18.335Z</time></trkpt><trkpt lat="45.7616595" lon="8.7650996"><ele>301.0</ele><time>2026-05-04T09:33:20.334Z</time></trkpt><trkpt lat="45.7615973" lon="8.7651981"><ele>301.3333333333333</ele><time>2026-05-04T09:33:22.334Z</time></trkpt><trkpt lat="45.7615433" lon="8.7652906"><ele>301.66666666666663</ele><time>2026-05-04T09:33:24.334Z</time></trkpt><trkpt lat="45.7614947" lon="8.7653834"><ele>302.0</ele><time>2026-05-04T09:33:26.334Z</time></trkpt><trkpt lat="45.7614417" lon="8.7654699"><ele>302.3333333333333</ele><time>2026-05-04T09:33:28.333Z</time></trkpt><trkpt lat="45.7613907" lon="8.7655453"><ele>302.6666666666667</ele><time>2026-05-04T09:33:30.334Z</time></trkpt><trkpt lat="45.7613344" lon="8.7656238"><ele>303.0</ele><time>2026-05-04T09:33:32.334Z</time></trkpt><trkpt lat="45.7612691" lon="8.7657146"><ele>303.0</ele><time>2026-05-04T09:33:34.335Z</time></trkpt><trkpt lat="45.7612237" lon="8.7658392"><ele>303.0</ele><time>2026-05-04T09:33:36.335Z</time></trkpt><trkpt lat="45.761211" lon="8.7659844"><ele>303.0</ele><time>2026-05-04T09:33:38.334Z</time></trkpt><trkpt lat="45.7611952" lon="8.7661273"><ele>303.0</ele><time>2026-05-04T09:33:40.335Z</time></trkpt><trkpt lat="45.7611419" lon="8.7662549"><ele>303.0</ele><time>2026-05-04T09:33:42.334Z</time></trkpt><trkpt lat="45.7610881" lon="8.7663772"><ele>303.2</ele><time>2026-05-04T09:33:44.335Z</time></trkpt><trkpt lat="45.7610418" lon="8.766506"><ele>303.4</ele><time>2026-05-04T09:33:46.335Z</time></trkpt><trkpt lat="45.7610025" lon="8.7666293"><ele>303.59999999999997</ele><time>2026-05-04T09:33:48.334Z</time></trkpt><trkpt lat="45.7609598" lon="8.7667549"><ele>303.8</ele><time>2026-05-04T09:33:50.334Z</time></trkpt><trkpt lat="45.7609207" lon="8.76688"><ele>304.0</ele><time>2026-05-04T09:33:52.334Z</time></trkpt><trkpt lat="45.7608793" lon="8.7670058"><ele>305.4</ele><time>2026-05-04T09:33:54.335Z</time></trkpt><trkpt lat="45.7608302" lon="8.7671261"><ele>306.79999999999995</ele><time>2026-05-04T09:33:56.335Z</time></trkpt><trkpt lat="45.7607705" lon="8.7672359"><ele>308.20000000000005</ele><time>2026-05-04T09:33:58.335Z</time></trkpt><trkpt lat="45.7607018" lon="8.7673266"><ele>309.6</ele><time>2026-05-04T09:34:00.335Z</time></trkpt><trkpt lat="45.7606298" lon="8.7673999"><ele>311.0</ele><time>2026-05-04T09:34:02.334Z</time></trkpt><trkpt lat="45.7605548" lon="8.7674709"><ele>311.0</ele><time>2026-05-04T09:34:04.334Z</time></trkpt><trkpt lat="45.7604785" lon="8.7675371"><ele>311.0</ele><time>2026-05-04T09:34:06.335Z</time></trkpt><trkpt lat="45.760413" lon="8.7676145"><ele>311.0</ele><time>2026-05-04T09:34:08.334Z</time></trkpt><trkpt lat="45.7603546" lon="8.7677025"><ele>311.0</ele><time>2026-05-04T09:34:10.333Z</time></trkpt><trkpt lat="45.7603105" lon="8.7678011"><ele>311.0</ele><time>2026-05-04T09:34:12.335Z</time></trkpt><trkpt lat="45.7602748" lon="8.7678966"><ele>311.0</ele><time>2026-05-04T09:34:14.334Z</time></trkpt><trkpt lat="45.7602437" lon="8.7679937"><ele>311.6666666666667</ele><time>2026-05-04T09:34:16.334Z</time></trkpt><trkpt lat="45.7602116" lon="8.768075"><ele>312.33333333333337</ele><time>2026-05-04T09:34:18.334Z</time></trkpt><trkpt lat="45.7601889" lon="8.7681617"><ele>313.0</ele><time>2026-05-04T09:34:20.335Z</time></trkpt><trkpt lat="45.7601542" lon="8.7682857"><ele>313.6666666666667</ele><time>2026-05-04T09:34:23.334Z</time></trkpt><trkpt lat="45.760122" lon="8.7683849"><ele>314.3333333333333</ele><time>2026-05-04T09:34:25.334Z</time></trkpt><trkpt lat="45.7601027" lon="8.7685093"><ele>315.0</ele><time>2026-05-04T09:34:27.335Z</time></trkpt><trkpt lat="45.7600776" lon="8.7686016"><ele>316.1666666666667</ele><time>2026-05-04T09:34:29.335Z</time></trkpt><trkpt lat="45.7600549" lon="8.7686928"><ele>317.3333333333333</ele><time>2026-05-04T09:34:31.335Z</time></trkpt><trkpt lat="45.7600354" lon="8.7687878"><ele>318.5</ele><time>2026-05-04T09:34:33.333Z</time></trkpt><trkpt lat="45.7600126" lon="8.7689024"><ele>319.66666666666663</ele><time>2026-05-04T09:34:35.335Z</time></trkpt><trkpt lat="45.7599773" lon="8.7690116"><ele>320.8333333333333</ele><time>2026-05-04T09:34:37.334Z</time></trkpt><trkpt lat="45.7599319" lon="8.7691217"><ele>322.0</ele><time>2026-05-04T09:34:39.335Z</time></trkpt><trkpt lat="45.7598879" lon="8.7692196"><ele>322.0</ele><time>2026-05-04T09:34:41.335Z</time></trkpt><trkpt lat="45.7598447" lon="8.7693105"><ele>322.0</ele><time>2026-05-04T09:34:43.334Z</time></trkpt><trkpt lat="45.7597996" lon="8.769403"><ele>322.0</ele><time>2026-05-04T09:34:45.334Z</time></trkpt><trkpt lat="45.7597587" lon="8.7694961"><ele>322.0</ele><time>2026-05-04T09:34:47.334Z</time></trkpt><trkpt lat="45.7597158" lon="8.7695857"><ele>322.0</ele><time>2026-05-04T09:34:49.334Z</time></trkpt><trkpt lat="45.7596639" lon="8.7696866"><ele>322.0</ele><time>2026-05-04T09:34:51.334Z</time></trkpt><trkpt lat="45.7596127" lon="8.7697945"><ele>322.20000000000005</ele><time>2026-05-04T09:34:53.334Z</time></trkpt><trkpt lat="45.759553" lon="8.769897"><ele>322.4</ele><time>2026-05-04T09:34:55.334Z</time></trkpt><trkpt lat="45.7594684" lon="8.7699538"><ele>322.6</ele><time>2026-05-04T09:34:57.334Z</time></trkpt><trkpt lat="45.7593736" lon="8.7699521"><ele>322.79999999999995</ele><time>2026-05-04T09:34:59.334Z</time></trkpt><trkpt lat="45.7592884" lon="8.7699301"><ele>323.0</ele><time>2026-05-04T09:35:01.335Z</time></trkpt><trkpt lat="45.7591981" lon="8.7699189"><ele>323.14285714285717</ele><time>2026-05-04T09:35:04.335Z</time></trkpt><trkpt lat="45.7591315" lon="8.7699176"><ele>323.2857142857143</ele><time>2026-05-04T09:35:06.335Z</time></trkpt><trkpt lat="45.7590611" lon="8.7699062"><ele>323.42857142857144</ele><time>2026-05-04T09:35:08.335Z</time></trkpt><trkpt lat="45.7589906" lon="8.7699043"><ele>323.57142857142856</ele><time>2026-05-04T09:35:10.334Z</time></trkpt><trkpt lat="45.7589197" lon="8.7699033"><ele>323.7142857142857</ele><time>2026-05-04T09:35:12.334Z</time></trkpt><trkpt lat="45.7588492" lon="8.7699031"><ele>323.8571428571429</ele><time>2026-05-04T09:35:14.334Z</time></trkpt><trkpt lat="45.7587694" lon="8.7699057"><ele>324.0</ele><time>2026-05-04T09:35:17.334Z</time></trkpt><trkpt lat="45.7587023" lon="8.7698984"><ele>324.0</ele><time>2026-05-04T09:35:20.334Z</time></trkpt><trkpt lat="45.758619" lon="8.7698847"><ele>324.0</ele><time>2026-05-04T09:35:23.334Z</time></trkpt><trkpt lat="45.7585512" lon="8.7698786"><ele>324.0</ele><time>2026-05-04T09:35:25.335Z</time></trkpt><trkpt lat="45.758481" lon="8.7698718"><ele>324.0</ele><time>2026-05-04T09:35:27.334Z</time></trkpt><trkpt lat="45.7583883" lon="8.769855"><ele>324.0</ele><time>2026-05-04T09:35:29.335Z</time></trkpt><trkpt lat="45.758279" lon="8.769814"><ele>324.0</ele><time>2026-05-04T09:35:31.334Z</time></trkpt><trkpt lat="45.7581692" lon="8.7697665"><ele>323.79999999999995</ele><time>2026-05-04T09:35:33.335Z</time></trkpt><trkpt lat="45.758051" lon="8.7697296"><ele>323.59999999999997</ele><time>2026-05-04T09:35:35.334Z</time></trkpt><trkpt lat="45.7579884" lon="8.7697176"><ele>323.4</ele><time>2026-05-04T09:35:36.334Z</time></trkpt><trkpt lat="45.7579256" lon="8.7697018"><ele>323.2</ele><time>2026-05-04T09:35:37.335Z</time></trkpt><trkpt lat="45.7578028" lon="8.769669"><ele>323.0</ele><time>2026-05-04T09:35:39.335Z</time></trkpt><trkpt lat="45.7576784" lon="8.7696371"><ele>323.0</ele><time>2026-05-04T09:35:41.335Z</time></trkpt><trkpt lat="45.7575617" lon="8.7696084"><ele>323.0</ele><time>2026-05-04T09:35:43.334Z</time></trkpt><trkpt lat="45.7574411" lon="8.7695804"><ele>323.0</ele><time>2026-05-04T09:35:45.334Z</time></trkpt><trkpt lat="45.7573272" lon="8.7695388"><ele>323.0</ele><time>2026-05-04T09:35:47.335Z</time></trkpt><trkpt lat="45.7572589" lon="8.7695081"><ele>323.0</ele><time>2026-05-04T09:35:50.334Z</time></trkpt><trkpt lat="45.7571892" lon="8.769419"><ele>324.0</ele><time>2026-05-04T09:35:54.335Z</time></trkpt><trkpt lat="45.7571492" lon="8.7692973"><ele>325.0</ele><time>2026-05-04T09:35:56.334Z</time></trkpt><trkpt lat="45.7571055" lon="8.7691385"><ele>326.0</ele><time>2026-05-04T09:35:58.334Z</time></trkpt><trkpt lat="45.7570588" lon="8.768979"><ele>327.0</ele><time>2026-05-04T09:36:00.335Z</time></trkpt><trkpt lat="45.7570364" lon="8.7688936"><ele>328.0</ele><time>2026-05-04T09:36:01.334Z</time></trkpt><trkpt lat="45.7569988" lon="8.768738"><ele>328.0</ele><time>2026-05-04T09:36:03.334Z</time></trkpt><trkpt lat="45.7569532" lon="8.7685848"><ele>328.0</ele><time>2026-05-04T09:36:05.335Z</time></trkpt><trkpt lat="45.7568715" lon="8.7684614"><ele>328.0</ele><time>2026-05-04T09:36:07.334Z</time></trkpt><trkpt lat="45.7567884" lon="8.7683447"><ele>328.0</ele><time>2026-05-04T09:36:09.335Z</time></trkpt><trkpt lat="45.7567177" lon="8.7682411"><ele>328.2</ele><time>2026-05-04T09:36:11.333Z</time></trkpt><trkpt lat="45.756649" lon="8.7681407"><ele>328.4</ele><time>2026-05-04T09:36:13.335Z</time></trkpt><trkpt lat="45.7565808" lon="8.7680632"><ele>328.59999999999997</ele><time>2026-05-04T09:36:15.335Z</time></trkpt><trkpt lat="45.7565129" lon="8.7679737"><ele>328.79999999999995</ele><time>2026-05-04T09:36:17.335Z</time></trkpt><trkpt lat="45.7564912" lon="8.7678678"><ele>329.0</ele><time>2026-05-04T09:36:19.334Z</time></trkpt><trkpt lat="45.7564389" lon="8.767746"><ele>329.0</ele><time>2026-05-04T09:36:21.334Z</time></trkpt><trkpt lat="45.7564018" lon="8.7675766"><ele>329.0</ele><time>2026-05-04T09:36:23.333Z</time></trkpt><trkpt lat="45.7563317" lon="8.7674622"><ele>329.0</ele><time>2026-05-04T09:36:25.334Z</time></trkpt><trkpt lat="45.7562511" lon="8.7673535"><ele>329.0</ele><time>2026-05-04T09:36:27.335Z</time></trkpt><trkpt lat="45.7561847" lon="8.7672316"><ele>329.0</ele><time>2026-05-04T09:36:29.335Z</time></trkpt><trkpt lat="45.7561853" lon="8.7670864"><ele>329.0</ele><time>2026-05-04T09:36:31.334Z</time></trkpt><trkpt lat="45.7562364" lon="8.7669668"><ele>329.0</ele><time>2026-05-04T09:36:33.334Z</time></trkpt><trkpt lat="45.7563093" lon="8.7668469"><ele>329.0</ele><time>2026-05-04T09:36:35.334Z</time></trkpt><trkpt lat="45.7563548" lon="8.7667804"><ele>329.0</ele><time>2026-05-04T09:36:36.335Z</time></trkpt><trkpt lat="45.7564301" lon="8.7666375"><ele>329.0</ele><time>2026-05-04T09:36:38.335Z</time></trkpt><trkpt lat="45.7564808" lon="8.7665388"><ele>330.0</ele><time>2026-05-04T09:36:40.335Z</time></trkpt><trkpt lat="45.7564494" lon="8.7664153"><ele>331.0</ele><time>2026-05-04T09:36:43.334Z</time></trkpt><trkpt lat="45.7563856" lon="8.7662972"><ele>332.0</ele><time>2026-05-04T09:36:45.335Z</time></trkpt><trkpt lat="45.7563424" lon="8.7661602"><ele>333.0</ele><time>2026-05-04T09:36:47.334Z</time></trkpt><trkpt lat="45.7563459" lon="8.7660218"><ele>334.0</ele><time>2026-05-04T09:36:49.333Z</time></trkpt><trkpt lat="45.7563447" lon="8.765903"><ele>334.4</ele><time>2026-05-04T09:36:51.335Z</time></trkpt><trkpt lat="45.756307" lon="8.7657897"><ele>334.79999999999995</ele><time>2026-05-04T09:36:53.334Z</time></trkpt><trkpt lat="45.7562875" lon="8.7656352"><ele>335.20000000000005</ele><time>2026-05-04T09:36:55.335Z</time></trkpt><trkpt lat="45.7562827" lon="8.7654837"><ele>335.6</ele><time>2026-05-04T09:36:57.333Z</time></trkpt><trkpt lat="45.7562602" lon="8.7653672"><ele>336.0</ele><time>2026-05-04T09:36:59.335Z</time></trkpt><trkpt lat="45.7562157" lon="8.7652467"><ele>335.8</ele><time>2026-05-04T09:37:01.334Z</time></trkpt><trkpt lat="45.7561411" lon="8.7651362"><ele>335.6</ele><time>2026-05-04T09:37:03.334Z</time></trkpt><trkpt lat="45.7560563" lon="8.7650392"><ele>335.4</ele><time>2026-05-04T09:37:05.334Z</time></trkpt><trkpt lat="45.7559721" lon="8.7649361"><ele>335.2</ele><time>2026-05-04T09:37:07.335Z</time></trkpt><trkpt lat="45.7558854" lon="8.7648588"><ele>335.0</ele><time>2026-05-04T09:37:09.334Z</time></trkpt><trkpt lat="45.7558025" lon="8.7647748"><ele>335.0</ele><time>2026-05-04T09:37:11.334Z</time></trkpt><trkpt lat="45.7557304" lon="8.7647007"><ele>335.0</ele><time>2026-05-04T09:37:13.334Z</time></trkpt><trkpt lat="45.7556561" lon="8.7646307"><ele>335.0</ele><time>2026-05-04T09:37:15.335Z</time></trkpt><trkpt lat="45.7555821" lon="8.7645242"><ele>335.0</ele><time>2026-05-04T09:37:17.334Z</time></trkpt><trkpt lat="45.7554981" lon="8.7644146"><ele>335.0</ele><time>2026-05-04T09:37:19.334Z</time></trkpt><trkpt lat="45.7554507" lon="8.7643338"><ele>335.0</ele><time>2026-05-04T09:37:20.334Z</time></trkpt><trkpt lat="45.7554085" lon="8.7642546"><ele>335.0</ele><time>2026-05-04T09:37:21.335Z</time></trkpt><trkpt lat="45.7553646" lon="8.764178"><ele>335.0</ele><time>2026-05-04T09:37:22.334Z</time></trkpt><trkpt lat="45.7553215" lon="8.764098"><ele>335.0</ele><time>2026-05-04T09:37:23.333Z</time></trkpt><trkpt lat="45.7552356" lon="8.76404"><ele>335.0</ele><time>2026-05-04T09:37:25.335Z</time></trkpt><trkpt lat="45.7551577" lon="8.7641626"><ele>335.0</ele><time>2026-05-04T09:37:27.335Z</time></trkpt><trkpt lat="45.7550658" lon="8.7642803"><ele>334.0</ele><time>2026-05-04T09:37:29.335Z</time></trkpt><trkpt lat="45.754996" lon="8.7644264"><ele>333.0</ele><time>2026-05-04T09:37:31.335Z</time></trkpt><trkpt lat="45.7549445" lon="8.7645825"><ele>332.0</ele><time>2026-05-04T09:37:33.336Z</time></trkpt><trkpt lat="45.7549005" lon="8.7646582"><ele>331.0</ele><time>2026-05-04T09:37:34.334Z</time></trkpt><trkpt lat="45.7548501" lon="8.7647276"><ele>330.0</ele><time>2026-05-04T09:37:35.334Z</time></trkpt><trkpt lat="45.7547981" lon="8.7648041"><ele>330.0</ele><time>2026-05-04T09:37:36.335Z</time></trkpt><trkpt lat="45.7547486" lon="8.7648784"><ele>330.0</ele><time>2026-05-04T09:37:37.334Z</time></trkpt><trkpt lat="45.7546982" lon="8.7650175"><ele>330.0</ele><time>2026-05-04T09:37:39.335Z</time></trkpt><trkpt lat="45.7546208" lon="8.7650694"><ele>330.0</ele><time>2026-05-04T09:37:40.334Z</time></trkpt><trkpt lat="45.7545544" lon="8.765094"><ele>330.0</ele><time>2026-05-04T09:37:41.336Z</time></trkpt><trkpt lat="45.7544843" lon="8.7651287"><ele>330.0</ele><time>2026-05-04T09:37:42.335Z</time></trkpt><trkpt lat="45.7544024" lon="8.7650963"><ele>329.2</ele><time>2026-05-04T09:37:43.334Z</time></trkpt><trkpt lat="45.7543021" lon="8.7651853"><ele>328.4</ele><time>2026-05-04T09:37:45.335Z</time></trkpt><trkpt lat="45.7542139" lon="8.7653028"><ele>327.6</ele><time>2026-05-04T09:37:47.335Z</time></trkpt><trkpt lat="45.7541633" lon="8.7653628"><ele>326.8</ele><time>2026-05-04T09:37:48.334Z</time></trkpt><trkpt lat="45.7540788" lon="8.765494"><ele>326.0</ele><time>2026-05-04T09:37:50.334Z</time></trkpt><trkpt lat="45.7540368" lon="8.7655619"><ele>325.20000000000005</ele><time>2026-05-04T09:37:51.334Z</time></trkpt><trkpt lat="45.7539639" lon="8.7657111"><ele>324.40000000000003</ele><time>2026-05-04T09:37:53.334Z</time></trkpt><trkpt lat="45.7539222" lon="8.7657788"><ele>323.6</ele><time>2026-05-04T09:37:54.334Z</time></trkpt><trkpt lat="45.753862" lon="8.7658954"><ele>322.8</ele><time>2026-05-04T09:37:56.335Z</time></trkpt><trkpt lat="45.7537786" lon="8.7660263"><ele>322.0</ele><time>2026-05-04T09:37:58.335Z</time></trkpt><trkpt lat="45.7536715" lon="8.7660383"><ele>322.0</ele><time>2026-05-04T09:38:00.334Z</time></trkpt><trkpt lat="45.7535699" lon="8.7659864"><ele>322.0</ele><time>2026-05-04T09:38:02.336Z</time></trkpt><trkpt lat="45.7534848" lon="8.7658673"><ele>322.0</ele><time>2026-05-04T09:38:04.334Z</time></trkpt><trkpt lat="45.7534347" lon="8.7658048"><ele>322.0</ele><time>2026-05-04T09:38:05.335Z</time></trkpt><trkpt lat="45.7533471" lon="8.765753"><ele>322.0</ele><time>2026-05-04T09:38:07.334Z</time></trkpt><trkpt lat="45.7532845" lon="8.7658641"><ele>321.0</ele><time>2026-05-04T09:38:09.335Z</time></trkpt><trkpt lat="45.7532122" lon="8.7659842"><ele>320.0</ele><time>2026-05-04T09:38:11.334Z</time></trkpt><trkpt lat="45.7531584" lon="8.7660505"><ele>319.0</ele><time>2026-05-04T09:38:12.334Z</time></trkpt><trkpt lat="45.7531154" lon="8.7661234"><ele>318.0</ele><time>2026-05-04T09:38:13.334Z</time></trkpt><trkpt lat="45.7530227" lon="8.766255"><ele>317.0</ele><time>2026-05-04T09:38:15.335Z</time></trkpt><trkpt lat="45.7529543" lon="8.7663165"><ele>315.2</ele><time>2026-05-04T09:38:17.335Z</time></trkpt><trkpt lat="45.7528591" lon="8.7662841"><ele>313.4</ele><time>2026-05-04T09:38:19.334Z</time></trkpt><trkpt lat="45.752778" lon="8.7662149"><ele>311.6</ele><time>2026-05-04T09:38:21.334Z</time></trkpt><trkpt lat="45.7527029" lon="8.7661436"><ele>309.8</ele><time>2026-05-04T09:38:23.334Z</time></trkpt><trkpt lat="45.7526322" lon="8.7660707"><ele>308.0</ele><time>2026-05-04T09:38:25.335Z</time></trkpt><trkpt lat="45.7525476" lon="8.7659772"><ele>308.0</ele><time>2026-05-04T09:38:27.334Z</time></trkpt><trkpt lat="45.7524617" lon="8.7658783"><ele>308.0</ele><time>2026-05-04T09:38:29.335Z</time></trkpt><trkpt lat="45.752372" lon="8.7658051"><ele>308.0</ele><time>2026-05-04T09:38:31.334Z</time></trkpt><trkpt lat="45.7523111" lon="8.765717"><ele>308.0</ele><time>2026-05-04T09:38:33.334Z</time></trkpt><trkpt lat="45.752257" lon="8.7656455"><ele>308.0</ele><time>2026-05-04T09:38:35.334Z</time></trkpt><trkpt lat="45.7522746" lon="8.7655467"><ele>308.0</ele><time>2026-05-04T09:39:30.335Z</time></trkpt><trkpt lat="45.7523058" lon="8.7654547"><ele>308.0</ele><time>2026-05-04T09:39:34.334Z</time></trkpt><trkpt lat="45.7523561" lon="8.7653977"><ele>308.0</ele><time>2026-05-04T09:39:39.334Z</time></trkpt><trkpt lat="45.7524089" lon="8.7653359"><ele>308.0</ele><time>2026-05-04T09:39:51.334Z</time></trkpt><trkpt lat="45.7524429" lon="8.7652471"><ele>308.0</ele><time>2026-05-04T09:39:53.335Z</time></trkpt><trkpt lat="45.7524767" lon="8.7651473"><ele>308.0</ele><time>2026-05-04T09:39:55.335Z</time></trkpt><trkpt lat="45.7525088" lon="8.7650255"><ele>308.0</ele><time>2026-05-04T09:39:58.334Z</time></trkpt><trkpt lat="45.7525163" lon="8.764899"><ele>308.83333333333337</ele><time>2026-05-04T09:40:01.334Z</time></trkpt><trkpt lat="45.7525194" lon="8.7648087"><ele>309.6666666666667</ele><time>2026-05-04T09:40:04.334Z</time></trkpt><trkpt lat="45.7525052" lon="8.764676"><ele>310.5</ele><time>2026-05-04T09:40:07.334Z</time></trkpt><trkpt lat="45.7524776" lon="8.7645921"><ele>311.3333333333333</ele><time>2026-05-04T09:40:09.334Z</time></trkpt><trkpt lat="45.7525293" lon="8.7645019"><ele>312.16666666666663</ele><time>2026-05-04T09:40:12.334Z</time></trkpt><trkpt lat="45.7526045" lon="8.7644706"><ele>313.0</ele><time>2026-05-04T09:40:17.334Z</time></trkpt><trkpt lat="45.7526553" lon="8.7643776"><ele>313.3333333333333</ele><time>2026-05-04T09:40:20.334Z</time></trkpt><trkpt lat="45.7526942" lon="8.7643003"><ele>313.66666666666663</ele><time>2026-05-04T09:40:22.334Z</time></trkpt><trkpt lat="45.7527442" lon="8.764218"><ele>314.0</ele><time>2026-05-04T09:40:24.334Z</time></trkpt><trkpt lat="45.7528155" lon="8.7641025"><ele>314.3333333333333</ele><time>2026-05-04T09:40:26.335Z</time></trkpt><trkpt lat="45.7528603" lon="8.7640286"><ele>314.6666666666667</ele><time>2026-05-04T09:40:28.334Z</time></trkpt><trkpt lat="45.7529296" lon="8.7639526"><ele>315.0</ele><time>2026-05-04T09:40:31.334Z</time></trkpt><trkpt lat="45.752989" lon="8.763871"><ele>316.5</ele><time>2026-05-04T09:40:33.335Z</time></trkpt><trkpt lat="45.753026" lon="8.7637947"><ele>318.0</ele><time>2026-05-04T09:40:35.334Z</time></trkpt><trkpt lat="45.7530849" lon="8.763701"><ele>319.5</ele><time>2026-05-04T09:40:38.334Z</time></trkpt><trkpt lat="45.7531673" lon="8.7636197"><ele>321.0</ele><time>2026-05-04T09:40:41.335Z</time></trkpt><trkpt lat="45.7532403" lon="8.7635486"><ele>322.5</ele><time>2026-05-04T09:40:43.334Z</time></trkpt><trkpt lat="45.753333" lon="8.7634787"><ele>324.0</ele><time>2026-05-04T09:40:45.335Z</time></trkpt><trkpt lat="45.7534243" lon="8.7634928"><ele>324.0</ele><time>2026-05-04T09:40:47.334Z</time></trkpt><trkpt lat="45.7534947" lon="8.7635714"><ele>324.0</ele><time>2026-05-04T09:40:50.335Z</time></trkpt><trkpt lat="45.753552" lon="8.7636433"><ele>324.0</ele><time>2026-05-04T09:40:52.335Z</time></trkpt><trkpt lat="45.753632" lon="8.7637381"><ele>324.0</ele><time>2026-05-04T09:40:54.334Z</time></trkpt><trkpt lat="45.7537189" lon="8.7638259"><ele>324.0</ele><time>2026-05-04T09:40:56.334Z</time></trkpt><trkpt lat="45.7537968" lon="8.7638918"><ele>325.5</ele><time>2026-05-04T09:40:58.335Z</time></trkpt><trkpt lat="45.7538932" lon="8.7639736"><ele>327.0</ele><time>2026-05-04T09:41:00.334Z</time></trkpt><trkpt lat="45.7539763" lon="8.7640519"><ele>328.5</ele><time>2026-05-04T09:41:02.334Z</time></trkpt><trkpt lat="45.7540457" lon="8.7641188"><ele>330.0</ele><time>2026-05-04T09:41:04.334Z</time></trkpt><trkpt lat="45.754115" lon="8.7641378"><ele>331.5</ele><time>2026-05-04T09:41:06.335Z</time></trkpt><trkpt lat="45.7541881" lon="8.7641007"><ele>333.0</ele><time>2026-05-04T09:41:10.335Z</time></trkpt><trkpt lat="45.7542382" lon="8.7640379"><ele>333.0</ele><time>2026-05-04T09:41:15.335Z</time></trkpt><trkpt lat="45.754256" lon="8.7639365"><ele>333.0</ele><time>2026-05-04T09:41:18.335Z</time></trkpt><trkpt lat="45.754262" lon="8.7638298"><ele>333.0</ele><time>2026-05-04T09:41:21.335Z</time></trkpt><trkpt lat="45.7542669" lon="8.7637007"><ele>333.0</ele><time>2026-05-04T09:41:24.335Z</time></trkpt><trkpt lat="45.754262" lon="8.7635859"><ele>333.0</ele><time>2026-05-04T09:41:27.334Z</time></trkpt><trkpt lat="45.7542638" lon="8.7634761"><ele>333.0</ele><time>2026-05-04T09:41:30.334Z</time></trkpt><trkpt lat="45.7542935" lon="8.7633595"><ele>333.6666666666667</ele><time>2026-05-04T09:41:33.334Z</time></trkpt><trkpt lat="45.7543282" lon="8.7632634"><ele>334.3333333333333</ele><time>2026-05-04T09:41:36.335Z</time></trkpt><trkpt lat="45.7543776" lon="8.7631514"><ele>335.0</ele><time>2026-05-04T09:41:39.334Z</time></trkpt><trkpt lat="45.7544059" lon="8.7630405"><ele>335.66666666666663</ele><time>2026-05-04T09:41:42.335Z</time></trkpt><trkpt lat="45.7544004" lon="8.7629271"><ele>336.3333333333333</ele><time>2026-05-04T09:41:45.334Z</time></trkpt><trkpt lat="45.7543734" lon="8.7628273"><ele>337.0</ele><time>2026-05-04T09:41:48.334Z</time></trkpt><trkpt lat="45.7543384" lon="8.7627367"><ele>338.5</ele><time>2026-05-04T09:41:52.335Z</time></trkpt><trkpt lat="45.7543025" lon="8.7626358"><ele>340.0</ele><time>2026-05-04T09:41:55.335Z</time></trkpt><trkpt lat="45.7542542" lon="8.7625224"><ele>341.5</ele><time>2026-05-04T09:41:58.335Z</time></trkpt><trkpt lat="45.7542201" lon="8.7624381"><ele>343.0</ele><time>2026-05-04T09:42:00.334Z</time></trkpt><trkpt lat="45.7541874" lon="8.7623539"><ele>344.5</ele><time>2026-05-04T09:42:02.334Z</time></trkpt><trkpt lat="45.7541548" lon="8.762269"><ele>346.0</ele><time>2026-05-04T09:42:04.334Z</time></trkpt><trkpt lat="45.754107" lon="8.7621793"><ele>346.0</ele><time>2026-05-04T09:42:07.334Z</time></trkpt><trkpt lat="45.7540573" lon="8.762064"><ele>346.0</ele><time>2026-05-04T09:42:10.334Z</time></trkpt><trkpt lat="45.7540282" lon="8.7619746"><ele>346.0</ele><time>2026-05-04T09:42:12.335Z</time></trkpt><trkpt lat="45.7540065" lon="8.7618787"><ele>346.0</ele><time>2026-05-04T09:42:14.335Z</time></trkpt><trkpt lat="45.7539801" lon="8.7617894"><ele>346.0</ele><time>2026-05-04T09:42:16.334Z</time></trkpt><trkpt lat="45.753937" lon="8.7616564"><ele>346.0</ele><time>2026-05-04T09:42:19.335Z</time></trkpt><trkpt lat="45.7539062" lon="8.7615762"><ele>346.3333333333333</ele><time>2026-05-04T09:42:21.334Z</time></trkpt><trkpt lat="45.7538546" lon="8.7614488"><ele>346.66666666666663</ele><time>2026-05-04T09:42:24.334Z</time></trkpt><trkpt lat="45.7538154" lon="8.7613594"><ele>347.0</ele><time>2026-05-04T09:42:26.334Z</time></trkpt><trkpt lat="45.7537819" lon="8.7612647"><ele>347.3333333333333</ele><time>2026-05-04T09:42:28.334Z</time></trkpt><trkpt lat="45.7537122" lon="8.7611841"><ele>347.6666666666667</ele><time>2026-05-04T09:42:31.335Z</time></trkpt><trkpt lat="45.7536443" lon="8.7611237"><ele>348.0</ele><time>2026-05-04T09:42:33.334Z</time></trkpt><trkpt lat="45.7535616" lon="8.7610255"><ele>349.0</ele><time>2026-05-04T09:42:36.335Z</time></trkpt><trkpt lat="45.75349" lon="8.760962"><ele>350.0</ele><time>2026-05-04T09:42:38.334Z</time></trkpt><trkpt lat="45.7533978" lon="8.760883"><ele>351.0</ele><time>2026-05-04T09:42:40.335Z</time></trkpt><trkpt lat="45.7533147" lon="8.7608304"><ele>352.0</ele><time>2026-05-04T09:42:42.334Z</time></trkpt><trkpt lat="45.7532402" lon="8.7607631"><ele>353.0</ele><time>2026-05-04T09:42:44.334Z</time></trkpt><trkpt lat="45.7531627" lon="8.7606498"><ele>353.0</ele><time>2026-05-04T09:42:46.333Z</time></trkpt><trkpt lat="45.7531244" lon="8.7605578"><ele>353.0</ele><time>2026-05-04T09:42:47.334Z</time></trkpt><trkpt lat="45.7530897" lon="8.7604712"><ele>353.0</ele><time>2026-05-04T09:42:48.333Z</time></trkpt><trkpt lat="45.7530603" lon="8.760391"><ele>353.0</ele><time>2026-05-04T09:42:49.335Z</time></trkpt><trkpt lat="45.7530106" lon="8.7602778"><ele>353.0</ele><time>2026-05-04T09:42:51.334Z</time></trkpt><trkpt lat="45.7529455" lon="8.7602124"><ele>353.0</ele><time>2026-05-04T09:42:54.335Z</time></trkpt><trkpt lat="45.7528801" lon="8.7600154"><ele>352.5</ele><time>2026-05-04T09:42:56.333Z</time></trkpt><trkpt lat="45.752826" lon="8.7599264"><ele>352.0</ele><time>2026-05-04T09:42:58.334Z</time></trkpt><trkpt lat="45.7528374" lon="8.7597741"><ele>351.5</ele><time>2026-05-04T09:43:00.335Z</time></trkpt><trkpt lat="45.7527933" lon="8.7596656"><ele>351.0</ele><time>2026-05-04T09:43:02.334Z</time></trkpt><trkpt lat="45.7527597" lon="8.7595727"><ele>350.5</ele><time>2026-05-04T09:43:03.335Z</time></trkpt><trkpt lat="45.752707" lon="8.759486"><ele>350.0</ele><time>2026-05-04T09:43:04.334Z</time></trkpt><trkpt lat="45.7526638" lon="8.7593885"><ele>349.33333333333337</ele><time>2026-05-04T09:43:05.334Z</time></trkpt><trkpt lat="45.7526192" lon="8.7593116"><ele>348.6666666666667</ele><time>2026-05-04T09:43:06.334Z</time></trkpt><trkpt lat="45.7525593" lon="8.7592505"><ele>348.0</ele><time>2026-05-04T09:43:07.334Z</time></trkpt><trkpt lat="45.7525051" lon="8.759181"><ele>347.3333333333333</ele><time>2026-05-04T09:43:08.334Z</time></trkpt><trkpt lat="45.7524442" lon="8.7590969"><ele>346.66666666666663</ele><time>2026-05-04T09:43:09.334Z</time></trkpt><trkpt lat="45.7523857" lon="8.75904"><ele>346.0</ele><time>2026-05-04T09:43:10.333Z</time></trkpt><trkpt lat="45.7523226" lon="8.7589602"><ele>346.0</ele><time>2026-05-04T09:43:11.334Z</time></trkpt><trkpt lat="45.7522593" lon="8.7588977"><ele>346.0</ele><time>2026-05-04T09:43:12.334Z</time></trkpt><trkpt lat="45.7521973" lon="8.7588217"><ele>346.0</ele><time>2026-05-04T09:43:13.334Z</time></trkpt><trkpt lat="45.7521354" lon="8.7587637"><ele>346.0</ele><time>2026-05-04T09:43:14.334Z</time></trkpt><trkpt lat="45.7520518" lon="8.7586539"><ele>346.0</ele><time>2026-05-04T09:43:16.335Z</time></trkpt><trkpt lat="45.7519932" lon="8.7585634"><ele>346.0</ele><time>2026-05-04T09:43:18.334Z</time></trkpt><trkpt lat="45.7519077" lon="8.7585516"><ele>345.4</ele><time>2026-05-04T09:43:20.335Z</time></trkpt><trkpt lat="45.7518137" lon="8.758483"><ele>344.8</ele><time>2026-05-04T09:43:22.334Z</time></trkpt><trkpt lat="45.7517608" lon="8.7584293"><ele>344.2</ele><time>2026-05-04T09:43:23.335Z</time></trkpt><trkpt lat="45.7516691" lon="8.7582931"><ele>343.59999999999997</ele><time>2026-05-04T09:43:25.335Z</time></trkpt><trkpt lat="45.7515984" lon="8.758209"><ele>343.0</ele><time>2026-05-04T09:43:26.334Z</time></trkpt><trkpt lat="45.7515283" lon="8.7581208"><ele>343.0</ele><time>2026-05-04T09:43:27.335Z</time></trkpt><trkpt lat="45.7514641" lon="8.7580469"><ele>343.0</ele><time>2026-05-04T09:43:28.334Z</time></trkpt><trkpt lat="45.7514008" lon="8.7579655"><ele>343.0</ele><time>2026-05-04T09:43:29.335Z</time></trkpt><trkpt lat="45.7513433" lon="8.7578686"><ele>343.0</ele><time>2026-05-04T09:43:30.334Z</time></trkpt><trkpt lat="45.7512753" lon="8.7577724"><ele>343.0</ele><time>2026-05-04T09:43:31.334Z</time></trkpt><trkpt lat="45.7512191" lon="8.7576823"><ele>343.0</ele><time>2026-05-04T09:43:32.335Z</time></trkpt><trkpt lat="45.7511539" lon="8.7576312"><ele>341.4</ele><time>2026-05-04T09:43:33.335Z</time></trkpt><trkpt lat="45.7510856" lon="8.7575304"><ele>339.79999999999995</ele><time>2026-05-04T09:43:34.335Z</time></trkpt><trkpt lat="45.7510285" lon="8.7574132"><ele>338.2</ele><time>2026-05-04T09:43:35.334Z</time></trkpt><trkpt lat="45.7509598" lon="8.7573141"><ele>336.6</ele><time>2026-05-04T09:43:36.335Z</time></trkpt><trkpt lat="45.7508956" lon="8.7571956"><ele>335.0</ele><time>2026-05-04T09:43:37.335Z</time></trkpt><trkpt lat="45.7508246" lon="8.7571063"><ele>335.0</ele><time>2026-05-04T09:43:38.335Z</time></trkpt><trkpt lat="45.7507464" lon="8.7570208"><ele>335.0</ele><time>2026-05-04T09:43:39.334Z</time></trkpt><trkpt lat="45.750664" lon="8.756907"><ele>335.0</ele><time>2026-05-04T09:43:40.335Z</time></trkpt><trkpt lat="45.7505977" lon="8.756822"><ele>335.0</ele><time>2026-05-04T09:43:41.334Z</time></trkpt><trkpt lat="45.7505478" lon="8.756764"><ele>335.0</ele><time>2026-05-04T09:43:42.335Z</time></trkpt><trkpt lat="45.7505095" lon="8.7566836"><ele>335.0</ele><time>2026-05-04T09:43:43.335Z</time></trkpt><trkpt lat="45.7504465" lon="8.7565884"><ele>333.5</ele><time>2026-05-04T09:43:45.334Z</time></trkpt><trkpt lat="45.7503867" lon="8.7564614"><ele>332.0</ele><time>2026-05-04T09:43:47.334Z</time></trkpt><trkpt lat="45.7503449" lon="8.7563775"><ele>330.5</ele><time>2026-05-04T09:43:49.335Z</time></trkpt><trkpt lat="45.7502724" lon="8.7563999"><ele>329.0</ele><time>2026-05-04T09:44:04.335Z</time></trkpt><trkpt lat="45.7502046" lon="8.7564481"><ele>327.5</ele><time>2026-05-04T09:44:07.334Z</time></trkpt><trkpt lat="45.7501411" lon="8.7565075"><ele>326.0</ele><time>2026-05-04T09:44:09.334Z</time></trkpt><trkpt lat="45.7500763" lon="8.7565717"><ele>325.5</ele><time>2026-05-04T09:44:11.334Z</time></trkpt><trkpt lat="45.7500163" lon="8.7566337"><ele>325.0</ele><time>2026-05-04T09:44:13.333Z</time></trkpt><trkpt lat="45.7499499" lon="8.7566884"><ele>324.5</ele><time>2026-05-04T09:44:15.334Z</time></trkpt><trkpt lat="45.7498844" lon="8.7567281"><ele>324.0</ele><time>2026-05-04T09:44:17.334Z</time></trkpt><trkpt lat="45.7498546" lon="8.7568221"><ele>323.5</ele><time>2026-05-04T09:44:19.334Z</time></trkpt><trkpt lat="45.7498776" lon="8.7569125"><ele>323.0</ele><time>2026-05-04T09:44:20.334Z</time></trkpt><trkpt lat="45.7498612" lon="8.7570429"><ele>324.28571428571433</ele><time>2026-05-04T09:44:22.332Z</time></trkpt><trkpt lat="45.7498957" lon="8.7571186"><ele>325.57142857142856</ele><time>2026-05-04T09:44:26.334Z</time></trkpt><trkpt lat="45.749894" lon="8.7572254"><ele>326.8571428571429</ele><time>2026-05-04T09:44:36.333Z</time></trkpt><trkpt lat="45.7498371" lon="8.7572956"><ele>328.14285714285717</ele><time>2026-05-04T09:44:41.333Z</time></trkpt><trkpt lat="45.7497965" lon="8.7573695"><ele>329.42857142857144</ele><time>2026-05-04T09:44:48.333Z</time></trkpt><trkpt lat="45.7497639" lon="8.7574512"><ele>330.7142857142857</ele><time>2026-05-04T09:44:53.333Z</time></trkpt><trkpt lat="45.7497222" lon="8.757527"><ele>332.0</ele><time>2026-05-04T09:44:57.334Z</time></trkpt><trkpt lat="45.7496903" lon="8.7576233"><ele>332.5</ele><time>2026-05-04T09:45:02.334Z</time></trkpt><trkpt lat="45.7496489" lon="8.7577157"><ele>333.0</ele><time>2026-05-04T09:45:07.334Z</time></trkpt><trkpt lat="45.7495977" lon="8.7577944"><ele>333.5</ele><time>2026-05-04T09:45:12.334Z</time></trkpt><trkpt lat="45.7495437" lon="8.7578717"><ele>334.0</ele><time>2026-05-04T09:45:31.333Z</time></trkpt><trkpt lat="45.7494976" lon="8.7579536"><ele>334.5</ele><time>2026-05-04T09:45:36.333Z</time></trkpt><trkpt lat="45.7494596" lon="8.7580588"><ele>335.0</ele><time>2026-05-04T09:45:40.333Z</time></trkpt><trkpt lat="45.749396" lon="8.7581665"><ele>333.6666666666667</ele><time>2026-05-04T09:45:42.333Z</time></trkpt><trkpt lat="45.7493379" lon="8.7582136"><ele>332.33333333333337</ele><time>2026-05-04T09:45:44.333Z</time></trkpt><trkpt lat="45.7492509" lon="8.7581618"><ele>331.0</ele><time>2026-05-04T09:45:47.333Z</time></trkpt><trkpt lat="45.7491871" lon="8.7581169"><ele>329.6666666666667</ele><time>2026-05-04T09:45:49.333Z</time></trkpt><trkpt lat="45.7491283" lon="8.7580735"><ele>328.3333333333333</ele><time>2026-05-04T09:45:51.332Z</time></trkpt><trkpt lat="45.7490513" lon="8.7580355"><ele>327.0</ele><time>2026-05-04T09:45:54.333Z</time></trkpt><trkpt lat="45.7489817" lon="8.757967"><ele>327.0</ele><time>2026-05-04T09:45:57.333Z</time></trkpt><trkpt lat="45.7489205" lon="8.7579303"><ele>327.0</ele><time>2026-05-04T09:45:59.333Z</time></trkpt><trkpt lat="45.7488325" lon="8.7578757"><ele>327.0</ele><time>2026-05-04T09:46:02.333Z</time></trkpt><trkpt lat="45.7487791" lon="8.7578057"><ele>327.0</ele><time>2026-05-04T09:46:03.333Z</time></trkpt><trkpt lat="45.7487286" lon="8.7577416"><ele>327.0</ele><time>2026-05-04T09:46:04.333Z</time></trkpt><trkpt lat="45.7486693" lon="8.7576509"><ele>327.0</ele><time>2026-05-04T09:46:05.333Z</time></trkpt><trkpt lat="45.7486145" lon="8.7575859"><ele>327.5</ele><time>2026-05-04T09:46:06.333Z</time></trkpt><trkpt lat="45.7485624" lon="8.7575303"><ele>328.0</ele><time>2026-05-04T09:46:07.333Z</time></trkpt><trkpt lat="45.7484761" lon="8.7574446"><ele>328.5</ele><time>2026-05-04T09:46:09.333Z</time></trkpt><trkpt lat="45.7483888" lon="8.7573773"><ele>329.0</ele><time>2026-05-04T09:46:11.333Z</time></trkpt><trkpt lat="45.7483287" lon="8.7573425"><ele>329.5</ele><time>2026-05-04T09:46:12.333Z</time></trkpt><trkpt lat="45.748259" lon="8.7572968"><ele>330.0</ele><time>2026-05-04T09:46:13.333Z</time></trkpt><trkpt lat="45.7481952" lon="8.7572472"><ele>328.8571428571429</ele><time>2026-05-04T09:46:14.333Z</time></trkpt><trkpt lat="45.7481359" lon="8.757203"><ele>327.7142857142857</ele><time>2026-05-04T09:46:15.334Z</time></trkpt><trkpt lat="45.7480691" lon="8.7571744"><ele>326.57142857142856</ele><time>2026-05-04T09:46:22.334Z</time></trkpt><trkpt lat="45.748058" lon="8.7570754"><ele>325.42857142857144</ele><time>2026-05-04T09:46:28.333Z</time></trkpt><trkpt lat="45.7479943" lon="8.7570757"><ele>324.2857142857143</ele><time>2026-05-04T09:46:39.333Z</time></trkpt><trkpt lat="45.7479189" lon="8.7570724"><ele>323.14285714285717</ele><time>2026-05-04T09:46:43.334Z</time></trkpt><trkpt lat="45.7478355" lon="8.7570388"><ele>322.0</ele><time>2026-05-04T09:46:46.333Z</time></trkpt><trkpt lat="45.7477476" lon="8.7570782"><ele>320.20000000000005</ele><time>2026-05-04T09:46:49.334Z</time></trkpt><trkpt lat="45.7476497" lon="8.757158"><ele>318.40000000000003</ele><time>2026-05-04T09:46:51.333Z</time></trkpt><trkpt lat="45.7475256" lon="8.7572088"><ele>316.6</ele><time>2026-05-04T09:46:53.333Z</time></trkpt><trkpt lat="45.7474574" lon="8.757223"><ele>314.8</ele><time>2026-05-04T09:46:54.334Z</time></trkpt><trkpt lat="45.747392" lon="8.7572448"><ele>313.0</ele><time>2026-05-04T09:46:55.333Z</time></trkpt><trkpt lat="45.7473986" lon="8.7573566"><ele>313.0</ele><time>2026-05-04T09:46:59.333Z</time></trkpt><trkpt lat="45.7474158" lon="8.757499"><ele>313.0</ele><time>2026-05-04T09:47:01.334Z</time></trkpt><trkpt lat="45.7474358" lon="8.7576589"><ele>313.0</ele><time>2026-05-04T09:47:03.335Z</time></trkpt><trkpt lat="45.7474323" lon="8.7578277"><ele>313.0</ele><time>2026-05-04T09:47:05.334Z</time></trkpt><trkpt lat="45.7474329" lon="8.7579655"><ele>313.0</ele><time>2026-05-04T09:47:07.333Z</time></trkpt><trkpt lat="45.7474504" lon="8.7581071"><ele>312.2</ele><time>2026-05-04T09:47:09.334Z</time></trkpt><trkpt lat="45.7474762" lon="8.7582738"><ele>311.4</ele><time>2026-05-04T09:47:11.334Z</time></trkpt><trkpt lat="45.7474666" lon="8.7584263"><ele>310.59999999999997</ele><time>2026-05-04T09:47:13.333Z</time></trkpt><trkpt lat="45.747448" lon="8.7585674"><ele>309.8</ele><time>2026-05-04T09:47:15.334Z</time></trkpt><trkpt lat="45.7474046" lon="8.7586879"><ele>309.0</ele><time>2026-05-04T09:47:17.334Z</time></trkpt><trkpt lat="45.7473586" lon="8.7587765"><ele>307.8571428571429</ele><time>2026-05-04T09:47:19.333Z</time></trkpt><trkpt lat="45.7473145" lon="8.7588689"><ele>306.7142857142857</ele><time>2026-05-04T09:47:22.334Z</time></trkpt><trkpt lat="45.747278" lon="8.7589449"><ele>305.57142857142856</ele><time>2026-05-04T09:47:25.333Z</time></trkpt><trkpt lat="45.7472238" lon="8.7590177"><ele>304.42857142857144</ele><time>2026-05-04T09:47:48.334Z</time></trkpt><trkpt lat="45.747143" lon="8.7589707"><ele>303.2857142857143</ele><time>2026-05-04T09:47:52.333Z</time></trkpt><trkpt lat="45.7470769" lon="8.7589036"><ele>302.14285714285717</ele><time>2026-05-04T09:47:55.334Z</time></trkpt><trkpt lat="45.7470286" lon="8.7588456"><ele>301.0</ele><time>2026-05-04T09:47:57.334Z</time></trkpt><trkpt lat="45.7469527" lon="8.7587734"><ele>301.0</ele><time>2026-05-04T09:48:00.333Z</time></trkpt><trkpt lat="45.7468677" lon="8.7587135"><ele>301.0</ele><time>2026-05-04T09:48:03.333Z</time></trkpt><trkpt lat="45.7468045" lon="8.7586674"><ele>301.0</ele><time>2026-05-04T09:48:05.333Z</time></trkpt><trkpt lat="45.7467308" lon="8.7586027"><ele>301.0</ele><time>2026-05-04T09:48:07.334Z</time></trkpt><trkpt lat="45.7466639" lon="8.758483"><ele>301.0</ele><time>2026-05-04T09:48:09.334Z</time></trkpt><trkpt lat="45.7466005" lon="8.7583548"><ele>302.40000000000003</ele><time>2026-05-04T09:48:11.334Z</time></trkpt><trkpt lat="45.7465598" lon="8.7582003"><ele>303.8</ele><time>2026-05-04T09:48:13.333Z</time></trkpt><trkpt lat="45.7464982" lon="8.7580701"><ele>305.20000000000005</ele><time>2026-05-04T09:48:15.333Z</time></trkpt><trkpt lat="45.7464475" lon="8.7580048"><ele>306.6</ele><time>2026-05-04T09:48:16.334Z</time></trkpt><trkpt lat="45.7463482" lon="8.757907"><ele>308.0</ele><time>2026-05-04T09:48:18.334Z</time></trkpt><trkpt lat="45.7462448" lon="8.7578401"><ele>308.0</ele><time>2026-05-04T09:48:20.333Z</time></trkpt><trkpt lat="45.7461412" lon="8.757791"><ele>308.0</ele><time>2026-05-04T09:48:22.334Z</time></trkpt><trkpt lat="45.7460684" lon="8.757794"><ele>308.0</ele><time>2026-05-04T09:48:24.334Z</time></trkpt><trkpt lat="45.745986" lon="8.7577336"><ele>308.0</ele><time>2026-05-04T09:48:26.333Z</time></trkpt><trkpt lat="45.7458979" lon="8.7576694"><ele>308.0</ele><time>2026-05-04T09:48:28.333Z</time></trkpt><trkpt lat="45.745817" lon="8.7576062"><ele>310.4</ele><time>2026-05-04T09:48:30.334Z</time></trkpt><trkpt lat="45.7457155" lon="8.7575352"><ele>312.8</ele><time>2026-05-04T09:48:32.332Z</time></trkpt><trkpt lat="45.7456565" lon="8.7574792"><ele>315.2</ele><time>2026-05-04T09:48:34.333Z</time></trkpt><trkpt lat="45.7455683" lon="8.7574433"><ele>317.6</ele><time>2026-05-04T09:48:37.334Z</time></trkpt><trkpt lat="45.7454747" lon="8.757405"><ele>320.0</ele><time>2026-05-04T09:48:39.334Z</time></trkpt><trkpt lat="45.7453884" lon="8.7573641"><ele>320.0</ele><time>2026-05-04T09:48:41.334Z</time></trkpt><trkpt lat="45.7452805" lon="8.7573522"><ele>320.0</ele><time>2026-05-04T09:48:43.333Z</time></trkpt><trkpt lat="45.7451807" lon="8.7572911"><ele>320.0</ele><time>2026-05-04T09:48:45.334Z</time></trkpt><trkpt lat="45.7450955" lon="8.7572581"><ele>320.0</ele><time>2026-05-04T09:48:48.333Z</time></trkpt><trkpt lat="45.7450185" lon="8.7572534"><ele>320.0</ele><time>2026-05-04T09:48:51.334Z</time></trkpt><trkpt lat="45.7449532" lon="8.7572341"><ele>320.0</ele><time>2026-05-04T09:48:53.334Z</time></trkpt><trkpt lat="45.7448633" lon="8.7572241"><ele>319.83333333333337</ele><time>2026-05-04T09:48:55.334Z</time></trkpt><trkpt lat="45.7447846" lon="8.7571873"><ele>319.6666666666667</ele><time>2026-05-04T09:48:57.333Z</time></trkpt><trkpt lat="45.7447069" lon="8.7571305"><ele>319.5</ele><time>2026-05-04T09:48:59.333Z</time></trkpt><trkpt lat="45.7446453" lon="8.7570989"><ele>319.3333333333333</ele><time>2026-05-04T09:49:01.334Z</time></trkpt><trkpt lat="45.744564" lon="8.7570632"><ele>319.16666666666663</ele><time>2026-05-04T09:49:03.334Z</time></trkpt><trkpt lat="45.7444937" lon="8.7570356"><ele>319.0</ele><time>2026-05-04T09:49:05.334Z</time></trkpt><trkpt lat="45.744402" lon="8.7569894"><ele>318.66666666666663</ele><time>2026-05-04T09:49:08.333Z</time></trkpt><trkpt lat="45.7443193" lon="8.7569527"><ele>318.3333333333333</ele><time>2026-05-04T09:49:10.333Z</time></trkpt><trkpt lat="45.7442466" lon="8.7569119"><ele>318.0</ele><time>2026-05-04T09:49:12.333Z</time></trkpt><trkpt lat="45.7441713" lon="8.7568522"><ele>317.6666666666667</ele><time>2026-05-04T09:49:14.334Z</time></trkpt><trkpt lat="45.7441112" lon="8.756819"><ele>317.33333333333337</ele><time>2026-05-04T09:49:16.334Z</time></trkpt><trkpt lat="45.7440572" lon="8.7567645"><ele>317.0</ele><time>2026-05-04T09:49:18.334Z</time></trkpt><trkpt lat="45.7439693" lon="8.756726"><ele>319.1666666666667</ele><time>2026-05-04T09:49:21.333Z</time></trkpt><trkpt lat="45.7439023" lon="8.7566803"><ele>321.33333333333337</ele><time>2026-05-04T09:49:23.333Z</time></trkpt><trkpt lat="45.743815" lon="8.756629"><ele>323.5</ele><time>2026-05-04T09:49:25.333Z</time></trkpt><trkpt lat="45.7437296" lon="8.7565649"><ele>325.6666666666667</ele><time>2026-05-04T09:49:27.333Z</time></trkpt><trkpt lat="45.7436721" lon="8.7564615"><ele>327.8333333333333</ele><time>2026-05-04T09:49:29.334Z</time></trkpt><trkpt lat="45.7436288" lon="8.7563864"><ele>330.0</ele><time>2026-05-04T09:49:31.334Z</time></trkpt><trkpt lat="45.7435881" lon="8.7562924"><ele>330.00000000000006</ele><time>2026-05-04T09:49:33.334Z</time></trkpt><trkpt lat="45.7435613" lon="8.7561956"><ele>330.0</ele><time>2026-05-04T09:49:35.333Z</time></trkpt><trkpt lat="45.7435442" lon="8.7561038"><ele>330.0</ele><time>2026-05-04T09:49:37.333Z</time></trkpt><trkpt lat="45.7435336" lon="8.7560136"><ele>330.0</ele><time>2026-05-04T09:49:40.334Z</time></trkpt><trkpt lat="45.7434745" lon="8.7559441"><ele>330.0</ele><time>2026-05-04T09:49:43.334Z</time></trkpt><trkpt lat="45.7434084" lon="8.7558626"><ele>330.00000000000006</ele><time>2026-05-04T09:49:46.333Z</time></trkpt><trkpt lat="45.7433581" lon="8.7557825"><ele>330.0</ele><time>2026-05-04T09:49:49.333Z</time></trkpt><trkpt lat="45.7433359" lon="8.7556773"><ele>330.2</ele><time>2026-05-04T09:50:01.333Z</time></trkpt><trkpt lat="45.7432159" lon="8.7556092"><ele>330.4</ele><time>2026-05-04T09:50:05.333Z</time></trkpt><trkpt lat="45.7431493" lon="8.7555496"><ele>330.6</ele><time>2026-05-04T09:50:08.333Z</time></trkpt><trkpt lat="45.7430685" lon="8.7555244"><ele>330.8</ele><time>2026-05-04T09:50:11.333Z</time></trkpt><trkpt lat="45.7429601" lon="8.7555183"><ele>331.0</ele><time>2026-05-04T09:50:13.333Z</time></trkpt><trkpt lat="45.7428912" lon="8.7555028"><ele>331.0</ele><time>2026-05-04T09:50:15.333Z</time></trkpt><trkpt lat="45.7428311" lon="8.7554743"><ele>331.0</ele><time>2026-05-04T09:50:17.334Z</time></trkpt><trkpt lat="45.7427628" lon="8.7554689"><ele>331.0</ele><time>2026-05-04T09:50:20.334Z</time></trkpt><trkpt lat="45.7426869" lon="8.7554781"><ele>331.0</ele><time>2026-05-04T09:50:23.333Z</time></trkpt><trkpt lat="45.7425981" lon="8.7554522"><ele>331.0</ele><time>2026-05-04T09:50:26.333Z</time></trkpt><trkpt lat="45.7425093" lon="8.755428"><ele>331.0</ele><time>2026-05-04T09:50:29.333Z</time></trkpt><trkpt lat="45.7424261" lon="8.7553652"><ele>329.20000000000005</ele><time>2026-05-04T09:50:31.333Z</time></trkpt><trkpt lat="45.7423352" lon="8.7553481"><ele>327.40000000000003</ele><time>2026-05-04T09:50:33.333Z</time></trkpt><trkpt lat="45.7422517" lon="8.7553343"><ele>325.6</ele><time>2026-05-04T09:50:34.333Z</time></trkpt><trkpt lat="45.7421411" lon="8.7553176"><ele>323.8</ele><time>2026-05-04T09:50:36.333Z</time></trkpt><trkpt lat="45.7420441" lon="8.7552989"><ele>322.0</ele><time>2026-05-04T09:50:38.333Z</time></trkpt><trkpt lat="45.7419629" lon="8.7552827"><ele>322.0</ele><time>2026-05-04T09:50:40.334Z</time></trkpt><trkpt lat="45.7418846" lon="8.7553517"><ele>322.0</ele><time>2026-05-04T09:50:42.334Z</time></trkpt><trkpt lat="45.7417789" lon="8.7554319"><ele>322.0</ele><time>2026-05-04T09:50:44.334Z</time></trkpt><trkpt lat="45.7417087" lon="8.7554019"><ele>322.0</ele><time>2026-05-04T09:50:46.333Z</time></trkpt><trkpt lat="45.7416395" lon="8.7553673"><ele>322.0</ele><time>2026-05-04T09:50:48.333Z</time></trkpt><trkpt lat="45.7415708" lon="8.755326"><ele>322.0</ele><time>2026-05-04T09:50:50.333Z</time></trkpt><trkpt lat="45.7415002" lon="8.7552538"><ele>321.16666666666663</ele><time>2026-05-04T09:50:52.333Z</time></trkpt><trkpt lat="45.7414095" lon="8.7551712"><ele>320.3333333333333</ele><time>2026-05-04T09:50:54.333Z</time></trkpt><trkpt lat="45.7413204" lon="8.7550939"><ele>319.5</ele><time>2026-05-04T09:50:56.334Z</time></trkpt><trkpt lat="45.7412404" lon="8.7550346"><ele>318.6666666666667</ele><time>2026-05-04T09:50:58.334Z</time></trkpt><trkpt lat="45.7411773" lon="8.7550101"><ele>317.83333333333337</ele><time>2026-05-04T09:51:00.333Z</time></trkpt><trkpt lat="45.7411271" lon="8.7550784"><ele>317.0</ele><time>2026-05-04T09:51:11.334Z</time></trkpt><trkpt lat="45.7411186" lon="8.7551684"><ele>316.6</ele><time>2026-05-04T09:51:14.333Z</time></trkpt><trkpt lat="45.7410988" lon="8.755287"><ele>316.2</ele><time>2026-05-04T09:51:17.333Z</time></trkpt><trkpt lat="45.7410912" lon="8.7553824"><ele>315.8</ele><time>2026-05-04T09:51:19.334Z</time></trkpt><trkpt lat="45.7410838" lon="8.7554976"><ele>315.4</ele><time>2026-05-04T09:51:21.334Z</time></trkpt><trkpt lat="45.7410654" lon="8.7556318"><ele>315.0</ele><time>2026-05-04T09:51:23.334Z</time></trkpt><trkpt lat="45.7409855" lon="8.7557895"><ele>312.6666666666667</ele><time>2026-05-04T09:51:25.334Z</time></trkpt><trkpt lat="45.7409365" lon="8.7559553"><ele>310.3333333333333</ele><time>2026-05-04T09:51:27.333Z</time></trkpt><trkpt lat="45.7408936" lon="8.756052"><ele>308.0</ele><time>2026-05-04T09:51:28.334Z</time></trkpt><trkpt lat="45.7408549" lon="8.7561491"><ele>305.66666666666663</ele><time>2026-05-04T09:51:29.333Z</time></trkpt><trkpt lat="45.7408028" lon="8.7562488"><ele>303.3333333333333</ele><time>2026-05-04T09:51:30.333Z</time></trkpt><trkpt lat="45.7407697" lon="8.7563276"><ele>301.0</ele><time>2026-05-04T09:51:31.334Z</time></trkpt><trkpt lat="45.7407249" lon="8.7563953"><ele>300.0</ele><time>2026-05-04T09:51:32.333Z</time></trkpt><trkpt lat="45.7406802" lon="8.7564837"><ele>299.0</ele><time>2026-05-04T09:51:33.334Z</time></trkpt><trkpt lat="45.7405913" lon="8.7565631"><ele>298.0</ele><time>2026-05-04T09:51:35.334Z</time></trkpt><trkpt lat="45.7405048" lon="8.7565312"><ele>297.0</ele><time>2026-05-04T09:51:37.333Z</time></trkpt><trkpt lat="45.7404244" lon="8.7564725"><ele>296.0</ele><time>2026-05-04T09:51:39.333Z</time></trkpt><trkpt lat="45.7403572" lon="8.756438"><ele>295.0</ele><time>2026-05-04T09:51:41.333Z</time></trkpt><trkpt lat="45.7403152" lon="8.7565561"><ele>295.0</ele><time>2026-05-04T09:51:45.334Z</time></trkpt><trkpt lat="45.7402751" lon="8.7566576"><ele>295.0</ele><time>2026-05-04T09:51:47.334Z</time></trkpt><trkpt lat="45.7402289" lon="8.7567702"><ele>295.0</ele><time>2026-05-04T09:51:49.334Z</time></trkpt><trkpt lat="45.7401959" lon="8.7568903"><ele>295.0</ele><time>2026-05-04T09:51:51.333Z</time></trkpt><trkpt lat="45.7401562" lon="8.7569959"><ele>295.0</ele><time>2026-05-04T09:51:53.334Z</time></trkpt><trkpt lat="45.7401206" lon="8.757107"><ele>295.0</ele><time>2026-05-04T09:51:55.333Z</time></trkpt><trkpt lat="45.7400797" lon="8.7572143"><ele>293.66666666666663</ele><time>2026-05-04T09:51:57.334Z</time></trkpt><trkpt lat="45.7400326" lon="8.7573144"><ele>292.3333333333333</ele><time>2026-05-04T09:51:59.333Z</time></trkpt><trkpt lat="45.7399883" lon="8.7574226"><ele>291.0</ele><time>2026-05-04T09:52:01.334Z</time></trkpt><trkpt lat="45.7399517" lon="8.7575327"><ele>289.6666666666667</ele><time>2026-05-04T09:52:03.333Z</time></trkpt><trkpt lat="45.7399176" lon="8.7576422"><ele>288.33333333333337</ele><time>2026-05-04T09:52:05.333Z</time></trkpt><trkpt lat="45.7398849" lon="8.7577383"><ele>287.0</ele><time>2026-05-04T09:52:07.333Z</time></trkpt><trkpt lat="45.7398539" lon="8.7578294"><ele>287.0</ele><time>2026-05-04T09:52:09.333Z</time></trkpt><trkpt lat="45.7398337" lon="8.7579226"><ele>287.0</ele><time>2026-05-04T09:52:11.334Z</time></trkpt><trkpt lat="45.7398024" lon="8.7580054"><ele>287.0</ele><time>2026-05-04T09:52:13.334Z</time></trkpt><trkpt lat="45.7397126" lon="8.757994"><ele>287.0</ele><time>2026-05-04T09:52:15.333Z</time></trkpt><trkpt lat="45.7396332" lon="8.7579784"><ele>287.0</ele><time>2026-05-04T09:52:17.333Z</time></trkpt><trkpt lat="45.7395522" lon="8.7579579"><ele>287.0</ele><time>2026-05-04T09:52:19.334Z</time></trkpt><trkpt lat="45.739468" lon="8.7579471"><ele>287.1666666666667</ele><time>2026-05-04T09:52:21.333Z</time></trkpt><trkpt lat="45.7393831" lon="8.757934"><ele>287.33333333333337</ele><time>2026-05-04T09:52:23.333Z</time></trkpt><trkpt lat="45.7393004" lon="8.7579231"><ele>287.5</ele><time>2026-05-04T09:52:25.334Z</time></trkpt><trkpt lat="45.7392185" lon="8.7579083"><ele>287.6666666666667</ele><time>2026-05-04T09:52:27.333Z</time></trkpt><trkpt lat="45.7391397" lon="8.7578941"><ele>287.8333333333333</ele><time>2026-05-04T09:52:29.334Z</time></trkpt><trkpt lat="45.7390522" lon="8.7578786"><ele>288.0</ele><time>2026-05-04T09:52:31.333Z</time></trkpt><trkpt lat="45.7389691" lon="8.7578609"><ele>288.0</ele><time>2026-05-04T09:52:33.334Z</time></trkpt><trkpt lat="45.7388904" lon="8.7578262"><ele>288.0</ele><time>2026-05-04T09:52:35.333Z</time></trkpt><trkpt lat="45.7388121" lon="8.757788"><ele>288.0</ele><time>2026-05-04T09:52:37.334Z</time></trkpt><trkpt lat="45.7387339" lon="8.757762"><ele>288.0</ele><time>2026-05-04T09:52:39.333Z</time></trkpt><trkpt lat="45.7386412" lon="8.7577281"><ele>288.0</ele><time>2026-05-04T09:52:42.333Z</time></trkpt><trkpt lat="45.7385511" lon="8.7576816"><ele>288.0</ele><time>2026-05-04T09:52:44.334Z</time></trkpt><trkpt lat="45.7384619" lon="8.7576269"><ele>287.4</ele><time>2026-05-04T09:52:46.333Z</time></trkpt><trkpt lat="45.7383725" lon="8.757569"><ele>286.8</ele><time>2026-05-04T09:52:48.333Z</time></trkpt><trkpt lat="45.7382866" lon="8.7575197"><ele>286.2</ele><time>2026-05-04T09:52:50.332Z</time></trkpt><trkpt lat="45.7382067" lon="8.7574674"><ele>285.6</ele><time>2026-05-04T09:52:52.334Z</time></trkpt><trkpt lat="45.7381282" lon="8.7574114"><ele>285.0</ele><time>2026-05-04T09:52:54.333Z</time></trkpt><trkpt lat="45.7380535" lon="8.7573528"><ele>285.0</ele><time>2026-05-04T09:52:56.333Z</time></trkpt><trkpt lat="45.7379738" lon="8.7573019"><ele>285.0</ele><time>2026-05-04T09:52:58.334Z</time></trkpt><trkpt lat="45.7378917" lon="8.7572522"><ele>285.0</ele><time>2026-05-04T09:53:00.334Z</time></trkpt><trkpt lat="45.7378065" lon="8.7572115"><ele>285.0</ele><time>2026-05-04T09:53:02.334Z</time></trkpt><trkpt lat="45.7377203" lon="8.7571816"><ele>285.0</ele><time>2026-05-04T09:53:04.333Z</time></trkpt><trkpt lat="45.7376321" lon="8.7571613"><ele>285.0</ele><time>2026-05-04T09:53:06.333Z</time></trkpt><trkpt lat="45.7375459" lon="8.75715"><ele>285.1666666666667</ele><time>2026-05-04T09:53:08.333Z</time></trkpt><trkpt lat="45.7374616" lon="8.7571359"><ele>285.3333333333333</ele><time>2026-05-04T09:53:10.334Z</time></trkpt><trkpt lat="45.7373767" lon="8.7571183"><ele>285.5</ele><time>2026-05-04T09:53:12.333Z</time></trkpt><trkpt lat="45.7372952" lon="8.7570955"><ele>285.66666666666663</ele><time>2026-05-04T09:53:14.334Z</time></trkpt><trkpt lat="45.7372214" lon="8.7570663"><ele>285.8333333333333</ele><time>2026-05-04T09:53:16.334Z</time></trkpt><trkpt lat="45.7371446" lon="8.7570421"><ele>286.0</ele><time>2026-05-04T09:53:18.333Z</time></trkpt><trkpt lat="45.7370627" lon="8.7570128"><ele>286.0</ele><time>2026-05-04T09:53:20.333Z</time></trkpt><trkpt lat="45.7369799" lon="8.7569851"><ele>286.0</ele><time>2026-05-04T09:53:22.333Z</time></trkpt><trkpt lat="45.736899" lon="8.7569566"><ele>286.0</ele><time>2026-05-04T09:53:24.333Z</time></trkpt><trkpt lat="45.7368211" lon="8.7569155"><ele>286.0</ele><time>2026-05-04T09:53:26.333Z</time></trkpt><trkpt lat="45.7367459" lon="8.756842"><ele>286.0</ele><time>2026-05-04T09:53:28.334Z</time></trkpt><trkpt lat="45.7366837" lon="8.7567527"><ele>286.0</ele><time>2026-05-04T09:53:30.333Z</time></trkpt><trkpt lat="45.7366272" lon="8.7566568"><ele>287.0</ele><time>2026-05-04T09:53:32.334Z</time></trkpt><trkpt lat="45.7365448" lon="8.756604"><ele>288.0</ele><time>2026-05-04T09:53:34.334Z</time></trkpt><trkpt lat="45.7364509" lon="8.7566107"><ele>289.0</ele><time>2026-05-04T09:53:36.333Z</time></trkpt><trkpt lat="45.7363558" lon="8.7566426"><ele>290.0</ele><time>2026-05-04T09:53:38.333Z</time></trkpt><trkpt lat="45.7362728" lon="8.7566594"><ele>291.0</ele><time>2026-05-04T09:53:40.334Z</time></trkpt><trkpt lat="45.7361733" lon="8.7567008"><ele>291.0</ele><time>2026-05-04T09:53:42.333Z</time></trkpt><trkpt lat="45.7360749" lon="8.7567339"><ele>291.0</ele><time>2026-05-04T09:53:44.333Z</time></trkpt><trkpt lat="45.7359721" lon="8.7567749"><ele>291.0</ele><time>2026-05-04T09:53:46.333Z</time></trkpt><trkpt lat="45.7358711" lon="8.7568232"><ele>291.0</ele><time>2026-05-04T09:53:48.333Z</time></trkpt><trkpt lat="45.7357747" lon="8.756865"><ele>291.0</ele><time>2026-05-04T09:53:50.334Z</time></trkpt><trkpt lat="45.735674" lon="8.756909"><ele>290.2</ele><time>2026-05-04T09:53:52.333Z</time></trkpt><trkpt lat="45.7355735" lon="8.7569548"><ele>289.40000000000003</ele><time>2026-05-04T09:53:54.333Z</time></trkpt><trkpt lat="45.7354728" lon="8.7569981"><ele>288.6</ele><time>2026-05-04T09:53:56.333Z</time></trkpt><trkpt lat="45.7353688" lon="8.7570328"><ele>287.8</ele><time>2026-05-04T09:53:58.332Z</time></trkpt><trkpt lat="45.7352639" lon="8.7570595"><ele>287.0</ele><time>2026-05-04T09:54:00.334Z</time></trkpt><trkpt lat="45.7351633" lon="8.7570576"><ele>287.0</ele><time>2026-05-04T09:54:02.334Z</time></trkpt><trkpt lat="45.7350651" lon="8.7570264"><ele>287.0</ele><time>2026-05-04T09:54:04.333Z</time></trkpt><trkpt lat="45.7349773" lon="8.7569713"><ele>287.0</ele><time>2026-05-04T09:54:06.333Z</time></trkpt><trkpt lat="45.7348926" lon="8.7569245"><ele>287.0</ele><time>2026-05-04T09:54:08.333Z</time></trkpt><trkpt lat="45.7348143" lon="8.7568735"><ele>287.0</ele><time>2026-05-04T09:54:10.334Z</time></trkpt><trkpt lat="45.7347566" lon="8.7568109"><ele>287.0</ele><time>2026-05-04T09:54:12.333Z</time></trkpt><trkpt lat="45.734697" lon="8.7567679"><ele>288.1666666666667</ele><time>2026-05-04T09:54:14.334Z</time></trkpt><trkpt lat="45.7346167" lon="8.7567457"><ele>289.33333333333337</ele><time>2026-05-04T09:54:16.333Z</time></trkpt><trkpt lat="45.7345297" lon="8.7567258"><ele>290.5</ele><time>2026-05-04T09:54:18.333Z</time></trkpt><trkpt lat="45.73444" lon="8.7567046"><ele>291.6666666666667</ele><time>2026-05-04T09:54:20.333Z</time></trkpt><trkpt lat="45.734352" lon="8.7566891"><ele>292.8333333333333</ele><time>2026-05-04T09:54:22.333Z</time></trkpt><trkpt lat="45.7342691" lon="8.7566675"><ele>294.0</ele><time>2026-05-04T09:54:24.333Z</time></trkpt><trkpt lat="45.7341881" lon="8.7566505"><ele>294.0</ele><time>2026-05-04T09:54:26.334Z</time></trkpt><trkpt lat="45.7341057" lon="8.7566278"><ele>294.0</ele><time>2026-05-04T09:54:28.334Z</time></trkpt><trkpt lat="45.7340181" lon="8.7566068"><ele>294.0</ele><time>2026-05-04T09:54:30.334Z</time></trkpt><trkpt lat="45.7339252" lon="8.7565833"><ele>294.0</ele><time>2026-05-04T09:54:32.334Z</time></trkpt><trkpt lat="45.7338306" lon="8.756558"><ele>294.0</ele><time>2026-05-04T09:54:34.334Z</time></trkpt><trkpt lat="45.7337342" lon="8.7565305"><ele>294.0</ele><time>2026-05-04T09:54:36.333Z</time></trkpt><trkpt lat="45.7336358" lon="8.7565138"><ele>294.0</ele><time>2026-05-04T09:54:38.333Z</time></trkpt><trkpt lat="45.7335422" lon="8.756498"><ele>294.0</ele><time>2026-05-04T09:54:40.333Z</time></trkpt><trkpt lat="45.733442" lon="8.7565001"><ele>294.0</ele><time>2026-05-04T09:54:42.334Z</time></trkpt><trkpt lat="45.7333353" lon="8.7565024"><ele>294.0</ele><time>2026-05-04T09:54:44.333Z</time></trkpt><trkpt lat="45.7332249" lon="8.7565129"><ele>293.59999999999997</ele><time>2026-05-04T09:54:46.334Z</time></trkpt><trkpt lat="45.7331144" lon="8.7565356"><ele>293.2</ele><time>2026-05-04T09:54:48.334Z</time></trkpt><trkpt lat="45.7330106" lon="8.7565525"><ele>292.79999999999995</ele><time>2026-05-04T09:54:50.334Z</time></trkpt><trkpt lat="45.7329102" lon="8.7565416"><ele>292.4</ele><time>2026-05-04T09:54:52.332Z</time></trkpt><trkpt lat="45.7328058" lon="8.7565105"><ele>292.0</ele><time>2026-05-04T09:54:54.333Z</time></trkpt><trkpt lat="45.7326973" lon="8.7564612"><ele>291.0</ele><time>2026-05-04T09:54:56.333Z</time></trkpt><trkpt lat="45.7325825" lon="8.7564073"><ele>290.0</ele><time>2026-05-04T09:54:58.333Z</time></trkpt><trkpt lat="45.7324716" lon="8.7563558"><ele>289.0</ele><time>2026-05-04T09:55:00.333Z</time></trkpt><trkpt lat="45.7323677" lon="8.7563033"><ele>288.0</ele><time>2026-05-04T09:55:02.334Z</time></trkpt><trkpt lat="45.732268" lon="8.7562698"><ele>288.0</ele><time>2026-05-04T09:55:04.334Z</time></trkpt><trkpt lat="45.7321622" lon="8.7562595"><ele>288.0</ele><time>2026-05-04T09:55:06.334Z</time></trkpt><trkpt lat="45.7320756" lon="8.7562527"><ele>288.0</ele><time>2026-05-04T09:55:08.333Z</time></trkpt><trkpt lat="45.7319687" lon="8.7562211"><ele>288.0</ele><time>2026-05-04T09:55:10.334Z</time></trkpt><trkpt lat="45.731911" lon="8.7561818"><ele>288.0</ele><time>2026-05-04T09:55:11.334Z</time></trkpt><trkpt lat="45.7318438" lon="8.7561764"><ele>288.0</ele><time>2026-05-04T09:55:12.333Z</time></trkpt><trkpt lat="45.731776" lon="8.7561598"><ele>288.2</ele><time>2026-05-04T09:55:13.334Z</time></trkpt><trkpt lat="45.7317214" lon="8.7562259"><ele>288.4</ele><time>2026-05-04T09:55:14.333Z</time></trkpt><trkpt lat="45.7315971" lon="8.7562275"><ele>288.59999999999997</ele><time>2026-05-04T09:55:16.334Z</time></trkpt><trkpt lat="45.7315013" lon="8.7562209"><ele>288.8</ele><time>2026-05-04T09:55:17.333Z</time></trkpt><trkpt lat="45.7313819" lon="8.756241"><ele>289.0</ele><time>2026-05-04T09:55:19.333Z</time></trkpt><trkpt lat="45.7312613" lon="8.7562319"><ele>289.0</ele><time>2026-05-04T09:55:21.333Z</time></trkpt><trkpt lat="45.7311975" lon="8.7562371"><ele>289.0</ele><time>2026-05-04T09:55:22.333Z</time></trkpt><trkpt lat="45.731132" lon="8.7562428"><ele>289.0</ele><time>2026-05-04T09:55:23.334Z</time></trkpt><trkpt lat="45.7310668" lon="8.756246"><ele>289.0</ele><time>2026-05-04T09:55:24.334Z</time></trkpt><trkpt lat="45.7309976" lon="8.7562777"><ele>289.0</ele><time>2026-05-04T09:55:25.333Z</time></trkpt><trkpt lat="45.7309309" lon="8.756295"><ele>289.0</ele><time>2026-05-04T09:55:26.333Z</time></trkpt><trkpt lat="45.7308351" lon="8.7563329"><ele>289.0</ele><time>2026-05-04T09:55:27.333Z</time></trkpt><trkpt lat="45.7307696" lon="8.7563757"><ele>289.66666666666663</ele><time>2026-05-04T09:55:28.334Z</time></trkpt><trkpt lat="45.7307053" lon="8.7563982"><ele>290.3333333333333</ele><time>2026-05-04T09:55:29.333Z</time></trkpt><trkpt lat="45.7306307" lon="8.7563786"><ele>291.0</ele><time>2026-05-04T09:55:30.332Z</time></trkpt><trkpt lat="45.7305199" lon="8.7563519"><ele>291.6666666666667</ele><time>2026-05-04T09:55:32.334Z</time></trkpt><trkpt lat="45.7304546" lon="8.7563446"><ele>292.33333333333337</ele><time>2026-05-04T09:55:33.332Z</time></trkpt><trkpt lat="45.7303782" lon="8.7563522"><ele>293.0</ele><time>2026-05-04T09:55:34.334Z</time></trkpt><trkpt lat="45.7302646" lon="8.756346"><ele>292.2</ele><time>2026-05-04T09:55:36.334Z</time></trkpt><trkpt lat="45.7301454" lon="8.75635"><ele>291.4</ele><time>2026-05-04T09:55:38.332Z</time></trkpt><trkpt lat="45.7300285" lon="8.7563668"><ele>290.59999999999997</ele><time>2026-05-04T09:55:40.333Z</time></trkpt><trkpt lat="45.729898" lon="8.7563942"><ele>289.8</ele><time>2026-05-04T09:55:42.334Z</time></trkpt><trkpt lat="45.7298215" lon="8.7563887"><ele>289.0</ele><time>2026-05-04T09:55:43.334Z</time></trkpt><trkpt lat="45.7297577" lon="8.7563938"><ele>289.0</ele><time>2026-05-04T09:55:44.333Z</time></trkpt><trkpt lat="45.7296938" lon="8.7564014"><ele>289.0</ele><time>2026-05-04T09:55:45.333Z</time></trkpt><trkpt lat="45.7296281" lon="8.7564069"><ele>289.0</ele><time>2026-05-04T09:55:46.333Z</time></trkpt><trkpt lat="45.7295088" lon="8.7564366"><ele>289.0</ele><time>2026-05-04T09:55:48.334Z</time></trkpt><trkpt lat="45.72938" lon="8.756485"><ele>289.0</ele><time>2026-05-04T09:55:50.334Z</time></trkpt><trkpt lat="45.7292891" lon="8.7565037"><ele>289.4</ele><time>2026-05-04T09:55:52.334Z</time></trkpt><trkpt lat="45.7291271" lon="8.7565076"><ele>289.79999999999995</ele><time>2026-05-04T09:55:54.334Z</time></trkpt><trkpt lat="45.7290664" lon="8.7565344"><ele>290.20000000000005</ele><time>2026-05-04T09:55:55.333Z</time></trkpt><trkpt lat="45.7289596" lon="8.7565421"><ele>290.6</ele><time>2026-05-04T09:55:57.334Z</time></trkpt><trkpt lat="45.7288517" lon="8.7565428"><ele>291.0</ele><time>2026-05-04T09:55:59.334Z</time></trkpt><trkpt lat="45.7287889" lon="8.7565213"><ele>291.0</ele><time>2026-05-04T09:56:00.334Z</time></trkpt><trkpt lat="45.7286921" lon="8.7564947"><ele>291.0</ele><time>2026-05-04T09:56:02.334Z</time></trkpt><trkpt lat="45.7285819" lon="8.7564875"><ele>291.0</ele><time>2026-05-04T09:56:04.333Z</time></trkpt><trkpt lat="45.7284591" lon="8.7564817"><ele>291.0</ele><time>2026-05-04T09:56:06.334Z</time></trkpt><trkpt lat="45.7283508" lon="8.7564788"><ele>291.0</ele><time>2026-05-04T09:56:08.334Z</time></trkpt><trkpt lat="45.728246" lon="8.7564531"><ele>291.3333333333333</ele><time>2026-05-04T09:56:10.333Z</time></trkpt><trkpt lat="45.728141" lon="8.7564339"><ele>291.6666666666667</ele><time>2026-05-04T09:56:12.333Z</time></trkpt><trkpt lat="45.7280565" lon="8.7563759"><ele>292.0</ele><time>2026-05-04T09:56:14.333Z</time></trkpt><trkpt lat="45.7280297" lon="8.7562648"><ele>292.33333333333337</ele><time>2026-05-04T09:56:16.333Z</time></trkpt><trkpt lat="45.7280345" lon="8.7561538"><ele>292.6666666666667</ele><time>2026-05-04T09:56:18.333Z</time></trkpt><trkpt lat="45.7280078" lon="8.7560512"><ele>293.0</ele><time>2026-05-04T09:56:21.334Z</time></trkpt><trkpt lat="45.727946" lon="8.7560902"><ele>293.0</ele><time>2026-05-04T09:56:24.334Z</time></trkpt><trkpt lat="45.7278907" lon="8.7561353"><ele>293.0</ele><time>2026-05-04T09:56:26.333Z</time></trkpt><trkpt lat="45.7278141" lon="8.7561785"><ele>293.0</ele><time>2026-05-04T09:56:28.334Z</time></trkpt><trkpt lat="45.7277165" lon="8.7562104"><ele>293.0</ele><time>2026-05-04T09:56:29.333Z</time></trkpt><trkpt lat="45.7276362" lon="8.7562341"><ele>293.0</ele><time>2026-05-04T09:56:30.332Z</time></trkpt><trkpt lat="45.7275444" lon="8.756246"><ele>293.0</ele><time>2026-05-04T09:56:31.334Z</time></trkpt><trkpt lat="45.7274562" lon="8.7562378"><ele>294.2</ele><time>2026-05-04T09:56:32.333Z</time></trkpt><trkpt lat="45.7273733" lon="8.7562358"><ele>295.4</ele><time>2026-05-04T09:56:33.333Z</time></trkpt><trkpt lat="45.7273081" lon="8.7562388"><ele>296.59999999999997</ele><time>2026-05-04T09:56:34.334Z</time></trkpt><trkpt lat="45.7271843" lon="8.756246"><ele>297.8</ele><time>2026-05-04T09:56:36.334Z</time></trkpt><trkpt lat="45.7271158" lon="8.7562529"><ele>299.0</ele><time>2026-05-04T09:56:37.333Z</time></trkpt><trkpt lat="45.7269972" lon="8.756271"><ele>299.0</ele><time>2026-05-04T09:56:39.333Z</time></trkpt><trkpt lat="45.7268773" lon="8.7562767"><ele>297.0</ele><time>2026-05-04T09:56:41.333Z</time></trkpt><trkpt lat="45.7267947" lon="8.7562402"><ele>297.0</ele><time>2026-05-04T09:56:42.333Z</time></trkpt><trkpt lat="45.7267174" lon="8.7562157"><ele>297.0</ele><time>2026-05-04T09:56:43.333Z</time></trkpt><trkpt lat="45.7266539" lon="8.7561965"><ele>297.0</ele><time>2026-05-04T09:56:44.333Z</time></trkpt><trkpt lat="45.7265652" lon="8.756157"><ele>297.0</ele><time>2026-05-04T09:56:46.333Z</time></trkpt></trkseg><trkseg><trkpt lat="45.7082697" lon="8.7490271"><ele>284.0</ele><time>2026-05-04T10:12:23.937Z</time></trkpt><trkpt lat="45.7083398" lon="8.7489708"><ele>284.0</ele><time>2026-05-04T10:12:27.937Z</time></trkpt><trkpt lat="45.7083756" lon="8.7488711"><ele>284.0</ele><time>2026-05-04T10:12:31.937Z</time></trkpt><trkpt lat="45.7084059" lon="8.7487919"><ele>284.0</ele><time>2026-05-04T10:12:34.937Z</time></trkpt><trkpt lat="45.7084256" lon="8.7486846"><ele>284.0</ele><time>2026-05-04T10:12:38.937Z</time></trkpt><trkpt lat="45.7083633" lon="8.7486253"><ele>284.0</ele><time>2026-05-04T10:14:01.936Z</time></trkpt><trkpt lat="45.7083081" lon="8.7485622"><ele>284.0</ele><time>2026-05-04T10:14:03.936Z</time></trkpt><trkpt lat="45.7082431" lon="8.7485064"><ele>284.0</ele><time>2026-05-04T10:14:05.936Z</time></trkpt><trkpt lat="45.7081738" lon="8.7484515"><ele>284.0</ele><time>2026-05-04T10:14:07.936Z</time></trkpt><trkpt lat="45.7080998" lon="8.7484173"><ele>284.0</ele><time>2026-05-04T10:14:09.935Z</time></trkpt><trkpt lat="45.7080143" lon="8.7483961"><ele>284.0</ele><time>2026-05-04T10:14:11.935Z</time></trkpt><trkpt lat="45.7079296" lon="8.7483577"><ele>284.0</ele><time>2026-05-04T10:14:13.935Z</time></trkpt><trkpt lat="45.7078551" lon="8.7482978"><ele>284.0</ele><time>2026-05-04T10:14:15.936Z</time></trkpt><trkpt lat="45.7077939" lon="8.7482082"><ele>283.5</ele><time>2026-05-04T10:14:17.936Z</time></trkpt><trkpt lat="45.707738" lon="8.7481201"><ele>283.0</ele><time>2026-05-04T10:14:19.936Z</time></trkpt><trkpt lat="45.7076857" lon="8.7480294"><ele>282.5</ele><time>2026-05-04T10:14:21.935Z</time></trkpt><trkpt lat="45.7076438" lon="8.7479379"><ele>282.0</ele><time>2026-05-04T10:14:23.936Z</time></trkpt><trkpt lat="45.7076026" lon="8.7478543"><ele>281.5</ele><time>2026-05-04T10:14:25.936Z</time></trkpt><trkpt lat="45.7075505" lon="8.7477841"><ele>281.0</ele><time>2026-05-04T10:14:27.936Z</time></trkpt><trkpt lat="45.7075027" lon="8.7477196"><ele>281.0</ele><time>2026-05-04T10:14:29.936Z</time></trkpt><trkpt lat="45.7074474" lon="8.7476319"><ele>281.0</ele><time>2026-05-04T10:14:32.936Z</time></trkpt><trkpt lat="45.7073789" lon="8.7475508"><ele>281.0</ele><time>2026-05-04T10:14:35.936Z</time></trkpt><trkpt lat="45.7073192" lon="8.747501"><ele>281.0</ele><time>2026-05-04T10:14:37.936Z</time></trkpt><trkpt lat="45.7072556" lon="8.7474444"><ele>281.0</ele><time>2026-05-04T10:14:39.936Z</time></trkpt><trkpt lat="45.7071945" lon="8.7473793"><ele>281.0</ele><time>2026-05-04T10:14:41.936Z</time></trkpt><trkpt lat="45.7071317" lon="8.7473124"><ele>281.0</ele><time>2026-05-04T10:14:43.935Z</time></trkpt><trkpt lat="45.7070683" lon="8.747253"><ele>281.0</ele><time>2026-05-04T10:14:45.936Z</time></trkpt><trkpt lat="45.7070082" lon="8.7472051"><ele>281.0</ele><time>2026-05-04T10:14:47.936Z</time></trkpt><trkpt lat="45.7069475" lon="8.7471403"><ele>281.0</ele><time>2026-05-04T10:14:50.936Z</time></trkpt><trkpt lat="45.7069622" lon="8.7470201"><ele>281.0</ele><time>2026-05-04T10:14:54.936Z</time></trkpt><trkpt lat="45.7069719" lon="8.7469024"><ele>281.0</ele><time>2026-05-04T10:14:57.936Z</time></trkpt><trkpt lat="45.7069854" lon="8.7468069"><ele>281.6666666666667</ele><time>2026-05-04T10:14:59.935Z</time></trkpt><trkpt lat="45.7070083" lon="8.7466981"><ele>282.33333333333337</ele><time>2026-05-04T10:15:01.934Z</time></trkpt><trkpt lat="45.7070305" lon="8.7466034"><ele>283.0</ele><time>2026-05-04T10:15:03.935Z</time></trkpt><trkpt lat="45.7070329" lon="8.7464937"><ele>283.6666666666667</ele><time>2026-05-04T10:15:06.936Z</time></trkpt><trkpt lat="45.7070532" lon="8.7465961"><ele>284.3333333333333</ele><time>2026-05-04T10:15:42.936Z</time></trkpt><trkpt lat="45.7070552" lon="8.746706"><ele>285.0</ele><time>2026-05-04T10:15:44.936Z</time></trkpt><trkpt lat="45.7070392" lon="8.7468458"><ele>284.3333333333333</ele><time>2026-05-04T10:15:47.936Z</time></trkpt><trkpt lat="45.7070091" lon="8.746997"><ele>283.6666666666667</ele><time>2026-05-04T10:15:49.936Z</time></trkpt><trkpt lat="45.7069764" lon="8.7471104"><ele>283.0</ele><time>2026-05-04T10:15:51.936Z</time></trkpt><trkpt lat="45.7069389" lon="8.7472135"><ele>282.33333333333337</ele><time>2026-05-04T10:15:53.936Z</time></trkpt><trkpt lat="45.706895" lon="8.7473062"><ele>281.6666666666667</ele><time>2026-05-04T10:15:55.936Z</time></trkpt><trkpt lat="45.7068325" lon="8.7473458"><ele>281.0</ele><time>2026-05-04T10:15:57.936Z</time></trkpt><trkpt lat="45.7067715" lon="8.7473223"><ele>280.6666666666667</ele><time>2026-05-04T10:15:59.936Z</time></trkpt><trkpt lat="45.7067104" lon="8.7472936"><ele>280.33333333333337</ele><time>2026-05-04T10:16:01.936Z</time></trkpt><trkpt lat="45.7066389" lon="8.7472683"><ele>280.0</ele><time>2026-05-04T10:16:03.936Z</time></trkpt><trkpt lat="45.7065653" lon="8.7472588"><ele>279.6666666666667</ele><time>2026-05-04T10:16:05.936Z</time></trkpt><trkpt lat="45.7064725" lon="8.7472803"><ele>279.3333333333333</ele><time>2026-05-04T10:16:07.936Z</time></trkpt><trkpt lat="45.7063776" lon="8.7473087"><ele>279.0</ele><time>2026-05-04T10:16:09.936Z</time></trkpt><trkpt lat="45.7062963" lon="8.7473412"><ele>278.99999999999994</ele><time>2026-05-04T10:16:11.935Z</time></trkpt><trkpt lat="45.7062459" lon="8.7473954"><ele>279.0</ele><time>2026-05-04T10:16:13.936Z</time></trkpt><trkpt lat="45.7062391" lon="8.7474946"><ele>279.0</ele><time>2026-05-04T10:16:15.936Z</time></trkpt><trkpt lat="45.706254" lon="8.747584"><ele>279.0</ele><time>2026-05-04T10:16:17.936Z</time></trkpt><trkpt lat="45.7062879" lon="8.7476784"><ele>279.0</ele><time>2026-05-04T10:16:20.936Z</time></trkpt><trkpt lat="45.7063394" lon="8.747778"><ele>278.99999999999994</ele><time>2026-05-04T10:16:23.936Z</time></trkpt><trkpt lat="45.7063976" lon="8.7478158"><ele>279.0</ele><time>2026-05-04T10:16:26.935Z</time></trkpt><trkpt lat="45.7064485" lon="8.7478751"><ele>278.3333333333333</ele><time>2026-05-04T10:16:28.936Z</time></trkpt><trkpt lat="45.7064943" lon="8.7479475"><ele>277.6666666666667</ele><time>2026-05-04T10:16:31.936Z</time></trkpt><trkpt lat="45.7064208" lon="8.7479619"><ele>277.0</ele><time>2026-05-04T10:16:43.936Z</time></trkpt><trkpt lat="45.7063548" lon="8.747921"><ele>276.33333333333337</ele><time>2026-05-04T10:16:46.936Z</time></trkpt><trkpt lat="45.7062844" lon="8.7478657"><ele>275.6666666666667</ele><time>2026-05-04T10:16:49.935Z</time></trkpt><trkpt lat="45.7062078" lon="8.7478232"><ele>275.0</ele><time>2026-05-04T10:16:52.935Z</time></trkpt><trkpt lat="45.7061218" lon="8.7477689"><ele>275.1666666666667</ele><time>2026-05-04T10:16:55.936Z</time></trkpt><trkpt lat="45.7060582" lon="8.7477359"><ele>275.33333333333337</ele><time>2026-05-04T10:16:57.936Z</time></trkpt><trkpt lat="45.7059852" lon="8.7476923"><ele>275.5</ele><time>2026-05-04T10:17:00.936Z</time></trkpt><trkpt lat="45.7059113" lon="8.747654"><ele>275.6666666666667</ele><time>2026-05-04T10:17:03.936Z</time></trkpt><trkpt lat="45.7058437" lon="8.7476361"><ele>275.8333333333333</ele><time>2026-05-04T10:17:06.937Z</time></trkpt><trkpt lat="45.7057552" lon="8.7476199"><ele>276.0</ele><time>2026-05-04T10:17:09.937Z</time></trkpt><trkpt lat="45.705681" lon="8.7476125"><ele>276.0</ele><time>2026-05-04T10:17:11.936Z</time></trkpt><trkpt lat="45.705598" lon="8.7475952"><ele>276.0</ele><time>2026-05-04T10:17:13.936Z</time></trkpt><trkpt lat="45.7055318" lon="8.7476099"><ele>276.0</ele><time>2026-05-04T10:17:15.936Z</time></trkpt><trkpt lat="45.7054363" lon="8.7476333"><ele>276.0</ele><time>2026-05-04T10:17:18.936Z</time></trkpt><trkpt lat="45.7053525" lon="8.7476695"><ele>276.0</ele><time>2026-05-04T10:17:20.936Z</time></trkpt><trkpt lat="45.7052767" lon="8.7476999"><ele>276.0</ele><time>2026-05-04T10:17:22.936Z</time></trkpt><trkpt lat="45.7051958" lon="8.7476841"><ele>277.3333333333333</ele><time>2026-05-04T10:17:27.935Z</time></trkpt><trkpt lat="45.7051185" lon="8.7476853"><ele>278.6666666666667</ele><time>2026-05-04T10:17:29.935Z</time></trkpt><trkpt lat="45.7050372" lon="8.7476765"><ele>280.0</ele><time>2026-05-04T10:17:33.936Z</time></trkpt><trkpt lat="45.7050265" lon="8.7475756"><ele>281.33333333333337</ele><time>2026-05-04T10:17:36.936Z</time></trkpt><trkpt lat="45.7050288" lon="8.7474685"><ele>282.6666666666667</ele><time>2026-05-04T10:17:39.936Z</time></trkpt><trkpt lat="45.7050524" lon="8.747349"><ele>284.0</ele><time>2026-05-04T10:17:42.936Z</time></trkpt><trkpt lat="45.7050772" lon="8.7472329"><ele>284.0</ele><time>2026-05-04T10:17:45.936Z</time></trkpt><trkpt lat="45.7051118" lon="8.7471212"><ele>284.0</ele><time>2026-05-04T10:17:48.936Z</time></trkpt><trkpt lat="45.7051151" lon="8.7470226"><ele>284.0</ele><time>2026-05-04T10:17:50.936Z</time></trkpt><trkpt lat="45.7051239" lon="8.7469191"><ele>284.0</ele><time>2026-05-04T10:17:53.936Z</time></trkpt><trkpt lat="45.7051559" lon="8.7468339"><ele>284.0</ele><time>2026-05-04T10:17:55.936Z</time></trkpt><trkpt lat="45.7051907" lon="8.746697"><ele>284.0</ele><time>2026-05-04T10:17:57.936Z</time></trkpt><trkpt lat="45.7051974" lon="8.7465483"><ele>284.5</ele><time>2026-05-04T10:17:59.936Z</time></trkpt><trkpt lat="45.7051908" lon="8.7464043"><ele>285.0</ele><time>2026-05-04T10:18:01.936Z</time></trkpt><trkpt lat="45.7051821" lon="8.7462533"><ele>285.5</ele><time>2026-05-04T10:18:03.936Z</time></trkpt><trkpt lat="45.7051397" lon="8.7461801"><ele>286.0</ele><time>2026-05-04T10:18:05.936Z</time></trkpt><trkpt lat="45.7050816" lon="8.7461383"><ele>286.5</ele><time>2026-05-04T10:18:22.936Z</time></trkpt><trkpt lat="45.7050157" lon="8.746156"><ele>287.0</ele><time>2026-05-04T10:18:26.936Z</time></trkpt><trkpt lat="45.7049511" lon="8.7461952"><ele>287.0</ele><time>2026-05-04T10:18:29.936Z</time></trkpt><trkpt lat="45.7048847" lon="8.7462076"><ele>287.0</ele><time>2026-05-04T10:18:32.937Z</time></trkpt><trkpt lat="45.704797" lon="8.7461831"><ele>287.0</ele><time>2026-05-04T10:18:35.936Z</time></trkpt><trkpt lat="45.7046988" lon="8.7461767"><ele>287.0</ele><time>2026-05-04T10:18:37.936Z</time></trkpt><trkpt lat="45.7046154" lon="8.7461554"><ele>287.0</ele><time>2026-05-04T10:18:39.936Z</time></trkpt><trkpt lat="45.7045409" lon="8.7461157"><ele>287.0</ele><time>2026-05-04T10:18:41.936Z</time></trkpt><trkpt lat="45.7044683" lon="8.7460493"><ele>287.0</ele><time>2026-05-04T10:18:43.936Z</time></trkpt><trkpt lat="45.70439" lon="8.7459678"><ele>287.0</ele><time>2026-05-04T10:18:45.936Z</time></trkpt><trkpt lat="45.7043361" lon="8.7459075"><ele>287.0</ele><time>2026-05-04T10:18:46.935Z</time></trkpt><trkpt lat="45.7042597" lon="8.7458312"><ele>287.0</ele><time>2026-05-04T10:18:48.935Z</time></trkpt><trkpt lat="45.7041657" lon="8.7457337"><ele>287.0</ele><time>2026-05-04T10:18:50.936Z</time></trkpt><trkpt lat="45.7041039" lon="8.7456425"><ele>287.0</ele><time>2026-05-04T10:18:52.935Z</time></trkpt><trkpt lat="45.7040424" lon="8.745568"><ele>287.0</ele><time>2026-05-04T10:18:54.936Z</time></trkpt><trkpt lat="45.7039872" lon="8.7455026"><ele>287.0</ele><time>2026-05-04T10:18:56.936Z</time></trkpt><trkpt lat="45.7039354" lon="8.7454067"><ele>287.0</ele><time>2026-05-04T10:18:58.936Z</time></trkpt><trkpt lat="45.7038824" lon="8.7452727"><ele>287.0</ele><time>2026-05-04T10:19:00.936Z</time></trkpt><trkpt lat="45.7038068" lon="8.7451688"><ele>287.0</ele><time>2026-05-04T10:19:02.936Z</time></trkpt><trkpt lat="45.7037444" lon="8.7450617"><ele>286.6666666666667</ele><time>2026-05-04T10:19:04.936Z</time></trkpt><trkpt lat="45.7037087" lon="8.7449699"><ele>286.33333333333337</ele><time>2026-05-04T10:19:06.936Z</time></trkpt><trkpt lat="45.703691" lon="8.7447835"><ele>286.0</ele><time>2026-05-04T10:19:08.936Z</time></trkpt><trkpt lat="45.7036408" lon="8.74472"><ele>285.6666666666667</ele><time>2026-05-04T10:19:10.936Z</time></trkpt><trkpt lat="45.703597" lon="8.7446469"><ele>285.3333333333333</ele><time>2026-05-04T10:19:12.936Z</time></trkpt><trkpt lat="45.7035365" lon="8.7445566"><ele>285.0</ele><time>2026-05-04T10:19:14.936Z</time></trkpt><trkpt lat="45.7034778" lon="8.7445096"><ele>285.8333333333333</ele><time>2026-05-04T10:19:17.936Z</time></trkpt><trkpt lat="45.7034398" lon="8.7444188"><ele>286.6666666666667</ele><time>2026-05-04T10:19:52.936Z</time></trkpt><trkpt lat="45.7033862" lon="8.7443386"><ele>287.5</ele><time>2026-05-04T10:19:54.936Z</time></trkpt><trkpt lat="45.7033408" lon="8.7442676"><ele>288.33333333333337</ele><time>2026-05-04T10:19:55.936Z</time></trkpt><trkpt lat="45.7032813" lon="8.7441806"><ele>289.1666666666667</ele><time>2026-05-04T10:19:57.936Z</time></trkpt><trkpt lat="45.7032221" lon="8.7441458"><ele>290.0</ele><time>2026-05-04T10:19:58.936Z</time></trkpt><trkpt lat="45.7031197" lon="8.7440553"><ele>291.0</ele><time>2026-05-04T10:20:00.936Z</time></trkpt><trkpt lat="45.7030579" lon="8.7440222"><ele>292.0</ele><time>2026-05-04T10:20:01.935Z</time></trkpt><trkpt lat="45.7029985" lon="8.7439704"><ele>293.0</ele><time>2026-05-04T10:20:02.936Z</time></trkpt><trkpt lat="45.7029271" lon="8.7439299"><ele>294.0</ele><time>2026-05-04T10:20:03.936Z</time></trkpt><trkpt lat="45.7028362" lon="8.743848"><ele>295.0</ele><time>2026-05-04T10:20:05.935Z</time></trkpt><trkpt lat="45.7028078" lon="8.7436556"><ele>294.16666666666663</ele><time>2026-05-04T10:20:07.936Z</time></trkpt><trkpt lat="45.7027838" lon="8.743542"><ele>293.3333333333333</ele><time>2026-05-04T10:20:09.936Z</time></trkpt><trkpt lat="45.7028064" lon="8.743371"><ele>292.5</ele><time>2026-05-04T10:20:11.936Z</time></trkpt><trkpt lat="45.7027718" lon="8.7432844"><ele>291.6666666666667</ele><time>2026-05-04T10:20:13.936Z</time></trkpt><trkpt lat="45.7027275" lon="8.7432026"><ele>290.83333333333337</ele><time>2026-05-04T10:20:15.936Z</time></trkpt><trkpt lat="45.7026819" lon="8.7430909"><ele>290.0</ele><time>2026-05-04T10:20:17.936Z</time></trkpt><trkpt lat="45.7026675" lon="8.7429911"><ele>291.83333333333337</ele><time>2026-05-04T10:20:18.936Z</time></trkpt><trkpt lat="45.7026566" lon="8.7428993"><ele>293.6666666666667</ele><time>2026-05-04T10:20:19.936Z</time></trkpt><trkpt lat="45.7026368" lon="8.7428077"><ele>295.5</ele><time>2026-05-04T10:20:20.936Z</time></trkpt><trkpt lat="45.7026154" lon="8.742722"><ele>297.3333333333333</ele><time>2026-05-04T10:20:21.935Z</time></trkpt><trkpt lat="45.7025903" lon="8.7425576"><ele>299.16666666666663</ele><time>2026-05-04T10:20:23.936Z</time></trkpt><trkpt lat="45.7025632" lon="8.7423956"><ele>301.0</ele><time>2026-05-04T10:20:25.936Z</time></trkpt><trkpt lat="45.7025337" lon="8.7423064"><ele>301.0</ele><time>2026-05-04T10:20:27.936Z</time></trkpt><trkpt lat="45.7024983" lon="8.7422021"><ele>301.0</ele><time>2026-05-04T10:20:30.936Z</time></trkpt><trkpt lat="45.7025067" lon="8.7420889"><ele>301.0</ele><time>2026-05-04T10:20:32.936Z</time></trkpt><trkpt lat="45.7025257" lon="8.7419796"><ele>301.0</ele><time>2026-05-04T10:20:34.936Z</time></trkpt><trkpt lat="45.7025414" lon="8.7418697"><ele>301.0</ele><time>2026-05-04T10:20:36.936Z</time></trkpt><trkpt lat="45.7025531" lon="8.7417512"><ele>301.0</ele><time>2026-05-04T10:20:38.936Z</time></trkpt><trkpt lat="45.7025507" lon="8.7416214"><ele>301.6</ele><time>2026-05-04T10:20:40.936Z</time></trkpt><trkpt lat="45.7025486" lon="8.7415239"><ele>302.20000000000005</ele><time>2026-05-04T10:20:42.936Z</time></trkpt><trkpt lat="45.7025718" lon="8.7413782"><ele>302.79999999999995</ele><time>2026-05-04T10:20:44.936Z</time></trkpt><trkpt lat="45.7025789" lon="8.7412422"><ele>303.4</ele><time>2026-05-04T10:20:46.936Z</time></trkpt><trkpt lat="45.7026105" lon="8.741095"><ele>304.0</ele><time>2026-05-04T10:20:48.936Z</time></trkpt><trkpt lat="45.7026509" lon="8.7409537"><ele>304.8</ele><time>2026-05-04T10:20:50.936Z</time></trkpt><trkpt lat="45.7026781" lon="8.7408132"><ele>305.59999999999997</ele><time>2026-05-04T10:20:52.936Z</time></trkpt><trkpt lat="45.7026882" lon="8.7406625"><ele>306.4</ele><time>2026-05-04T10:20:55.936Z</time></trkpt><trkpt lat="45.7027204" lon="8.740506"><ele>307.2</ele><time>2026-05-04T10:20:57.936Z</time></trkpt><trkpt lat="45.7027564" lon="8.7403448"><ele>308.0</ele><time>2026-05-04T10:20:59.936Z</time></trkpt><trkpt lat="45.7027853" lon="8.7401621"><ele>306.4</ele><time>2026-05-04T10:21:01.936Z</time></trkpt><trkpt lat="45.702813" lon="8.7399895"><ele>304.8</ele><time>2026-05-04T10:21:03.936Z</time></trkpt><trkpt lat="45.7028429" lon="8.739854"><ele>303.2</ele><time>2026-05-04T10:21:04.936Z</time></trkpt><trkpt lat="45.7028915" lon="8.7397426"><ele>301.6</ele><time>2026-05-04T10:21:05.936Z</time></trkpt><trkpt lat="45.7028864" lon="8.7396444"><ele>300.0</ele><time>2026-05-04T10:21:06.936Z</time></trkpt><trkpt lat="45.7028988" lon="8.7394951"><ele>300.1666666666667</ele><time>2026-05-04T10:21:08.936Z</time></trkpt><trkpt lat="45.7029135" lon="8.7393663"><ele>300.3333333333333</ele><time>2026-05-04T10:21:10.935Z</time></trkpt><trkpt lat="45.7029444" lon="8.7392669"><ele>300.5</ele><time>2026-05-04T10:21:11.936Z</time></trkpt><trkpt lat="45.7029788" lon="8.7391729"><ele>300.66666666666663</ele><time>2026-05-04T10:21:12.936Z</time></trkpt><trkpt lat="45.7030359" lon="8.7390563"><ele>300.8333333333333</ele><time>2026-05-04T10:21:14.936Z</time></trkpt><trkpt lat="45.7030816" lon="8.7389186"><ele>301.0</ele><time>2026-05-04T10:21:16.936Z</time></trkpt><trkpt lat="45.7031107" lon="8.7388275"><ele>301.0</ele><time>2026-05-04T10:21:17.936Z</time></trkpt><trkpt lat="45.7031322" lon="8.7387323"><ele>301.0</ele><time>2026-05-04T10:21:18.936Z</time></trkpt><trkpt lat="45.7031562" lon="8.7386321"><ele>301.0</ele><time>2026-05-04T10:21:19.936Z</time></trkpt><trkpt lat="45.7031879" lon="8.7384668"><ele>301.0</ele><time>2026-05-04T10:21:21.936Z</time></trkpt><trkpt lat="45.7032154" lon="8.7383041"><ele>301.0</ele><time>2026-05-04T10:21:23.936Z</time></trkpt><trkpt lat="45.7032581" lon="8.7381769"><ele>301.0</ele><time>2026-05-04T10:21:25.936Z</time></trkpt><trkpt lat="45.7032908" lon="8.738027"><ele>301.0</ele><time>2026-05-04T10:21:27.936Z</time></trkpt><trkpt lat="45.7033508" lon="8.73787"><ele>301.0</ele><time>2026-05-04T10:21:29.936Z</time></trkpt><trkpt lat="45.7033842" lon="8.737787"><ele>301.0</ele><time>2026-05-04T10:21:30.936Z</time></trkpt><trkpt lat="45.7034095" lon="8.7376994"><ele>301.0</ele><time>2026-05-04T10:21:31.936Z</time></trkpt><trkpt lat="45.7034255" lon="8.7375317"><ele>301.0</ele><time>2026-05-04T10:21:33.936Z</time></trkpt><trkpt lat="45.7034154" lon="8.7373767"><ele>301.0</ele><time>2026-05-04T10:21:35.936Z</time></trkpt><trkpt lat="45.7034135" lon="8.7371832"><ele>301.0</ele><time>2026-05-04T10:21:37.936Z</time></trkpt><trkpt lat="45.7033931" lon="8.7370269"><ele>301.0</ele><time>2026-05-04T10:21:39.935Z</time></trkpt><trkpt lat="45.7034127" lon="8.7368579"><ele>301.0</ele><time>2026-05-04T10:21:41.936Z</time></trkpt><trkpt lat="45.7034689" lon="8.7366581"><ele>301.0</ele><time>2026-05-04T10:21:43.935Z</time></trkpt><trkpt lat="45.703489" lon="8.7365248"><ele>301.0</ele><time>2026-05-04T10:21:45.936Z</time></trkpt><trkpt lat="45.7035439" lon="8.7363802"><ele>301.0</ele><time>2026-05-04T10:21:47.936Z</time></trkpt><trkpt lat="45.7035946" lon="8.7362423"><ele>301.0</ele><time>2026-05-04T10:21:49.936Z</time></trkpt><trkpt lat="45.7036781" lon="8.7360959"><ele>301.0</ele><time>2026-05-04T10:21:51.936Z</time></trkpt><trkpt lat="45.7037341" lon="8.7360296"><ele>301.0</ele><time>2026-05-04T10:21:52.936Z</time></trkpt><trkpt lat="45.7037912" lon="8.7359571"><ele>301.0</ele><time>2026-05-04T10:21:53.936Z</time></trkpt><trkpt lat="45.7038729" lon="8.7358675"><ele>301.0</ele><time>2026-05-04T10:21:54.936Z</time></trkpt><trkpt lat="45.7039309" lon="8.735806"><ele>301.0</ele><time>2026-05-04T10:21:55.936Z</time></trkpt><trkpt lat="45.7039547" lon="8.7356489"><ele>301.0</ele><time>2026-05-04T10:21:57.936Z</time></trkpt><trkpt lat="45.7040082" lon="8.7355232"><ele>301.0</ele><time>2026-05-04T10:21:59.935Z</time></trkpt><trkpt lat="45.7040548" lon="8.7353965"><ele>301.0</ele><time>2026-05-04T10:22:01.936Z</time></trkpt><trkpt lat="45.7040975" lon="8.7352483"><ele>301.0</ele><time>2026-05-04T10:22:03.935Z</time></trkpt><trkpt lat="45.7041196" lon="8.7351614"><ele>300.8</ele><time>2026-05-04T10:22:04.936Z</time></trkpt><trkpt lat="45.7041375" lon="8.7350744"><ele>300.6</ele><time>2026-05-04T10:22:05.936Z</time></trkpt><trkpt lat="45.704161" lon="8.7349027"><ele>300.4</ele><time>2026-05-04T10:22:07.936Z</time></trkpt><trkpt lat="45.7041809" lon="8.7347333"><ele>300.2</ele><time>2026-05-04T10:22:09.936Z</time></trkpt><trkpt lat="45.7041638" lon="8.7345825"><ele>300.0</ele><time>2026-05-04T10:22:11.935Z</time></trkpt><trkpt lat="45.7042064" lon="8.734442"><ele>300.4</ele><time>2026-05-04T10:22:13.936Z</time></trkpt><trkpt lat="45.7042657" lon="8.7342897"><ele>300.8</ele><time>2026-05-04T10:22:15.936Z</time></trkpt><trkpt lat="45.7042837" lon="8.7341932"><ele>301.2</ele><time>2026-05-04T10:22:16.936Z</time></trkpt><trkpt lat="45.7043302" lon="8.7340356"><ele>301.6</ele><time>2026-05-04T10:22:18.935Z</time></trkpt><trkpt lat="45.7043799" lon="8.7338834"><ele>302.0</ele><time>2026-05-04T10:22:20.936Z</time></trkpt><trkpt lat="45.7044297" lon="8.7338063"><ele>302.0</ele><time>2026-05-04T10:22:21.936Z</time></trkpt><trkpt lat="45.7044975" lon="8.7336654"><ele>302.0</ele><time>2026-05-04T10:22:23.936Z</time></trkpt><trkpt lat="45.7045782" lon="8.7335282"><ele>302.0</ele><time>2026-05-04T10:22:25.936Z</time></trkpt><trkpt lat="45.7046298" lon="8.733403"><ele>302.0</ele><time>2026-05-04T10:22:27.935Z</time></trkpt><trkpt lat="45.7046894" lon="8.7332922"><ele>302.0</ele><time>2026-05-04T10:22:29.935Z</time></trkpt><trkpt lat="45.7047287" lon="8.7332209"><ele>302.0</ele><time>2026-05-04T10:22:30.936Z</time></trkpt><trkpt lat="45.7047997" lon="8.733085"><ele>302.0</ele><time>2026-05-04T10:22:32.936Z</time></trkpt><trkpt lat="45.7048608" lon="8.7329642"><ele>302.0</ele><time>2026-05-04T10:22:34.936Z</time></trkpt><trkpt lat="45.7049387" lon="8.7328766"><ele>302.0</ele><time>2026-05-04T10:22:36.936Z</time></trkpt><trkpt lat="45.7050106" lon="8.7327961"><ele>302.0</ele><time>2026-05-04T10:22:38.936Z</time></trkpt><trkpt lat="45.7050492" lon="8.7327077"><ele>302.2</ele><time>2026-05-04T10:22:40.936Z</time></trkpt><trkpt lat="45.7051101" lon="8.7326207"><ele>302.4</ele><time>2026-05-04T10:22:42.936Z</time></trkpt><trkpt lat="45.7051384" lon="8.7324878"><ele>302.6</ele><time>2026-05-04T10:22:44.936Z</time></trkpt><trkpt lat="45.7050978" lon="8.7324006"><ele>302.8</ele><time>2026-05-04T10:22:46.935Z</time></trkpt><trkpt lat="45.7050085" lon="8.7322737"><ele>303.0</ele><time>2026-05-04T10:22:48.935Z</time></trkpt><trkpt lat="45.7049718" lon="8.7321385"><ele>303.0</ele><time>2026-05-04T10:22:50.936Z</time></trkpt><trkpt lat="45.7049489" lon="8.7319868"><ele>303.0</ele><time>2026-05-04T10:22:52.936Z</time></trkpt><trkpt lat="45.7048798" lon="8.7318574"><ele>303.0</ele><time>2026-05-04T10:22:54.936Z</time></trkpt><trkpt lat="45.7048207" lon="8.7317399"><ele>303.0</ele><time>2026-05-04T10:22:56.936Z</time></trkpt><trkpt lat="45.7046817" lon="8.731496"><ele>303.1666666666667</ele><time>2026-05-04T10:22:59.935Z</time></trkpt><trkpt lat="45.7046388" lon="8.7314167"><ele>303.3333333333333</ele><time>2026-05-04T10:23:00.936Z</time></trkpt><trkpt lat="45.7045898" lon="8.7313161"><ele>303.5</ele><time>2026-05-04T10:23:03.936Z</time></trkpt><trkpt lat="45.704519" lon="8.7311955"><ele>303.66666666666663</ele><time>2026-05-04T10:23:05.936Z</time></trkpt><trkpt lat="45.7044732" lon="8.7311332"><ele>303.8333333333333</ele><time>2026-05-04T10:23:06.936Z</time></trkpt><trkpt lat="45.7044212" lon="8.7310501"><ele>304.0</ele><time>2026-05-04T10:23:08.936Z</time></trkpt><trkpt lat="45.704364" lon="8.7309388"><ele>305.0</ele><time>2026-05-04T10:23:10.936Z</time></trkpt><trkpt lat="45.7043387" lon="8.7308115"><ele>306.0</ele><time>2026-05-04T10:23:11.935Z</time></trkpt><trkpt lat="45.7043061" lon="8.7306599"><ele>307.0</ele><time>2026-05-04T10:23:13.935Z</time></trkpt><trkpt lat="45.7042915" lon="8.7305712"><ele>308.0</ele><time>2026-05-04T10:23:14.935Z</time></trkpt><trkpt lat="45.7042609" lon="8.7304901"><ele>309.0</ele><time>2026-05-04T10:23:15.935Z</time></trkpt><trkpt lat="45.7042111" lon="8.7303574"><ele>310.0</ele><time>2026-05-04T10:23:17.935Z</time></trkpt><trkpt lat="45.7041536" lon="8.7302596"><ele>310.2</ele><time>2026-05-04T10:23:19.935Z</time></trkpt><trkpt lat="45.7041017" lon="8.7301647"><ele>310.4</ele><time>2026-05-04T10:23:21.934Z</time></trkpt><trkpt lat="45.7040959" lon="8.7300445"><ele>310.6</ele><time>2026-05-04T10:23:23.935Z</time></trkpt><trkpt lat="45.7041384" lon="8.7298951"><ele>310.8</ele><time>2026-05-04T10:23:25.935Z</time></trkpt><trkpt lat="45.7041921" lon="8.7297513"><ele>311.0</ele><time>2026-05-04T10:23:27.935Z</time></trkpt><trkpt lat="45.7042209" lon="8.7296447"><ele>311.0</ele><time>2026-05-04T10:23:28.935Z</time></trkpt><trkpt lat="45.7042613" lon="8.7295426"><ele>311.0</ele><time>2026-05-04T10:23:29.934Z</time></trkpt><trkpt lat="45.7042988" lon="8.7294626"><ele>311.0</ele><time>2026-05-04T10:23:30.935Z</time></trkpt><trkpt lat="45.7043512" lon="8.7293771"><ele>311.0</ele><time>2026-05-04T10:23:31.935Z</time></trkpt><trkpt lat="45.7043995" lon="8.7293029"><ele>311.0</ele><time>2026-05-04T10:23:32.935Z</time></trkpt><trkpt lat="45.7044707" lon="8.7291918"><ele>311.0</ele><time>2026-05-04T10:23:34.935Z</time></trkpt><trkpt lat="45.7045478" lon="8.7290877"><ele>310.2</ele><time>2026-05-04T10:23:36.935Z</time></trkpt><trkpt lat="45.7045958" lon="8.7289818"><ele>309.40000000000003</ele><time>2026-05-04T10:23:38.935Z</time></trkpt><trkpt lat="45.70468" lon="8.7288379"><ele>308.6</ele><time>2026-05-04T10:23:40.935Z</time></trkpt><trkpt lat="45.7047351" lon="8.7287399"><ele>307.8</ele><time>2026-05-04T10:23:42.933Z</time></trkpt><trkpt lat="45.7047857" lon="8.7286517"><ele>307.0</ele><time>2026-05-04T10:23:44.935Z</time></trkpt><trkpt lat="45.7048415" lon="8.7285315"><ele>307.0</ele><time>2026-05-04T10:23:46.935Z</time></trkpt><trkpt lat="45.7049229" lon="8.728424"><ele>307.0</ele><time>2026-05-04T10:23:48.935Z</time></trkpt><trkpt lat="45.7049737" lon="8.728347"><ele>307.0</ele><time>2026-05-04T10:23:50.935Z</time></trkpt><trkpt lat="45.7050245" lon="8.7282405"><ele>307.0</ele><time>2026-05-04T10:23:52.934Z</time></trkpt><trkpt lat="45.705087" lon="8.7281517"><ele>307.0</ele><time>2026-05-04T10:23:54.935Z</time></trkpt><trkpt lat="45.7051509" lon="8.7280437"><ele>307.0</ele><time>2026-05-04T10:23:56.933Z</time></trkpt><trkpt lat="45.7051922" lon="8.7279255"><ele>307.0</ele><time>2026-05-04T10:23:58.935Z</time></trkpt><trkpt lat="45.705214" lon="8.7278205"><ele>307.0</ele><time>2026-05-04T10:24:00.935Z</time></trkpt><trkpt lat="45.7052356" lon="8.7277019"><ele>307.0</ele><time>2026-05-04T10:24:03.935Z</time></trkpt><trkpt lat="45.7052286" lon="8.7276043"><ele>307.0</ele><time>2026-05-04T10:24:08.935Z</time></trkpt><trkpt lat="45.7052872" lon="8.7275381"><ele>307.0</ele><time>2026-05-04T10:24:22.934Z</time></trkpt><trkpt lat="45.7053341" lon="8.7274545"><ele>306.3333333333333</ele><time>2026-05-04T10:24:23.935Z</time></trkpt><trkpt lat="45.7053801" lon="8.7273373"><ele>305.66666666666663</ele><time>2026-05-04T10:24:25.934Z</time></trkpt><trkpt lat="45.705422" lon="8.727268"><ele>305.0</ele><time>2026-05-04T10:24:27.934Z</time></trkpt><trkpt lat="45.7054786" lon="8.7271847"><ele>304.3333333333333</ele><time>2026-05-04T10:24:47.934Z</time></trkpt><trkpt lat="45.7055332" lon="8.7271106"><ele>303.6666666666667</ele><time>2026-05-04T10:24:50.935Z</time></trkpt><trkpt lat="45.7055773" lon="8.7270343"><ele>303.0</ele><time>2026-05-04T10:24:52.935Z</time></trkpt><trkpt lat="45.7056356" lon="8.7269792"><ele>303.8</ele><time>2026-05-04T10:24:55.935Z</time></trkpt><trkpt lat="45.7056912" lon="8.7268903"><ele>304.6</ele><time>2026-05-04T10:24:58.935Z</time></trkpt><trkpt lat="45.7056864" lon="8.726758"><ele>305.4</ele><time>2026-05-04T10:25:01.935Z</time></trkpt><trkpt lat="45.7056185" lon="8.7266497"><ele>306.2</ele><time>2026-05-04T10:25:03.935Z</time></trkpt><trkpt lat="45.7055808" lon="8.7265355"><ele>307.0</ele><time>2026-05-04T10:25:05.935Z</time></trkpt><trkpt lat="45.7055816" lon="8.7264092"><ele>307.0</ele><time>2026-05-04T10:25:08.935Z</time></trkpt><trkpt lat="45.7055675" lon="8.726313"><ele>307.0</ele><time>2026-05-04T10:25:10.935Z</time></trkpt><trkpt lat="45.7055504" lon="8.7261952"><ele>307.0</ele><time>2026-05-04T10:25:11.935Z</time></trkpt><trkpt lat="45.7055339" lon="8.7260693"><ele>307.0</ele><time>2026-05-04T10:25:13.935Z</time></trkpt><trkpt lat="45.7054867" lon="8.7259796"><ele>307.0</ele><time>2026-05-04T10:25:15.935Z</time></trkpt><trkpt lat="45.7054357" lon="8.7258724"><ele>307.0</ele><time>2026-05-04T10:25:17.935Z</time></trkpt><trkpt lat="45.7054" lon="8.7257842"><ele>307.3333333333333</ele><time>2026-05-04T10:25:19.935Z</time></trkpt><trkpt lat="45.7053535" lon="8.7257156"><ele>307.66666666666663</ele><time>2026-05-04T10:25:21.935Z</time></trkpt><trkpt lat="45.7052823" lon="8.7256028"><ele>308.0</ele><time>2026-05-04T10:25:23.934Z</time></trkpt><trkpt lat="45.7052336" lon="8.7254713"><ele>308.3333333333333</ele><time>2026-05-04T10:25:25.935Z</time></trkpt><trkpt lat="45.7052077" lon="8.725344"><ele>308.6666666666667</ele><time>2026-05-04T10:25:27.935Z</time></trkpt><trkpt lat="45.7052225" lon="8.7252343"><ele>309.0</ele><time>2026-05-04T10:25:28.935Z</time></trkpt><trkpt lat="45.7052506" lon="8.7251022"><ele>310.1666666666667</ele><time>2026-05-04T10:25:29.935Z</time></trkpt><trkpt lat="45.7052805" lon="8.7250206"><ele>311.3333333333333</ele><time>2026-05-04T10:25:30.935Z</time></trkpt><trkpt lat="45.7053163" lon="8.7249186"><ele>312.5</ele><time>2026-05-04T10:25:32.935Z</time></trkpt><trkpt lat="45.7053638" lon="8.7248182"><ele>313.66666666666663</ele><time>2026-05-04T10:25:35.935Z</time></trkpt><trkpt lat="45.7054015" lon="8.7247063"><ele>314.8333333333333</ele><time>2026-05-04T10:25:37.935Z</time></trkpt><trkpt lat="45.7054646" lon="8.7246107"><ele>316.0</ele><time>2026-05-04T10:25:39.935Z</time></trkpt><trkpt lat="45.7055336" lon="8.7244982"><ele>316.5</ele><time>2026-05-04T10:25:41.935Z</time></trkpt><trkpt lat="45.7055742" lon="8.7243751"><ele>317.0</ele><time>2026-05-04T10:25:43.935Z</time></trkpt><trkpt lat="45.7056352" lon="8.7242574"><ele>317.5</ele><time>2026-05-04T10:25:45.935Z</time></trkpt><trkpt lat="45.7056972" lon="8.7241726"><ele>318.0</ele><time>2026-05-04T10:25:47.935Z</time></trkpt><trkpt lat="45.7057488" lon="8.7240849"><ele>318.5</ele><time>2026-05-04T10:25:49.936Z</time></trkpt><trkpt lat="45.7057875" lon="8.7239768"><ele>319.0</ele><time>2026-05-04T10:25:51.935Z</time></trkpt><trkpt lat="45.7058311" lon="8.7238756"><ele>319.0</ele><time>2026-05-04T10:25:53.936Z</time></trkpt><trkpt lat="45.7058624" lon="8.7237966"><ele>319.0</ele><time>2026-05-04T10:25:55.935Z</time></trkpt><trkpt lat="45.705892" lon="8.723701"><ele>319.0</ele><time>2026-05-04T10:25:57.935Z</time></trkpt><trkpt lat="45.705931" lon="8.7236186"><ele>319.0</ele><time>2026-05-04T10:25:59.935Z</time></trkpt><trkpt lat="45.7059819" lon="8.723498"><ele>319.0</ele><time>2026-05-04T10:26:02.935Z</time></trkpt><trkpt lat="45.7060168" lon="8.7233874"><ele>319.0</ele><time>2026-05-04T10:26:04.935Z</time></trkpt><trkpt lat="45.7060442" lon="8.7232674"><ele>319.4</ele><time>2026-05-04T10:26:06.935Z</time></trkpt><trkpt lat="45.7060882" lon="8.7231073"><ele>319.79999999999995</ele><time>2026-05-04T10:26:08.935Z</time></trkpt><trkpt lat="45.7061391" lon="8.7229534"><ele>320.20000000000005</ele><time>2026-05-04T10:26:10.935Z</time></trkpt><trkpt lat="45.7061986" lon="8.7228516"><ele>320.6</ele><time>2026-05-04T10:26:12.935Z</time></trkpt><trkpt lat="45.7062513" lon="8.722754"><ele>321.0</ele><time>2026-05-04T10:26:14.934Z</time></trkpt><trkpt lat="45.7063136" lon="8.7226733"><ele>321.0</ele><time>2026-05-04T10:26:16.935Z</time></trkpt><trkpt lat="45.706377" lon="8.7225921"><ele>321.0</ele><time>2026-05-04T10:26:18.935Z</time></trkpt><trkpt lat="45.70645" lon="8.7225124"><ele>321.0</ele><time>2026-05-04T10:26:21.935Z</time></trkpt><trkpt lat="45.7064978" lon="8.7224341"><ele>321.0</ele><time>2026-05-04T10:26:23.935Z</time></trkpt><trkpt lat="45.7065242" lon="8.7223435"><ele>321.0</ele><time>2026-05-04T10:26:25.935Z</time></trkpt><trkpt lat="45.7065523" lon="8.7222363"><ele>321.0</ele><time>2026-05-04T10:26:27.935Z</time></trkpt><trkpt lat="45.7065897" lon="8.7221352"><ele>321.0</ele><time>2026-05-04T10:26:29.935Z</time></trkpt><trkpt lat="45.706669" lon="8.7220881"><ele>321.0</ele><time>2026-05-04T10:26:31.935Z</time></trkpt><trkpt lat="45.7067441" lon="8.7220448"><ele>321.0</ele><time>2026-05-04T10:26:33.935Z</time></trkpt><trkpt lat="45.7068114" lon="8.7220018"><ele>321.0</ele><time>2026-05-04T10:26:35.934Z</time></trkpt><trkpt lat="45.7068679" lon="8.7219417"><ele>321.0</ele><time>2026-05-04T10:26:37.935Z</time></trkpt><trkpt lat="45.7069399" lon="8.721866"><ele>321.0</ele><time>2026-05-04T10:26:40.935Z</time></trkpt><trkpt lat="45.7069824" lon="8.7217817"><ele>320.8333333333333</ele><time>2026-05-04T10:26:43.935Z</time></trkpt><trkpt lat="45.7070434" lon="8.7217048"><ele>320.6666666666667</ele><time>2026-05-04T10:26:46.935Z</time></trkpt><trkpt lat="45.7071123" lon="8.7215995"><ele>320.5</ele><time>2026-05-04T10:26:49.935Z</time></trkpt><trkpt lat="45.7071548" lon="8.7215219"><ele>320.33333333333337</ele><time>2026-05-04T10:26:51.935Z</time></trkpt><trkpt lat="45.70722" lon="8.7214411"><ele>320.1666666666667</ele><time>2026-05-04T10:26:53.935Z</time></trkpt><trkpt lat="45.7072997" lon="8.7213639"><ele>320.0</ele><time>2026-05-04T10:26:55.935Z</time></trkpt><trkpt lat="45.707412" lon="8.7213093"><ele>320.0</ele><time>2026-05-04T10:26:57.934Z</time></trkpt><trkpt lat="45.7074739" lon="8.7212879"><ele>320.0</ele><time>2026-05-04T10:26:58.935Z</time></trkpt><trkpt lat="45.7075927" lon="8.7212513"><ele>320.0</ele><time>2026-05-04T10:27:00.935Z</time></trkpt><trkpt lat="45.7077013" lon="8.7212457"><ele>320.0</ele><time>2026-05-04T10:27:02.935Z</time></trkpt><trkpt lat="45.7077918" lon="8.7212423"><ele>320.0</ele><time>2026-05-04T10:27:04.935Z</time></trkpt><trkpt lat="45.7077614" lon="8.7211396"><ele>320.0</ele><time>2026-05-04T10:27:09.935Z</time></trkpt><trkpt lat="45.7076754" lon="8.7210932"><ele>320.0</ele><time>2026-05-04T10:27:12.935Z</time></trkpt><trkpt lat="45.7075957" lon="8.721073"><ele>320.0</ele><time>2026-05-04T10:27:14.934Z</time></trkpt><trkpt lat="45.7074924" lon="8.7210432"><ele>320.0</ele><time>2026-05-04T10:27:16.935Z</time></trkpt><trkpt lat="45.7074261" lon="8.7210444"><ele>320.0</ele><time>2026-05-04T10:27:19.934Z</time></trkpt><trkpt lat="45.7074155" lon="8.7209528"><ele>320.0</ele><time>2026-05-04T10:27:22.935Z</time></trkpt><trkpt lat="45.7074486" lon="8.7208695"><ele>318.0</ele><time>2026-05-04T10:27:24.935Z</time></trkpt><trkpt lat="45.7074691" lon="8.7207616"><ele>316.0</ele><time>2026-05-04T10:27:26.935Z</time></trkpt><trkpt lat="45.7074606" lon="8.7206657"><ele>314.0</ele><time>2026-05-04T10:27:27.935Z</time></trkpt><trkpt lat="45.7074004" lon="8.7207114"><ele>312.0</ele><time>2026-05-04T10:27:37.935Z</time></trkpt><trkpt lat="45.7073372" lon="8.7206768"><ele>310.0</ele><time>2026-05-04T10:27:41.935Z</time></trkpt><trkpt lat="45.7072819" lon="8.720631"><ele>308.0</ele><time>2026-05-04T10:27:43.935Z</time></trkpt><trkpt lat="45.7071909" lon="8.7205578"><ele>308.0</ele><time>2026-05-04T10:27:45.935Z</time></trkpt><trkpt lat="45.7071304" lon="8.7204789"><ele>308.0</ele><time>2026-05-04T10:27:47.935Z</time></trkpt><trkpt lat="45.7070809" lon="8.7204166"><ele>308.0</ele><time>2026-05-04T10:27:48.935Z</time></trkpt><trkpt lat="45.7069816" lon="8.720263"><ele>308.0</ele><time>2026-05-04T10:27:50.935Z</time></trkpt><trkpt lat="45.7069015" lon="8.7201781"><ele>308.0</ele><time>2026-05-04T10:27:51.935Z</time></trkpt><trkpt lat="45.706855" lon="8.7200467"><ele>306.83333333333337</ele><time>2026-05-04T10:27:52.935Z</time></trkpt><trkpt lat="45.7068051" lon="8.7199885"><ele>305.6666666666667</ele><time>2026-05-04T10:27:53.935Z</time></trkpt><trkpt lat="45.7067354" lon="8.7198996"><ele>304.5</ele><time>2026-05-04T10:27:56.935Z</time></trkpt><trkpt lat="45.7066797" lon="8.7198287"><ele>303.3333333333333</ele><time>2026-05-04T10:27:58.935Z</time></trkpt><trkpt lat="45.7065996" lon="8.7197883"><ele>302.16666666666663</ele><time>2026-05-04T10:28:01.935Z</time></trkpt><trkpt lat="45.7065355" lon="8.7197184"><ele>301.0</ele><time>2026-05-04T10:28:06.935Z</time></trkpt><trkpt lat="45.7064572" lon="8.7196947"><ele>301.0</ele><time>2026-05-04T10:28:11.934Z</time></trkpt><trkpt lat="45.7063832" lon="8.7196366"><ele>301.0</ele><time>2026-05-04T10:28:14.935Z</time></trkpt><trkpt lat="45.7063094" lon="8.7195701"><ele>301.0</ele><time>2026-05-04T10:28:18.935Z</time></trkpt><trkpt lat="45.706267" lon="8.7194985"><ele>301.0</ele><time>2026-05-04T10:28:22.935Z</time></trkpt><trkpt lat="45.7062263" lon="8.7194247"><ele>301.0</ele><time>2026-05-04T10:28:27.935Z</time></trkpt><trkpt lat="45.7061818" lon="8.7193415"><ele>301.0</ele><time>2026-05-04T10:28:30.935Z</time></trkpt><trkpt lat="45.7061661" lon="8.719238"><ele>299.66666666666663</ele><time>2026-05-04T10:28:32.934Z</time></trkpt><trkpt lat="45.7061456" lon="8.7191392"><ele>298.3333333333333</ele><time>2026-05-04T10:28:35.935Z</time></trkpt><trkpt lat="45.7061448" lon="8.7190272"><ele>297.0</ele><time>2026-05-04T10:28:38.935Z</time></trkpt><trkpt lat="45.7061507" lon="8.718912"><ele>295.6666666666667</ele><time>2026-05-04T10:28:41.934Z</time></trkpt><trkpt lat="45.7061671" lon="8.7188129"><ele>294.33333333333337</ele><time>2026-05-04T10:28:43.935Z</time></trkpt><trkpt lat="45.7061587" lon="8.7186991"><ele>293.0</ele><time>2026-05-04T10:28:46.935Z</time></trkpt><trkpt lat="45.7061079" lon="8.7186259"><ele>295.0</ele><time>2026-05-04T10:28:50.935Z</time></trkpt><trkpt lat="45.7060345" lon="8.7185731"><ele>297.0</ele><time>2026-05-04T10:28:53.935Z</time></trkpt><trkpt lat="45.7059711" lon="8.7185521"><ele>299.0</ele><time>2026-05-04T10:28:56.935Z</time></trkpt><trkpt lat="45.7058883" lon="8.7185094"><ele>301.0</ele><time>2026-05-04T10:29:00.935Z</time></trkpt><trkpt lat="45.7058287" lon="8.7184744"><ele>303.0</ele><time>2026-05-04T10:29:02.935Z</time></trkpt><trkpt lat="45.7057684" lon="8.7184365"><ele>305.0</ele><time>2026-05-04T10:29:04.935Z</time></trkpt><trkpt lat="45.7056958" lon="8.7183729"><ele>305.0</ele><time>2026-05-04T10:29:06.935Z</time></trkpt><trkpt lat="45.7056324" lon="8.7182934"><ele>305.0</ele><time>2026-05-04T10:29:08.935Z</time></trkpt><trkpt lat="45.7055672" lon="8.7182463"><ele>305.0</ele><time>2026-05-04T10:29:10.935Z</time></trkpt><trkpt lat="45.7054947" lon="8.7182367"><ele>305.0</ele><time>2026-05-04T10:29:13.935Z</time></trkpt><trkpt lat="45.7054056" lon="8.7182332"><ele>305.0</ele><time>2026-05-04T10:29:15.935Z</time></trkpt><trkpt lat="45.7053196" lon="8.7182333"><ele>305.0</ele><time>2026-05-04T10:29:17.935Z</time></trkpt><trkpt lat="45.7052513" lon="8.7182369"><ele>305.5</ele><time>2026-05-04T10:29:20.935Z</time></trkpt><trkpt lat="45.7051636" lon="8.7181951"><ele>306.0</ele><time>2026-05-04T10:29:23.935Z</time></trkpt><trkpt lat="45.7050822" lon="8.7181555"><ele>306.5</ele><time>2026-05-04T10:29:26.935Z</time></trkpt><trkpt lat="45.7049986" lon="8.7181325"><ele>307.0</ele><time>2026-05-04T10:29:29.935Z</time></trkpt><trkpt lat="45.7049331" lon="8.7181702"><ele>307.5</ele><time>2026-05-04T10:29:32.935Z</time></trkpt><trkpt lat="45.7048856" lon="8.7182702"><ele>308.0</ele><time>2026-05-04T10:29:36.934Z</time></trkpt><trkpt lat="45.7048321" lon="8.7183428"><ele>308.0</ele><time>2026-05-04T10:29:39.935Z</time></trkpt><trkpt lat="45.7047697" lon="8.7184129"><ele>308.0</ele><time>2026-05-04T10:29:42.935Z</time></trkpt><trkpt lat="45.7047158" lon="8.7184664"><ele>308.0</ele><time>2026-05-04T10:29:45.935Z</time></trkpt><trkpt lat="45.7046556" lon="8.7185265"><ele>308.0</ele><time>2026-05-04T10:29:48.935Z</time></trkpt><trkpt lat="45.7045842" lon="8.7185927"><ele>308.0</ele><time>2026-05-04T10:29:51.935Z</time></trkpt><trkpt lat="45.7044996" lon="8.7186611"><ele>308.0</ele><time>2026-05-04T10:29:54.935Z</time></trkpt><trkpt lat="45.7044315" lon="8.7187401"><ele>308.1666666666667</ele><time>2026-05-04T10:29:57.935Z</time></trkpt><trkpt lat="45.7043821" lon="8.7188068"><ele>308.33333333333337</ele><time>2026-05-04T10:29:59.935Z</time></trkpt><trkpt lat="45.7043108" lon="8.7189026"><ele>308.5</ele><time>2026-05-04T10:30:01.935Z</time></trkpt><trkpt lat="45.7042453" lon="8.7189927"><ele>308.6666666666667</ele><time>2026-05-04T10:30:03.935Z</time></trkpt><trkpt lat="45.7041836" lon="8.7190496"><ele>308.8333333333333</ele><time>2026-05-04T10:30:05.935Z</time></trkpt><trkpt lat="45.7040992" lon="8.7191127"><ele>309.0</ele><time>2026-05-04T10:30:07.934Z</time></trkpt><trkpt lat="45.7040245" lon="8.7191682"><ele>309.0</ele><time>2026-05-04T10:30:09.935Z</time></trkpt><trkpt lat="45.7039395" lon="8.7192472"><ele>309.0</ele><time>2026-05-04T10:30:11.935Z</time></trkpt><trkpt lat="45.7038555" lon="8.7193357"><ele>309.0</ele><time>2026-05-04T10:30:13.935Z</time></trkpt><trkpt lat="45.703775" lon="8.7193894"><ele>309.0</ele><time>2026-05-04T10:30:15.935Z</time></trkpt><trkpt lat="45.7036192" lon="8.7195232"><ele>308.3333333333333</ele><time>2026-05-04T10:30:17.935Z</time></trkpt><trkpt lat="45.7035402" lon="8.7196046"><ele>307.6666666666667</ele><time>2026-05-04T10:30:19.935Z</time></trkpt><trkpt lat="45.7034569" lon="8.7196806"><ele>307.0</ele><time>2026-05-04T10:30:21.935Z</time></trkpt><trkpt lat="45.7033858" lon="8.7197428"><ele>306.33333333333337</ele><time>2026-05-04T10:30:23.935Z</time></trkpt><trkpt lat="45.7033248" lon="8.719828"><ele>305.6666666666667</ele><time>2026-05-04T10:30:25.935Z</time></trkpt><trkpt lat="45.7032515" lon="8.7198801"><ele>305.0</ele><time>2026-05-04T10:30:27.935Z</time></trkpt><trkpt lat="45.7031752" lon="8.7199123"><ele>305.0</ele><time>2026-05-04T10:30:29.935Z</time></trkpt><trkpt lat="45.7030877" lon="8.7199504"><ele>305.0</ele><time>2026-05-04T10:30:32.934Z</time></trkpt><trkpt lat="45.7030155" lon="8.7199844"><ele>305.0</ele><time>2026-05-04T10:30:34.935Z</time></trkpt><trkpt lat="45.7029467" lon="8.7200076"><ele>305.0</ele><time>2026-05-04T10:30:36.935Z</time></trkpt><trkpt lat="45.7028551" lon="8.7200315"><ele>305.0</ele><time>2026-05-04T10:30:38.935Z</time></trkpt><trkpt lat="45.7027677" lon="8.7200551"><ele>305.0</ele><time>2026-05-04T10:30:40.935Z</time></trkpt><trkpt lat="45.7026848" lon="8.7200556"><ele>304.83333333333337</ele><time>2026-05-04T10:30:43.935Z</time></trkpt><trkpt lat="45.7026041" lon="8.7200558"><ele>304.6666666666667</ele><time>2026-05-04T10:30:46.935Z</time></trkpt><trkpt lat="45.7025278" lon="8.7201107"><ele>304.5</ele><time>2026-05-04T10:30:49.935Z</time></trkpt><trkpt lat="45.702453" lon="8.7202006"><ele>304.3333333333333</ele><time>2026-05-04T10:30:52.935Z</time></trkpt><trkpt lat="45.7023786" lon="8.7202904"><ele>304.16666666666663</ele><time>2026-05-04T10:30:55.935Z</time></trkpt><trkpt lat="45.7023132" lon="8.7203121"><ele>304.0</ele><time>2026-05-04T10:30:56.935Z</time></trkpt><trkpt lat="45.7022203" lon="8.7203467"><ele>304.0</ele><time>2026-05-04T10:30:58.935Z</time></trkpt><trkpt lat="45.7021518" lon="8.720397"><ele>304.0</ele><time>2026-05-04T10:31:00.935Z</time></trkpt><trkpt lat="45.7020757" lon="8.7204381"><ele>304.0</ele><time>2026-05-04T10:31:02.935Z</time></trkpt><trkpt lat="45.7020232" lon="8.7204958"><ele>304.0</ele><time>2026-05-04T10:31:04.935Z</time></trkpt><trkpt lat="45.7019696" lon="8.7205449"><ele>304.0</ele><time>2026-05-04T10:31:06.935Z</time></trkpt><trkpt lat="45.7019133" lon="8.7205998"><ele>304.0</ele><time>2026-05-04T10:31:08.935Z</time></trkpt><trkpt lat="45.7018378" lon="8.7206611"><ele>304.0</ele><time>2026-05-04T10:31:10.935Z</time></trkpt><trkpt lat="45.7017597" lon="8.7207261"><ele>304.0</ele><time>2026-05-04T10:31:12.935Z</time></trkpt><trkpt lat="45.701671" lon="8.7207814"><ele>304.0</ele><time>2026-05-04T10:31:14.934Z</time></trkpt><trkpt lat="45.7015826" lon="8.7208491"><ele>304.0</ele><time>2026-05-04T10:31:16.934Z</time></trkpt><trkpt lat="45.7015264" lon="8.7208931"><ele>304.0</ele><time>2026-05-04T10:31:18.935Z</time></trkpt><trkpt lat="45.7014595" lon="8.7209388"><ele>304.0</ele><time>2026-05-04T10:31:20.935Z</time></trkpt><trkpt lat="45.7013506" lon="8.7210075"><ele>304.0</ele><time>2026-05-04T10:31:22.935Z</time></trkpt><trkpt lat="45.7012863" lon="8.7210622"><ele>304.0</ele><time>2026-05-04T10:31:24.935Z</time></trkpt><trkpt lat="45.7012389" lon="8.7211343"><ele>304.0</ele><time>2026-05-04T10:31:26.934Z</time></trkpt><trkpt lat="45.7011775" lon="8.7212047"><ele>304.0</ele><time>2026-05-04T10:31:27.935Z</time></trkpt><trkpt lat="45.7011117" lon="8.7212923"><ele>304.0</ele><time>2026-05-04T10:31:28.935Z</time></trkpt><trkpt lat="45.7010527" lon="8.7213663"><ele>304.0</ele><time>2026-05-04T10:31:29.935Z</time></trkpt><trkpt lat="45.7010092" lon="8.7214459"><ele>303.85714285714283</ele><time>2026-05-04T10:31:31.935Z</time></trkpt><trkpt lat="45.7009599" lon="8.7215148"><ele>303.7142857142857</ele><time>2026-05-04T10:31:33.934Z</time></trkpt><trkpt lat="45.7009106" lon="8.7215783"><ele>303.57142857142856</ele><time>2026-05-04T10:31:35.935Z</time></trkpt><trkpt lat="45.7008527" lon="8.7216484"><ele>303.42857142857144</ele><time>2026-05-04T10:31:37.935Z</time></trkpt><trkpt lat="45.7007931" lon="8.7217235"><ele>303.2857142857143</ele><time>2026-05-04T10:31:39.935Z</time></trkpt><trkpt lat="45.70073" lon="8.7217903"><ele>303.14285714285717</ele><time>2026-05-04T10:31:41.935Z</time></trkpt><trkpt lat="45.7006726" lon="8.72187"><ele>303.0</ele><time>2026-05-04T10:31:43.935Z</time></trkpt><trkpt lat="45.7006191" lon="8.7219447"><ele>303.1666666666667</ele><time>2026-05-04T10:31:45.935Z</time></trkpt><trkpt lat="45.700547" lon="8.7220256"><ele>303.3333333333333</ele><time>2026-05-04T10:31:47.935Z</time></trkpt><trkpt lat="45.7004958" lon="8.7221047"><ele>303.5</ele><time>2026-05-04T10:31:49.935Z</time></trkpt><trkpt lat="45.7004132" lon="8.7221892"><ele>303.66666666666663</ele><time>2026-05-04T10:31:51.936Z</time></trkpt><trkpt lat="45.7003394" lon="8.7222639"><ele>303.8333333333333</ele><time>2026-05-04T10:31:53.934Z</time></trkpt><trkpt lat="45.7002881" lon="8.7223434"><ele>304.0</ele><time>2026-05-04T10:31:55.935Z</time></trkpt><trkpt lat="45.7001977" lon="8.7224017"><ele>304.0</ele><time>2026-05-04T10:31:57.935Z</time></trkpt><trkpt lat="45.7000861" lon="8.7223805"><ele>304.0</ele><time>2026-05-04T10:31:59.936Z</time></trkpt><trkpt lat="45.6999933" lon="8.7223222"><ele>304.0</ele><time>2026-05-04T10:32:01.936Z</time></trkpt><trkpt lat="45.6999354" lon="8.722239"><ele>304.0</ele><time>2026-05-04T10:32:03.935Z</time></trkpt><trkpt lat="45.6998835" lon="8.7221643"><ele>304.0</ele><time>2026-05-04T10:32:05.935Z</time></trkpt><trkpt lat="45.6998183" lon="8.7221027"><ele>304.0</ele><time>2026-05-04T10:32:07.935Z</time></trkpt><trkpt lat="45.6997532" lon="8.7220237"><ele>304.0</ele><time>2026-05-04T10:32:09.934Z</time></trkpt><trkpt lat="45.6996844" lon="8.7219085"><ele>304.0</ele><time>2026-05-04T10:32:11.936Z</time></trkpt><trkpt lat="45.6996338" lon="8.7217919"><ele>304.0</ele><time>2026-05-04T10:32:13.935Z</time></trkpt><trkpt lat="45.6995714" lon="8.721691"><ele>304.0</ele><time>2026-05-04T10:32:15.935Z</time></trkpt><trkpt lat="45.6995154" lon="8.7215961"><ele>304.0</ele><time>2026-05-04T10:32:17.935Z</time></trkpt><trkpt lat="45.6994575" lon="8.7215004"><ele>303.3333333333333</ele><time>2026-05-04T10:32:19.935Z</time></trkpt><trkpt lat="45.6993991" lon="8.7214076"><ele>302.66666666666663</ele><time>2026-05-04T10:32:21.934Z</time></trkpt><trkpt lat="45.699355" lon="8.7213203"><ele>302.0</ele><time>2026-05-04T10:32:23.935Z</time></trkpt><trkpt lat="45.6993064" lon="8.7212397"><ele>301.3333333333333</ele><time>2026-05-04T10:32:25.934Z</time></trkpt><trkpt lat="45.6992507" lon="8.7211424"><ele>300.6666666666667</ele><time>2026-05-04T10:32:27.935Z</time></trkpt><trkpt lat="45.6991934" lon="8.7210881"><ele>300.0</ele><time>2026-05-04T10:32:30.935Z</time></trkpt><trkpt lat="45.6991272" lon="8.7211045"><ele>300.0</ele><time>2026-05-04T10:32:35.935Z</time></trkpt><trkpt lat="45.6990503" lon="8.7211076"><ele>300.0</ele><time>2026-05-04T10:32:43.935Z</time></trkpt><trkpt lat="45.6989752" lon="8.7211173"><ele>300.0</ele><time>2026-05-04T10:32:45.935Z</time></trkpt><trkpt lat="45.6988816" lon="8.7211093"><ele>300.0</ele><time>2026-05-04T10:32:47.935Z</time></trkpt><trkpt lat="45.6987885" lon="8.7211032"><ele>300.0</ele><time>2026-05-04T10:32:49.935Z</time></trkpt><trkpt lat="45.6986878" lon="8.7210952"><ele>300.0</ele><time>2026-05-04T10:32:51.934Z</time></trkpt><trkpt lat="45.6986136" lon="8.7210892"><ele>301.8</ele><time>2026-05-04T10:32:53.935Z</time></trkpt><trkpt lat="45.6985255" lon="8.7210917"><ele>303.6</ele><time>2026-05-04T10:32:55.935Z</time></trkpt><trkpt lat="45.6984389" lon="8.721078"><ele>305.4</ele><time>2026-05-04T10:32:57.935Z</time></trkpt><trkpt lat="45.6983402" lon="8.7210827"><ele>307.2</ele><time>2026-05-04T10:32:59.935Z</time></trkpt><trkpt lat="45.6982549" lon="8.7210664"><ele>309.0</ele><time>2026-05-04T10:33:01.935Z</time></trkpt><trkpt lat="45.69816" lon="8.7210576"><ele>309.0</ele><time>2026-05-04T10:33:03.935Z</time></trkpt><trkpt lat="45.6980808" lon="8.7210482"><ele>309.0</ele><time>2026-05-04T10:33:05.935Z</time></trkpt><trkpt lat="45.6979929" lon="8.72105"><ele>309.0</ele><time>2026-05-04T10:33:07.935Z</time></trkpt><trkpt lat="45.6978734" lon="8.7210829"><ele>309.0</ele><time>2026-05-04T10:33:09.935Z</time></trkpt><trkpt lat="45.697772" lon="8.7211202"><ele>309.0</ele><time>2026-05-04T10:33:11.934Z</time></trkpt><trkpt lat="45.6976551" lon="8.7211023"><ele>309.8</ele><time>2026-05-04T10:33:13.934Z</time></trkpt><trkpt lat="45.6975929" lon="8.7210766"><ele>310.59999999999997</ele><time>2026-05-04T10:33:14.935Z</time></trkpt><trkpt lat="45.6974872" lon="8.7209926"><ele>311.4</ele><time>2026-05-04T10:33:16.935Z</time></trkpt><trkpt lat="45.6973863" lon="8.7208981"><ele>312.2</ele><time>2026-05-04T10:33:18.934Z</time></trkpt><trkpt lat="45.6973053" lon="8.7208293"><ele>313.0</ele><time>2026-05-04T10:33:20.934Z</time></trkpt><trkpt lat="45.6972434" lon="8.7207593"><ele>313.0</ele><time>2026-05-04T10:33:22.935Z</time></trkpt><trkpt lat="45.6971817" lon="8.7206543"><ele>313.0</ele><time>2026-05-04T10:33:24.935Z</time></trkpt><trkpt lat="45.6971108" lon="8.7205637"><ele>313.0</ele><time>2026-05-04T10:33:26.935Z</time></trkpt><trkpt lat="45.6970372" lon="8.7204754"><ele>313.0</ele><time>2026-05-04T10:33:28.935Z</time></trkpt><trkpt lat="45.696969" lon="8.7203964"><ele>313.0</ele><time>2026-05-04T10:33:30.935Z</time></trkpt><trkpt lat="45.6969168" lon="8.7203356"><ele>313.0</ele><time>2026-05-04T10:33:31.935Z</time></trkpt><trkpt lat="45.6968694" lon="8.7202662"><ele>312.6</ele><time>2026-05-04T10:33:32.935Z</time></trkpt><trkpt lat="45.6967981" lon="8.7201485"><ele>312.20000000000005</ele><time>2026-05-04T10:33:34.935Z</time></trkpt><trkpt lat="45.6967304" lon="8.7200353"><ele>311.8</ele><time>2026-05-04T10:33:36.935Z</time></trkpt><trkpt lat="45.6966568" lon="8.7198977"><ele>311.40000000000003</ele><time>2026-05-04T10:33:38.935Z</time></trkpt><trkpt lat="45.6965898" lon="8.7197712"><ele>311.0</ele><time>2026-05-04T10:33:40.935Z</time></trkpt><trkpt lat="45.6965317" lon="8.7196532"><ele>311.0</ele><time>2026-05-04T10:33:42.935Z</time></trkpt><trkpt lat="45.696488" lon="8.7195558"><ele>311.0</ele><time>2026-05-04T10:33:44.935Z</time></trkpt><trkpt lat="45.6964313" lon="8.7194475"><ele>311.0</ele><time>2026-05-04T10:33:46.934Z</time></trkpt><trkpt lat="45.6963984" lon="8.7193564"><ele>311.0</ele><time>2026-05-04T10:33:47.935Z</time></trkpt><trkpt lat="45.6963451" lon="8.7192574"><ele>311.0</ele><time>2026-05-04T10:33:49.934Z</time></trkpt><trkpt lat="45.6962803" lon="8.7191605"><ele>311.0</ele><time>2026-05-04T10:33:51.935Z</time></trkpt><trkpt lat="45.6962193" lon="8.7190536"><ele>311.0</ele><time>2026-05-04T10:33:53.935Z</time></trkpt><trkpt lat="45.6961623" lon="8.7189479"><ele>311.0</ele><time>2026-05-04T10:33:55.935Z</time></trkpt><trkpt lat="45.6960983" lon="8.7188307"><ele>311.0</ele><time>2026-05-04T10:33:57.935Z</time></trkpt><trkpt lat="45.6960454" lon="8.7186743"><ele>311.0</ele><time>2026-05-04T10:33:59.935Z</time></trkpt><trkpt lat="45.6959496" lon="8.7186952"><ele>311.0</ele><time>2026-05-04T10:34:02.935Z</time></trkpt><trkpt lat="45.6958701" lon="8.7187322"><ele>310.83333333333337</ele><time>2026-05-04T10:34:04.935Z</time></trkpt><trkpt lat="45.6958067" lon="8.7187437"><ele>310.6666666666667</ele><time>2026-05-04T10:34:05.935Z</time></trkpt><trkpt lat="45.6957229" lon="8.7187613"><ele>310.5</ele><time>2026-05-04T10:34:07.935Z</time></trkpt><trkpt lat="45.6956293" lon="8.71876"><ele>310.3333333333333</ele><time>2026-05-04T10:34:09.935Z</time></trkpt><trkpt lat="45.6955581" lon="8.7187281"><ele>310.16666666666663</ele><time>2026-05-04T10:34:10.935Z</time></trkpt><trkpt lat="45.6954654" lon="8.7186712"><ele>310.0</ele><time>2026-05-04T10:34:12.935Z</time></trkpt><trkpt lat="45.6953906" lon="8.7186356"><ele>310.0</ele><time>2026-05-04T10:34:14.935Z</time></trkpt><trkpt lat="45.6952971" lon="8.7186019"><ele>310.0</ele><time>2026-05-04T10:34:16.935Z</time></trkpt><trkpt lat="45.6952283" lon="8.7185617"><ele>310.0</ele><time>2026-05-04T10:34:18.935Z</time></trkpt><trkpt lat="45.6951625" lon="8.7185342"><ele>310.0</ele><time>2026-05-04T10:34:20.935Z</time></trkpt><trkpt lat="45.6950338" lon="8.7185043"><ele>310.0</ele><time>2026-05-04T10:34:22.935Z</time></trkpt><trkpt lat="45.6949499" lon="8.7184844"><ele>310.0</ele><time>2026-05-04T10:34:23.935Z</time></trkpt><trkpt lat="45.6948858" lon="8.7184605"><ele>310.0</ele><time>2026-05-04T10:34:24.935Z</time></trkpt><trkpt lat="45.6948191" lon="8.7184886"><ele>310.0</ele><time>2026-05-04T10:34:25.935Z</time></trkpt><trkpt lat="45.6947071" lon="8.7183952"><ele>310.0</ele><time>2026-05-04T10:34:27.935Z</time></trkpt><trkpt lat="45.694609" lon="8.7184148"><ele>310.0</ele><time>2026-05-04T10:34:29.935Z</time></trkpt><trkpt lat="45.6945211" lon="8.7184433"><ele>310.0</ele><time>2026-05-04T10:34:31.935Z</time></trkpt><trkpt lat="45.6944355" lon="8.7184684"><ele>310.0</ele><time>2026-05-04T10:34:32.935Z</time></trkpt><trkpt lat="45.6943335" lon="8.7185329"><ele>310.0</ele><time>2026-05-04T10:34:34.935Z</time></trkpt><trkpt lat="45.6942745" lon="8.7185646"><ele>310.0</ele><time>2026-05-04T10:34:35.935Z</time></trkpt><trkpt lat="45.6942001" lon="8.7185941"><ele>310.0</ele><time>2026-05-04T10:34:36.935Z</time></trkpt><trkpt lat="45.6941443" lon="8.718637"><ele>310.0</ele><time>2026-05-04T10:34:37.935Z</time></trkpt><trkpt lat="45.6940829" lon="8.7186721"><ele>308.4</ele><time>2026-05-04T10:34:38.934Z</time></trkpt><trkpt lat="45.6940203" lon="8.7187173"><ele>306.8</ele><time>2026-05-04T10:34:39.935Z</time></trkpt><trkpt lat="45.6939047" lon="8.7188045"><ele>305.2</ele><time>2026-05-04T10:34:41.935Z</time></trkpt><trkpt lat="45.6938016" lon="8.7188836"><ele>303.6</ele><time>2026-05-04T10:34:43.935Z</time></trkpt><trkpt lat="45.6937024" lon="8.7189528"><ele>302.0</ele><time>2026-05-04T10:34:45.935Z</time></trkpt><trkpt lat="45.6935988" lon="8.7190193"><ele>300.8</ele><time>2026-05-04T10:34:47.935Z</time></trkpt><trkpt lat="45.6935048" lon="8.7191149"><ele>299.6</ele><time>2026-05-04T10:34:49.935Z</time></trkpt><trkpt lat="45.6934156" lon="8.719216"><ele>298.40000000000003</ele><time>2026-05-04T10:34:51.935Z</time></trkpt><trkpt lat="45.6933202" lon="8.7192905"><ele>297.2</ele><time>2026-05-04T10:34:53.935Z</time></trkpt><trkpt lat="45.6932429" lon="8.7193405"><ele>296.0</ele><time>2026-05-04T10:34:55.935Z</time></trkpt><trkpt lat="45.6931795" lon="8.7193656"><ele>296.5</ele><time>2026-05-04T10:34:58.935Z</time></trkpt><trkpt lat="45.6931768" lon="8.7194671"><ele>297.0</ele><time>2026-05-04T10:35:31.935Z</time></trkpt><trkpt lat="45.6932189" lon="8.7195696"><ele>297.5</ele><time>2026-05-04T10:35:35.934Z</time></trkpt><trkpt lat="45.6932508" lon="8.7196737"><ele>298.0</ele><time>2026-05-04T10:35:38.935Z</time></trkpt><trkpt lat="45.693275" lon="8.7197624"><ele>298.5</ele><time>2026-05-04T10:35:40.935Z</time></trkpt><trkpt lat="45.6933099" lon="8.7198486"><ele>299.0</ele><time>2026-05-04T10:35:42.935Z</time></trkpt><trkpt lat="45.6933503" lon="8.7199611"><ele>299.0</ele><time>2026-05-04T10:35:45.935Z</time></trkpt><trkpt lat="45.6933923" lon="8.7200792"><ele>299.0</ele><time>2026-05-04T10:35:48.935Z</time></trkpt><trkpt lat="45.6934274" lon="8.7201866"><ele>299.0</ele><time>2026-05-04T10:35:51.935Z</time></trkpt><trkpt lat="45.6934662" lon="8.7202893"><ele>299.0</ele><time>2026-05-04T10:36:10.934Z</time></trkpt><trkpt lat="45.6934975" lon="8.7204069"><ele>299.0</ele><time>2026-05-04T10:36:13.934Z</time></trkpt><trkpt lat="45.6935153" lon="8.7205167"><ele>299.0</ele><time>2026-05-04T10:36:16.933Z</time></trkpt><trkpt lat="45.6934807" lon="8.7204079"><ele>299.0</ele><time>2026-05-04T10:36:31.934Z</time></trkpt><trkpt lat="45.6934577" lon="8.7203099"><ele>299.0</ele><time>2026-05-04T10:36:33.934Z</time></trkpt><trkpt lat="45.6934405" lon="8.7202027"><ele>299.0</ele><time>2026-05-04T10:36:35.934Z</time></trkpt><trkpt lat="45.6934138" lon="8.7200938"><ele>299.0</ele><time>2026-05-04T10:36:37.934Z</time></trkpt><trkpt lat="45.693355" lon="8.7199939"><ele>299.0</ele><time>2026-05-04T10:36:39.933Z</time></trkpt><trkpt lat="45.6933175" lon="8.719886"><ele>299.0</ele><time>2026-05-04T10:36:41.934Z</time></trkpt><trkpt lat="45.693286" lon="8.7197864"><ele>299.0</ele><time>2026-05-04T10:36:43.934Z</time></trkpt><trkpt lat="45.6932569" lon="8.7196936"><ele>299.0</ele><time>2026-05-04T10:36:45.934Z</time></trkpt><trkpt lat="45.6932305" lon="8.7196111"><ele>299.0</ele><time>2026-05-04T10:36:47.934Z</time></trkpt><trkpt lat="45.6931911" lon="8.7194877"><ele>299.0</ele><time>2026-05-04T10:36:50.934Z</time></trkpt><trkpt lat="45.6931607" lon="8.7194052"><ele>299.0</ele><time>2026-05-04T10:37:19.934Z</time></trkpt><trkpt lat="45.6930949" lon="8.7193835"><ele>299.0</ele><time>2026-05-04T10:37:23.934Z</time></trkpt><trkpt lat="45.6930313" lon="8.7194001"><ele>299.0</ele><time>2026-05-04T10:37:26.933Z</time></trkpt><trkpt lat="45.6929611" lon="8.7194165"><ele>299.0</ele><time>2026-05-04T10:37:29.934Z</time></trkpt><trkpt lat="45.6928887" lon="8.7194387"><ele>299.0</ele><time>2026-05-04T10:37:32.934Z</time></trkpt><trkpt lat="45.6928107" lon="8.7194484"><ele>299.0</ele><time>2026-05-04T10:37:35.934Z</time></trkpt><trkpt lat="45.6927382" lon="8.7194833"><ele>299.0</ele><time>2026-05-04T10:37:38.934Z</time></trkpt><trkpt lat="45.6926529" lon="8.7194729"><ele>299.0</ele><time>2026-05-04T10:37:41.933Z</time></trkpt><trkpt lat="45.6925626" lon="8.7194894"><ele>299.0</ele><time>2026-05-04T10:37:44.934Z</time></trkpt><trkpt lat="45.6924997" lon="8.7195"><ele>299.0</ele><time>2026-05-04T10:37:46.934Z</time></trkpt><trkpt lat="45.6924343" lon="8.7195122"><ele>299.0</ele><time>2026-05-04T10:37:48.934Z</time></trkpt><trkpt lat="45.6923684" lon="8.7195278"><ele>299.0</ele><time>2026-05-04T10:37:50.933Z</time></trkpt><trkpt lat="45.6922978" lon="8.7195381"><ele>299.0</ele><time>2026-05-04T10:37:52.934Z</time></trkpt><trkpt lat="45.692228" lon="8.7195567"><ele>299.0</ele><time>2026-05-04T10:37:54.934Z</time></trkpt><trkpt lat="45.6921602" lon="8.7195788"><ele>299.0</ele><time>2026-05-04T10:37:56.934Z</time></trkpt><trkpt lat="45.6920916" lon="8.7195977"><ele>299.0</ele><time>2026-05-04T10:37:58.934Z</time></trkpt><trkpt lat="45.6920213" lon="8.7196116"><ele>299.0</ele><time>2026-05-04T10:38:00.933Z</time></trkpt><trkpt lat="45.6919519" lon="8.7196132"><ele>299.0</ele><time>2026-05-04T10:38:02.934Z</time></trkpt><trkpt lat="45.6918774" lon="8.7196363"><ele>299.0</ele><time>2026-05-04T10:38:04.934Z</time></trkpt><trkpt lat="45.6917833" lon="8.7196428"><ele>299.0</ele><time>2026-05-04T10:38:06.933Z</time></trkpt><trkpt lat="45.6916731" lon="8.7196402"><ele>299.0</ele><time>2026-05-04T10:38:08.934Z</time></trkpt><trkpt lat="45.6915674" lon="8.7196488"><ele>298.4</ele><time>2026-05-04T10:38:10.934Z</time></trkpt><trkpt lat="45.6915085" lon="8.7196855"><ele>297.79999999999995</ele><time>2026-05-04T10:38:11.934Z</time></trkpt><trkpt lat="45.6913933" lon="8.7197208"><ele>297.20000000000005</ele><time>2026-05-04T10:38:13.934Z</time></trkpt><trkpt lat="45.6912831" lon="8.7197493"><ele>296.6</ele><time>2026-05-04T10:38:15.934Z</time></trkpt><trkpt lat="45.6912159" lon="8.719759"><ele>296.0</ele><time>2026-05-04T10:38:16.934Z</time></trkpt><trkpt lat="45.6911008" lon="8.7197726"><ele>296.2</ele><time>2026-05-04T10:38:18.934Z</time></trkpt><trkpt lat="45.6909882" lon="8.7197975"><ele>296.40000000000003</ele><time>2026-05-04T10:38:20.933Z</time></trkpt><trkpt lat="45.6908944" lon="8.7198086"><ele>296.6</ele><time>2026-05-04T10:38:22.934Z</time></trkpt><trkpt lat="45.6907911" lon="8.7198344"><ele>296.8</ele><time>2026-05-04T10:38:24.935Z</time></trkpt><trkpt lat="45.6906866" lon="8.7198722"><ele>297.0</ele><time>2026-05-04T10:38:26.934Z</time></trkpt><trkpt lat="45.6905863" lon="8.71991"><ele>297.0</ele><time>2026-05-04T10:38:28.934Z</time></trkpt><trkpt lat="45.6904929" lon="8.7199634"><ele>297.0</ele><time>2026-05-04T10:38:30.934Z</time></trkpt><trkpt lat="45.6904097" lon="8.720018"><ele>297.0</ele><time>2026-05-04T10:38:32.934Z</time></trkpt><trkpt lat="45.6903256" lon="8.720064"><ele>297.0</ele><time>2026-05-04T10:38:34.934Z</time></trkpt><trkpt lat="45.6902355" lon="8.7201264"><ele>297.0</ele><time>2026-05-04T10:38:36.934Z</time></trkpt><trkpt lat="45.6901482" lon="8.72021"><ele>297.8</ele><time>2026-05-04T10:38:38.934Z</time></trkpt><trkpt lat="45.6900649" lon="8.7203012"><ele>298.6</ele><time>2026-05-04T10:38:40.934Z</time></trkpt><trkpt lat="45.6899876" lon="8.7204029"><ele>299.40000000000003</ele><time>2026-05-04T10:38:42.934Z</time></trkpt><trkpt lat="45.6899077" lon="8.7205041"><ele>300.2</ele><time>2026-05-04T10:38:44.934Z</time></trkpt><trkpt lat="45.6898315" lon="8.7206141"><ele>301.0</ele><time>2026-05-04T10:38:46.934Z</time></trkpt><trkpt lat="45.6897529" lon="8.7207206"><ele>301.0</ele><time>2026-05-04T10:38:48.934Z</time></trkpt><trkpt lat="45.6896723" lon="8.7208346"><ele>301.0</ele><time>2026-05-04T10:38:50.934Z</time></trkpt><trkpt lat="45.6895792" lon="8.720933"><ele>301.0</ele><time>2026-05-04T10:38:52.934Z</time></trkpt><trkpt lat="45.6894654" lon="8.7209804"><ele>301.0</ele><time>2026-05-04T10:38:54.934Z</time></trkpt><trkpt lat="45.6893372" lon="8.7209846"><ele>300.3333333333333</ele><time>2026-05-04T10:38:56.934Z</time></trkpt><trkpt lat="45.6892672" lon="8.7209622"><ele>299.66666666666663</ele><time>2026-05-04T10:38:57.934Z</time></trkpt><trkpt lat="45.6891552" lon="8.7209293"><ele>299.0</ele><time>2026-05-04T10:38:59.934Z</time></trkpt><trkpt lat="45.6890869" lon="8.7209065"><ele>298.3333333333333</ele><time>2026-05-04T10:39:00.934Z</time></trkpt><trkpt lat="45.6890332" lon="8.7208231"><ele>297.6666666666667</ele><time>2026-05-04T10:39:01.934Z</time></trkpt><trkpt lat="45.6889852" lon="8.7207529"><ele>297.0</ele><time>2026-05-04T10:39:02.934Z</time></trkpt><trkpt lat="45.6889192" lon="8.7206092"><ele>297.0</ele><time>2026-05-04T10:39:04.934Z</time></trkpt><trkpt lat="45.6888662" lon="8.7204614"><ele>297.0</ele><time>2026-05-04T10:39:06.934Z</time></trkpt><trkpt lat="45.6888217" lon="8.7203079"><ele>297.0</ele><time>2026-05-04T10:39:08.934Z</time></trkpt><trkpt lat="45.6887939" lon="8.720159"><ele>297.0</ele><time>2026-05-04T10:39:10.933Z</time></trkpt><trkpt lat="45.6887659" lon="8.7200237"><ele>297.0</ele><time>2026-05-04T10:39:12.934Z</time></trkpt><trkpt lat="45.6887305" lon="8.7199011"><ele>296.3333333333333</ele><time>2026-05-04T10:39:14.934Z</time></trkpt><trkpt lat="45.6886858" lon="8.7198057"><ele>295.6666666666667</ele><time>2026-05-04T10:39:16.934Z</time></trkpt><trkpt lat="45.6886289" lon="8.7197479"><ele>295.0</ele><time>2026-05-04T10:39:18.934Z</time></trkpt><trkpt lat="45.688561" lon="8.7197203"><ele>294.33333333333337</ele><time>2026-05-04T10:39:20.934Z</time></trkpt><trkpt lat="45.6884818" lon="8.7197222"><ele>293.6666666666667</ele><time>2026-05-04T10:39:22.934Z</time></trkpt><trkpt lat="45.6884005" lon="8.7197136"><ele>293.0</ele><time>2026-05-04T10:39:24.934Z</time></trkpt><trkpt lat="45.6883191" lon="8.7196967"><ele>292.33333333333337</ele><time>2026-05-04T10:39:26.934Z</time></trkpt><trkpt lat="45.6882477" lon="8.7196337"><ele>291.6666666666667</ele><time>2026-05-04T10:39:28.934Z</time></trkpt><trkpt lat="45.6882102" lon="8.7195294"><ele>291.0</ele><time>2026-05-04T10:39:30.934Z</time></trkpt><trkpt lat="45.6881811" lon="8.7194236"><ele>290.3333333333333</ele><time>2026-05-04T10:39:32.934Z</time></trkpt><trkpt lat="45.6881439" lon="8.7193285"><ele>289.66666666666663</ele><time>2026-05-04T10:39:34.934Z</time></trkpt><trkpt lat="45.688107" lon="8.7192314"><ele>289.0</ele><time>2026-05-04T10:39:36.934Z</time></trkpt><trkpt lat="45.6880674" lon="8.7191322"><ele>288.8</ele><time>2026-05-04T10:39:38.934Z</time></trkpt><trkpt lat="45.6880201" lon="8.7190355"><ele>288.59999999999997</ele><time>2026-05-04T10:39:40.934Z</time></trkpt><trkpt lat="45.6879931" lon="8.7189245"><ele>288.4</ele><time>2026-05-04T10:39:42.933Z</time></trkpt><trkpt lat="45.6879652" lon="8.7188041"><ele>288.2</ele><time>2026-05-04T10:39:44.934Z</time></trkpt><trkpt lat="45.6879161" lon="8.7186748"><ele>288.0</ele><time>2026-05-04T10:39:46.934Z</time></trkpt><trkpt lat="45.6878626" lon="8.7185388"><ele>288.8333333333333</ele><time>2026-05-04T10:39:48.934Z</time></trkpt><trkpt lat="45.687825" lon="8.7184204"><ele>289.6666666666667</ele><time>2026-05-04T10:39:50.934Z</time></trkpt><trkpt lat="45.6877887" lon="8.7183062"><ele>290.5</ele><time>2026-05-04T10:39:52.934Z</time></trkpt><trkpt lat="45.6877518" lon="8.7181954"><ele>291.33333333333337</ele><time>2026-05-04T10:39:54.934Z</time></trkpt><trkpt lat="45.6877292" lon="8.7180827"><ele>292.1666666666667</ele><time>2026-05-04T10:39:56.934Z</time></trkpt><trkpt lat="45.6877143" lon="8.7179599"><ele>293.0</ele><time>2026-05-04T10:39:58.934Z</time></trkpt><trkpt lat="45.6877107" lon="8.7178197"><ele>293.5</ele><time>2026-05-04T10:40:00.934Z</time></trkpt><trkpt lat="45.687697" lon="8.7176705"><ele>294.0</ele><time>2026-05-04T10:40:02.934Z</time></trkpt><trkpt lat="45.6876998" lon="8.7175012"><ele>294.5</ele><time>2026-05-04T10:40:04.934Z</time></trkpt><trkpt lat="45.6877096" lon="8.7173366"><ele>295.0</ele><time>2026-05-04T10:40:06.934Z</time></trkpt><trkpt lat="45.6877265" lon="8.717179"><ele>295.0</ele><time>2026-05-04T10:40:08.934Z</time></trkpt><trkpt lat="45.6877309" lon="8.7170195"><ele>295.0</ele><time>2026-05-04T10:40:10.934Z</time></trkpt><trkpt lat="45.6877289" lon="8.7168598"><ele>295.0</ele><time>2026-05-04T10:40:12.934Z</time></trkpt><trkpt lat="45.6877321" lon="8.716698"><ele>295.0</ele><time>2026-05-04T10:40:14.933Z</time></trkpt><trkpt lat="45.6877385" lon="8.7165394"><ele>295.0</ele><time>2026-05-04T10:40:16.934Z</time></trkpt><trkpt lat="45.6877385" lon="8.7163836"><ele>294.8</ele><time>2026-05-04T10:40:18.934Z</time></trkpt><trkpt lat="45.6877436" lon="8.7162307"><ele>294.6</ele><time>2026-05-04T10:40:20.934Z</time></trkpt><trkpt lat="45.6877405" lon="8.716075"><ele>294.4</ele><time>2026-05-04T10:40:22.934Z</time></trkpt><trkpt lat="45.6877432" lon="8.7159213"><ele>294.2</ele><time>2026-05-04T10:40:24.934Z</time></trkpt><trkpt lat="45.6877495" lon="8.7157836"><ele>294.0</ele><time>2026-05-04T10:40:26.934Z</time></trkpt><trkpt lat="45.6877522" lon="8.7156555"><ele>294.2</ele><time>2026-05-04T10:40:28.934Z</time></trkpt><trkpt lat="45.6877613" lon="8.715529"><ele>294.4</ele><time>2026-05-04T10:40:30.934Z</time></trkpt><trkpt lat="45.6877916" lon="8.7153995"><ele>294.6</ele><time>2026-05-04T10:40:32.934Z</time></trkpt><trkpt lat="45.6878324" lon="8.7152806"><ele>294.8</ele><time>2026-05-04T10:40:34.934Z</time></trkpt><trkpt lat="45.6878787" lon="8.7151538"><ele>295.0</ele><time>2026-05-04T10:40:36.934Z</time></trkpt><trkpt lat="45.6879127" lon="8.7150216"><ele>295.0</ele><time>2026-05-04T10:40:38.934Z</time></trkpt><trkpt lat="45.6879444" lon="8.714888"><ele>295.0</ele><time>2026-05-04T10:40:40.934Z</time></trkpt><trkpt lat="45.6879795" lon="8.7147614"><ele>295.0</ele><time>2026-05-04T10:40:42.934Z</time></trkpt><trkpt lat="45.6880193" lon="8.7146201"><ele>295.0</ele><time>2026-05-04T10:40:44.934Z</time></trkpt><trkpt lat="45.6880554" lon="8.714461"><ele>295.0</ele><time>2026-05-04T10:40:46.934Z</time></trkpt><trkpt lat="45.6880807" lon="8.7143773"><ele>295.0</ele><time>2026-05-04T10:40:47.932Z</time></trkpt><trkpt lat="45.6881352" lon="8.7142232"><ele>295.0</ele><time>2026-05-04T10:40:49.934Z</time></trkpt><trkpt lat="45.688181" lon="8.7140619"><ele>295.0</ele><time>2026-05-04T10:40:51.934Z</time></trkpt><trkpt lat="45.6882251" lon="8.7139074"><ele>295.0</ele><time>2026-05-04T10:40:53.933Z</time></trkpt><trkpt lat="45.688265" lon="8.7137506"><ele>295.0</ele><time>2026-05-04T10:40:55.934Z</time></trkpt><trkpt lat="45.6882828" lon="8.7135881"><ele>295.0</ele><time>2026-05-04T10:40:57.934Z</time></trkpt><trkpt lat="45.6882613" lon="8.713426"><ele>295.0</ele><time>2026-05-04T10:40:59.933Z</time></trkpt><trkpt lat="45.6881939" lon="8.7132865"><ele>295.0</ele><time>2026-05-04T10:41:01.934Z</time></trkpt><trkpt lat="45.6881108" lon="8.713161"><ele>294.5</ele><time>2026-05-04T10:41:03.934Z</time></trkpt><trkpt lat="45.6880239" lon="8.7130372"><ele>294.0</ele><time>2026-05-04T10:41:05.934Z</time></trkpt><trkpt lat="45.6879348" lon="8.7129149"><ele>293.5</ele><time>2026-05-04T10:41:07.934Z</time></trkpt><trkpt lat="45.6878477" lon="8.7127971"><ele>293.0</ele><time>2026-05-04T10:41:09.934Z</time></trkpt><trkpt lat="45.6877591" lon="8.7126829"><ele>292.8</ele><time>2026-05-04T10:41:11.934Z</time></trkpt><trkpt lat="45.6877494" lon="8.7125178"><ele>292.6</ele><time>2026-05-04T10:41:13.934Z</time></trkpt><trkpt lat="45.6878363" lon="8.7124182"><ele>292.4</ele><time>2026-05-04T10:41:15.934Z</time></trkpt><trkpt lat="45.6879441" lon="8.7123629"><ele>292.2</ele><time>2026-05-04T10:41:17.934Z</time></trkpt><trkpt lat="45.6880477" lon="8.712342"><ele>292.0</ele><time>2026-05-04T10:41:19.934Z</time></trkpt><trkpt lat="45.688116" lon="8.712353"><ele>292.0</ele><time>2026-05-04T10:41:20.934Z</time></trkpt><trkpt lat="45.6881803" lon="8.7123511"><ele>292.0</ele><time>2026-05-04T10:41:21.933Z</time></trkpt><trkpt lat="45.6882869" lon="8.7123063"><ele>292.0</ele><time>2026-05-04T10:41:23.934Z</time></trkpt><trkpt lat="45.6883479" lon="8.7122763"><ele>292.0</ele><time>2026-05-04T10:41:24.934Z</time></trkpt><trkpt lat="45.6884484" lon="8.7122343"><ele>292.0</ele><time>2026-05-04T10:41:26.934Z</time></trkpt><trkpt lat="45.688541" lon="8.7121696"><ele>292.0</ele><time>2026-05-04T10:41:28.934Z</time></trkpt><trkpt lat="45.6886015" lon="8.7121422"><ele>292.8</ele><time>2026-05-04T10:41:29.934Z</time></trkpt><trkpt lat="45.6886697" lon="8.7121307"><ele>293.6</ele><time>2026-05-04T10:41:30.934Z</time></trkpt><trkpt lat="45.6887875" lon="8.7120967"><ele>294.40000000000003</ele><time>2026-05-04T10:41:32.934Z</time></trkpt><trkpt lat="45.6889049" lon="8.7120595"><ele>295.2</ele><time>2026-05-04T10:41:34.934Z</time></trkpt><trkpt lat="45.6890132" lon="8.712018"><ele>296.0</ele><time>2026-05-04T10:41:36.934Z</time></trkpt><trkpt lat="45.6891264" lon="8.7119824"><ele>296.0</ele><time>2026-05-04T10:41:38.934Z</time></trkpt><trkpt lat="45.689236" lon="8.7119509"><ele>296.0</ele><time>2026-05-04T10:41:40.934Z</time></trkpt><trkpt lat="45.689343" lon="8.7119042"><ele>296.0</ele><time>2026-05-04T10:41:42.934Z</time></trkpt><trkpt lat="45.6894414" lon="8.7118653"><ele>296.0</ele><time>2026-05-04T10:41:44.933Z</time></trkpt><trkpt lat="45.689542" lon="8.7118241"><ele>296.0</ele><time>2026-05-04T10:41:46.934Z</time></trkpt><trkpt lat="45.689648" lon="8.7117906"><ele>295.8</ele><time>2026-05-04T10:41:48.934Z</time></trkpt><trkpt lat="45.6897425" lon="8.7117556"><ele>295.6</ele><time>2026-05-04T10:41:50.934Z</time></trkpt><trkpt lat="45.6898335" lon="8.7117098"><ele>295.4</ele><time>2026-05-04T10:41:52.933Z</time></trkpt><trkpt lat="45.6899201" lon="8.7116433"><ele>295.2</ele><time>2026-05-04T10:41:54.934Z</time></trkpt><trkpt lat="45.6900141" lon="8.7116188"><ele>295.0</ele><time>2026-05-04T10:41:56.933Z</time></trkpt><trkpt lat="45.6901097" lon="8.7115809"><ele>295.0</ele><time>2026-05-04T10:41:58.934Z</time></trkpt><trkpt lat="45.6902095" lon="8.7115608"><ele>295.0</ele><time>2026-05-04T10:42:00.934Z</time></trkpt><trkpt lat="45.6903121" lon="8.7115444"><ele>295.0</ele><time>2026-05-04T10:42:02.934Z</time></trkpt><trkpt lat="45.6904094" lon="8.7115124"><ele>295.0</ele><time>2026-05-04T10:42:04.934Z</time></trkpt><trkpt lat="45.6905086" lon="8.7114608"><ele>295.0</ele><time>2026-05-04T10:42:06.934Z</time></trkpt><trkpt lat="45.6905711" lon="8.7113968"><ele>295.0</ele><time>2026-05-04T10:42:08.933Z</time></trkpt><trkpt lat="45.6906551" lon="8.7113428"><ele>295.0</ele><time>2026-05-04T10:42:10.934Z</time></trkpt><trkpt lat="45.6907413" lon="8.7112835"><ele>295.0</ele><time>2026-05-04T10:42:12.934Z</time></trkpt><trkpt lat="45.6908175" lon="8.7112401"><ele>295.0</ele><time>2026-05-04T10:42:14.934Z</time></trkpt><trkpt lat="45.6909118" lon="8.7112135"><ele>295.0</ele><time>2026-05-04T10:42:16.934Z</time></trkpt><trkpt lat="45.6910179" lon="8.711183"><ele>295.0</ele><time>2026-05-04T10:42:19.934Z</time></trkpt><trkpt lat="45.6911251" lon="8.7111279"><ele>295.0</ele><time>2026-05-04T10:42:21.934Z</time></trkpt><trkpt lat="45.6911728" lon="8.7110108"><ele>295.0</ele><time>2026-05-04T10:42:23.934Z</time></trkpt><trkpt lat="45.6911575" lon="8.7109018"><ele>295.0</ele><time>2026-05-04T10:42:25.934Z</time></trkpt><trkpt lat="45.6911256" lon="8.7107874"><ele>295.0</ele><time>2026-05-04T10:42:27.933Z</time></trkpt><trkpt lat="45.6911095" lon="8.7106576"><ele>294.8</ele><time>2026-05-04T10:42:29.934Z</time></trkpt><trkpt lat="45.6910974" lon="8.7105245"><ele>294.6</ele><time>2026-05-04T10:42:31.934Z</time></trkpt><trkpt lat="45.6910856" lon="8.7103834"><ele>294.4</ele><time>2026-05-04T10:42:33.934Z</time></trkpt><trkpt lat="45.6910643" lon="8.7102388"><ele>294.2</ele><time>2026-05-04T10:42:35.934Z</time></trkpt><trkpt lat="45.6910254" lon="8.7100963"><ele>294.0</ele><time>2026-05-04T10:42:37.934Z</time></trkpt><trkpt lat="45.6909783" lon="8.7099506"><ele>294.0</ele><time>2026-05-04T10:42:39.934Z</time></trkpt><trkpt lat="45.690927" lon="8.7098092"><ele>294.0</ele><time>2026-05-04T10:42:41.934Z</time></trkpt><trkpt lat="45.6908709" lon="8.709683"><ele>294.0</ele><time>2026-05-04T10:42:43.934Z</time></trkpt><trkpt lat="45.6908144" lon="8.7095555"><ele>294.0</ele><time>2026-05-04T10:42:45.934Z</time></trkpt><trkpt lat="45.6907615" lon="8.7094296"><ele>294.0</ele><time>2026-05-04T10:42:47.934Z</time></trkpt><trkpt lat="45.6907048" lon="8.7093076"><ele>294.0</ele><time>2026-05-04T10:42:49.933Z</time></trkpt><trkpt lat="45.6906441" lon="8.7091845"><ele>294.0</ele><time>2026-05-04T10:42:51.934Z</time></trkpt><trkpt lat="45.690589" lon="8.7090556"><ele>294.0</ele><time>2026-05-04T10:42:53.934Z</time></trkpt><trkpt lat="45.6905371" lon="8.7089286"><ele>294.0</ele><time>2026-05-04T10:42:55.934Z</time></trkpt><trkpt lat="45.6904845" lon="8.708802"><ele>294.0</ele><time>2026-05-04T10:42:57.934Z</time></trkpt><trkpt lat="45.6904316" lon="8.7086917"><ele>293.4</ele><time>2026-05-04T10:42:59.934Z</time></trkpt><trkpt lat="45.6903683" lon="8.7085744"><ele>292.79999999999995</ele><time>2026-05-04T10:43:01.934Z</time></trkpt><trkpt lat="45.6903121" lon="8.7084536"><ele>292.20000000000005</ele><time>2026-05-04T10:43:03.934Z</time></trkpt><trkpt lat="45.6902438" lon="8.7083451"><ele>291.6</ele><time>2026-05-04T10:43:05.934Z</time></trkpt><trkpt lat="45.6902146" lon="8.7081925"><ele>291.0</ele><time>2026-05-04T10:43:07.934Z</time></trkpt><trkpt lat="45.6901714" lon="8.7080684"><ele>292.40000000000003</ele><time>2026-05-04T10:43:09.934Z</time></trkpt><trkpt lat="45.690121" lon="8.7079693"><ele>293.8</ele><time>2026-05-04T10:43:11.934Z</time></trkpt><trkpt lat="45.6900376" lon="8.7079461"><ele>295.20000000000005</ele><time>2026-05-04T10:43:13.934Z</time></trkpt><trkpt lat="45.6899404" lon="8.707949"><ele>296.6</ele><time>2026-05-04T10:43:15.934Z</time></trkpt><trkpt lat="45.68985" lon="8.7079433"><ele>298.0</ele><time>2026-05-04T10:43:17.934Z</time></trkpt><trkpt lat="45.6897564" lon="8.7079365"><ele>298.0</ele><time>2026-05-04T10:43:19.934Z</time></trkpt><trkpt lat="45.6896548" lon="8.7079305"><ele>298.0</ele><time>2026-05-04T10:43:21.933Z</time></trkpt><trkpt lat="45.6895479" lon="8.7078924"><ele>298.0</ele><time>2026-05-04T10:43:23.934Z</time></trkpt><trkpt lat="45.6894527" lon="8.7078585"><ele>298.0</ele><time>2026-05-04T10:43:25.934Z</time></trkpt><trkpt lat="45.689365" lon="8.7077964"><ele>298.0</ele><time>2026-05-04T10:43:27.934Z</time></trkpt><trkpt lat="45.6892803" lon="8.7077326"><ele>297.25</ele><time>2026-05-04T10:43:29.934Z</time></trkpt><trkpt lat="45.6892041" lon="8.7076665"><ele>296.5</ele><time>2026-05-04T10:43:32.934Z</time></trkpt><trkpt lat="45.689075" lon="8.7074267"><ele>295.75</ele><time>2026-05-04T10:43:34.934Z</time></trkpt><trkpt lat="45.6891236" lon="8.7072876"><ele>295.0</ele><time>2026-05-04T10:43:36.934Z</time></trkpt><trkpt lat="45.6891819" lon="8.7071272"><ele>295.00000000000006</ele><time>2026-05-04T10:43:38.934Z</time></trkpt><trkpt lat="45.6892129" lon="8.7070396"><ele>295.0</ele><time>2026-05-04T10:43:39.934Z</time></trkpt><trkpt lat="45.6892488" lon="8.7069568"><ele>295.0</ele><time>2026-05-04T10:43:40.934Z</time></trkpt><trkpt lat="45.6892912" lon="8.7068662"><ele>295.0</ele><time>2026-05-04T10:43:41.934Z</time></trkpt><trkpt lat="45.6893354" lon="8.7067821"><ele>295.0</ele><time>2026-05-04T10:43:42.934Z</time></trkpt><trkpt lat="45.6893819" lon="8.7067007"><ele>295.00000000000006</ele><time>2026-05-04T10:43:43.934Z</time></trkpt><trkpt lat="45.6894335" lon="8.7066252"><ele>295.0</ele><time>2026-05-04T10:43:44.934Z</time></trkpt><trkpt lat="45.6894931" lon="8.7065564"><ele>293.16666666666663</ele><time>2026-05-04T10:43:45.933Z</time></trkpt><trkpt lat="45.6895535" lon="8.7064881"><ele>291.3333333333333</ele><time>2026-05-04T10:43:46.934Z</time></trkpt><trkpt lat="45.689617" lon="8.7064241"><ele>289.5</ele><time>2026-05-04T10:43:47.934Z</time></trkpt><trkpt lat="45.6896841" lon="8.7063612"><ele>287.6666666666667</ele><time>2026-05-04T10:43:48.933Z</time></trkpt><trkpt lat="45.6897509" lon="8.7063009"><ele>285.83333333333337</ele><time>2026-05-04T10:43:49.933Z</time></trkpt><trkpt lat="45.6898187" lon="8.7062393"><ele>284.0</ele><time>2026-05-04T10:43:50.934Z</time></trkpt><trkpt lat="45.689885" lon="8.7061689"><ele>284.0</ele><time>2026-05-04T10:43:51.934Z</time></trkpt><trkpt lat="45.6899495" lon="8.706099"><ele>284.0</ele><time>2026-05-04T10:43:52.934Z</time></trkpt><trkpt lat="45.6900115" lon="8.7060298"><ele>284.0</ele><time>2026-05-04T10:43:53.934Z</time></trkpt><trkpt lat="45.6900736" lon="8.7059665"><ele>284.0</ele><time>2026-05-04T10:43:54.934Z</time></trkpt><trkpt lat="45.6901289" lon="8.7058866"><ele>284.0</ele><time>2026-05-04T10:43:55.934Z</time></trkpt><trkpt lat="45.6901909" lon="8.7058141"><ele>284.0</ele><time>2026-05-04T10:43:56.934Z</time></trkpt><trkpt lat="45.6903064" lon="8.7056967"><ele>284.4</ele><time>2026-05-04T10:43:58.934Z</time></trkpt><trkpt lat="45.6904474" lon="8.7055564"><ele>284.79999999999995</ele><time>2026-05-04T10:44:01.934Z</time></trkpt><trkpt lat="45.6905086" lon="8.7055336"><ele>285.20000000000005</ele><time>2026-05-04T10:44:03.934Z</time></trkpt><trkpt lat="45.6905524" lon="8.705622"><ele>285.6</ele><time>2026-05-04T10:44:06.933Z</time></trkpt><trkpt lat="45.6905553" lon="8.7057339"><ele>286.0</ele><time>2026-05-04T10:44:09.935Z</time></trkpt><trkpt lat="45.6905709" lon="8.7058375"><ele>285.99999999999994</ele><time>2026-05-04T10:44:12.934Z</time></trkpt><trkpt lat="45.6905869" lon="8.7059489"><ele>286.0</ele><time>2026-05-04T10:44:15.935Z</time></trkpt><trkpt lat="45.6906125" lon="8.7060495"><ele>286.0</ele><time>2026-05-04T10:44:18.934Z</time></trkpt><trkpt lat="45.6906314" lon="8.7061411"><ele>286.0</ele><time>2026-05-04T10:44:21.935Z</time></trkpt><trkpt lat="45.6906636" lon="8.7062262"><ele>286.0</ele><time>2026-05-04T10:44:24.934Z</time></trkpt><trkpt lat="45.6907044" lon="8.7063248"><ele>285.99999999999994</ele><time>2026-05-04T10:44:27.934Z</time></trkpt><trkpt lat="45.6907317" lon="8.7064066"><ele>286.0</ele><time>2026-05-04T10:44:30.934Z</time></trkpt><trkpt lat="45.690765" lon="8.7064976"><ele>289.0</ele><time>2026-05-04T10:44:34.934Z</time></trkpt><trkpt lat="45.6907922" lon="8.7065798"><ele>289.0</ele><time>2026-05-04T10:44:38.933Z</time></trkpt></trkseg></trk></gpx>